# Wetter Temperatur Luftdruck Luftfeuchtigkeit Sichtweite Windgeschwindigkeit Windrichtung Zeit
1 Clouds 13 1021 87 10000 1.5 310 07:19 11.07.2020
2 Clouds 13 1020 87 10000 1 0 06:53 11.07.2020
3 Clouds 13 1020 87 10000 1 320 06:20 11.07.2020
4 Clouds 13 1019 87 10000 2.1 330 05:21 11.07.2020
5 Clouds 13 1019 87 10000 2.1 330 04:55 11.07.2020
6 Clouds 13 1019 87 10000 2.1 330 04:32 11.07.2020
7 Clouds 14 1019 82 10000 2.1 330 02:59 11.07.2020
8 Clouds 14 1019 82 10000 2.1 320 02:37 11.07.2020
9 Clouds 14 1019 82 10000 1 0 01:32 11.07.2020
10 Clouds 15 1018 82 10000 2.1 300 00:59 11.07.2020
11 Clouds 15 1018 77 10000 3.1 300 00:40 11.07.2020
12 Clouds 15 1017 77 10000 3.1 300 00:21 11.07.2020
13 Clouds 15 1017 77 10000 3.6 280 23:57 10.07.2020
14 Clouds 15 1017 77 10000 3.6 280 23:39 10.07.2020
15 Clouds 15 1017 77 10000 4.1 290 23:19 10.07.2020
16 Clouds 16 1016 72 10000 4.6 300 22:45 10.07.2020
17 Clouds 16 1015 72 10000 5.1 310 22:21 10.07.2020
18 Clouds 16 1015 72 10000 5.1 310 21:58 10.07.2020
19 Clouds 17 1015 67 10000 6.2 310 21:37 10.07.2020
20 Clouds 18 1014 68 10000 6.7 310 21:18 10.07.2020
21 Clouds 19 1013 63 10000 8.2 310 20:43 10.07.2020
22 Clouds 21 1012 56 10000 8.2 300 20:24 10.07.2020
23 Clouds 23 1012 56 10000 8.2 300 19:59 10.07.2020
24 Clouds 24 1011 44 10000 6.7 290 19:40 10.07.2020
25 Clouds 24 1011 50 10000 6.2 290 19:21 10.07.2020
26 Clouds 24 1011 50 10000 6.2 290 19:21 10.07.2020
27 Clouds 24 1011 50 10000 7.2 290 18:42 10.07.2020
28 Clouds 24 1010 50 10000 7.2 300 18:22 10.07.2020
29 Clouds 25 1010 50 10000 6.2 280 17:59 10.07.2020
30 Clouds 25 1010 50 10000 6.2 280 17:41 10.07.2020
31 Rain 25 1010 47 10000 6.2 270 17:22 10.07.2020
32 Rain 26 1009 39 10000 7.7 260 16:57 10.07.2020
33 Rain 26 1009 39 10000 7.7 260 16:38 10.07.2020
34 Rain 26 1009 39 10000 6.2 270 16:18 10.07.2020
35 Rain 26 1009 42 10000 7.2 270 15:43 10.07.2020
36 Rain 27 1008 44 10000 6.7 280 15:20 10.07.2020
37 Rain 28 1008 39 10000 6.7 250 14:43 10.07.2020
38 Rain 28 1008 39 10000 7.2 230 14:23 10.07.2020
39 Rain 28 1008 37 10000 8.2 240 13:58 10.07.2020
40 Rain 28 1008 37 10000 8.2 240 13:40 10.07.2020
41 Rain 28 1008 35 10000 7.7 220 13:22 10.07.2020
42 Rain 28 1008 35 10000 7.7 220 12:59 10.07.2020
43 Rain 28 1007 37 10000 10.3 200 12:41 10.07.2020
44 Rain 29 1008 39 10000 8.2 200 12:22 10.07.2020
45 Clouds 26 1008 44 10000 6.7 190 11:58 10.07.2020
46 Clouds 28 1008 42 10000 6.2 190 11:38 10.07.2020
47 Clouds 28 1008 42 10000 6.2 190 11:18 10.07.2020
48 Clouds 25 1009 57 10000 4.6 170 10:41 10.07.2020
49 Clouds 24 1009 57 10000 4.6 170 10:21 10.07.2020
50 Clouds 24 1009 57 10000 5.7 170 09:59 10.07.2020
51 Clouds 23 1009 57 10000 5.7 170 09:37 10.07.2020
52 Clouds 22 1009 64 10000 5.7 170 09:19 10.07.2020
53 Rain 21 1009 68 10000 5.7 160 08:56 10.07.2020
54 Rain 21 1009 68 10000 5.7 160 08:37 10.07.2020
55 Clouds 19 1010 72 10000 4.6 150 08:19 10.07.2020
56 Clouds 18 1010 77 10000 3.6 150 07:41 10.07.2020
57 Clouds 16 1010 82 10000 2.6 160 07:22 10.07.2020
58 Clouds 16 1011 88 10000 3.6 170 06:49 10.07.2020
59 Clouds 15 1011 93 10000 3.6 160 05:55 10.07.2020
60 Clouds 15 1012 93 10000 2.6 170 04:39 10.07.2020
61 Clouds 16 1012 88 10000 2.6 180 03:37 10.07.2020
62 Clouds 16 1013 88 10000 2.1 190 02:52 10.07.2020
63 Clouds 16 1013 93 10000 1.5 200 01:50 10.07.2020
64 Clouds 17 1013 88 10000 2.1 150 00:48 10.07.2020
65 Clouds 18 1013 88 10000 0.5 0 00:20 10.07.2020
66 Rain 19 1013 82 10000 3.1 330 23:46 09.07.2020
67 Clouds 20 1012 68 10000 3.1 230 23:23 09.07.2020
68 Clouds 20 1012 68 10000 3.1 230 22:59 09.07.2020
69 Clouds 20 1012 64 10000 3.1 220 22:41 09.07.2020
70 Rain 20 1012 60 10000 3.1 210 22:21 09.07.2020
71 Rain 21 1012 56 10000 3.6 220 21:57 09.07.2020
72 Rain 21 1012 56 10000 3.6 220 21:39 09.07.2020
73 Rain 22 1012 56 10000 3.1 230 21:19 09.07.2020
74 Rain 22 1012 56 10000 3.1 230 20:58 09.07.2020
75 Rain 22 1012 50 10000 3.6 250 20:39 09.07.2020
76 Rain 24 1012 50 10000 4.1 250 20:21 09.07.2020
77 Clouds 24 1012 50 10000 4.1 230 19:42 09.07.2020
78 Clouds 24 1012 53 10000 4.1 240 19:21 09.07.2020
79 Clouds 25 1012 53 10000 4.1 240 18:56 09.07.2020
80 Clouds 24 1012 53 10000 4.1 240 18:38 09.07.2020
81 Clouds 24 1012 57 10000 4.6 240 18:18 09.07.2020
82 Clouds 23 1013 60 10000 3.1 240 17:42 09.07.2020
83 Clouds 23 1013 68 10000 2.1 260 17:22 09.07.2020
84 Clouds 23 1014 68 10000 2.1 270 16:56 09.07.2020
85 Clouds 22 1014 68 10000 2.1 270 16:38 09.07.2020
86 Clouds 22 1014 68 10000 3.6 260 16:19 09.07.2020
87 Rain 22 1014 73 10000 2.1 270 15:57 09.07.2020
88 Rain 22 1014 73 10000 2.1 270 15:37 09.07.2020
89 Rain 21 1014 77 10000 1 0 15:18 09.07.2020
90 Clouds 20 1014 77 10000 0.5 0 14:57 09.07.2020
91 Clouds 20 1014 77 10000 0.5 0 14:39 09.07.2020
92 Clouds 20 1014 77 10000 0.5 0 14:39 09.07.2020
93 Clouds 20 1014 82 10000 3.1 180 14:20 09.07.2020
94 Clouds 20 1015 82 10000 3.6 210 13:56 09.07.2020
95 Clouds 19 1015 82 10000 3.6 210 13:38 09.07.2020
96 Rain 19 1015 82 10000 4.6 200 13:18 09.07.2020
97 Rain 18 1015 82 10000 4.6 210 12:41 09.07.2020
98 Rain 18 1015 72 10000 3.6 190 12:23 09.07.2020
99 Clouds 18 1015 72 10000 4.1 190 11:57 09.07.2020
100 Clouds 18 1015 72 10000 4.1 190 11:38 09.07.2020
101 Clouds 18 1016 72 10000 4.1 180 11:18 09.07.2020
102 Clouds 18 1016 77 10000 3.6 180 10:55 09.07.2020
103 Clouds 18 1016 77 10000 3.6 180 10:37 09.07.2020
104 Clouds 18 1016 77 10000 3.6 180 10:37 09.07.2020
105 Clouds 18 1016 77 10000 3.1 170 10:19 09.07.2020
106 Clouds 17 1016 77 10000 2.1 180 09:42 09.07.2020
107 Clouds 16 1016 87 10000 2.6 170 09:22 09.07.2020
108 Clouds 15 1016 87 10000 3.1 170 08:49 09.07.2020
109 Rain 14 1017 87 10000 3.1 160 08:26 09.07.2020
110 Rain 14 1017 93 10000 1.5 140 07:56 09.07.2020
111 Rain 14 1017 93 10000 1.5 140 07:37 09.07.2020
112 Rain 13 1017 93 10000 1 0 07:19 09.07.2020
113 Clouds 12 1017 100 10000 3.1 170 06:20 09.07.2020
114 Clouds 12 1017 100 10000 1.5 160 05:50 09.07.2020
115 Clouds 11 1017 93 0 3.1 180 04:29 09.07.2020
116 Clouds 11 1017 87 10000 2.6 180 02:47 09.07.2020
117 Clouds 11 1017 100 10000 2.6 180 01:55 09.07.2020
118 Clouds 11 1017 93 10000 1.5 170 00:59 09.07.2020
119 Clouds 11 1017 93 10000 2.1 180 00:40 09.07.2020
120 Clouds 11 1018 87 10000 2.6 210 00:21 09.07.2020
121 Clouds 12 1017 93 10000 2.1 220 23:43 08.07.2020
122 Clouds 12 1017 93 10000 2.1 230 23:25 08.07.2020
123 Clouds 12 1017 87 10000 2.1 230 22:56 08.07.2020
124 Clouds 12 1017 87 10000 2.1 230 22:38 08.07.2020
125 Clouds 12 1017 87 10000 1.5 240 22:19 08.07.2020
126 Clouds 13 1017 87 10000 1 230 21:56 08.07.2020
127 Clouds 14 1017 87 10000 1 230 21:36 08.07.2020
128 Clouds 14 1017 93 10000 0.5 0 21:18 08.07.2020
129 Clouds 15 1017 87 10000 1 0 20:41 08.07.2020
130 Rain 15 1017 93 10000 1.5 300 20:23 08.07.2020
131 Clouds 16 1016 93 10000 1.5 330 19:56 08.07.2020
132 Clouds 16 1016 93 10000 1.5 330 19:37 08.07.2020
133 Clouds 16 1016 82 10000 2.6 320 19:19 08.07.2020
134 Clouds 16 1016 82 10000 3.1 280 18:42 08.07.2020
135 Clouds 16 1016 77 10000 4.1 270 18:21 08.07.2020
136 Clouds 16 1016 82 10000 2.6 270 17:58 08.07.2020
137 Clouds 16 1016 82 10000 2.6 270 17:39 08.07.2020
138 Clouds 16 1016 87 10000 2.6 270 17:20 08.07.2020
139 Rain 16 1016 87 10000 2.6 270 16:58 08.07.2020
140 Rain 16 1016 87 10000 2.6 270 16:38 08.07.2020
141 Drizzle 15 1016 93 10000 1.5 270 16:19 08.07.2020
142 Drizzle 15 1016 93 10000 1.5 270 15:58 08.07.2020
143 Drizzle 15 1016 87 10000 1 0 15:38 08.07.2020
144 Rain 15 1016 93 10000 2.1 330 15:19 08.07.2020
145 Rain 15 1016 93 10000 1 0 14:44 08.07.2020
146 Rain 14 1016 87 10000 0.5 0 14:25 08.07.2020
147 Rain 14 1016 87 10000 0.5 0 13:58 08.07.2020
148 Rain 14 1016 87 10000 0.5 0 13:58 08.07.2020
149 Rain 14 1016 87 10000 0.5 0 13:40 08.07.2020
150 Rain 14 1016 82 10000 1 0 13:19 08.07.2020
151 Rain 15 1016 87 10000 1.5 120 12:42 08.07.2020
152 Rain 14 1016 87 10000 1.5 0 12:21 08.07.2020
153 Rain 14 1016 87 10000 1.5 150 11:56 08.07.2020
154 Rain 14 1016 87 10000 1.5 150 11:38 08.07.2020
155 Rain 14 1016 87 10000 1.5 140 11:20 08.07.2020
156 Rain 14 1016 82 10000 1.5 170 10:44 08.07.2020
157 Rain 14 1016 82 10000 2.1 190 10:25 08.07.2020
158 Rain 14 1016 82 10000 2.1 210 09:46 08.07.2020
159 Drizzle 14 1016 82 10000 1.5 220 09:26 08.07.2020
160 Rain 13 1016 87 10000 1.5 240 08:58 08.07.2020
161 Rain 13 1016 87 10000 1.5 240 08:39 08.07.2020
162 Rain 13 1016 87 10000 2.1 240 08:20 08.07.2020
163 Rain 13 1016 87 10000 1.5 230 07:44 08.07.2020
164 Rain 12 1016 93 10000 1.5 230 07:22 08.07.2020
165 Rain 12 1016 93 10000 1.5 230 06:53 08.07.2020
166 Rain 12 1016 93 10000 1.5 230 06:31 08.07.2020
167 Rain 12 1016 93 10000 3.1 200 05:50 08.07.2020
168 Rain 12 1017 93 10000 3.1 210 04:58 08.07.2020
169 Rain 12 1017 93 10000 2.6 220 04:20 08.07.2020
170 Rain 14 1017 76 10000 3.1 320 02:20 08.07.2020
171 Rain 15 1017 71 10000 4.1 320 01:39 08.07.2020
172 Clouds 15 1017 51 10000 3.6 310 00:59 08.07.2020
173 Clouds 15 1016 51 10000 3.1 220 00:22 08.07.2020
174 Clouds 15 1016 51 10000 3.1 220 00:22 08.07.2020
175 Clouds 15 1016 48 10000 2.6 220 23:45 07.07.2020
176 Clouds 15 1016 48 10000 3.1 220 23:24 07.07.2020
177 Clouds 15 1016 48 10000 3.1 220 22:59 07.07.2020
178 Clouds 16 1016 48 10000 2.1 220 22:41 07.07.2020
179 Clouds 16 1016 45 10000 2.6 220 22:21 07.07.2020
180 Clouds 16 1016 45 10000 1.5 230 21:59 07.07.2020
181 Clouds 16 1016 45 10000 1.5 230 21:39 07.07.2020
182 Clouds 17 1016 42 10000 1.5 230 21:21 07.07.2020
183 Clouds 17 1017 39 10000 2.6 260 20:57 07.07.2020
184 Clouds 17 1017 39 10000 2.6 260 20:38 07.07.2020
185 Clouds 18 1017 37 10000 2.6 270 20:20 07.07.2020
186 Clouds 19 1017 37 10000 3.1 250 19:41 07.07.2020
187 Clouds 20 1017 34 10000 5.7 260 19:21 07.07.2020
188 Clouds 20 1017 34 10000 5.1 250 18:57 07.07.2020
189 Clouds 20 1017 34 10000 5.1 250 18:38 07.07.2020
190 Clear 20 1017 34 10000 5.7 260 18:20 07.07.2020
191 Clear 20 1018 39 10000 4.6 270 17:58 07.07.2020
192 Clear 20 1018 39 10000 4.6 270 17:38 07.07.2020
193 Clear 20 1018 37 10000 4.6 260 17:20 07.07.2020
194 Clear 19 1018 39 10000 3.6 290 16:43 07.07.2020
195 Clear 21 1018 37 10000 5.1 260 16:24 07.07.2020
196 Clear 20 1018 37 10000 5.1 260 15:58 07.07.2020
197 Clear 20 1019 37 10000 4.6 280 15:39 07.07.2020
198 Clouds 19 1019 42 10000 5.1 290 15:20 07.07.2020
199 Clouds 19 1019 45 10000 5.7 260 14:47 07.07.2020
200 Clouds 19 1019 42 10000 5.1 310 14:27 07.07.2020
201 Clouds 19 1019 48 10000 4.6 290 13:59 07.07.2020
202 Clouds 18 1019 48 10000 4.6 290 13:38 07.07.2020
203 Clouds 18 1019 48 10000 4.1 0 13:18 07.07.2020
204 Clouds 18 1020 48 10000 4.6 260 12:41 07.07.2020
205 Clouds 17 1020 55 10000 4.1 250 12:22 07.07.2020
206 Clouds 16 1020 55 10000 4.1 290 11:56 07.07.2020
207 Clouds 17 1020 55 10000 4.1 290 11:38 07.07.2020
208 Clouds 16 1020 58 10000 3.6 270 11:20 07.07.2020
209 Clouds 15 1020 67 10000 4.1 260 10:55 07.07.2020
210 Clouds 15 1020 67 10000 4.1 260 10:37 07.07.2020
211 Clouds 14 1020 71 10000 3.1 270 10:18 07.07.2020
212 Clouds 14 1020 71 10000 4.1 300 09:40 07.07.2020
213 Clouds 14 1020 71 10000 4.6 290 09:20 07.07.2020
214 Clouds 13 1020 71 10000 4.1 310 08:42 07.07.2020
215 Clouds 13 1020 76 10000 4.6 290 08:23 07.07.2020
216 Clouds 13 1020 81 10000 3.6 290 07:47 07.07.2020
217 Clouds 13 1020 76 10000 3.6 280 07:24 07.07.2020
218 Clouds 12 1020 76 10000 3.1 280 06:49 07.07.2020
219 Clouds 12 1019 76 10000 3.1 280 06:31 07.07.2020
220 Clouds 12 1019 76 10000 3.6 280 05:54 07.07.2020
221 Clouds 12 1019 76 10000 3.6 290 05:23 07.07.2020
222 Clouds 12 1019 76 10000 2.6 270 04:42 07.07.2020
223 Clouds 12 1019 76 10000 2.6 260 03:41 07.07.2020
224 Clouds 12 1018 76 10000 2.6 240 02:28 07.07.2020
225 Clear 12 1018 76 10000 2.6 270 01:25 07.07.2020
226 Clouds 13 1017 71 10000 3.6 270 00:56 07.07.2020
227 Clouds 13 1017 71 10000 3.6 270 00:38 07.07.2020
228 Clouds 13 1017 71 10000 4.1 270 00:19 07.07.2020
229 Clear 14 1017 67 10000 3.1 260 23:42 06.07.2020
230 Clear 14 1017 62 10000 4.1 280 23:23 06.07.2020
231 Clear 14 1016 62 10000 5.1 280 22:55 06.07.2020
232 Clear 14 1016 62 10000 5.1 280 22:37 06.07.2020
233 Clear 15 1016 58 10000 5.1 280 22:18 06.07.2020
234 Clear 15 1016 58 10000 5.1 280 21:55 06.07.2020
235 Clear 15 1016 58 10000 5.1 280 21:36 06.07.2020
236 Clear 16 1015 55 10000 4.1 280 21:18 06.07.2020
237 Clear 16 1015 51 10000 5.1 290 20:40 06.07.2020
238 Clouds 17 1015 48 10000 7.2 310 20:20 06.07.2020
239 Clouds 18 1014 45 10000 8.2 310 19:58 06.07.2020
240 Clouds 18 1014 45 10000 8.2 310 19:58 06.07.2020
241 Clouds 18 1014 45 10000 8.2 310 19:39 06.07.2020
242 Rain 20 1013 40 10000 6.7 320 19:21 06.07.2020
243 Rain 20 1013 32 10000 7.7 270 18:57 06.07.2020
244 Rain 20 1013 32 10000 7.7 270 18:39 06.07.2020
245 Rain 21 1013 32 10000 7.7 290 18:21 06.07.2020
246 Rain 21 1013 32 10000 6.2 270 17:44 06.07.2020
247 Rain 22 1012 30 10000 6.7 290 17:24 06.07.2020
248 Rain 22 1012 28 10000 8.2 300 16:59 06.07.2020
249 Rain 22 1012 28 10000 8.2 300 16:41 06.07.2020
250 Clear 21 1012 28 10000 6.2 300 16:21 06.07.2020
251 Clear 21 1012 33 10000 8.7 280 15:44 06.07.2020
252 Clear 21 1012 33 10000 7.7 270 15:25 06.07.2020
253 Clear 21 1012 33 10000 7.7 270 14:57 06.07.2020
254 Clear 21 1012 35 10000 7.2 280 14:38 06.07.2020
255 Clouds 21 1012 37 10000 7.7 300 14:20 06.07.2020
256 Clouds 21 1012 37 10000 7.2 290 13:58 06.07.2020
257 Clouds 21 1012 37 10000 7.2 290 13:39 06.07.2020
258 Clouds 21 1011 37 10000 5.7 290 13:20 06.07.2020
259 Clouds 21 1011 37 10000 6.7 290 12:43 06.07.2020
260 Clouds 20 1011 40 10000 6.7 300 12:19 06.07.2020
261 Clouds 21 1011 40 10000 6.2 290 11:58 06.07.2020
262 Clouds 21 1011 40 10000 6.2 290 11:39 06.07.2020
263 Clouds 20 1011 35 10000 7.2 290 11:21 06.07.2020
264 Clouds 20 1011 35 10000 6.2 280 10:58 06.07.2020
265 Clouds 20 1011 35 10000 6.2 280 10:39 06.07.2020
266 Clouds 19 1011 37 10000 8.2 270 10:18 06.07.2020
267 Clouds 18 1011 48 10000 4.6 270 09:45 06.07.2020
268 Rain 18 1011 52 10000 4.1 250 09:22 06.07.2020
269 Rain 18 1010 55 10000 4.1 300 08:59 06.07.2020
270 Rain 18 1010 55 10000 4.1 300 08:40 06.07.2020
271 Clouds 18 1010 56 10000 5.1 270 08:20 06.07.2020
272 Clouds 18 1010 64 10000 3.6 290 07:47 06.07.2020
273 Clouds 18 1010 64 10000 3.6 270 07:29 06.07.2020
274 Clouds 18 1009 68 10000 4.1 270 06:49 06.07.2020
275 Clouds 20 1010 68 10000 4.6 260 06:31 06.07.2020
276 Clouds 20 1010 68 10000 4.1 250 05:47 06.07.2020
277 Clouds 20 1010 68 10000 4.6 220 05:26 06.07.2020
278 Clouds 20 1010 64 10000 3.1 240 03:58 06.07.2020
279 Clouds 21 1010 60 10000 3.6 230 02:32 06.07.2020
280 Clouds 21 1010 64 10000 2.6 220 01:54 06.07.2020
281 Clouds 21 1010 60 10000 4.6 230 00:49 06.07.2020
282 Clouds 22 1011 60 10000 5.1 220 00:24 06.07.2020
283 Clouds 22 1011 60 10000 4.6 220 23:57 05.07.2020
284 Clouds 22 1011 60 10000 4.6 220 23:38 05.07.2020
285 Clear 21 1011 60 10000 5.1 220 23:20 05.07.2020
286 Clear 21 1011 64 10000 4.6 210 22:57 05.07.2020
287 Clear 21 1011 64 10000 4.6 210 22:37 05.07.2020
288 Clear 22 1011 56 10000 5.1 220 22:18 05.07.2020
289 Clear 22 1011 60 10000 5.1 230 21:41 05.07.2020
290 Clear 23 1011 57 10000 6.7 230 21:19 05.07.2020
291 Clear 24 1011 57 10000 6.7 230 20:59 05.07.2020
292 Clouds 24 1011 57 10000 5.7 240 20:41 05.07.2020
293 Clouds 24 1011 53 10000 7.7 230 20:22 05.07.2020
294 Clouds 25 1011 53 10000 6.2 240 19:58 05.07.2020
295 Clouds 25 1011 53 10000 6.2 240 19:40 05.07.2020
296 Clouds 26 1011 50 10000 7.2 240 19:19 05.07.2020
297 Clouds 26 1012 50 10000 6.7 240 18:55 05.07.2020
298 Clouds 26 1012 50 10000 6.7 240 18:36 05.07.2020
299 Clouds 26 1012 47 10000 7.2 250 18:18 05.07.2020
300 Rain 26 1012 50 10000 6.7 240 17:42 05.07.2020
301 Rain 26 1012 50 10000 6.7 240 17:42 05.07.2020
302 Clouds 26 1012 53 10000 8.2 230 17:19 05.07.2020
303 Clouds 26 1012 50 10000 6.7 250 16:45 05.07.2020
304 Clouds 25 1013 53 10000 7.2 230 16:26 05.07.2020
305 Clouds 26 1013 53 10000 6.7 250 15:59 05.07.2020
306 Clouds 25 1013 53 10000 6.7 250 15:40 05.07.2020
307 Clouds 25 1013 53 10000 6.7 250 15:40 05.07.2020
308 Clouds 26 1013 50 10000 6.7 240 15:20 05.07.2020
309 Clouds 26 1013 47 10000 7.2 250 14:55 05.07.2020
310 Clouds 26 1013 47 10000 7.2 250 14:36 05.07.2020
311 Clouds 26 1013 47 10000 8.7 240 14:18 05.07.2020
312 Clouds 26 1013 50 10000 7.7 240 13:40 05.07.2020
313 Clouds 26 1013 47 10000 8.2 250 13:22 05.07.2020
314 Clouds 26 1013 50 10000 6.2 240 12:45 05.07.2020
315 Clouds 25 1013 53 10000 6.2 250 12:21 05.07.2020
316 Rain 26 1013 50 10000 5.7 230 11:56 05.07.2020
317 Rain 26 1013 50 10000 5.7 230 11:38 05.07.2020
318 Clouds 25 1013 50 10000 5.7 230 11:19 05.07.2020
319 Clouds 25 1014 53 10000 5.1 240 10:55 05.07.2020
320 Clouds 24 1014 53 10000 5.1 240 10:37 05.07.2020
321 Clouds 24 1014 56 10000 5.1 240 10:18 05.07.2020
322 Clouds 23 1014 56 10000 5.1 250 09:41 05.07.2020
323 Clouds 22 1014 56 10000 5.1 230 09:20 05.07.2020
324 Clouds 22 1014 56 10000 5.1 230 08:57 05.07.2020
325 Clouds 22 1014 56 10000 4.6 230 08:38 05.07.2020
326 Clouds 22 1014 53 10000 5.7 220 08:18 05.07.2020
327 Clouds 21 1014 56 10000 5.7 220 07:43 05.07.2020
328 Clouds 21 1014 56 10000 5.1 230 07:22 05.07.2020
329 Clouds 20 1014 56 10000 5.7 220 06:49 05.07.2020
330 Clouds 19 1014 56 10000 4.1 220 04:42 05.07.2020
331 Clear 18 1014 52 10000 3.6 220 03:19 05.07.2020
332 Clear 19 1014 55 10000 3.6 220 02:41 05.07.2020
333 Clouds 19 1015 52 10000 3.6 220 01:59 05.07.2020
334 Clouds 20 1015 52 10000 3.6 220 01:32 05.07.2020
335 Clouds 20 1015 49 10000 3.1 220 00:57 05.07.2020
336 Clouds 20 1015 49 10000 3.1 220 00:38 05.07.2020
337 Clouds 21 1015 46 10000 2.6 230 00:19 05.07.2020
338 Clouds 21 1015 46 10000 2.6 230 23:41 04.07.2020
339 Clouds 21 1015 46 10000 3.1 220 23:23 04.07.2020
340 Clouds 21 1015 46 10000 3.1 220 22:55 04.07.2020
341 Clouds 21 1015 46 10000 3.1 220 22:37 04.07.2020
342 Clouds 21 1015 46 10000 3.1 230 22:18 04.07.2020
343 Clouds 22 1015 43 10000 2.6 240 21:42 04.07.2020
344 Clouds 23 1014 41 10000 4.1 240 21:23 04.07.2020
345 Clouds 23 1015 41 10000 3.6 240 20:57 04.07.2020
346 Clouds 24 1015 41 10000 3.6 240 20:38 04.07.2020
347 Clouds 24 1015 38 10000 4.1 250 20:18 04.07.2020
348 Clouds 25 1015 36 10000 4.1 260 19:43 04.07.2020
349 Clouds 25 1014 34 10000 6.2 260 19:22 04.07.2020
350 Clouds 25 1014 34 10000 6.2 260 19:22 04.07.2020
351 Clouds 26 1014 34 10000 6.2 250 18:55 04.07.2020
352 Clouds 27 1014 34 10000 6.2 250 18:37 04.07.2020
353 Clouds 27 1015 32 10000 6.7 260 18:19 04.07.2020
354 Clouds 26 1015 34 10000 6.2 250 17:42 04.07.2020
355 Clouds 27 1015 31 10000 5.7 250 17:24 04.07.2020
356 Clouds 26 1015 31 10000 5.7 250 16:58 04.07.2020
357 Clouds 27 1015 31 10000 6.2 230 16:38 04.07.2020
358 Clouds 25 1015 33 10000 5.7 240 16:20 04.07.2020
359 Clouds 25 1015 36 10000 6.7 250 15:55 04.07.2020
360 Clouds 26 1015 36 10000 6.7 250 15:37 04.07.2020
361 Clear 26 1016 34 10000 6.2 230 15:18 04.07.2020
362 Clear 26 1016 31 10000 6.7 240 14:38 04.07.2020
363 Clouds 25 1016 36 10000 6.2 240 14:19 04.07.2020
364 Clouds 25 1016 36 10000 6.2 240 13:59 04.07.2020
365 Clouds 25 1016 36 10000 6.2 240 13:40 04.07.2020
366 Clouds 24 1017 38 10000 6.2 240 13:18 04.07.2020
367 Clouds 24 1017 38 10000 5.1 250 12:43 04.07.2020
368 Clouds 23 1017 40 10000 6.2 250 12:22 04.07.2020
369 Clouds 23 1017 38 10000 6.7 250 11:59 04.07.2020
370 Clouds 23 1017 38 10000 6.7 250 11:40 04.07.2020
371 Clouds 23 1017 38 10000 7.2 250 11:21 04.07.2020
372 Clouds 23 1017 40 10000 6.2 240 10:54 04.07.2020
373 Clouds 23 1017 40 10000 6.2 240 10:36 04.07.2020
374 Clouds 23 1017 43 10000 6.2 260 10:18 04.07.2020
375 Clouds 22 1018 43 10000 5.7 270 09:40 04.07.2020
376 Clouds 22 1018 49 10000 4.6 240 09:20 04.07.2020
377 Clouds 19 1018 56 10000 3.6 220 08:50 04.07.2020
378 Clouds 19 1018 56 10000 3.6 220 08:32 04.07.2020
379 Clouds 17 1017 63 10000 4.1 190 07:56 04.07.2020
380 Clouds 16 1017 63 10000 4.1 190 07:38 04.07.2020
381 Clouds 15 1018 67 10000 3.6 190 06:57 04.07.2020
382 Clouds 14 1018 67 10000 3.6 190 06:37 04.07.2020
383 Clouds 14 1018 72 10000 4.1 190 06:18 04.07.2020
384 Clouds 13 1018 76 10000 3.1 200 05:24 04.07.2020
385 Clouds 13 1018 76 10000 3.1 200 03:49 04.07.2020
386 Clouds 14 1018 72 10000 3.1 210 02:41 04.07.2020
387 Clear 14 1018 72 10000 3.1 200 01:40 04.07.2020
388 Clear 15 1018 67 10000 2.6 210 00:49 04.07.2020
389 Clear 15 1018 67 10000 2.6 210 00:30 04.07.2020
390 Clear 15 1018 63 10000 2.1 210 23:59 03.07.2020
391 Clear 16 1018 63 10000 2.1 210 23:39 03.07.2020
392 Clear 16 1018 63 10000 2.6 210 23:18 03.07.2020
393 Clear 16 1018 59 10000 2.1 220 22:42 03.07.2020
394 Clear 17 1017 55 10000 1.5 220 22:24 03.07.2020
395 Clear 17 1017 55 10000 1.5 220 21:59 03.07.2020
396 Clear 18 1017 49 10000 1.5 240 21:38 03.07.2020
397 Clear 18 1017 49 10000 1.5 260 21:19 03.07.2020
398 Clear 20 1017 46 10000 3.1 280 20:43 03.07.2020
399 Clear 21 1017 43 10000 4.1 280 20:25 03.07.2020
400 Clear 22 1016 43 10000 4.1 260 19:57 03.07.2020
401 Clear 22 1016 43 10000 4.1 260 19:39 03.07.2020
402 Clear 22 1016 43 10000 4.6 290 19:18 03.07.2020
403 Clear 22 1016 43 10000 5.7 270 18:45 03.07.2020
404 Clear 23 1016 40 10000 6.7 270 18:24 03.07.2020
405 Clear 23 1016 38 10000 6.2 280 17:59 03.07.2020
406 Clear 23 1016 38 10000 6.2 280 17:41 03.07.2020
407 Clear 23 1016 43 10000 5.7 270 17:20 03.07.2020
408 Clear 23 1016 46 10000 6.2 290 16:41 03.07.2020
409 Clouds 23 1016 40 10000 5.7 290 16:23 03.07.2020
410 Clouds 24 1016 46 10000 4.6 290 15:46 03.07.2020
411 Clouds 22 1017 49 10000 4.1 300 15:24 03.07.2020
412 Clouds 22 1017 49 10000 4.1 290 14:58 03.07.2020
413 Clouds 22 1017 49 10000 4.1 290 14:39 03.07.2020
414 Clouds 21 1017 49 10000 5.7 290 14:20 03.07.2020
415 Clouds 21 1017 46 10000 4.6 300 13:47 03.07.2020
416 Clouds 21 1017 56 10000 5.1 300 13:29 03.07.2020
417 Clouds 21 1017 56 10000 5.7 300 12:57 03.07.2020
418 Clouds 20 1017 56 10000 5.7 300 12:38 03.07.2020
419 Clouds 20 1016 56 10000 4.6 310 12:19 03.07.2020
420 Clouds 19 1017 68 10000 3.6 270 11:42 03.07.2020
421 Clouds 19 1016 59 10000 5.1 290 11:23 03.07.2020
422 Clouds 19 1016 63 10000 5.1 300 10:58 03.07.2020
423 Clouds 19 1016 63 10000 5.1 300 10:39 03.07.2020
424 Clouds 18 1016 77 10000 3.1 300 10:20 03.07.2020
425 Rain 18 1016 77 10000 4.6 300 09:55 03.07.2020
426 Rain 18 1016 77 10000 4.6 300 09:37 03.07.2020
427 Clouds 17 1016 82 10000 4.1 290 09:18 03.07.2020
428 Clouds 16 1016 87 10000 3.6 290 08:40 03.07.2020
429 Clouds 16 1015 87 10000 3.1 290 08:19 03.07.2020
430 Clouds 16 1015 87 10000 3.1 290 08:19 03.07.2020
431 Clouds 16 1015 87 10000 3.1 280 07:50 03.07.2020
432 Clouds 15 1015 87 10000 3.6 300 07:28 03.07.2020
433 Clouds 15 1015 87 10000 4.1 290 06:58 03.07.2020
434 Clouds 16 1014 93 10000 3.6 290 06:25 03.07.2020
435 Rain 16 1013 93 10000 3.1 280 05:22 03.07.2020
436 Clouds 16 1013 93 10000 2.1 280 03:46 03.07.2020
437 Clouds 17 1013 93 10000 2.1 250 02:49 03.07.2020
438 Clouds 16 1013 93 10000 2.1 250 02:30 03.07.2020
439 Clouds 16 1012 93 10000 1.5 250 01:30 03.07.2020
440 Rain 17 1012 93 10000 2.1 260 00:56 03.07.2020
441 Rain 16 1012 93 10000 2.1 260 00:37 03.07.2020
442 Rain 17 1012 93 10000 4.1 330 23:52 02.07.2020
443 Rain 17 1012 93 10000 5.1 300 23:21 02.07.2020
444 Rain 17 1012 93 10000 5.1 300 22:59 02.07.2020
445 Rain 17 1012 88 10000 4.6 270 22:41 02.07.2020
446 Rain 19 1010 46 10000 1 0 22:21 02.07.2020
447 Rain 21 1010 46 10000 1 0 21:58 02.07.2020
448 Clouds 21 1010 43 10000 1 330 21:39 02.07.2020
449 Rain 21 1010 46 10000 1 0 21:19 02.07.2020
450 Rain 22 1010 46 10000 1 0 20:58 02.07.2020
451 Rain 23 1010 44 10000 1 0 20:39 02.07.2020
452 Rain 23 1010 44 10000 1 0 20:39 02.07.2020
453 Rain 24 1010 38 10000 3.1 260 20:19 02.07.2020
454 Rain 25 1010 36 10000 3.1 290 19:43 02.07.2020
455 Rain 26 1010 39 10000 2.6 260 19:24 02.07.2020
456 Rain 25 1010 39 10000 4.1 300 18:59 02.07.2020
457 Rain 25 1010 39 10000 4.1 300 18:59 02.07.2020
458 Rain 26 1010 39 10000 4.1 300 18:40 02.07.2020
459 Clouds 26 1010 36 10000 4.1 300 18:22 02.07.2020
460 Clouds 26 1010 36 10000 3.6 260 17:57 02.07.2020
461 Clouds 26 1010 36 10000 3.6 260 17:38 02.07.2020
462 Clouds 26 1010 36 10000 3.6 250 17:18 02.07.2020
463 Clouds 25 1010 36 10000 5.7 260 16:43 02.07.2020
464 Rain 25 1010 41 10000 4.6 270 16:21 02.07.2020
465 Rain 26 1010 41 10000 4.6 270 15:59 02.07.2020
466 Clouds 25 1011 44 10000 3.6 250 15:38 02.07.2020
467 Clouds 25 1011 50 10000 3.1 260 15:20 02.07.2020
468 Clouds 25 1011 50 10000 3.6 280 14:46 02.07.2020
469 Clouds 25 1011 53 10000 3.6 240 14:25 02.07.2020
470 Clouds 25 1011 60 10000 2.6 280 13:57 02.07.2020
471 Clouds 25 1011 60 10000 2.6 280 13:39 02.07.2020
472 Clouds 25 1011 53 10000 3.1 270 13:20 02.07.2020
473 Clouds 24 1011 56 10000 4.1 240 12:58 02.07.2020
474 Clouds 23 1011 56 10000 4.1 240 12:39 02.07.2020
475 Clouds 23 1011 64 10000 3.1 220 12:21 02.07.2020
476 Clouds 22 1011 68 10000 3.6 230 11:44 02.07.2020
477 Clouds 21 1011 68 10000 3.1 220 11:25 02.07.2020
478 Clouds 21 1011 72 10000 2.1 240 10:48 02.07.2020
479 Clouds 20 1011 72 10000 2.1 240 10:28 02.07.2020
480 Clouds 20 1011 77 10000 1.5 220 10:28 02.07.2020
481 Clouds 20 1011 77 10000 1.5 220 10:28 02.07.2020
482 Rain 19 1011 77 10000 1.5 220 09:59 02.07.2020
483 Rain 18 1011 88 7000 1.5 290 09:41 02.07.2020
484 Rain 18 1011 88 10000 3.6 300 09:21 02.07.2020
485 Clouds 18 1011 93 10000 2.1 300 08:56 02.07.2020
486 Clouds 18 1011 93 10000 2.1 300 08:37 02.07.2020
487 Clouds 18 1010 93 10000 2.1 260 08:18 02.07.2020
488 Rain 17 1010 100 10000 3.6 210 07:41 02.07.2020
489 Rain 17 1010 93 9000 2.1 240 07:20 02.07.2020
490 Clouds 17 1010 93 10000 2.6 190 06:41 02.07.2020
491 Rain 17 1010 93 10000 0.5 0 06:20 02.07.2020
492 Clouds 17 1010 82 10000 1.5 180 05:46 02.07.2020
493 Clouds 16 1009 88 10000 3.1 190 04:40 02.07.2020
494 Clouds 17 1009 88 10000 2.1 190 03:33 02.07.2020
495 Clouds 18 1009 93 10000 1.5 300 01:48 02.07.2020
496 Clouds 20 1008 77 10000 4.6 320 00:27 02.07.2020
497 Clouds 21 1008 68 10000 4.1 320 23:57 01.07.2020
498 Clouds 20 1008 68 10000 4.1 320 23:38 01.07.2020
499 Clouds 22 1007 53 10000 3.1 260 23:20 01.07.2020
500 Clouds 22 1006 53 10000 4.1 220 22:54 01.07.2020
501 Clouds 22 1006 53 10000 4.1 220 22:36 01.07.2020
502 Clouds 23 1006 50 10000 4.1 230 22:18 01.07.2020
503 Clouds 23 1006 50 10000 3.6 230 21:55 01.07.2020
504 Clouds 23 1006 50 10000 3.6 230 21:37 01.07.2020
505 Clear 24 1006 47 10000 3.1 230 21:19 01.07.2020
506 Clear 26 1006 39 10000 4.1 240 20:44 01.07.2020
507 Rain 26 1006 39 10000 3.6 250 20:25 01.07.2020
508 Rain 27 1006 39 10000 4.6 240 19:56 01.07.2020
509 Rain 27 1006 39 10000 4.6 240 19:38 01.07.2020
510 Rain 28 1007 39 10000 3.6 260 19:20 01.07.2020
511 Rain 28 1007 39 10000 4.6 240 18:54 01.07.2020
512 Rain 28 1007 39 10000 4.6 240 18:36 01.07.2020
513 Rain 29 1007 39 10000 5.1 250 18:18 01.07.2020
514 Rain 28 1007 39 10000 5.7 260 17:41 01.07.2020
515 Rain 28 1007 39 10000 5.7 260 17:41 01.07.2020
516 Rain 28 1007 42 10000 5.7 240 17:19 01.07.2020
517 Rain 28 1008 42 10000 6.7 240 16:48 01.07.2020
518 Rain 28 1008 42 10000 6.7 240 16:48 01.07.2020
519 Rain 28 1008 42 10000 4.6 250 16:29 01.07.2020
520 Rain 28 1008 39 10000 6.2 260 15:58 01.07.2020
521 Rain 29 1008 39 10000 6.2 260 15:40 01.07.2020
522 Rain 28 1008 39 10000 7.2 240 15:21 01.07.2020
523 Rain 28 1008 39 10000 6.7 250 14:55 01.07.2020
524 Rain 28 1008 39 10000 6.7 250 14:37 01.07.2020
525 Rain 27 1008 42 10000 6.2 250 14:19 01.07.2020
526 Rain 27 1009 42 10000 5.7 240 13:40 01.07.2020
527 Clouds 27 1009 42 10000 5.1 250 13:21 01.07.2020
528 Clouds 26 1009 47 10000 6.2 250 12:59 01.07.2020
529 Clouds 25 1009 47 10000 6.2 250 12:40 01.07.2020
530 Clouds 25 1009 44 10000 5.1 250 12:22 01.07.2020
531 Clouds 25 1009 47 10000 5.1 230 11:57 01.07.2020
532 Clouds 25 1009 47 10000 5.1 230 11:38 01.07.2020
533 Clouds 24 1009 50 10000 5.1 250 11:19 01.07.2020
534 Clouds 24 1009 50 10000 5.7 250 10:43 01.07.2020
535 Clouds 24 1010 53 10000 5.7 250 10:23 01.07.2020
536 Clouds 24 1010 53 10000 5.7 250 09:59 01.07.2020
537 Clouds 24 1010 53 10000 5.7 250 09:59 01.07.2020
538 Clouds 23 1010 56 10000 5.1 240 09:38 01.07.2020
539 Clouds 21 1010 56 10000 5.1 230 09:19 01.07.2020
540 Clouds 20 1010 56 10000 5.1 230 08:56 01.07.2020
541 Clouds 20 1010 56 10000 5.1 230 08:38 01.07.2020
542 Clear 19 1010 60 10000 6.2 230 08:18 01.07.2020
543 Clear 17 1010 63 10000 4.6 210 07:40 01.07.2020
544 Clear 17 1010 63 10000 4.1 220 07:21 01.07.2020
545 Clear 16 1010 67 10000 5.1 200 06:51 01.07.2020
546 Clear 15 1010 67 10000 5.1 200 06:30 01.07.2020
547 Clear 14 1010 72 10000 4.6 210 05:30 01.07.2020
548 Clear 15 1009 63 10000 4.1 230 03:55 01.07.2020
549 Clear 15 1009 63 10000 4.1 230 03:36 01.07.2020
550 Clear 15 1010 63 10000 4.1 230 03:18 01.07.2020
551 Clear 15 1010 63 10000 4.1 220 01:55 01.07.2020
552 Clear 15 1010 63 10000 3.1 220 00:48 01.07.2020
553 Clouds 15 1010 63 10000 3.6 230 00:26 01.07.2020
554 Clouds 16 1010 63 10000 3.6 230 23:57 30.06.2020
555 Clouds 16 1010 63 10000 3.6 230 23:39 30.06.2020
556 Clouds 17 1010 59 10000 3.6 230 23:19 30.06.2020
557 Clouds 17 1010 59 10000 3.6 240 22:42 30.06.2020
558 Clear 18 1010 55 10000 4.1 240 22:19 30.06.2020
559 Clear 19 1010 49 10000 5.1 240 21:42 30.06.2020
560 Clear 20 1010 49 10000 3.1 250 21:19 30.06.2020
561 Clear 20 1009 46 10000 3.6 250 20:59 30.06.2020
562 Clear 20 1009 46 10000 3.6 250 20:40 30.06.2020
563 Clear 21 1009 40 10000 4.6 250 20:20 30.06.2020
564 Clear 22 1009 40 10000 6.2 240 19:43 30.06.2020
565 Clear 23 1009 38 10000 6.2 250 19:20 30.06.2020
566 Clear 23 1009 35 10000 5.7 240 18:55 30.06.2020
567 Clear 23 1009 35 10000 5.7 240 18:36 30.06.2020
568 Clear 23 1009 35 10000 6.7 260 18:18 30.06.2020
569 Clear 24 1009 33 10000 5.7 240 17:39 30.06.2020
570 Clear 24 1009 33 10000 6.7 260 17:20 30.06.2020
571 Clear 25 1009 31 10000 6.2 240 16:57 30.06.2020
572 Clear 24 1009 31 10000 6.2 240 16:38 30.06.2020
573 Clear 23 1010 33 10000 7.2 250 16:19 30.06.2020
574 Clear 24 1010 33 10000 7.7 260 15:54 30.06.2020
575 Clear 24 1010 33 10000 7.7 260 15:36 30.06.2020
576 Clear 23 1010 33 10000 6.7 250 15:18 30.06.2020
577 Clear 23 1010 33 10000 6.7 250 14:42 30.06.2020
578 Clouds 23 1010 33 10000 6.7 250 14:21 30.06.2020
579 Clouds 23 1010 35 10000 7.2 250 13:54 30.06.2020
580 Clouds 23 1010 35 10000 7.2 250 13:36 30.06.2020
581 Clouds 22 1011 35 10000 7.2 240 13:18 30.06.2020
582 Clouds 22 1011 40 10000 6.7 240 12:54 30.06.2020
583 Clouds 21 1011 40 10000 6.7 240 12:36 30.06.2020
584 Clouds 21 1011 37 10000 7.7 240 12:18 30.06.2020
585 Clouds 20 1011 40 10000 7.2 260 11:56 30.06.2020
586 Clouds 20 1011 40 10000 7.2 260 11:37 30.06.2020
587 Clouds 20 1011 40 10000 7.2 260 11:18 30.06.2020
588 Clouds 24 1013 65 10000 4.1 240 16:46 28.06.2020
589 Clouds 23 1014 69 10000 3.1 210 16:28 28.06.2020
590 Clouds 23 1014 69 10000 3.1 210 15:59 28.06.2020
591 Clouds 22 1014 78 10000 3.6 200 15:39 28.06.2020
592 Clouds 21 1014 83 10000 4.1 170 15:20 28.06.2020
593 Rain 21 1014 88 10000 4.6 180 14:57 28.06.2020
594 Rain 21 1014 88 10000 4.6 180 14:38 28.06.2020
595 Rain 20 1015 88 10000 5.7 190 14:20 28.06.2020
596 Rain 20 1015 73 10000 7.2 250 13:40 28.06.2020
597 Rain 23 1014 50 10000 3.1 250 13:21 28.06.2020
598 Clouds 25 1014 47 10000 3.6 270 12:58 28.06.2020
599 Clouds 25 1014 47 10000 3.6 270 12:38 28.06.2020
600 Clouds 27 1014 47 10000 3.6 230 12:19 28.06.2020
601 Clouds 27 1014 47 10000 3.6 230 11:59 28.06.2020
602 Clouds 27 1014 51 10000 4.6 240 11:40 28.06.2020
603 Clouds 27 1014 51 10000 3.6 230 11:20 28.06.2020
604 Clouds 27 1014 51 10000 3.6 230 10:58 28.06.2020
605 Clouds 27 1014 48 10000 3.1 220 10:40 28.06.2020
606 Clouds 27 1014 61 10000 3.6 220 10:21 28.06.2020
607 Clouds 25 1014 61 10000 3.6 220 09:41 28.06.2020
608 Clouds 23 1014 69 10000 3.6 210 09:23 28.06.2020
609 Clouds 22 1013 73 10000 3.6 210 08:57 28.06.2020
610 Clouds 22 1013 73 10000 3.6 210 08:38 28.06.2020
611 Clouds 21 1013 73 10000 4.1 210 08:20 28.06.2020
612 Clouds 20 1013 73 10000 3.6 200 07:33 28.06.2020
613 Clouds 19 1013 73 10000 3.6 200 06:57 28.06.2020
614 Clouds 19 1013 73 10000 3.1 220 06:32 28.06.2020
615 Clouds 18 1013 77 10000 3.6 210 05:50 28.06.2020
616 Clear 18 1013 82 10000 2.6 200 04:27 28.06.2020
617 Clear 18 1013 77 10000 3.6 220 03:18 28.06.2020
618 Rain 19 1013 77 10000 3.1 220 02:22 28.06.2020
619 Rain 19 1013 77 10000 3.1 220 01:45 28.06.2020
620 Clouds 19 1012 77 10000 3.1 220 00:57 28.06.2020
621 Clouds 19 1012 82 10000 3.6 210 00:31 28.06.2020
622 Clouds 19 1012 77 10000 3.6 220 23:58 27.06.2020
623 Clouds 19 1012 77 10000 3.6 220 23:40 27.06.2020
624 Clouds 19 1012 82 10000 3.1 210 23:21 27.06.2020
625 Clouds 19 1012 82 10000 3.1 200 22:54 27.06.2020
626 Clouds 19 1012 82 10000 3.1 200 22:36 27.06.2020
627 Clouds 19 1012 88 10000 2.1 200 22:18 27.06.2020
628 Clouds 19 1011 82 10000 3.6 200 21:42 27.06.2020
629 Clouds 20 1011 77 10000 3.6 220 21:20 27.06.2020
630 Rain 20 1011 77 10000 4.6 220 20:56 27.06.2020
631 Rain 20 1011 77 10000 4.6 220 20:37 27.06.2020
632 Clouds 20 1011 77 10000 4.6 220 20:18 27.06.2020
633 Rain 20 1011 83 10000 3.1 210 19:54 27.06.2020
634 Rain 20 1011 83 10000 3.1 210 19:36 27.06.2020
635 Rain 19 1011 82 10000 3.6 220 19:18 27.06.2020
636 Thunderstorm 21 1012 77 10000 3.6 220 18:42 27.06.2020
637 Thunderstorm 21 1011 83 10000 5.1 220 18:21 27.06.2020
638 Thunderstorm 24 1011 64 10000 3.6 330 17:54 27.06.2020
639 Thunderstorm 26 1011 64 10000 3.6 330 17:36 27.06.2020
640 Rain 28 1010 39 10000 4.1 270 17:18 27.06.2020
641 Rain 29 1010 37 10000 5.1 250 16:41 27.06.2020
642 Rain 29 1010 37 10000 5.1 260 16:23 27.06.2020
643 Rain 30 1010 35 10000 5.1 250 15:46 27.06.2020
644 Clouds 30 1011 35 10000 4.6 260 15:24 27.06.2020
645 Clouds 30 1011 33 10000 5.1 230 14:59 27.06.2020
646 Clouds 30 1011 33 10000 5.1 230 14:40 27.06.2020
647 Rain 29 1011 33 10000 5.7 250 14:21 27.06.2020
648 Rain 29 1011 35 10000 4.6 240 13:57 27.06.2020
649 Rain 29 1011 35 10000 4.6 240 13:37 27.06.2020
650 Rain 29 1011 37 10000 4.6 220 13:19 27.06.2020
651 Rain 29 1011 35 10000 3.6 270 12:56 27.06.2020
652 Rain 29 1011 35 10000 3.6 270 12:37 27.06.2020
653 Rain 28 1011 37 10000 4.1 220 12:19 27.06.2020
654 Rain 28 1011 37 10000 3.6 220 11:41 27.06.2020
655 Clear 27 1011 39 10000 2.6 230 11:23 27.06.2020
656 Clouds 27 1012 42 10000 3.1 230 10:57 27.06.2020
657 Clouds 26 1012 42 10000 3.1 230 10:38 27.06.2020
658 Clouds 25 1012 50 10000 3.1 0 10:18 27.06.2020
659 Clear 25 1012 53 10000 2.1 230 09:41 27.06.2020
660 Clear 23 1012 56 10000 3.1 210 09:21 27.06.2020
661 Clear 22 1012 64 10000 2.6 200 08:55 27.06.2020
662 Clear 21 1012 64 10000 2.6 200 08:37 27.06.2020
663 Clear 20 1012 72 10000 2.1 190 08:19 27.06.2020
664 Clear 17 1012 82 10000 2.6 190 07:38 27.06.2020
665 Clear 17 1012 82 10000 2.6 190 07:19 27.06.2020
666 Clear 16 1012 82 10000 2.1 170 06:37 27.06.2020
667 Clear 15 1012 87 10000 1.5 160 05:46 27.06.2020
668 Clear 15 1011 87 10000 2.1 190 04:21 27.06.2020
669 Clear 15 1012 87 10000 1.5 110 03:51 27.06.2020
670 Clear 15 1012 87 10000 1.5 180 02:48 27.06.2020
671 Clouds 15 1012 87 10000 1.5 180 02:28 27.06.2020
672 Clear 16 1011 82 10000 3.1 150 01:41 27.06.2020
673 Clear 16 1012 77 10000 1 0 00:54 27.06.2020
674 Clear 16 1012 72 10000 0.5 0 00:27 27.06.2020
675 Clear 17 1012 68 10000 1.5 150 23:41 26.06.2020
676 Clear 17 1012 68 10000 3.1 160 23:22 26.06.2020
677 Clear 17 1013 68 10000 2.6 160 22:56 26.06.2020
678 Clear 18 1013 68 10000 2.6 160 22:37 26.06.2020
679 Clear 18 1013 64 10000 2.1 150 22:19 26.06.2020
680 Clear 19 1013 60 10000 2.1 120 21:57 26.06.2020
681 Clear 19 1013 60 10000 2.1 120 21:37 26.06.2020
682 Clear 20 1013 60 10000 1 0 21:19 26.06.2020
683 Clear 20 1013 60 10000 1 0 21:19 26.06.2020
684 Clear 20 1012 56 10000 2.1 100 20:43 26.06.2020
685 Clouds 21 1012 56 10000 1.5 120 20:20 26.06.2020
686 Clouds 21 1012 56 10000 1.5 130 19:44 26.06.2020
687 Clouds 22 1013 49 10000 2.1 110 19:23 26.06.2020
688 Clouds 22 1013 46 10000 2.6 130 18:57 26.06.2020
689 Clouds 22 1013 46 10000 2.6 130 18:37 26.06.2020
690 Clouds 22 1013 49 10000 3.1 180 18:18 26.06.2020
691 Clouds 23 1013 49 10000 3.1 180 17:43 26.06.2020
692 Clouds 23 1014 49 10000 3.6 160 17:24 26.06.2020
693 Clouds 23 1014 49 10000 4.6 170 16:49 26.06.2020
694 Clouds 23 1014 53 10000 4.6 180 16:26 26.06.2020
695 Clouds 23 1015 50 10000 4.1 160 15:55 26.06.2020
696 Clouds 23 1015 50 10000 4.1 160 15:37 26.06.2020
697 Clouds 22 1015 56 10000 4.6 160 15:19 26.06.2020
698 Clouds 22 1015 60 10000 5.7 160 14:56 26.06.2020
699 Clouds 22 1015 60 10000 5.7 160 14:38 26.06.2020
700 Clouds 22 1015 60 10000 6.2 150 14:19 26.06.2020
701 Clouds 22 1015 53 10000 4.6 140 13:44 26.06.2020
702 Clouds 23 1015 50 10000 4.1 170 13:22 26.06.2020
703 Clouds 24 1016 50 10000 5.7 160 12:55 26.06.2020
704 Clouds 24 1016 50 10000 5.7 160 12:37 26.06.2020
705 Clouds 24 1016 56 10000 3.6 140 12:18 26.06.2020
706 Clouds 24 1016 53 10000 3.6 140 11:54 26.06.2020
707 Clouds 23 1016 53 10000 3.6 140 11:36 26.06.2020
708 Clouds 23 1017 53 10000 4.1 140 11:18 26.06.2020
709 Clouds 23 1016 50 10000 5.1 120 10:40 26.06.2020
710 Clouds 23 1017 53 10000 5.7 170 10:20 26.06.2020
711 Clouds 23 1017 56 10000 2.6 0 09:56 26.06.2020
712 Clouds 22 1017 56 10000 2.6 0 09:38 26.06.2020
713 Clear 21 1017 56 10000 1.5 130 09:19 26.06.2020
714 Clear 20 1017 64 10000 2.6 130 08:45 26.06.2020
715 Clouds 19 1017 68 10000 1.5 160 08:27 26.06.2020
716 Clouds 17 1017 77 10000 2.1 160 07:48 26.06.2020
717 Clouds 17 1017 82 10000 1 0 07:23 26.06.2020
718 Clouds 16 1017 93 10000 2.1 180 06:49 26.06.2020
719 Clouds 15 1017 87 10000 1.5 100 06:30 26.06.2020
720 Clouds 14 1018 93 10000 2.1 160 05:52 26.06.2020
721 Clouds 15 1018 87 10000 1.5 160 05:21 26.06.2020
722 Clouds 16 1019 82 10000 0.5 0 02:32 26.06.2020
723 Clouds 17 1019 82 10000 1 0 01:35 26.06.2020
724 Clouds 17 1019 72 10000 1.5 60 00:52 26.06.2020
725 Clouds 17 1019 72 10000 1.5 60 00:31 26.06.2020
726 Clouds 18 1020 77 10000 1 0 23:48 25.06.2020
727 Clear 18 1020 72 10000 2.1 60 23:23 25.06.2020
728 Clear 19 1020 72 10000 2.1 60 22:59 25.06.2020
729 Clear 19 1020 68 10000 2.1 90 22:39 25.06.2020
730 Clear 19 1020 68 10000 2.1 90 22:20 25.06.2020
731 Clear 19 1020 68 10000 2.1 90 22:20 25.06.2020
732 Clear 20 1020 68 10000 2.1 90 21:58 25.06.2020
733 Clear 21 1020 64 10000 3.6 80 21:40 25.06.2020
734 Clouds 22 1020 46 10000 3.6 90 21:21 25.06.2020
735 Clouds 22 1020 44 10000 3.1 110 20:59 25.06.2020
736 Clouds 22 1020 44 10000 3.1 110 20:40 25.06.2020
737 Clouds 23 1020 53 10000 3.6 100 20:22 25.06.2020
738 Clear 24 1020 50 10000 4.6 100 19:56 25.06.2020
739 Clear 25 1020 50 10000 4.6 100 19:37 25.06.2020
740 Clear 25 1020 50 10000 4.6 100 19:18 25.06.2020
741 Clear 25 1020 50 10000 5.1 120 18:40 25.06.2020
742 Clear 25 1020 47 10000 4.6 80 18:21 25.06.2020
743 Clear 25 1020 44 10000 4.1 100 17:55 25.06.2020
744 Clear 25 1020 44 10000 4.1 100 17:37 25.06.2020
745 Clear 25 1020 41 10000 4.6 90 17:18 25.06.2020
746 Clear 25 1021 44 10000 4.1 140 16:40 25.06.2020
747 Clear 25 1021 47 10000 4.6 120 16:20 25.06.2020
748 Clear 25 1021 44 10000 5.1 170 15:45 25.06.2020
749 Clouds 25 1021 44 10000 4.1 110 15:27 25.06.2020
750 Clouds 24 1021 44 10000 4.1 110 14:58 25.06.2020
751 Clouds 24 1021 47 10000 3.6 120 14:40 25.06.2020
752 Clouds 24 1022 46 10000 5.1 100 14:22 25.06.2020
753 Clouds 23 1022 46 10000 5.1 110 13:56 25.06.2020
754 Clouds 23 1022 46 10000 5.1 110 13:37 25.06.2020
755 Rain 23 1022 53 10000 5.7 110 13:19 25.06.2020
756 Rain 22 1022 56 10000 4.6 140 12:44 25.06.2020
757 Rain 22 1022 56 10000 5.1 130 12:20 25.06.2020
758 Clouds 21 1022 64 10000 4.6 130 11:44 25.06.2020
759 Clouds 20 1022 68 10000 4.6 140 11:25 25.06.2020
760 Clouds 21 1022 68 10000 4.6 140 10:59 25.06.2020
761 Clouds 20 1022 68 10000 5.1 150 10:40 25.06.2020
762 Clouds 20 1021 72 10000 4.1 180 10:22 25.06.2020
763 Clouds 19 1021 77 10000 5.1 130 09:41 25.06.2020
764 Clouds 19 1021 77 10000 5.1 130 09:41 25.06.2020
765 Clouds 18 1021 77 10000 3.6 150 09:23 25.06.2020
766 Clouds 18 1021 82 10000 4.6 150 08:47 25.06.2020
767 Clouds 18 1021 82 10000 4.1 150 08:20 25.06.2020
768 Clouds 17 1021 88 10000 3.6 140 07:56 25.06.2020
769 Clouds 17 1021 88 10000 3.6 140 07:38 25.06.2020
770 Clouds 16 1021 100 10000 3.1 140 07:19 25.06.2020
771 Mist 16 1020 100 3200 0.5 0 06:28 25.06.2020
772 Mist 16 1020 100 2600 1 0 05:53 25.06.2020
773 Mist 16 1021 100 2300 1 0 04:56 25.06.2020
774 Rain 16 1021 100 2900 1 0 03:36 25.06.2020
775 Rain 16 1022 100 4000 2.1 350 02:44 25.06.2020
776 Rain 16 1022 100 6000 1.5 270 02:19 25.06.2020
777 Rain 16 1022 100 10000 1 0 01:35 25.06.2020
778 Rain 16 1022 88 10000 0.5 0 00:50 25.06.2020
779 Rain 16 1023 82 10000 1 0 00:22 25.06.2020
780 Rain 16 1023 88 10000 1 280 23:58 24.06.2020
781 Rain 17 1023 88 10000 1 280 23:37 24.06.2020
782 Clouds 17 1023 82 10000 1 320 23:19 24.06.2020
783 Clouds 17 1023 77 10000 0.5 0 22:41 24.06.2020
784 Clouds 17 1023 77 10000 0.5 0 22:21 24.06.2020
785 Clouds 17 1023 77 10000 0.5 330 21:57 24.06.2020
786 Clouds 17 1023 77 10000 0.5 330 21:37 24.06.2020
787 Clouds 17 1023 77 10000 1 0 21:19 24.06.2020
788 Clouds 18 1023 72 10000 1.5 100 20:58 24.06.2020
789 Clouds 18 1023 72 10000 1.5 100 20:39 24.06.2020
790 Clouds 18 1023 68 10000 1 0 20:21 24.06.2020
791 Clouds 18 1024 72 10000 2.1 80 19:58 24.06.2020
792 Clouds 18 1024 72 10000 2.1 80 19:38 24.06.2020
793 Clouds 18 1024 72 10000 1.5 60 19:20 24.06.2020
794 Rain 18 1024 72 10000 1 0 18:58 24.06.2020
795 Rain 18 1024 72 10000 1 0 18:39 24.06.2020
796 Rain 18 1024 72 10000 1 0 18:39 24.06.2020
797 Clouds 18 1024 77 10000 1 0 18:20 24.06.2020
798 Rain 18 1024 77 10000 1.5 100 17:56 24.06.2020
799 Rain 17 1024 77 10000 1.5 100 17:37 24.06.2020
800 Rain 17 1024 72 10000 1.5 120 17:18 24.06.2020
801 Rain 17 1024 72 10000 1.5 120 17:18 24.06.2020
802 Rain 17 1024 68 10000 3.1 90 16:56 24.06.2020
803 Rain 17 1024 68 10000 3.1 90 16:37 24.06.2020
804 Rain 18 1024 60 10000 3.6 50 16:19 24.06.2020
805 Clouds 19 1024 56 10000 4.1 40 15:55 24.06.2020
806 Clouds 20 1024 56 10000 4.1 40 15:37 24.06.2020
807 Clouds 20 1024 56 10000 4.1 40 15:37 24.06.2020
808 Clouds 20 1024 56 10000 3.1 50 15:19 24.06.2020
809 Clouds 20 1024 49 10000 4.1 60 14:42 24.06.2020
810 Clouds 20 1024 52 10000 4.1 40 14:23 24.06.2020
811 Clouds 21 1024 52 10000 3.1 360 13:43 24.06.2020
812 Clouds 21 1024 52 10000 3.6 340 13:22 24.06.2020
813 Clouds 22 1024 52 10000 2.6 0 12:56 24.06.2020
814 Clouds 22 1024 52 10000 2.6 0 12:37 24.06.2020
815 Clouds 21 1024 52 10000 3.1 30 12:18 24.06.2020
816 Clouds 21 1024 56 10000 4.1 10 11:54 24.06.2020
817 Clouds 21 1024 56 10000 4.1 10 11:36 24.06.2020
818 Clouds 21 1024 56 10000 3.1 0 11:18 24.06.2020
819 Clouds 20 1025 59 10000 3.6 360 10:41 24.06.2020
820 Clouds 20 1024 59 10000 2.6 60 10:19 24.06.2020
821 Clouds 20 1025 59 10000 3.1 50 09:43 24.06.2020
822 Clouds 17 1025 59 10000 2.1 0 09:22 24.06.2020
823 Clear 17 1025 63 10000 2.1 20 08:43 24.06.2020
824 Clear 15 1025 67 10000 1.5 340 08:21 24.06.2020
825 Clear 14 1025 63 10000 1 0 07:51 24.06.2020
826 Clear 13 1025 67 10000 1 0 07:32 24.06.2020
827 Clear 12 1025 76 10000 0.5 200 06:51 24.06.2020
828 Clear 11 1025 71 10000 1 310 06:26 24.06.2020
829 Clear 11 1024 76 10000 0.5 140 05:58 24.06.2020
830 Clear 10 1024 71 10000 0.5 0 05:30 24.06.2020
831 Clear 11 1024 71 10000 0.5 0 04:36 24.06.2020
832 Clear 11 1024 66 10000 0.5 0 03:35 24.06.2020
833 Clear 12 1025 62 10000 1 120 02:51 24.06.2020
834 Clear 13 1025 54 10000 1.5 80 01:46 24.06.2020
835 Clear 14 1025 51 10000 1 40 00:49 24.06.2020
836 Clear 14 1025 51 10000 1 20 00:29 24.06.2020
837 Clear 15 1025 48 10000 1 40 23:46 23.06.2020
838 Clear 15 1024 45 10000 1 30 23:21 23.06.2020
839 Clear 16 1024 42 10000 2.1 20 22:57 23.06.2020
840 Clear 16 1024 42 10000 2.1 20 22:38 23.06.2020
841 Clear 17 1024 39 10000 1.5 20 22:18 23.06.2020
842 Clear 18 1024 37 10000 2.6 20 21:42 23.06.2020
843 Clear 19 1023 37 10000 2.6 350 21:20 23.06.2020
844 Clear 20 1023 33 10000 3.1 350 20:56 23.06.2020
845 Clear 20 1023 33 10000 3.1 350 20:38 23.06.2020
846 Clear 22 1023 33 10000 3.6 350 20:19 23.06.2020
847 Clear 23 1023 35 10000 5.1 360 19:57 23.06.2020
848 Clear 23 1023 33 10000 4.6 350 19:38 23.06.2020
849 Clear 23 1023 33 10000 4.6 350 19:20 23.06.2020
850 Clear 24 1023 33 10000 5.7 360 18:38 23.06.2020
851 Clear 24 1023 31 10000 5.1 10 18:18 23.06.2020
852 Clear 24 1023 31 10000 5.7 330 17:42 23.06.2020
853 Clouds 24 1023 33 10000 5.7 360 17:23 23.06.2020
854 Clouds 24 1023 36 10000 5.7 340 16:57 23.06.2020
855 Clouds 24 1023 36 10000 5.7 340 16:38 23.06.2020
856 Clouds 24 1023 36 10000 5.7 340 16:20 23.06.2020
857 Clouds 23 1024 40 10000 5.1 350 15:57 23.06.2020
858 Clouds 22 1024 40 10000 5.1 350 15:39 23.06.2020
859 Clouds 23 1024 40 10000 5.7 360 15:18 23.06.2020
860 Clouds 23 1024 35 10000 5.1 340 14:43 23.06.2020
861 Clouds 22 1024 43 10000 5.1 340 14:19 23.06.2020
862 Clouds 23 1024 40 10000 5.1 340 13:57 23.06.2020
863 Clouds 23 1024 40 10000 5.1 340 13:39 23.06.2020
864 Clouds 22 1025 40 10000 4.1 340 13:20 23.06.2020
865 Clouds 22 1025 46 10000 4.6 330 12:45 23.06.2020
866 Clouds 22 1025 46 10000 4.1 340 12:23 23.06.2020
867 Clouds 21 1025 46 10000 4.6 320 11:58 23.06.2020
868 Clouds 22 1025 46 10000 4.6 320 11:40 23.06.2020
869 Clouds 20 1025 49 10000 4.6 340 11:19 23.06.2020
870 Clouds 21 1025 49 10000 2.6 0 10:57 23.06.2020
871 Clouds 21 1025 49 10000 2.6 0 10:39 23.06.2020
872 Clouds 20 1025 49 10000 2.1 0 10:21 23.06.2020
873 Clouds 20 1025 52 10000 1.5 0 09:42 23.06.2020
874 Clouds 18 1025 55 10000 2.1 50 09:21 23.06.2020
875 Clouds 18 1025 55 10000 2.1 50 08:59 23.06.2020
876 Clouds 18 1025 59 10000 1.5 310 08:41 23.06.2020
877 Clouds 17 1025 67 10000 2.1 330 08:21 23.06.2020
878 Clear 15 1025 77 10000 2.1 310 07:43 23.06.2020
879 Clear 14 1025 77 10000 2.6 310 07:24 23.06.2020
880 Clear 14 1025 72 10000 0.5 0 06:51 23.06.2020
881 Clear 13 1025 71 10000 1 0 06:31 23.06.2020
882 Clear 12 1024 76 10000 1 290 05:48 23.06.2020
883 Clear 12 1024 82 10000 1.5 260 04:41 23.06.2020
884 Clear 13 1024 67 10000 1 20 03:20 23.06.2020
885 Clear 14 1024 72 10000 1 0 02:46 23.06.2020
886 Clear 14 1024 72 10000 1 40 02:27 23.06.2020
887 Clear 15 1024 67 10000 1 20 01:44 23.06.2020
888 Clear 15 1024 67 10000 1.5 350 01:21 23.06.2020
889 Clear 16 1024 67 10000 1.5 10 00:40 23.06.2020
890 Clear 16 1023 72 10000 1.5 330 00:19 23.06.2020
891 Clear 16 1023 67 10000 2.6 340 23:39 22.06.2020
892 Clear 17 1023 67 10000 2.6 320 23:19 22.06.2020
893 Clear 17 1023 63 10000 2.6 310 22:59 22.06.2020
894 Clear 18 1023 63 10000 2.6 310 22:40 22.06.2020
895 Clear 18 1023 59 10000 2.1 320 22:20 22.06.2020
896 Clear 19 1023 59 10000 2.1 320 21:59 22.06.2020
897 Clear 19 1022 59 10000 2.1 310 21:40 22.06.2020
898 Clear 20 1022 52 10000 3.1 320 21:21 22.06.2020
899 Clear 21 1022 49 10000 3.6 330 20:58 22.06.2020
900 Clear 22 1022 49 10000 3.6 330 20:40 22.06.2020
901 Clouds 22 1022 49 10000 4.6 320 20:20 22.06.2020
902 Clouds 23 1022 53 10000 3.6 320 19:44 22.06.2020
903 Clouds 24 1022 44 10000 5.7 330 19:19 22.06.2020
904 Clouds 24 1022 44 10000 5.7 330 18:57 22.06.2020
905 Clouds 24 1022 47 10000 6.2 340 18:37 22.06.2020
906 Clouds 25 1022 47 10000 6.2 340 18:19 22.06.2020
907 Clouds 24 1022 47 10000 6.7 320 17:55 22.06.2020
908 Clouds 24 1022 50 10000 6.2 320 17:37 22.06.2020
909 Clouds 24 1022 50 10000 6.2 320 17:18 22.06.2020
910 Clouds 24 1022 41 10000 6.7 350 16:43 22.06.2020
911 Clouds 24 1022 41 10000 6.7 350 16:19 22.06.2020
912 Clouds 24 1021 36 10000 6.7 340 15:58 22.06.2020
913 Clouds 24 1021 38 10000 6.2 320 15:39 22.06.2020
914 Clouds 24 1021 38 10000 6.2 320 15:21 22.06.2020
915 Clouds 24 1021 47 10000 4.6 330 14:40 22.06.2020
916 Rain 24 1021 47 10000 4.6 330 14:21 22.06.2020
917 Rain 24 1021 44 10000 5.1 320 13:58 22.06.2020
918 Rain 25 1021 47 10000 5.7 340 13:39 22.06.2020
919 Rain 24 1021 47 10000 5.7 340 13:21 22.06.2020
920 Rain 24 1021 47 10000 5.7 330 12:55 22.06.2020
921 Rain 24 1021 44 10000 5.7 320 12:37 22.06.2020
922 Rain 24 1021 44 10000 5.7 320 12:19 22.06.2020
923 Clouds 23 1021 46 10000 4.6 320 11:37 22.06.2020
924 Clouds 23 1021 46 10000 4.6 320 11:19 22.06.2020
925 Clouds 23 1021 46 10000 4.6 330 10:56 22.06.2020
926 Clouds 23 1021 49 10000 4.1 310 10:37 22.06.2020
927 Clouds 23 1021 49 10000 4.1 310 10:18 22.06.2020
928 Clear 22 1021 56 10000 2.6 310 09:56 22.06.2020
929 Clear 22 1021 60 10000 3.1 310 09:38 22.06.2020
930 Clear 20 1021 60 10000 3.1 310 09:18 22.06.2020
931 Clear 19 1020 63 10000 3.1 310 08:54 22.06.2020
932 Clear 18 1020 63 10000 2.6 270 08:36 22.06.2020
933 Clear 18 1020 63 10000 2.1 260 08:18 22.06.2020
934 Clear 17 1020 63 10000 2.1 260 07:45 22.06.2020
935 Clear 16 1020 67 10000 2.6 260 07:24 22.06.2020
936 Clear 14 1020 77 10000 2.6 250 06:38 22.06.2020
937 Clear 14 1020 77 10000 2.6 250 06:19 22.06.2020
938 Clear 13 1020 82 10000 1 250 05:42 22.06.2020
939 Clear 14 1019 67 10000 1 200 03:41 22.06.2020
940 Clouds 15 1019 77 10000 0.5 0 01:48 22.06.2020
941 Clouds 17 1019 63 10000 0.5 0 00:58 22.06.2020
942 Clouds 17 1019 59 10000 0.5 0 00:29 22.06.2020
943 Clouds 17 1019 63 10000 1 0 23:57 21.06.2020
944 Clouds 17 1019 63 10000 1.5 310 23:38 21.06.2020
945 Clouds 18 1019 63 10000 1.5 310 23:20 21.06.2020
946 Clouds 18 1019 63 10000 1.5 320 22:56 21.06.2020
947 Clouds 18 1019 59 10000 1.5 330 22:36 21.06.2020
948 Clouds 18 1019 55 10000 1.5 340 22:18 21.06.2020
949 Clouds 18 1019 55 10000 1.5 340 21:56 21.06.2020
950 Clouds 19 1019 49 10000 2.6 320 21:37 21.06.2020
951 Clouds 20 1019 49 10000 2.6 320 21:19 21.06.2020
952 Clouds 19 1018 49 10000 3.1 320 20:57 21.06.2020
953 Clouds 20 1018 46 10000 3.6 320 20:36 21.06.2020
954 Clouds 21 1018 46 10000 3.6 320 20:18 21.06.2020
955 Clouds 20 1018 46 10000 3.1 330 19:41 21.06.2020
956 Clouds 20 1018 46 10000 3.1 330 19:22 21.06.2020
957 Clouds 21 1018 43 10000 3.6 330 18:57 21.06.2020
958 Clouds 22 1018 40 10000 4.6 320 18:39 21.06.2020
959 Clouds 22 1018 40 10000 4.6 320 18:21 21.06.2020
960 Clouds 21 1018 43 10000 5.1 330 17:57 21.06.2020
961 Clouds 21 1018 49 10000 6.2 330 17:38 21.06.2020
962 Clouds 21 1018 49 10000 6.2 330 17:19 21.06.2020
963 Clouds 20 1018 56 10000 5.1 320 16:40 21.06.2020
964 Clouds 20 1018 56 10000 5.1 320 16:22 21.06.2020
965 Clouds 21 1018 52 10000 4.1 320 15:56 21.06.2020
966 Clouds 20 1018 56 10000 4.6 280 15:36 21.06.2020
967 Clouds 19 1019 59 10000 3.6 330 15:18 21.06.2020
968 Clouds 19 1019 63 10000 3.1 310 14:39 21.06.2020
969 Clouds 19 1019 63 10000 3.1 310 14:20 21.06.2020
970 Clouds 19 1019 63 10000 3.1 320 13:56 21.06.2020
971 Clouds 18 1019 63 10000 3.6 290 13:38 21.06.2020
972 Clouds 18 1019 63 10000 3.6 290 13:19 21.06.2020
973 Clouds 18 1019 67 10000 3.6 310 12:44 21.06.2020
974 Clouds 17 1019 67 10000 3.6 310 12:26 21.06.2020
975 Clouds 17 1019 67 10000 3.6 310 12:26 21.06.2020
976 Clouds 17 1019 72 10000 3.6 330 11:58 21.06.2020
977 Clouds 18 1019 72 10000 3.1 330 11:40 21.06.2020
978 Clouds 18 1019 72 10000 3.1 330 11:40 21.06.2020
979 Clouds 17 1019 72 10000 3.1 330 11:22 21.06.2020
980 Clouds 17 1019 77 10000 4.6 320 10:57 21.06.2020
981 Clouds 17 1019 77 10000 4.6 310 10:38 21.06.2020
982 Clouds 17 1019 77 10000 4.6 310 10:20 21.06.2020
983 Clouds 17 1018 77 10000 5.1 320 09:41 21.06.2020
984 Clouds 16 1018 77 10000 5.1 320 09:22 21.06.2020
985 Clouds 16 1018 82 10000 4.6 320 08:57 21.06.2020
986 Clouds 16 1018 82 10000 4.6 320 08:57 21.06.2020
987 Clouds 16 1018 87 10000 4.6 330 08:39 21.06.2020
988 Clouds 16 1018 87 10000 4.6 330 08:19 21.06.2020
989 Clouds 16 1018 87 10000 3.6 320 07:41 21.06.2020
990 Clouds 16 1018 87 10000 3.6 320 07:23 21.06.2020
991 Clouds 15 1018 87 10000 4.1 320 06:50 21.06.2020
992 Clouds 15 1018 87 10000 4.1 320 06:19 21.06.2020
993 Clouds 15 1018 87 10000 3.6 320 05:57 21.06.2020
994 Clouds 15 1017 93 10000 3.1 300 04:34 21.06.2020
995 Clouds 15 1018 93 10000 3.6 290 03:19 21.06.2020
996 Clouds 15 1018 93 10000 2.6 300 02:33 21.06.2020
997 Clouds 15 1018 87 10000 3.6 340 01:39 21.06.2020
998 Clouds 15 1018 87 10000 3.6 340 01:19 21.06.2020
999 Rain 15 1018 93 10000 3.1 360 00:45 21.06.2020
1000 Rain 15 1018 87 10000 3.1 10 00:25 21.06.2020
1001 Rain 15 1018 82 10000 3.1 310 23:45 20.06.2020
1002 Clouds 16 1018 82 10000 4.1 320 23:22 20.06.2020
1003 Rain 16 1018 82 10000 5.1 330 22:57 20.06.2020
1004 Rain 16 1018 82 10000 6.2 350 22:39 20.06.2020
1005 Rain 16 1018 82 10000 6.2 350 22:20 20.06.2020
1006 Clouds 17 1018 67 10000 6.7 360 21:58 20.06.2020
1007 Clouds 17 1018 63 10000 5.1 350 21:40 20.06.2020
1008 Clouds 17 1018 63 10000 5.1 350 21:21 20.06.2020
1009 Clouds 17 1017 55 10000 4.6 350 20:58 20.06.2020
1010 Clouds 17 1017 55 10000 6.2 340 20:40 20.06.2020
1011 Clouds 18 1017 55 10000 6.2 340 20:20 20.06.2020
1012 Clouds 18 1017 63 10000 5.1 340 19:58 20.06.2020
1013 Clouds 18 1017 63 10000 5.7 10 19:39 20.06.2020
1014 Clouds 18 1017 63 10000 5.7 10 19:20 20.06.2020
1015 Clouds 20 1017 60 10000 6.7 350 18:43 20.06.2020
1016 Clouds 19 1017 60 10000 6.7 350 18:21 20.06.2020
1017 Clouds 19 1017 56 10000 5.7 340 17:57 20.06.2020
1018 Clouds 19 1017 56 10000 6.7 340 17:39 20.06.2020
1019 Clouds 19 1017 56 10000 6.7 340 17:39 20.06.2020
1020 Clouds 19 1017 56 10000 6.7 340 17:20 20.06.2020
1021 Clouds 20 1017 56 10000 4.6 340 17:20 20.06.2020
1022 Clouds 20 1017 56 10000 4.6 340 16:55 20.06.2020
1023 Clouds 20 1017 60 10000 5.7 330 16:36 20.06.2020
1024 Clouds 20 1017 60 10000 5.7 330 16:18 20.06.2020
1025 Clouds 20 1016 52 10000 7.7 330 15:41 20.06.2020
1026 Clouds 20 1016 52 10000 7.7 330 15:18 20.06.2020
1027 Clouds 20 1017 52 10000 7.2 320 14:43 20.06.2020
1028 Clouds 21 1017 52 10000 7.2 320 14:21 20.06.2020
1029 Clouds 20 1017 56 10000 6.7 320 13:55 20.06.2020
1030 Clouds 19 1017 59 10000 6.2 310 13:37 20.06.2020
1031 Clouds 18 1017 59 10000 6.2 310 13:18 20.06.2020
1032 Clouds 18 1017 63 10000 6.7 300 12:42 20.06.2020
1033 Clouds 18 1017 63 10000 6.7 300 12:21 20.06.2020
1034 Clouds 17 1017 72 10000 6.2 300 11:57 20.06.2020
1035 Clouds 17 1017 72 10000 4.1 290 11:38 20.06.2020
1036 Clouds 17 1017 72 10000 4.1 290 11:20 20.06.2020
1037 Clouds 17 1017 72 10000 4.1 290 11:20 20.06.2020
1038 Rain 17 1017 77 10000 4.6 300 10:50 20.06.2020
1039 Clouds 16 1017 77 10000 5.1 300 10:22 20.06.2020
1040 Rain 16 1017 87 10000 4.6 290 09:57 20.06.2020
1041 Rain 16 1016 87 10000 5.1 300 09:39 20.06.2020
1042 Rain 16 1016 87 10000 5.1 300 09:21 20.06.2020
1043 Rain 15 1016 87 10000 5.1 300 08:56 20.06.2020
1044 Rain 15 1016 93 10000 4.6 290 08:37 20.06.2020
1045 Rain 15 1016 93 10000 4.6 290 08:18 20.06.2020
1046 Rain 15 1016 93 10000 4.6 280 07:44 20.06.2020
1047 Rain 15 1016 93 10000 4.6 280 07:25 20.06.2020
1048 Rain 15 1016 87 10000 4.6 290 06:24 20.06.2020
1049 Rain 15 1015 93 10000 3.6 290 05:55 20.06.2020
1050 Rain 15 1015 93 10000 4.1 290 05:30 20.06.2020
1051 Rain 15 1015 87 10000 3.1 280 03:21 20.06.2020
1052 Clouds 15 1015 82 10000 2.1 290 01:52 20.06.2020
1053 Clouds 15 1015 87 10000 2.6 280 01:33 20.06.2020
1054 Rain 16 1015 87 10000 2.6 280 00:40 20.06.2020
1055 Rain 16 1015 87 10000 2.6 280 00:19 20.06.2020
1056 Rain 16 1015 87 10000 2.1 280 23:40 19.06.2020
1057 Rain 16 1015 87 10000 2.1 280 23:19 19.06.2020
1058 Rain 16 1015 87 10000 1.5 280 22:55 19.06.2020
1059 Rain 16 1015 93 10000 2.1 280 22:37 19.06.2020
1060 Rain 16 1015 93 10000 2.1 280 22:18 19.06.2020
1061 Rain 16 1014 93 10000 3.6 280 21:54 19.06.2020
1062 Rain 16 1014 88 10000 2.1 250 21:36 19.06.2020
1063 Rain 16 1014 88 10000 2.1 250 21:18 19.06.2020
1064 Rain 16 1014 88 10000 2.1 250 20:55 19.06.2020
1065 Rain 16 1014 88 10000 2.1 260 20:37 19.06.2020
1066 Rain 16 1014 88 10000 2.1 260 20:18 19.06.2020
1067 Rain 17 1014 82 10000 3.1 290 19:41 19.06.2020
1068 Rain 17 1014 82 10000 3.1 290 19:41 19.06.2020
1069 Rain 17 1014 82 10000 3.1 290 19:23 19.06.2020
1070 Rain 17 1014 82 10000 3.6 290 18:59 19.06.2020
1071 Rain 18 1014 77 10000 3.6 310 18:39 19.06.2020
1072 Rain 17 1014 77 10000 3.6 310 18:20 19.06.2020
1073 Clouds 17 1014 82 10000 4.6 310 17:42 19.06.2020
1074 Clouds 17 1014 82 10000 4.6 310 17:42 19.06.2020
1075 Rain 17 1014 82 10000 4.6 310 17:23 19.06.2020
1076 Rain 17 1014 82 10000 5.1 330 16:58 19.06.2020
1077 Rain 17 1013 77 10000 5.7 320 16:39 19.06.2020
1078 Rain 17 1013 77 10000 5.7 320 16:21 19.06.2020
1079 Clouds 17 1013 77 10000 4.1 280 15:45 19.06.2020
1080 Clouds 17 1013 77 10000 4.1 270 15:26 19.06.2020
1081 Clouds 17 1013 77 10000 4.1 270 14:58 19.06.2020
1082 Clouds 18 1013 72 10000 4.6 260 14:40 19.06.2020
1083 Clouds 18 1013 72 10000 4.6 260 14:21 19.06.2020
1084 Clouds 17 1013 77 10000 4.6 260 13:58 19.06.2020
1085 Clouds 17 1013 77 10000 5.1 270 13:40 19.06.2020
1086 Clouds 18 1013 77 10000 5.1 270 13:22 19.06.2020
1087 Clouds 18 1013 77 10000 5.1 270 12:45 19.06.2020
1088 Clouds 18 1013 77 10000 4.1 290 12:22 19.06.2020
1089 Clouds 17 1013 82 10000 4.6 270 11:56 19.06.2020
1090 Clouds 18 1013 77 10000 3.6 280 11:36 19.06.2020
1091 Clouds 18 1013 77 10000 3.6 280 11:18 19.06.2020
1092 Rain 17 1013 87 10000 4.1 270 10:43 19.06.2020
1093 Rain 17 1013 87 10000 4.1 270 10:25 19.06.2020
1094 Rain 16 1013 87 10000 3.6 260 09:57 19.06.2020
1095 Rain 16 1013 87 10000 4.1 260 09:39 19.06.2020
1096 Rain 15 1013 87 10000 4.1 260 09:19 19.06.2020
1097 Clouds 15 1012 93 10000 4.1 260 08:41 19.06.2020
1098 Clouds 15 1012 93 10000 4.1 260 08:23 19.06.2020
1099 Clouds 15 1012 93 10000 3.6 250 07:55 19.06.2020
1100 Clouds 15 1012 93 10000 3.6 260 07:36 19.06.2020
1101 Clouds 15 1012 93 10000 3.1 270 07:18 19.06.2020
1102 Clouds 15 1012 93 9000 3.6 260 06:23 19.06.2020
1103 Rain 15 1012 93 9000 4.1 260 05:41 19.06.2020
1104 Rain 15 1012 93 10000 3.6 280 04:23 19.06.2020
1105 Clouds 16 1012 93 10000 4.6 260 02:33 19.06.2020
1106 Clouds 16 1012 93 10000 3.1 250 00:48 19.06.2020
1107 Rain 16 1012 93 10000 4.1 260 00:22 19.06.2020
1108 Rain 16 1012 93 10000 4.1 260 23:59 18.06.2020
1109 Rain 16 1012 93 10000 4.6 260 23:41 18.06.2020
1110 Rain 16 1012 93 10000 4.6 260 23:23 18.06.2020
1111 Rain 16 1012 93 10000 4.6 260 22:58 18.06.2020
1112 Clouds 16 1011 88 10000 4.6 260 22:36 18.06.2020
1113 Rain 16 1011 88 10000 4.6 260 22:18 18.06.2020
1114 Rain 17 1011 88 10000 4.6 260 21:39 18.06.2020
1115 Rain 17 1011 88 10000 4.6 260 21:20 18.06.2020
1116 Rain 17 1011 88 10000 4.1 270 20:56 18.06.2020
1117 Rain 17 1011 88 10000 4.6 260 20:38 18.06.2020
1118 Rain 17 1011 88 10000 4.6 260 20:18 18.06.2020
1119 Rain 17 1011 88 10000 4.6 260 19:42 18.06.2020
1120 Rain 17 1011 88 10000 4.6 260 19:21 18.06.2020
1121 Rain 18 1011 88 10000 4.6 260 18:57 18.06.2020
1122 Rain 18 1011 82 10000 5.7 270 18:37 18.06.2020
1123 Rain 18 1011 82 10000 5.7 270 18:19 18.06.2020
1124 Clouds 19 1010 77 10000 5.7 250 17:45 18.06.2020
1125 Clouds 19 1010 77 10000 5.7 250 17:25 18.06.2020
1126 Clouds 19 1010 77 10000 5.7 260 16:56 18.06.2020
1127 Clouds 19 1010 72 10000 6.2 260 16:37 18.06.2020
1128 Clouds 19 1010 72 10000 6.7 270 16:18 18.06.2020
1129 Clouds 19 1010 72 10000 6.7 270 15:55 18.06.2020
1130 Clouds 20 1010 68 10000 5.7 280 15:37 18.06.2020
1131 Clouds 20 1010 68 10000 5.7 280 15:18 18.06.2020
1132 Clouds 22 1010 64 10000 6.2 270 14:41 18.06.2020
1133 Clouds 21 1010 64 10000 6.2 270 14:23 18.06.2020
1134 Clouds 22 1010 68 10000 6.2 270 13:59 18.06.2020
1135 Clouds 21 1010 68 10000 5.7 280 13:41 18.06.2020
1136 Clouds 22 1010 68 10000 5.7 280 13:20 18.06.2020
1137 Clouds 22 1010 68 10000 5.7 280 12:55 18.06.2020
1138 Clouds 22 1010 68 10000 5.1 270 12:37 18.06.2020
1139 Clouds 22 1010 68 10000 5.1 270 12:19 18.06.2020
1140 Clouds 22 1010 68 10000 4.1 270 11:46 18.06.2020
1141 Clouds 22 1010 68 10000 4.6 280 11:21 18.06.2020
1142 Rain 22 1009 68 10000 4.6 270 10:56 18.06.2020
1143 Rain 21 1009 68 10000 4.6 280 10:38 18.06.2020
1144 Rain 22 1009 68 10000 4.6 260 10:18 18.06.2020
1145 Rain 21 1009 68 10000 4.1 270 09:42 18.06.2020
1146 Clouds 21 1009 68 10000 4.1 270 09:23 18.06.2020
1147 Clouds 20 1009 72 10000 2.6 300 08:42 18.06.2020
1148 Clouds 20 1009 72 10000 2.6 300 08:24 18.06.2020
1149 Clouds 20 1009 72 10000 2.1 240 08:00 18.06.2020
1150 Clouds 19 1009 77 10000 1 0 07:41 18.06.2020
1151 Rain 19 1009 77 10000 1 0 07:23 18.06.2020
1152 Rain 17 1009 82 10000 0.5 0 06:29 18.06.2020
1153 Clouds 18 1008 77 10000 1.5 240 04:27 18.06.2020
1154 Clouds 18 1009 72 10000 1 230 03:26 18.06.2020
1155 Clouds 19 1009 64 10000 0.5 80 01:42 18.06.2020
1156 Clouds 20 1009 60 10000 1 80 01:18 18.06.2020
1157 Clouds 20 1009 60 10000 1 80 00:49 18.06.2020
1158 Clouds 20 1009 56 10000 1 60 00:25 18.06.2020
1159 Clouds 20 1009 53 10000 1.5 150 23:54 17.06.2020
1160 Clouds 21 1009 53 10000 1 150 23:36 17.06.2020
1161 Clouds 21 1009 53 10000 1 140 23:18 17.06.2020
1162 Clouds 21 1009 53 10000 1 140 22:54 17.06.2020
1163 Clouds 21 1009 53 10000 1 0 22:36 17.06.2020
1164 Clouds 22 1009 53 10000 1 0 22:18 17.06.2020
1165 Clouds 22 1009 47 10000 1 130 21:39 17.06.2020
1166 Clouds 22 1009 47 10000 1 130 21:39 17.06.2020
1167 Clouds 23 1009 44 10000 3.1 110 21:20 17.06.2020
1168 Clouds 23 1009 44 10000 3.1 110 20:55 17.06.2020
1169 Clouds 23 1009 44 10000 3.1 110 20:37 17.06.2020
1170 Clouds 24 1009 44 10000 3.1 110 20:18 17.06.2020
1171 Clouds 25 1009 39 10000 3.6 90 19:42 17.06.2020
1172 Clouds 25 1009 39 10000 3.6 90 19:21 17.06.2020
1173 Clouds 26 1009 39 10000 3.1 90 18:56 17.06.2020
1174 Clouds 26 1009 41 10000 3.1 80 18:37 17.06.2020
1175 Clouds 26 1009 41 10000 3.1 80 18:19 17.06.2020
1176 Clouds 26 1009 39 10000 2.6 100 17:42 17.06.2020
1177 Clouds 26 1010 39 10000 3.1 100 17:21 17.06.2020
1178 Clouds 26 1010 39 10000 3.1 100 16:56 17.06.2020
1179 Clouds 26 1010 39 10000 4.1 70 16:38 17.06.2020
1180 Clouds 25 1010 39 10000 3.6 70 16:19 17.06.2020
1181 Clouds 26 1011 39 10000 4.1 100 15:40 17.06.2020
1182 Clouds 25 1011 39 10000 4.1 100 15:21 17.06.2020
1183 Clouds 25 1011 39 10000 3.6 100 14:59 17.06.2020
1184 Clouds 25 1011 44 10000 2.6 0 14:40 17.06.2020
1185 Clouds 25 1011 44 10000 2.6 0 14:40 17.06.2020
1186 Clouds 26 1011 39 10000 4.1 30 14:21 17.06.2020
1187 Clouds 26 1011 39 10000 4.1 30 14:00 17.06.2020
1188 Clouds 26 1011 41 10000 3.1 0 13:41 17.06.2020
1189 Clouds 26 1011 41 10000 3.1 0 13:41 17.06.2020
1190 Clouds 26 1011 41 10000 3.1 0 13:21 17.06.2020
1191 Clouds 25 1012 47 10000 3.6 110 12:56 17.06.2020
1192 Clouds 25 1012 41 10000 3.6 90 12:37 17.06.2020
1193 Rain 25 1012 41 10000 3.6 90 12:19 17.06.2020
1194 Clouds 24 1012 50 10000 3.1 60 11:44 17.06.2020
1195 Clouds 24 1012 50 10000 3.1 60 11:24 17.06.2020
1196 Rain 24 1012 49 10000 2.1 50 10:55 17.06.2020
1197 Rain 23 1012 56 10000 2.1 110 10:37 17.06.2020
1198 Rain 23 1012 64 10000 1 0 10:18 17.06.2020
1199 Rain 22 1012 64 10000 1 0 09:55 17.06.2020
1200 Rain 21 1012 64 10000 1 0 09:36 17.06.2020
1201 Clouds 21 1012 64 10000 1 0 09:18 17.06.2020
1202 Clouds 19 1012 72 10000 1.5 200 08:42 17.06.2020
1203 Clouds 18 1012 77 10000 1.5 230 08:19 17.06.2020
1204 Clouds 17 1012 77 10000 1 0 07:43 17.06.2020
1205 Clouds 16 1012 77 10000 1 0 07:23 17.06.2020
1206 Clouds 15 1013 87 10000 1.5 170 06:58 17.06.2020
1207 Clouds 15 1012 87 10000 1 0 06:39 17.06.2020
1208 Clouds 15 1012 87 10000 1 0 06:21 17.06.2020
1209 Clouds 14 1012 93 10000 2.1 200 05:48 17.06.2020
1210 Clouds 14 1012 82 10000 2.1 170 04:38 17.06.2020
1211 Clouds 15 1013 82 10000 2.1 270 01:59 17.06.2020
1212 Clouds 16 1013 72 10000 2.1 160 00:53 17.06.2020
1213 Clouds 16 1013 72 10000 1.5 180 00:30 17.06.2020
1214 Clouds 17 1013 60 10000 1 150 23:59 16.06.2020
1215 Clouds 17 1013 60 10000 1.5 160 23:41 16.06.2020
1216 Clouds 17 1013 60 10000 1.5 160 23:22 16.06.2020
1217 Clouds 18 1013 60 10000 1.5 160 22:57 16.06.2020
1218 Clouds 18 1013 60 10000 2.1 150 22:38 16.06.2020
1219 Clouds 19 1013 56 10000 1.5 140 22:19 16.06.2020
1220 Clouds 18 1013 60 10000 2.1 150 22:19 16.06.2020
1221 Clouds 19 1013 56 10000 1.5 140 21:57 16.06.2020
1222 Clouds 20 1012 49 10000 1.5 120 21:39 16.06.2020
1223 Clouds 20 1012 49 10000 1.5 120 21:21 16.06.2020
1224 Clouds 22 1012 46 10000 1 0 20:43 16.06.2020
1225 Clouds 22 1012 46 10000 1 0 20:23 16.06.2020
1226 Clouds 23 1012 44 10000 2.1 70 19:58 16.06.2020
1227 Clouds 23 1013 47 10000 1.5 40 19:40 16.06.2020
1228 Clouds 24 1013 47 10000 1.5 40 19:22 16.06.2020
1229 -273 0 0 0 0 0 18:59 16.06.2020
1230 Clouds 24 1013 49 10000 1 0 18:41 16.06.2020
1231 Clouds 23 1013 49 10000 1 0 18:21 16.06.2020
1232 Clouds 24 1013 47 10000 2.1 60 17:57 16.06.2020
1233 Clouds 24 1013 44 10000 2.1 130 17:38 16.06.2020
1234 Rain 24 1013 44 10000 2.1 130 17:19 16.06.2020
1235 Rain 23 1013 49 10000 1.5 120 16:56 16.06.2020
1236 Rain 24 1014 47 10000 3.6 110 16:38 16.06.2020
1237 Rain 24 1014 47 10000 3.6 110 16:19 16.06.2020
1238 Rain 24 1014 44 10000 3.1 0 15:56 16.06.2020
1239 Rain 23 1014 49 10000 1 0 15:38 16.06.2020
1240 Rain 23 1014 49 10000 1 0 15:38 16.06.2020
1241 Rain 23 1014 49 10000 1 0 15:20 16.06.2020
1242 Rain 24 1014 49 10000 2.1 40 14:43 16.06.2020
1243 Rain 24 1014 49 10000 2.1 40 14:25 16.06.2020
1244 Clouds 24 1014 46 10000 1.5 0 13:59 16.06.2020
1245 Clouds 24 1014 53 10000 2.6 0 13:41 16.06.2020
1246 Clouds 24 1014 53 10000 2.6 0 13:22 16.06.2020
1247 Clouds 23 1015 56 10000 2.1 0 12:42 16.06.2020
1248 Clouds 23 1015 56 10000 2.1 0 12:22 16.06.2020
1249 Clouds 23 1015 60 10000 2.1 0 11:57 16.06.2020
1250 Clouds 22 1015 64 10000 2.1 330 11:39 16.06.2020
1251 Clouds 22 1015 64 10000 2.1 330 11:21 16.06.2020
1252 Clouds 21 1015 72 10000 2.1 0 10:58 16.06.2020
1253 Clouds 22 1015 77 10000 2.1 270 10:38 16.06.2020
1254 Clouds 21 1015 77 10000 2.1 270 10:20 16.06.2020
1255 Clouds 20 1015 82 8000 1 0 09:44 16.06.2020
1256 Clouds 19 1015 82 8000 1 0 09:23 16.06.2020
1257 Clouds 19 1015 82 8000 2.6 270 08:53 16.06.2020
1258 Clouds 18 1015 88 7000 2.6 270 08:32 16.06.2020
1259 Mist 17 1015 93 5000 1.5 260 07:52 16.06.2020
1260 Mist 16 1015 93 5000 2.1 220 07:30 16.06.2020
1261 Clouds 15 1015 93 6000 2.6 220 06:57 16.06.2020
1262 Clouds 15 1015 93 6000 2.6 230 06:34 16.06.2020
1263 Clouds 14 1015 93 7000 1.5 240 05:52 16.06.2020
1264 Clouds 14 1015 93 8000 2.1 240 04:58 16.06.2020
1265 Clouds 14 1015 93 10000 1.5 240 04:25 16.06.2020
1266 Clouds 15 1015 63 10000 1.5 0 02:46 16.06.2020
1267 Clouds 15 1015 63 10000 0.5 60 01:34 16.06.2020
1268 Clouds 16 1015 55 10000 1 60 00:58 16.06.2020
1269 Clouds 16 1015 59 10000 1 50 00:25 16.06.2020
1270 Clouds 16 1015 59 10000 1 50 23:57 15.06.2020
1271 Clouds 17 1015 55 10000 1.5 40 23:38 15.06.2020
1272 Clouds 17 1015 55 10000 1.5 40 23:20 15.06.2020
1273 Clouds 18 1014 52 10000 1.5 30 22:42 15.06.2020
1274 Clouds 18 1014 52 10000 1.5 30 22:23 15.06.2020
1275 Clouds 19 1014 49 10000 2.1 40 21:58 15.06.2020
1276 Clouds 19 1014 52 10000 1.5 20 21:38 15.06.2020
1277 Clouds 20 1014 52 10000 1.5 20 21:20 15.06.2020
1278 Clouds 21 1014 46 10000 1.5 30 20:59 15.06.2020
1279 Clouds 21 1014 43 10000 2.6 40 20:39 15.06.2020
1280 Clouds 22 1014 43 10000 2.6 40 20:20 15.06.2020
1281 Clouds 22 1014 43 10000 3.1 30 19:59 15.06.2020
1282 Clouds 22 1014 43 10000 3.6 30 19:40 15.06.2020
1283 Clouds 23 1014 43 10000 3.6 30 19:22 15.06.2020
1284 Clouds 24 1013 41 10000 4.1 10 18:57 15.06.2020
1285 Clouds 24 1013 43 10000 3.6 30 18:39 15.06.2020
1286 Clouds 24 1013 43 10000 3.6 30 18:20 15.06.2020
1287 Clouds 24 1013 41 10000 3.6 40 17:58 15.06.2020
1288 Clouds 24 1013 38 10000 2.1 110 17:40 15.06.2020
1289 Clouds 24 1013 38 10000 2.1 110 17:19 15.06.2020
1290 Clouds 24 1013 38 10000 2.1 110 17:19 15.06.2020
1291 Clouds 24 1013 36 10000 3.6 40 16:54 15.06.2020
1292 Clouds 24 1013 38 10000 1 0 16:36 15.06.2020
1293 Clouds 24 1013 38 10000 1 0 16:18 15.06.2020
1294 Clouds 24 1013 44 10000 2.6 0 15:40 15.06.2020
1295 Clouds 25 1013 44 10000 2.6 0 15:20 15.06.2020
1296 Clouds 25 1013 44 10000 2.6 0 15:20 15.06.2020
1297 Clouds 24 1014 38 10000 2.6 360 14:57 15.06.2020
1298 Clouds 24 1014 41 10000 2.6 40 14:39 15.06.2020
1299 Clouds 24 1014 40 10000 2.6 0 14:19 15.06.2020
1300 Clouds 23 1014 40 10000 2.6 0 13:56 15.06.2020
1301 Clouds 23 1014 49 10000 2.1 0 13:38 15.06.2020
1302 Clear 23 1014 49 10000 2.1 0 13:18 15.06.2020
1303 Clear 24 1014 43 10000 2.6 0 12:42 15.06.2020
1304 Clear 22 1014 43 10000 2.6 0 12:22 15.06.2020
1305 Clear 23 1014 52 10000 0.5 0 11:58 15.06.2020
1306 Clouds 22 1014 49 10000 1.5 10 11:40 15.06.2020
1307 Clouds 22 1014 49 10000 1.5 10 11:22 15.06.2020
1308 Clouds 22 1014 49 10000 1.5 10 11:22 15.06.2020
1309 Clouds 22 1014 64 10000 1 0 10:42 15.06.2020
1310 Clouds 22 1014 64 10000 1 0 10:22 15.06.2020
1311 Mist 20 1014 93 10000 0.5 0 09:44 15.06.2020
1312 Mist 19 1014 93 10000 0.5 0 09:23 15.06.2020
1313 Fog 18 1014 100 900 1 0 08:55 15.06.2020
1314 Fog 17 1013 100 100 1 0 08:36 15.06.2020
1315 Fog 16 1013 100 100 1 0 08:18 15.06.2020
1316 Fog 15 1013 100 100 1.5 190 07:41 15.06.2020
1317 Fog 15 1013 100 100 1.5 190 07:20 15.06.2020
1318 Fog 14 1013 100 200 2.6 200 06:30 15.06.2020
1319 Fog 13 1013 100 300 1.5 190 05:51 15.06.2020
1320 Fog 13 1012 100 10000 1.5 160 05:31 15.06.2020
1321 Clear 14 1012 93 10000 0.5 0 04:23 15.06.2020
1322 Clear 14 1012 100 10000 1 170 03:49 15.06.2020
1323 Clear 14 1012 93 10000 1.5 100 03:27 15.06.2020
1324 Clouds 15 1012 87 10000 1.5 60 02:34 15.06.2020
1325 Clouds 15 1012 87 10000 1 0 01:51 15.06.2020
1326 Clouds 16 1012 82 10000 1 0 01:30 15.06.2020
1327 Clouds 16 1012 88 10000 1 0 00:58 15.06.2020
1328 Clouds 16 1012 82 10000 0.5 0 00:39 15.06.2020
1329 Clouds 16 1012 82 10000 0.5 0 00:19 15.06.2020
1330 Clouds 17 1012 82 10000 0.5 0 23:46 14.06.2020
1331 Clouds 17 1012 88 10000 0.5 50 23:24 14.06.2020
1332 Clouds 17 1012 88 10000 0.5 0 22:58 14.06.2020
1333 Clouds 17 1012 88 10000 0.5 0 22:39 14.06.2020
1334 Clouds 17 1012 88 10000 0.5 0 22:19 14.06.2020
1335 Clouds 18 1012 82 10000 1.5 310 21:57 14.06.2020
1336 Clouds 19 1012 77 10000 1 280 21:38 14.06.2020
1337 Clouds 19 1012 77 10000 1 280 21:19 14.06.2020
1338 Clouds 19 1011 77 10000 0.5 0 20:58 14.06.2020
1339 Clouds 20 1011 73 10000 1 330 20:38 14.06.2020
1340 Clouds 20 1011 73 10000 1 330 20:19 14.06.2020
1341 Clouds 21 1011 77 10000 1.5 330 19:58 14.06.2020
1342 Clouds 21 1011 68 10000 1.5 10 19:38 14.06.2020
1343 Clouds 21 1011 68 10000 1.5 10 19:19 14.06.2020
1344 Clouds 21 1011 68 10000 2.6 50 18:57 14.06.2020
1345 Clouds 21 1011 64 10000 3.1 70 18:38 14.06.2020
1346 Clouds 21 1011 64 10000 3.1 70 18:20 14.06.2020
1347 Clouds 20 1011 68 10000 3.1 60 17:57 14.06.2020
1348 Clouds 21 1011 73 10000 2.1 80 17:38 14.06.2020
1349 Clouds 21 1011 73 10000 2.1 80 17:19 14.06.2020
1350 Clouds 21 1011 77 10000 2.1 0 16:41 14.06.2020
1351 Rain 21 1011 77 10000 2.1 0 16:21 14.06.2020
1352 Rain 20 1012 82 10000 4.1 80 15:59 14.06.2020
1353 Rain 20 1012 82 10000 5.7 60 15:40 14.06.2020
1354 Clouds 20 1012 82 10000 5.7 60 15:19 14.06.2020
1355 Clouds 20 1012 77 10000 4.6 70 14:59 14.06.2020
1356 Clouds 20 1012 82 10000 5.1 70 14:40 14.06.2020
1357 Clouds 20 1012 82 10000 5.1 70 14:21 14.06.2020
1358 Clouds 20 1012 83 10000 5.1 60 13:56 14.06.2020
1359 Rain 20 1012 88 10000 4.6 60 13:38 14.06.2020
1360 Clouds 20 1012 88 10000 4.6 60 13:19 14.06.2020
1361 Clouds 20 1011 88 9000 4.1 60 12:55 14.06.2020
1362 Clouds 20 1011 88 9000 1.5 50 12:37 14.06.2020
1363 Clouds 19 1011 88 9000 1.5 50 12:18 14.06.2020
1364 Clouds 19 1011 93 9000 3.6 50 11:56 14.06.2020
1365 Clouds 19 1011 93 7000 4.1 40 11:37 14.06.2020
1366 Clouds 19 1011 93 7000 4.1 40 11:18 14.06.2020
1367 Rain 19 1011 93 6000 2.6 50 10:41 14.06.2020
1368 Rain 19 1011 93 6000 2.6 50 10:19 14.06.2020
1369 Rain 19 1011 93 8000 3.1 110 09:45 14.06.2020
1370 Rain 19 1011 93 8000 3.1 110 09:25 14.06.2020
1371 Rain 19 1010 88 8000 5.1 70 08:56 14.06.2020
1372 Rain 19 1010 100 3500 2.1 10 08:38 14.06.2020
1373 Rain 18 1010 100 3500 2.1 10 08:18 14.06.2020
1374 Thunderstorm 18 1010 100 1500 1.5 340 07:48 14.06.2020
1375 Rain 18 1010 100 500 2.1 310 07:30 14.06.2020
1376 Rain 18 1010 100 600 1.5 320 06:26 14.06.2020
1377 Fog 18 1009 93 5000 1 0 05:40 14.06.2020
1378 Rain 18 1009 100 6000 1 0 04:55 14.06.2020
1379 Rain 18 1009 93 6000 2.6 40 04:30 14.06.2020
1380 Rain 18 1010 93 8000 0.5 0 03:23 14.06.2020
1381 Rain 18 1010 93 10000 2.1 360 02:27 14.06.2020
1382 Thunderstorm 18 1010 88 10000 3.6 50 01:42 14.06.2020
1383 Thunderstorm 19 1010 88 10000 3.6 50 01:18 14.06.2020
1384 Rain 18 1010 93 10000 4.6 60 00:38 14.06.2020
1385 Rain 18 1010 93 10000 4.6 60 00:18 14.06.2020
1386 Clouds 20 1010 64 10000 2.6 140 23:43 13.06.2020
1387 Clouds 20 1010 64 10000 2.6 140 23:23 13.06.2020
1388 Clouds 20 1010 72 10000 3.1 60 22:57 13.06.2020
1389 Clouds 20 1010 72 10000 2.1 30 22:37 13.06.2020
1390 Clouds 20 1010 72 10000 2.1 30 22:37 13.06.2020
1391 Clouds 20 1010 72 10000 2.1 30 22:18 13.06.2020
1392 Clouds 20 1010 72 10000 2.1 30 22:18 13.06.2020
1393 Clouds 20 1010 72 10000 2.1 30 22:18 13.06.2020
1394 Clouds 21 1010 68 10000 3.6 0 21:55 13.06.2020
1395 Clouds 21 1009 68 10000 2.6 180 21:37 13.06.2020
1396 Clouds 22 1009 68 10000 2.6 180 21:18 13.06.2020
1397 Clouds 22 1009 60 10000 5.7 110 20:42 13.06.2020
1398 Clouds 22 1009 60 10000 5.7 110 20:19 13.06.2020
1399 Clouds 23 1009 56 10000 7.2 100 19:54 13.06.2020
1400 Thunderstorm 24 1009 57 10000 8.2 110 19:36 13.06.2020
1401 Thunderstorm 24 1009 57 10000 8.2 110 19:18 13.06.2020
1402 Thunderstorm 24 1009 57 10000 8.2 110 19:18 13.06.2020
1403 Rain 25 1008 61 10000 6.7 100 18:55 13.06.2020
1404 Clouds 25 1008 64 10000 4.1 120 18:37 13.06.2020
1405 Clouds 25 1008 64 10000 4.1 120 18:18 13.06.2020
1406 Rain 26 1008 78 10000 2.1 120 17:42 13.06.2020
1407 Rain 26 1008 78 10000 2.1 120 17:23 13.06.2020
1408 Thunderstorm 25 1008 83 10000 2.6 150 16:58 13.06.2020
1409 Thunderstorm 26 1009 61 10000 4.6 130 16:40 13.06.2020
1410 Thunderstorm 27 1009 61 10000 4.6 130 16:19 13.06.2020
1411 Rain 29 1009 69 10000 3.1 110 15:58 13.06.2020
1412 Thunderstorm 28 1009 65 10000 2.1 140 15:39 13.06.2020
1413 Thunderstorm 29 1009 65 10000 2.1 140 15:20 13.06.2020
1414 Thunderstorm 30 1010 43 10000 3.1 100 14:43 13.06.2020
1415 Thunderstorm 31 1010 43 10000 3.1 100 14:21 13.06.2020
1416 Clear 31 1010 45 10000 2.1 150 13:56 13.06.2020
1417 Clear 30 1010 45 10000 3.6 90 13:37 13.06.2020
1418 Clear 29 1010 45 10000 3.6 90 13:18 13.06.2020
1419 Clouds 30 1010 48 10000 2.6 70 12:42 13.06.2020
1420 Clouds 29 1010 48 10000 2.6 70 12:24 13.06.2020
1421 Clouds 28 1011 54 10000 2.1 0 11:40 13.06.2020
1422 Clouds 28 1011 54 10000 2.1 0 11:19 13.06.2020
1423 Clouds 27 1011 57 10000 1.5 0 10:58 13.06.2020
1424 Clear 26 1010 61 10000 1.5 0 10:40 13.06.2020
1425 Clear 26 1010 61 10000 1.5 0 10:22 13.06.2020
1426 Clear 25 1011 64 10000 1 0 09:55 13.06.2020
1427 Rain 24 1011 73 10000 1 0 09:36 13.06.2020
1428 Clear 22 1011 73 10000 1 0 09:18 13.06.2020
1429 Clear 20 1011 77 10000 0.5 0 08:44 13.06.2020
1430 Clear 20 1011 77 10000 0.5 0 08:26 13.06.2020
1431 Clear 19 1010 82 10000 0.5 0 07:45 13.06.2020
1432 Clear 19 1010 82 10000 0.5 0 07:26 13.06.2020
1433 Clear 17 1010 93 10000 1.5 210 06:44 13.06.2020
1434 Clear 16 1010 93 10000 1.5 210 06:26 13.06.2020
1435 Clear 16 1010 93 10000 1 210 05:30 13.06.2020
1436 Clouds 16 1010 93 10000 1 0 04:41 13.06.2020
1437 Clouds 17 1010 88 10000 3.1 110 03:44 13.06.2020
1438 Clouds 17 1010 82 10000 2.6 100 02:53 13.06.2020
1439 Clouds 17 1010 82 10000 2.6 130 02:18 13.06.2020
1440 Clouds 17 1010 82 10000 2.1 110 01:25 13.06.2020
1441 Clouds 18 1010 82 10000 1 110 00:57 13.06.2020
1442 Clouds 18 1010 77 10000 0.5 0 00:37 13.06.2020
1443 Clouds 18 1010 77 10000 0.5 0 00:19 13.06.2020
1444 Clouds 19 1010 73 10000 1.5 70 23:40 12.06.2020
1445 Clouds 19 1010 73 10000 1.5 70 23:18 12.06.2020
1446 Clouds 19 1010 73 10000 1.5 70 23:18 12.06.2020
1447 Clouds 20 1010 68 10000 2.6 70 22:55 12.06.2020
1448 Clouds 20 1009 64 10000 1.5 100 22:37 12.06.2020
1449 Clouds 20 1009 64 10000 1.5 100 22:18 12.06.2020
1450 Clouds 22 1009 60 10000 3.1 110 21:44 12.06.2020
1451 Clouds 22 1009 60 10000 3.1 110 21:24 12.06.2020
1452 Clouds 23 1009 57 10000 5.1 110 20:57 12.06.2020
1453 Clouds 24 1009 50 10000 6.2 110 20:38 12.06.2020
1454 Clouds 24 1009 50 10000 6.2 110 20:20 12.06.2020
1455 Clouds 25 1009 57 10000 3.1 70 19:44 12.06.2020
1456 Clouds 25 1009 57 10000 3.1 70 19:22 12.06.2020
1457 Clouds 25 1009 54 10000 3.1 90 18:59 12.06.2020
1458 Clouds 26 1009 54 10000 2.6 80 18:37 12.06.2020
1459 Clouds 26 1009 54 10000 2.6 80 18:18 12.06.2020
1460 Clouds 24 1009 53 10000 3.6 80 17:44 12.06.2020
1461 Clouds 25 1009 53 10000 3.6 80 17:26 12.06.2020
1462 Clouds 25 1009 54 10000 4.6 90 16:58 12.06.2020
1463 Clouds 25 1010 57 10000 4.1 80 16:40 12.06.2020
1464 Clouds 25 1010 57 10000 4.1 80 16:19 12.06.2020
1465 Clouds 26 1010 53 10000 4.6 70 15:43 12.06.2020
1466 Clouds 25 1010 53 10000 4.6 70 15:19 12.06.2020
1467 Clouds 25 1010 57 10000 5.1 70 14:43 12.06.2020
1468 Clouds 24 1010 57 10000 5.1 70 14:23 12.06.2020
1469 Clouds 24 1010 57 10000 5.1 60 13:59 12.06.2020
1470 Clouds 24 1010 57 10000 5.1 60 13:59 12.06.2020
1471 Clouds 25 1010 64 10000 4.1 60 13:40 12.06.2020
1472 Clouds 25 1010 64 10000 4.1 60 13:19 12.06.2020
1473 Clouds 24 1011 69 10000 5.1 60 12:40 12.06.2020
1474 Clouds 24 1011 69 10000 5.1 60 12:20 12.06.2020
1475 Clouds 24 1011 69 10000 4.1 40 11:57 12.06.2020
1476 Clouds 25 1011 69 10000 3.1 40 11:38 12.06.2020
1477 Clear 24 1011 73 10000 2.1 60 11:19 12.06.2020
1478 Clear 23 1011 73 10000 2.1 60 10:45 12.06.2020
1479 Clear 22 1011 77 10000 2.1 70 10:24 12.06.2020
1480 Mist 20 1011 93 2000 2.1 80 09:45 12.06.2020
1481 Mist 18 1011 93 2000 2.1 80 09:21 12.06.2020
1482 Mist 18 1011 93 1800 0.5 0 08:44 12.06.2020
1483 Mist 17 1011 93 1800 0.5 0 08:25 12.06.2020
1484 Mist 15 1011 100 2000 1 0 07:44 12.06.2020
1485 Mist 14 1011 100 2000 1 0 07:25 12.06.2020
1486 Mist 14 1011 100 2000 1 0 06:55 12.06.2020
1487 Mist 13 1011 93 1800 1 230 06:30 12.06.2020
1488 Mist 12 1011 100 2000 0.5 0 05:55 12.06.2020
1489 Mist 12 1010 100 4000 1 0 05:31 12.06.2020
1490 Clear 13 1010 100 7000 1 0 04:59 12.06.2020
1491 Clear 13 1010 93 10000 0.5 0 03:24 12.06.2020
1492 Clouds 15 1010 88 10000 1 140 01:56 12.06.2020
1493 Clouds 15 1010 93 10000 0.5 0 01:27 12.06.2020
1494 Clouds 16 1011 82 10000 1.5 80 00:47 12.06.2020
1495 Clouds 16 1011 82 10000 1.5 80 00:26 12.06.2020
1496 Clouds 16 1010 82 10000 1.5 10 23:59 11.06.2020
1497 Clouds 16 1010 82 10000 1.5 10 23:59 11.06.2020
1498 Clouds 17 1010 77 10000 1.5 70 23:41 11.06.2020
1499 Clouds 16 1010 77 10000 1.5 70 23:22 11.06.2020
1500 Clouds 16 1010 77 10000 1.5 60 22:59 11.06.2020
1501 Clouds 18 1010 72 10000 1.5 60 22:39 11.06.2020
1502 Clouds 18 1010 72 10000 1.5 60 22:20 11.06.2020
1503 Clouds 18 1010 72 10000 1.5 60 22:20 11.06.2020
1504 Clouds 18 1010 68 10000 2.1 90 21:57 11.06.2020
1505 Clouds 19 1010 64 10000 1.5 70 21:38 11.06.2020
1506 Clouds 19 1009 56 10000 2.1 30 21:20 11.06.2020
1507 Clouds 20 1009 56 10000 1.5 30 20:45 11.06.2020
1508 Clouds 21 1009 56 10000 1.5 30 20:22 11.06.2020
1509 Clouds 22 1009 46 10000 1.5 50 19:58 11.06.2020
1510 Clouds 23 1009 46 10000 1.5 0 19:40 11.06.2020
1511 Clouds 23 1009 46 10000 1.5 0 19:22 11.06.2020
1512 Clouds 23 1009 53 10000 3.1 200 18:42 11.06.2020
1513 Clouds 23 1009 53 10000 2.6 0 18:24 11.06.2020
1514 Clouds 23 1009 56 10000 2.1 0 17:57 11.06.2020
1515 Clouds 23 1009 56 10000 2.1 0 17:38 11.06.2020
1516 Clouds 23 1009 60 10000 1.5 60 17:20 11.06.2020
1517 Clouds 22 1009 60 10000 1.5 0 16:58 11.06.2020
1518 Clouds 23 1009 60 10000 1.5 0 16:40 11.06.2020
1519 Clouds 22 1010 68 10000 1 0 16:22 11.06.2020
1520 Clouds 22 1010 68 10000 2.1 100 15:56 11.06.2020
1521 Rain 22 1010 68 10000 2.1 100 15:38 11.06.2020
1522 Rain 20 1010 72 10000 2.1 90 15:19 11.06.2020
1523 Clouds 20 1010 72 10000 2.1 40 14:42 11.06.2020
1524 Clouds 20 1010 72 10000 1 0 14:21 11.06.2020
1525 Clouds 20 1010 77 10000 1.5 50 13:56 11.06.2020
1526 Clouds 20 1010 77 10000 1.5 50 13:38 11.06.2020
1527 Clouds 20 1010 77 10000 1.5 50 13:38 11.06.2020
1528 Clouds 19 1010 82 10000 2.1 70 13:20 11.06.2020
1529 Clouds 19 1010 82 10000 2.1 30 12:56 11.06.2020
1530 Clouds 19 1010 82 10000 2.1 30 12:38 11.06.2020
1531 Clouds 18 1009 82 10000 2.1 60 12:19 11.06.2020
1532 Clouds 18 1010 82 10000 3.1 70 11:57 11.06.2020
1533 Clouds 17 1010 82 10000 3.1 70 11:38 11.06.2020
1534 Clouds 17 1010 82 10000 2.6 60 11:20 11.06.2020
1535 Clouds 17 1010 87 9000 2.6 50 10:54 11.06.2020
1536 Clouds 17 1010 87 9000 2.6 50 10:36 11.06.2020
1537 Clouds 16 1010 87 9000 2.1 60 10:18 11.06.2020
1538 Rain 16 1010 87 8000 2.1 50 09:40 11.06.2020
1539 Rain 16 1010 93 8000 2.6 40 09:22 11.06.2020
1540 Clouds 16 1010 93 10000 2.6 50 08:44 11.06.2020
1541 Clouds 16 1010 87 10000 2.1 50 08:20 11.06.2020
1542 Clouds 15 1010 93 10000 2.1 40 07:42 11.06.2020
1543 Clouds 15 1010 93 10000 2.1 30 07:24 11.06.2020
1544 Clouds 15 1010 93 10000 1.5 30 06:52 11.06.2020
1545 Clouds 15 1010 93 10000 1.5 30 06:28 11.06.2020
1546 Clouds 15 1010 93 10000 1.5 20 05:36 11.06.2020
1547 Clouds 15 1010 93 10000 1 320 03:50 11.06.2020
1548 Clouds 15 1010 93 10000 0.5 340 03:23 11.06.2020
1549 Clouds 15 1010 93 10000 1.5 350 02:32 11.06.2020
1550 Clouds 15 1010 93 10000 0.5 340 01:50 11.06.2020
1551 Rain 15 1010 93 10000 0.5 110 01:24 11.06.2020
1552 Rain 15 1011 87 10000 2.6 70 00:50 11.06.2020
1553 Rain 16 1011 82 10000 1 0 00:27 11.06.2020
1554 Rain 16 1011 82 10000 1 0 23:47 10.06.2020
1555 Rain 16 1011 77 10000 1 160 23:27 10.06.2020
1556 Rain 16 1011 77 10000 1 10 22:57 10.06.2020
1557 Rain 16 1011 77 10000 1 10 22:38 10.06.2020
1558 Rain 16 1011 67 10000 3.1 30 22:19 10.06.2020
1559 Rain 17 1010 59 10000 4.1 20 21:58 10.06.2020
1560 Rain 17 1010 59 10000 4.1 20 21:39 10.06.2020
1561 Rain 17 1010 55 10000 4.6 20 21:18 10.06.2020
1562 Rain 17 1010 72 10000 2.6 20 20:57 10.06.2020
1563 Rain 17 1010 72 10000 2.6 20 20:57 10.06.2020
1564 Rain 17 1010 72 10000 2.6 20 20:39 10.06.2020
1565 Rain 18 1010 72 10000 1.5 300 20:21 10.06.2020
1566 Rain 18 1010 72 10000 2.1 300 19:41 10.06.2020
1567 Rain 18 1010 72 10000 2.1 320 19:20 10.06.2020
1568 Rain 18 1010 59 10000 1.5 330 19:00 10.06.2020
1569 Rain 18 1010 59 10000 1.5 330 18:41 10.06.2020
1570 Rain 18 1011 59 10000 1.5 350 18:20 10.06.2020
1571 Rain 18 1011 55 10000 3.1 20 17:58 10.06.2020
1572 Rain 18 1011 55 10000 3.1 20 17:58 10.06.2020
1573 Rain 18 1011 55 10000 3.1 20 17:40 10.06.2020
1574 Rain 18 1011 59 10000 2.6 350 17:19 10.06.2020
1575 Clouds 18 1011 55 10000 2.6 10 16:58 10.06.2020
1576 Clouds 18 1011 55 10000 2.6 10 16:39 10.06.2020
1577 Clouds 18 1011 55 10000 2.6 10 16:39 10.06.2020
1578 Clouds 18 1011 55 10000 2.6 10 16:39 10.06.2020
1579 Clouds 18 1012 63 10000 3.1 360 16:20 10.06.2020
1580 Clouds 18 1012 63 10000 3.1 360 16:20 10.06.2020
1581 Clouds 18 1012 55 10000 3.6 40 15:55 10.06.2020
1582 Clouds 18 1012 55 10000 3.6 40 15:36 10.06.2020
1583 Clouds 18 1012 63 10000 3.6 20 15:18 10.06.2020
1584 Clouds 19 1012 59 10000 4.1 20 14:40 10.06.2020
1585 Clouds 18 1012 63 10000 3.1 40 14:21 10.06.2020
1586 Clouds 18 1012 63 10000 2.1 30 13:56 10.06.2020
1587 Clouds 18 1012 63 10000 2.1 30 13:38 10.06.2020
1588 Clouds 18 1013 68 10000 2.6 360 13:19 10.06.2020
1589 Clouds 18 1013 63 10000 2.1 350 12:40 10.06.2020
1590 Rain 17 1013 72 10000 3.1 50 12:18 10.06.2020
1591 Rain 17 1013 67 10000 2.6 40 11:44 10.06.2020
1592 Clouds 17 1013 72 10000 2.1 20 11:20 10.06.2020
1593 Clouds 17 1013 72 10000 2.1 350 10:59 10.06.2020
1594 Clouds 17 1013 72 10000 2.1 350 10:41 10.06.2020
1595 Clouds 17 1013 72 10000 2.1 340 10:22 10.06.2020
1596 Clouds 17 1014 77 10000 2.1 350 09:57 10.06.2020
1597 Clouds 16 1014 77 10000 2.1 350 09:37 10.06.2020
1598 Clouds 16 1014 77 10000 1.5 330 09:19 10.06.2020
1599 Clouds 15 1014 76 10000 1.5 10 08:42 10.06.2020
1600 Clouds 15 1014 76 10000 2.1 30 08:23 10.06.2020
1601 Clouds 15 1014 76 10000 1.5 20 07:43 10.06.2020
1602 Clouds 15 1014 76 10000 3.1 20 07:23 10.06.2020
1603 Clouds 14 1014 76 10000 2.6 30 06:55 10.06.2020
1604 Clouds 14 1014 82 10000 1 0 06:37 10.06.2020
1605 Clouds 14 1014 82 10000 1 0 06:18 10.06.2020
1606 Clouds 14 1014 82 10000 1 0 06:18 10.06.2020
1607 Clouds 13 1014 82 10000 1.5 20 05:49 10.06.2020
1608 Clouds 13 1014 82 10000 2.1 20 05:18 10.06.2020
1609 Clouds 13 1014 76 10000 2.1 360 04:29 10.06.2020
1610 Clouds 13 1014 76 10000 2.1 20 02:34 10.06.2020
1611 Clouds 15 1014 72 10000 0.5 0 01:48 10.06.2020
1612 Clouds 15 1014 72 10000 2.1 20 01:21 10.06.2020
1613 Clouds 16 1014 72 10000 2.1 360 00:38 10.06.2020
1614 Clouds 16 1014 72 10000 1 0 00:20 10.06.2020
1615 Clouds 16 1015 77 10000 1 0 23:54 09.06.2020
1616 Clouds 16 1015 77 10000 1 0 23:36 09.06.2020
1617 Clouds 16 1015 67 10000 2.1 20 23:18 09.06.2020
1618 Clouds 16 1014 67 10000 2.1 20 22:54 09.06.2020
1619 Clouds 16 1014 67 10000 2.1 20 22:36 09.06.2020
1620 Clouds 17 1014 63 10000 2.1 20 22:18 09.06.2020
1621 Clouds 17 1014 63 10000 2.6 30 21:54 09.06.2020
1622 Clouds 17 1014 63 10000 2.6 30 21:36 09.06.2020
1623 Clouds 17 1014 59 10000 2.6 30 21:18 09.06.2020
1624 Clouds 17 1014 59 10000 3.1 20 20:54 09.06.2020
1625 Clouds 17 1014 59 10000 3.1 20 20:36 09.06.2020
1626 Clouds 17 1014 59 10000 3.1 30 20:18 09.06.2020
1627 Clouds 18 1014 55 10000 3.6 40 19:54 09.06.2020
1628 Clouds 18 1014 55 10000 3.6 40 19:36 09.06.2020
1629 Rain 18 1014 55 10000 4.6 40 19:18 09.06.2020
1630 Rain 19 1014 55 10000 4.6 50 18:42 09.06.2020
1631 Rain 19 1014 52 10000 4.6 50 18:24 09.06.2020
1632 Rain 20 1014 48 10000 5.1 40 17:57 09.06.2020
1633 Rain 20 1014 48 10000 5.1 40 17:38 09.06.2020
1634 Clouds 20 1014 52 10000 3.1 50 17:20 09.06.2020
1635 Clouds 19 1014 59 10000 3.1 30 16:55 09.06.2020
1636 Clouds 19 1014 59 10000 3.1 30 16:36 09.06.2020
1637 Clouds 20 1015 59 10000 2.6 20 16:18 09.06.2020
1638 Clouds 20 1015 59 10000 2.1 350 15:39 09.06.2020
1639 Clouds 19 1015 55 10000 3.1 20 15:21 09.06.2020
1640 Clouds 19 1015 52 10000 4.1 70 14:57 09.06.2020
1641 Clouds 19 1015 52 10000 4.1 70 14:37 09.06.2020
1642 Clouds 19 1015 52 10000 4.6 100 14:18 09.06.2020
1643 Clouds 19 1015 52 10000 4.6 70 13:46 09.06.2020
1644 Clouds 20 1015 55 10000 4.1 60 13:22 09.06.2020
1645 Clouds 18 1015 59 10000 4.6 50 12:59 09.06.2020
1646 Clouds 18 1015 59 10000 4.6 50 12:41 09.06.2020
1647 Clouds 18 1015 55 10000 4.6 50 12:19 09.06.2020
1648 Clouds 20 1015 49 10000 4.6 50 11:56 09.06.2020
1649 Clouds 20 1015 52 10000 5.7 50 11:38 09.06.2020
1650 Clouds 20 1015 49 10000 4.6 50 11:37 09.06.2020
1651 Clouds 20 1015 52 10000 5.7 50 11:19 09.06.2020
1652 Clouds 18 1015 55 10000 5.7 70 10:54 09.06.2020
1653 Clouds 18 1015 55 10000 5.7 70 10:36 09.06.2020
1654 Clouds 18 1015 63 10000 3.6 50 10:18 09.06.2020
1655 Rain 17 1015 67 10000 2.6 70 09:40 09.06.2020
1656 Clouds 16 1015 72 10000 2.1 60 09:19 09.06.2020
1657 Clouds 15 1015 72 10000 1 0 08:40 09.06.2020
1658 Clouds 15 1015 77 10000 1.5 60 08:21 09.06.2020
1659 Clouds 15 1015 77 10000 0.5 0 07:59 09.06.2020
1660 Clouds 14 1015 87 10000 0.5 0 07:36 09.06.2020
1661 Clouds 14 1015 87 10000 0.5 0 07:18 09.06.2020
1662 Clouds 14 1015 82 10000 0.5 0 06:51 09.06.2020
1663 Clouds 13 1014 87 10000 0.5 120 06:27 09.06.2020
1664 Clouds 13 1014 71 10000 0.5 0 04:35 09.06.2020
1665 Clouds 13 1014 67 10000 1.5 140 02:52 09.06.2020
1666 Clouds 14 1015 76 10000 0.5 290 01:40 09.06.2020
1667 Clouds 14 1015 72 10000 0.5 0 01:19 09.06.2020
1668 Clouds 14 1015 67 10000 0.5 20 00:44 09.06.2020
1669 Clouds 14 1015 67 10000 1 350 00:20 09.06.2020
1670 Clouds 15 1014 59 10000 0.5 0 23:54 08.06.2020
1671 Clouds 15 1014 59 10000 0.5 0 23:36 08.06.2020
1672 Clouds 15 1015 63 10000 0.5 310 23:18 08.06.2020
1673 Clouds 15 1014 63 10000 0.5 0 22:39 08.06.2020
1674 Clear 15 1014 59 10000 0.5 330 22:20 08.06.2020
1675 Clear 15 1014 59 10000 0.5 340 21:57 08.06.2020
1676 Clear 16 1014 59 10000 0.5 340 21:38 08.06.2020
1677 Clear 16 1014 59 10000 1 310 21:20 08.06.2020
1678 Clear 17 1014 59 10000 1 310 20:55 08.06.2020
1679 Clear 17 1014 59 10000 1 310 20:37 08.06.2020
1680 Clouds 17 1014 59 10000 1.5 320 20:19 08.06.2020
1681 Clouds 18 1013 52 10000 2.1 320 19:44 08.06.2020
1682 Clouds 18 1013 48 10000 1 0 19:22 08.06.2020
1683 Clouds 18 1014 52 10000 1 0 18:58 08.06.2020
1684 Clouds 18 1014 52 10000 1 0 18:58 08.06.2020
1685 Clouds 18 1014 52 10000 2.1 320 18:39 08.06.2020
1686 Clouds 18 1014 52 10000 2.1 320 18:18 08.06.2020
1687 Clouds 18 1014 52 10000 2.6 310 17:54 08.06.2020
1688 Clouds 18 1014 52 10000 2.6 310 17:36 08.06.2020
1689 Clouds 18 1014 55 10000 1 0 17:18 08.06.2020
1690 Clouds 19 1014 45 10000 2.6 20 16:42 08.06.2020
1691 Clouds 19 1014 42 10000 3.1 40 16:23 08.06.2020
1692 Clouds 19 1014 45 10000 1.5 0 15:46 08.06.2020
1693 Clouds 19 1014 42 10000 2.1 40 15:23 08.06.2020
1694 Clouds 20 1014 45 10000 2.6 320 14:59 08.06.2020
1695 Clouds 19 1014 45 10000 2.6 320 14:41 08.06.2020
1696 Clouds 19 1014 42 10000 2.1 50 14:22 08.06.2020
1697 Clouds 18 1014 45 10000 3.1 340 13:56 08.06.2020
1698 Clouds 18 1014 45 10000 3.1 340 13:38 08.06.2020
1699 Clouds 18 1014 48 10000 2.6 350 13:19 08.06.2020
1700 Clouds 18 1014 45 10000 3.1 10 12:40 08.06.2020
1701 Clouds 18 1014 51 10000 2.1 0 12:19 08.06.2020
1702 Clouds 18 1014 52 10000 2.6 340 11:54 08.06.2020
1703 Clouds 18 1014 52 10000 2.6 340 11:36 08.06.2020
1704 Clouds 18 1014 59 10000 3.1 320 11:18 08.06.2020
1705 Clouds 17 1014 55 10000 3.6 350 10:55 08.06.2020
1706 Clouds 18 1014 55 10000 3.6 350 10:37 08.06.2020
1707 Clouds 18 1014 55 10000 3.6 350 10:37 08.06.2020
1708 Clouds 17 1013 59 10000 2.6 350 10:18 08.06.2020
1709 Clear 16 1013 63 10000 2.6 310 09:43 08.06.2020
1710 Clear 15 1013 72 10000 2.1 300 09:23 08.06.2020
1711 Clear 14 1013 67 10000 2.1 300 08:49 08.06.2020
1712 Clouds 13 1013 76 10000 2.1 270 08:24 08.06.2020
1713 Clouds 12 1013 76 10000 2.1 270 07:56 08.06.2020
1714 Clouds 12 1013 76 10000 1.5 250 07:37 08.06.2020
1715 Clouds 12 1013 76 10000 1.5 250 07:18 08.06.2020
1716 Clouds 11 1012 87 10000 1.5 240 06:38 08.06.2020
1717 Clouds 10 1012 87 10000 2.1 280 05:54 08.06.2020
1718 Clouds 10 1011 100 10000 1.5 240 04:36 08.06.2020
1719 Clouds 11 1011 93 10000 1.5 180 03:24 08.06.2020
1720 Clouds 11 1011 93 10000 3.1 200 02:26 08.06.2020
1721 Clouds 11 1011 93 10000 2.6 180 01:42 08.06.2020
1722 Rain 11 1011 93 10000 1.5 180 00:57 08.06.2020
1723 Rain 11 1011 93 10000 2.1 150 00:25 08.06.2020
1724 Rain 11 1011 100 10000 3.1 160 23:39 07.06.2020
1725 Rain 11 1011 100 10000 2.6 180 23:19 07.06.2020
1726 Rain 11 1011 100 10000 1.5 200 22:57 07.06.2020
1727 Rain 11 1011 100 10000 1.5 200 22:37 07.06.2020
1728 Rain 12 1011 93 10000 2.1 200 22:18 07.06.2020
1729 Rain 12 1010 93 10000 1 0 21:58 07.06.2020
1730 Rain 12 1010 93 10000 1 0 21:36 07.06.2020
1731 Rain 12 1010 93 10000 2.6 230 21:18 07.06.2020
1732 Rain 12 1010 93 10000 2.1 250 20:40 07.06.2020
1733 Rain 12 1010 87 10000 2.6 260 20:21 07.06.2020
1734 Rain 12 1009 87 10000 2.1 250 19:57 07.06.2020
1735 Rain 12 1009 87 10000 2.1 250 19:39 07.06.2020
1736 Rain 13 1009 82 10000 2.1 250 19:21 07.06.2020
1737 Rain 13 1009 87 10000 2.1 230 19:00 07.06.2020
1738 Rain 13 1009 87 10000 2.1 230 18:39 07.06.2020
1739 Rain 13 1009 87 10000 1.5 240 18:21 07.06.2020
1740 Rain 14 1009 82 10000 2.1 250 17:58 07.06.2020
1741 Rain 14 1009 82 10000 2.1 250 17:38 07.06.2020
1742 Rain 13 1009 87 10000 1.5 270 17:20 07.06.2020
1743 Rain 14 1009 87 10000 2.1 300 16:43 07.06.2020
1744 Rain 14 1009 87 10000 1.5 300 16:22 07.06.2020
1745 Rain 14 1008 76 10000 0.5 0 15:44 07.06.2020
1746 Rain 14 1009 76 10000 1.5 270 15:22 07.06.2020
1747 Clouds 15 1009 76 10000 1.5 270 14:59 07.06.2020
1748 Clouds 15 1009 76 10000 1.5 270 14:58 07.06.2020
1749 Clouds 15 1009 82 10000 1.5 290 14:36 07.06.2020
1750 Rain 15 1009 72 10000 2.1 260 14:18 07.06.2020
1751 Rain 15 1008 77 10000 1 0 13:42 07.06.2020
1752 Rain 15 1008 77 10000 1 0 13:42 07.06.2020
1753 Rain 15 1008 77 10000 1 0 13:42 07.06.2020
1754 Rain 15 1008 77 10000 1 0 13:42 07.06.2020
1755 Rain 15 1008 76 10000 1 0 13:19 07.06.2020
1756 Rain 15 1008 82 10000 1.5 260 12:43 07.06.2020
1757 Rain 14 1008 82 10000 0.5 310 12:25 07.06.2020
1758 Rain 14 1008 82 10000 1 0 11:55 07.06.2020
1759 Rain 14 1008 82 10000 1 0 11:55 07.06.2020
1760 Rain 14 1008 82 10000 1 0 11:37 07.06.2020
1761 Rain 14 1008 82 10000 2.6 260 11:19 07.06.2020
1762 Rain 14 1008 76 10000 3.1 240 10:54 07.06.2020
1763 Rain 14 1008 76 10000 3.1 240 10:36 07.06.2020
1764 Rain 15 1008 72 10000 2.6 250 10:18 07.06.2020
1765 Clouds 15 1008 77 10000 2.1 150 09:54 07.06.2020
1766 Clouds 15 1008 77 10000 2.1 150 09:36 07.06.2020
1767 Rain 14 1007 76 10000 1.5 140 09:18 07.06.2020
1768 Rain 13 1007 76 10000 1 0 08:41 07.06.2020
1769 Rain 13 1007 76 10000 1.5 150 08:23 07.06.2020
1770 Rain 13 1007 76 10000 1 120 07:44 07.06.2020
1771 Clouds 12 1006 76 10000 1 0 07:25 07.06.2020
1772 Clouds 11 1006 76 10000 2.1 210 06:24 07.06.2020
1773 Clouds 10 1006 81 10000 2.6 160 05:28 07.06.2020
1774 Clouds 10 1006 81 10000 2.6 150 04:19 07.06.2020
1775 Clouds 12 1007 76 10000 3.6 160 02:26 07.06.2020
1776 Clouds 12 1007 76 10000 2.6 170 01:43 07.06.2020
1777 Clouds 11 1006 76 10000 2.1 160 01:24 07.06.2020
1778 Clouds 11 1006 81 10000 1 150 00:40 07.06.2020
1779 Clouds 12 1006 76 10000 2.6 160 00:18 07.06.2020
1780 Clouds 12 1006 71 10000 1.5 130 23:55 06.06.2020
1781 Clouds 12 1006 71 10000 1.5 130 23:36 06.06.2020
1782 Clouds 11 1006 66 10000 1.5 190 23:18 06.06.2020
1783 Clouds 12 1006 71 10000 1.5 230 22:55 06.06.2020
1784 Clouds 12 1006 71 10000 1.5 230 22:37 06.06.2020
1785 Clouds 13 1005 58 10000 3.1 220 22:18 06.06.2020
1786 Clouds 14 1005 58 10000 2.1 230 21:42 06.06.2020
1787 Clouds 15 1005 55 10000 3.6 240 21:21 06.06.2020
1788 Clouds 15 1005 59 10000 3.1 220 20:55 06.06.2020
1789 Clouds 16 1005 59 10000 3.1 220 20:36 06.06.2020
1790 Clouds 17 1005 55 10000 4.6 250 20:18 06.06.2020
1791 Clouds 17 1005 52 10000 4.6 240 19:56 06.06.2020
1792 Clouds 17 1005 52 10000 4.6 240 19:36 06.06.2020
1793 Clouds 18 1004 52 10000 5.1 220 19:18 06.06.2020
1794 Clouds 18 1004 48 10000 4.1 240 18:42 06.06.2020
1795 Clouds 18 1004 48 10000 5.7 230 18:23 06.06.2020
1796 Clouds 18 1004 48 10000 5.7 230 18:23 06.06.2020
1797 Clouds 18 1004 48 10000 5.7 220 17:44 06.06.2020
1798 Clouds 18 1004 52 10000 6.2 220 17:21 06.06.2020
1799 Clouds 18 1004 59 10000 6.7 200 16:58 06.06.2020
1800 Clouds 17 1004 59 10000 6.7 200 16:40 06.06.2020
1801 Clouds 17 1004 63 10000 6.7 190 16:21 06.06.2020
1802 Clouds 16 1004 63 10000 5.7 190 15:55 06.06.2020
1803 Clouds 16 1004 63 10000 5.7 190 15:37 06.06.2020
1804 Clouds 16 1004 59 10000 5.7 200 15:18 06.06.2020
1805 Clouds 16 1004 59 10000 5.1 200 14:40 06.06.2020
1806 Clouds 16 1004 55 10000 5.1 210 14:22 06.06.2020
1807 Clouds 15 1004 58 10000 6.2 210 13:55 06.06.2020
1808 Clouds 15 1004 58 10000 6.2 210 13:37 06.06.2020
1809 Clouds 15 1004 54 10000 5.1 210 13:18 06.06.2020
1810 Clouds 14 1004 54 10000 6.2 210 12:42 06.06.2020
1811 Clouds 14 1004 54 10000 6.2 210 12:23 06.06.2020
1812 Clouds 14 1003 51 10000 5.7 200 11:58 06.06.2020
1813 Clouds 14 1003 51 10000 5.7 200 11:38 06.06.2020
1814 Clouds 14 1003 51 10000 5.7 210 11:20 06.06.2020
1815 Clouds 14 1003 54 10000 5.1 230 10:57 06.06.2020
1816 Clouds 14 1003 54 10000 5.1 230 10:39 06.06.2020
1817 Clouds 14 1003 58 10000 5.7 210 10:21 06.06.2020
1818 Rain 13 1003 62 10000 4.6 200 09:46 06.06.2020
1819 Clouds 13 1003 66 10000 5.1 200 09:27 06.06.2020
1820 Clouds 13 1002 66 10000 5.1 210 08:58 06.06.2020
1821 Clouds 12 1002 66 10000 5.1 210 08:40 06.06.2020
1822 Clouds 12 1002 76 10000 5.1 200 08:20 06.06.2020
1823 Clouds 11 1002 71 10000 5.1 190 07:45 06.06.2020
1824 Clouds 10 1002 76 10000 2.6 220 07:22 06.06.2020
1825 Clouds 10 1002 76 10000 3.1 230 06:48 06.06.2020
1826 Clouds 9 1002 71 10000 5.1 220 06:30 06.06.2020
1827 Clouds 9 1001 81 10000 4.1 220 05:55 06.06.2020
1828 Clouds 7 1001 87 10000 3.6 220 05:28 06.06.2020
1829 Clouds 8 1001 87 10000 4.1 220 04:44 06.06.2020
1830 Clouds 10 1000 76 10000 4.6 230 02:52 06.06.2020
1831 Clouds 10 999 76 10000 6.7 220 01:57 06.06.2020
1832 Clouds 10 999 81 10000 6.2 220 01:19 06.06.2020
1833 Rain 11 998 81 10000 6.2 210 00:46 06.06.2020
1834 Rain 11 998 87 10000 5.1 240 00:27 06.06.2020
1835 Rain 11 997 87 10000 6.7 220 23:58 05.06.2020
1836 Rain 12 997 87 10000 6.7 220 23:39 05.06.2020
1837 Rain 13 997 66 10000 5.1 180 23:19 05.06.2020
1838 Clouds 13 997 66 10000 5.1 180 22:56 05.06.2020
1839 Clouds 13 997 66 10000 5.1 180 22:37 05.06.2020
1840 Rain 13 997 62 10000 5.7 180 22:19 05.06.2020
1841 Rain 13 997 58 10000 5.7 200 21:42 05.06.2020
1842 Clouds 14 997 58 10000 6.2 210 21:22 05.06.2020
1843 Clouds 14 997 58 10000 8.2 210 20:58 05.06.2020
1844 Clouds 14 997 58 10000 8.2 210 20:39 05.06.2020
1845 Clouds 14 997 54 10000 9.3 210 20:21 05.06.2020
1846 Clouds 15 997 54 10000 8.7 220 19:44 05.06.2020
1847 Clouds 15 997 55 10000 8.7 210 19:24 05.06.2020
1848 Rain 16 997 58 10000 6.7 200 18:58 05.06.2020
1849 Rain 15 997 58 10000 6.7 200 18:39 05.06.2020
1850 Clouds 15 997 62 10000 5.1 200 18:20 05.06.2020
1851 Rain 15 997 62 10000 2.6 250 17:58 05.06.2020
1852 Rain 14 997 62 10000 2.6 250 17:40 05.06.2020
1853 Clouds 15 997 55 10000 4.1 240 17:19 05.06.2020
1854 Clouds 17 997 51 10000 4.6 250 16:40 05.06.2020
1855 Clouds 17 997 51 10000 5.1 240 16:22 05.06.2020
1856 Clouds 18 997 55 10000 5.1 230 15:57 05.06.2020
1857 Clouds 18 997 55 10000 5.1 230 15:37 05.06.2020
1858 Clouds 17 997 59 10000 5.1 260 15:19 05.06.2020
1859 Clouds 17 997 58 10000 4.1 250 14:56 05.06.2020
1860 Clouds 17 997 58 10000 4.1 250 14:38 05.06.2020
1861 Clouds 16 997 67 10000 4.6 270 14:19 05.06.2020
1862 Rain 15 998 76 10000 3.6 290 13:43 05.06.2020
1863 Rain 14 997 71 10000 2.6 0 13:24 05.06.2020
1864 Clouds 14 997 76 10000 3.1 280 12:55 05.06.2020
1865 Clouds 15 997 76 10000 3.1 280 12:36 05.06.2020
1866 Clouds 14 997 76 10000 4.1 300 12:18 05.06.2020
1867 Clouds 13 997 81 10000 4.1 300 11:42 05.06.2020
1868 Clouds 13 997 81 10000 5.7 290 11:22 05.06.2020
1869 Clouds 14 997 76 10000 4.1 270 10:56 05.06.2020
1870 Clouds 13 997 76 10000 4.1 270 10:38 05.06.2020
1871 Clouds 13 997 82 10000 5.1 260 10:19 05.06.2020
1872 Clouds 13 996 82 10000 4.1 260 09:55 05.06.2020
1873 Clouds 14 996 82 10000 4.1 260 09:37 05.06.2020
1874 Clouds 13 996 87 10000 3.1 260 09:18 05.06.2020
1875 Clouds 13 996 87 10000 3.1 260 09:18 05.06.2020
1876 Clouds 12 996 93 10000 3.1 260 08:55 05.06.2020
1877 Clouds 12 996 93 10000 3.1 260 08:36 05.06.2020
1878 Clouds 12 996 100 10000 2.6 270 08:18 05.06.2020
1879 Rain 12 996 93 10000 3.1 280 07:43 05.06.2020
1880 Rain 12 995 93 8000 4.6 290 07:23 05.06.2020
1881 Rain 13 994 93 6000 2.6 270 06:20 05.06.2020
1882 Clouds 13 994 93 9000 2.6 250 05:21 05.06.2020
1883 Clouds 13 993 93 10000 3.1 250 04:27 05.06.2020
1884 Clouds 13 994 93 10000 3.6 260 03:20 05.06.2020
1885 Clouds 14 993 87 10000 2.1 230 02:26 05.06.2020
1886 Clouds 14 993 93 10000 2.1 250 01:56 05.06.2020
1887 Clouds 14 993 87 10000 3.1 220 01:30 05.06.2020
1888 Clouds 14 993 93 10000 3.1 220 00:43 05.06.2020
1889 Clouds 14 993 100 10000 3.1 200 00:21 05.06.2020
1890 Rain 14 993 100 10000 3.1 180 23:47 04.06.2020
1891 Clouds 14 993 93 10000 3.6 170 23:28 04.06.2020
1892 Clouds 14 993 100 10000 2.6 160 22:56 04.06.2020
1893 Clouds 14 993 100 10000 2.6 160 22:37 04.06.2020
1894 Rain 15 993 93 10000 3.6 170 22:18 04.06.2020
1895 Clouds 15 993 93 10000 4.1 160 21:56 04.06.2020
1896 Rain 15 993 93 10000 4.1 160 21:38 04.06.2020
1897 Rain 15 993 93 10000 4.1 160 21:38 04.06.2020
1898 Rain 15 993 87 10000 3.1 160 21:19 04.06.2020
1899 Rain 16 993 93 10000 2.6 150 20:55 04.06.2020
1900 Rain 16 993 93 10000 2.6 150 20:37 04.06.2020
1901 Rain 16 994 93 10000 1.5 220 20:18 04.06.2020
1902 Rain 17 993 82 10000 5.1 180 19:40 04.06.2020
1903 Rain 17 993 82 10000 5.1 180 19:21 04.06.2020
1904 Rain 18 993 68 10000 4.6 170 18:56 04.06.2020
1905 Rain 18 993 68 10000 4.6 170 18:38 04.06.2020
1906 Clouds 18 993 68 10000 4.1 150 18:20 04.06.2020
1907 Clouds 18 994 72 10000 4.1 150 17:43 04.06.2020
1908 Clouds 18 994 72 10000 4.1 150 17:22 04.06.2020
1909 Rain 18 994 68 10000 4.6 160 16:57 04.06.2020
1910 Rain 18 994 68 10000 4.6 160 16:39 04.06.2020
1911 Rain 19 995 63 10000 3.6 150 16:19 04.06.2020
1912 Rain 18 995 68 10000 4.6 190 15:44 04.06.2020
1913 Rain 19 996 63 10000 5.1 210 15:25 04.06.2020
1914 Rain 19 996 56 10000 7.2 190 14:42 04.06.2020
1915 Rain 19 996 52 10000 6.7 170 14:22 04.06.2020
1916 Rain 20 996 52 10000 6.2 170 13:58 04.06.2020
1917 Rain 20 996 52 10000 6.2 170 13:40 04.06.2020
1918 Clouds 21 996 43 10000 5.7 170 13:20 04.06.2020
1919 Clouds 22 996 43 10000 6.2 160 12:59 04.06.2020
1920 Clouds 22 996 43 10000 6.2 160 12:40 04.06.2020
1921 Rain 22 996 43 10000 5.7 170 12:22 04.06.2020
1922 Rain 22 996 46 10000 5.1 150 11:54 04.06.2020
1923 Rain 22 996 46 10000 5.1 150 11:36 04.06.2020
1924 Clouds 21 996 49 10000 3.6 140 11:18 04.06.2020
1925 Clouds 21 996 49 10000 4.1 140 10:41 04.06.2020
1926 Clouds 20 996 56 10000 6.2 160 10:22 04.06.2020
1927 Clouds 20 997 59 10000 5.1 140 09:57 04.06.2020
1928 Clouds 19 997 59 10000 5.1 140 09:38 04.06.2020
1929 Clouds 18 997 59 10000 4.1 150 09:20 04.06.2020
1930 Clouds 17 997 67 10000 4.6 160 08:42 04.06.2020
1931 Clouds 16 997 72 10000 4.1 150 08:24 04.06.2020
1932 Clouds 15 997 77 10000 4.1 150 07:47 04.06.2020
1933 Clouds 14 998 76 10000 3.1 150 07:23 04.06.2020
1934 Clouds 12 998 82 10000 2.6 160 06:42 04.06.2020
1935 Clouds 12 998 87 10000 4.1 170 06:24 04.06.2020
1936 Clouds 11 998 82 10000 3.6 150 05:34 04.06.2020
1937 Clouds 12 999 87 10000 2.1 140 04:31 04.06.2020
1938 Clouds 12 1000 87 10000 2.1 150 03:23 04.06.2020
1939 Clouds 13 1000 76 10000 0.5 0 01:56 04.06.2020
1940 Clouds 13 1000 76 10000 0.5 0 01:56 04.06.2020
1941 Clouds 13 1001 76 10000 0.5 150 01:19 04.06.2020
1942 Clouds 14 1001 82 10000 1 0 00:40 04.06.2020
1943 Clouds 14 1002 72 10000 1.5 130 23:44 03.06.2020
1944 Clouds 15 1003 72 10000 2.1 130 23:21 03.06.2020
1945 Clouds 15 1003 77 10000 3.1 190 22:59 03.06.2020
1946 Clouds 16 1003 77 10000 3.1 190 22:39 03.06.2020
1947 Clouds 16 1003 72 10000 1 0 22:19 03.06.2020
1948 Clouds 16 1003 72 10000 1 0 22:19 03.06.2020
1949 Clouds 16 1003 72 10000 1.5 40 21:57 03.06.2020
1950 Clouds 16 1003 72 10000 1.5 40 21:39 03.06.2020
1951 Clouds 17 1003 72 10000 3.1 350 21:21 03.06.2020
1952 Clouds 17 1003 63 10000 3.1 330 20:56 03.06.2020
1953 Clouds 18 1003 63 10000 3.1 330 20:37 03.06.2020
1954 Rain 18 1003 59 10000 5.1 320 20:19 03.06.2020
1955 Clouds 20 1003 49 10000 2.6 0 19:56 03.06.2020
1956 Clouds 20 1003 49 10000 2.6 0 19:36 03.06.2020
1957 Rain 21 1003 37 10000 3.1 70 19:18 03.06.2020
1958 Rain 22 1003 38 10000 3.6 90 18:43 03.06.2020
1959 Clouds 23 1003 35 10000 4.1 110 18:22 03.06.2020
1960 Clouds 24 1003 36 10000 4.1 70 17:57 03.06.2020
1961 Clouds 24 1003 36 10000 4.1 70 17:37 03.06.2020
1962 Rain 24 1003 36 10000 4.1 110 17:19 03.06.2020
1963 Rain 24 1003 38 10000 3.6 100 16:55 03.06.2020
1964 Rain 24 1003 38 10000 3.6 100 16:37 03.06.2020
1965 Rain 24 1004 40 10000 4.1 80 16:18 03.06.2020
1966 Rain 25 1004 36 10000 1.5 0 15:41 03.06.2020
1967 Clouds 25 1005 36 10000 2.1 0 15:20 03.06.2020
1968 Clouds 24 1005 38 10000 2.6 330 14:48 03.06.2020
1969 Clouds 24 1005 40 10000 3.1 320 14:26 03.06.2020
1970 Clouds 24 1005 40 10000 3.1 320 13:59 03.06.2020
1971 Clouds 24 1006 40 10000 1.5 0 13:38 03.06.2020
1972 Clouds 23 1006 43 10000 3.1 360 13:18 03.06.2020
1973 Clouds 23 1006 49 10000 3.1 0 12:43 03.06.2020
1974 Clouds 21 1007 52 10000 2.6 0 12:21 03.06.2020
1975 Clouds 21 1007 52 10000 3.1 360 11:47 03.06.2020
1976 Rain 21 1007 60 10000 2.1 0 11:27 03.06.2020
1977 Rain 21 1007 64 10000 2.1 0 10:58 03.06.2020
1978 Rain 21 1007 64 10000 2.1 0 10:39 03.06.2020
1979 Clouds 20 1007 63 10000 1.5 330 10:21 03.06.2020
1980 Clouds 19 1008 68 10000 1.5 0 09:44 03.06.2020
1981 Clouds 17 1008 67 10000 1 0 09:20 03.06.2020
1982 Clouds 16 1008 72 10000 1.5 310 08:56 03.06.2020
1983 Clouds 15 1008 72 10000 1.5 310 08:36 03.06.2020
1984 Clouds 15 1008 77 10000 1 0 08:18 03.06.2020
1985 Clouds 14 1008 82 10000 1 0 07:42 03.06.2020
1986 Clouds 12 1008 87 10000 1.5 210 07:20 03.06.2020
1987 Rain 11 1008 100 10000 2.1 220 06:50 03.06.2020
1988 Rain 10 1008 93 10000 2.1 220 06:30 03.06.2020
1989 Clouds 10 1008 100 10000 1.5 230 05:46 03.06.2020
1990 Clouds 10 1009 100 10000 1 90 04:56 03.06.2020
1991 Clouds 10 1009 100 10000 3.1 220 03:50 03.06.2020
1992 Clouds 11 1010 93 10000 1.5 190 02:57 03.06.2020
1993 Clouds 12 1011 100 10000 1 0 01:53 03.06.2020
1994 Clouds 12 1011 87 10000 1.5 220 00:44 03.06.2020
1995 Rain 13 1011 82 10000 1.5 230 00:25 03.06.2020
1996 Rain 13 1011 82 10000 4.1 220 23:52 02.06.2020
1997 Rain 13 1012 87 10000 4.1 230 23:28 02.06.2020
1998 Rain 13 1012 87 10000 4.1 230 23:28 02.06.2020
1999 Rain 14 1012 82 10000 4.6 220 22:58 02.06.2020
2000 Rain 14 1012 82 10000 4.6 220 22:39 02.06.2020
2001 Rain 14 1012 87 10000 5.1 240 22:19 02.06.2020
2002 Rain 14 1012 87 10000 5.1 240 22:19 02.06.2020
2003 Rain 14 1012 87 10000 2.6 170 21:56 02.06.2020
2004 Rain 15 1012 87 10000 2.6 170 21:38 02.06.2020
2005 Rain 14 1012 87 10000 5.1 210 21:19 02.06.2020
2006 Rain 15 1013 87 10000 4.6 210 20:58 02.06.2020
2007 Rain 15 1013 87 10000 4.6 210 20:40 02.06.2020
2008 Rain 15 1013 87 10000 6.2 180 20:20 02.06.2020
2009 Rain 15 1013 93 10000 5.7 180 19:44 02.06.2020
2010 Rain 16 1014 82 10000 3.1 140 19:25 02.06.2020
2011 Clouds 16 1014 82 10000 4.6 90 18:58 02.06.2020
2012 Rain 17 1014 82 10000 4.6 90 18:40 02.06.2020
2013 Rain 17 1014 82 10000 1.5 180 18:20 02.06.2020
2014 Thunderstorm 17 1015 68 1500 8.2 20 17:55 02.06.2020
2015 Thunderstorm 21 1015 68 1500 8.2 20 17:37 02.06.2020
2016 Thunderstorm 23 1014 43 10000 3.6 230 17:19 02.06.2020
2017 Rain 23 1014 38 10000 2.1 0 16:55 02.06.2020
2018 Rain 23 1014 38 10000 2.1 0 16:37 02.06.2020
2019 Rain 22 1015 40 10000 2.6 120 16:19 02.06.2020
2020 Rain 22 1015 40 10000 2.6 120 16:19 02.06.2020
2021 Rain 22 1016 40 10000 2.6 130 15:40 02.06.2020
2022 Clouds 21 1016 38 10000 2.6 330 15:21 02.06.2020
2023 Rain 22 1016 40 10000 4.6 340 14:48 02.06.2020
2024 Clear 22 1017 40 10000 4.1 300 14:28 02.06.2020
2025 Clear 22 1017 40 10000 3.6 350 13:57 02.06.2020
2026 Clear 22 1017 40 10000 3.6 350 13:37 02.06.2020
2027 Clear 22 1018 40 10000 3.6 0 13:19 02.06.2020
2028 Clear 22 1018 43 10000 4.1 350 12:57 02.06.2020
2029 Clear 22 1018 43 10000 4.1 350 12:38 02.06.2020
2030 Clear 20 1018 49 10000 3.1 330 12:20 02.06.2020
2031 Clear 20 1019 45 10000 2.6 310 11:54 02.06.2020
2032 Clear 20 1019 45 10000 2.6 310 11:36 02.06.2020
2033 Clear 19 1019 48 10000 3.1 360 11:18 02.06.2020
2034 Clear 19 1019 48 10000 2.1 0 10:41 02.06.2020
2035 Clear 19 1019 48 10000 2.1 0 10:41 02.06.2020
2036 Clear 18 1020 51 10000 2.6 330 10:22 02.06.2020
2037 Clear 18 1020 55 10000 2.1 340 09:43 02.06.2020
2038 Clear 15 1020 55 10000 1.5 0 09:22 02.06.2020
2039 Clear 14 1020 58 10000 1.5 0 08:57 02.06.2020
2040 Clear 14 1020 58 10000 1.5 0 08:36 02.06.2020
2041 Clear 13 1020 62 10000 3.1 10 08:18 02.06.2020
2042 Clear 12 1020 66 10000 2.6 350 07:39 02.06.2020
2043 Clear 11 1020 76 10000 2.6 310 07:20 02.06.2020
2044 Clear 10 1020 81 10000 1 0 06:43 02.06.2020
2045 Clear 9 1020 81 10000 1.5 290 05:46 02.06.2020
2046 Clear 9 1020 81 10000 1.5 320 04:57 02.06.2020
2047 Clear 10 1020 62 10000 1 50 03:20 02.06.2020
2048 Clear 11 1020 62 10000 2.1 30 02:24 02.06.2020
2049 Clear 12 1021 54 10000 2.6 40 00:58 02.06.2020
2050 Clear 13 1021 51 10000 3.1 20 00:25 02.06.2020
2051 Clear 13 1021 54 10000 2.1 340 23:55 01.06.2020
2052 Clear 13 1021 54 10000 2.1 340 23:36 01.06.2020
2053 Clear 14 1020 42 10000 1 340 23:18 01.06.2020
2054 Clear 15 1021 42 10000 1 350 22:41 01.06.2020
2055 Clear 16 1020 39 10000 1 20 22:21 01.06.2020
2056 Clear 16 1020 39 10000 1 20 22:21 01.06.2020
2057 Clear 16 1020 39 10000 2.6 20 21:58 01.06.2020
2058 Clear 17 1020 39 10000 2.6 20 21:39 01.06.2020
2059 Clear 18 1020 34 10000 3.1 20 21:19 01.06.2020
2060 Clear 19 1020 35 10000 3.6 20 20:56 01.06.2020
2061 Clear 19 1020 35 10000 3.6 20 20:38 01.06.2020
2062 Clear 21 1020 30 10000 4.6 20 20:19 01.06.2020
2063 Clear 22 1020 30 10000 4.6 20 19:43 01.06.2020
2064 Clear 22 1020 30 10000 4.6 20 19:21 01.06.2020
2065 Clear 23 1020 28 10000 4.6 20 18:59 01.06.2020
2066 Clear 23 1020 28 10000 4.6 20 18:39 01.06.2020
2067 Clear 23 1020 28 10000 4.6 30 18:20 01.06.2020
2068 Clear 23 1020 31 10000 4.1 40 17:58 01.06.2020
2069 Clear 23 1020 31 10000 4.1 40 17:40 01.06.2020
2070 Clear 23 1021 33 10000 5.1 30 17:19 01.06.2020
2071 Clear 22 1021 35 0 4.6 30 16:42 01.06.2020
2072 Clouds 22 1021 37 10000 3.6 0 16:22 01.06.2020
2073 Clouds 23 1021 37 10000 4.6 30 15:59 01.06.2020
2074 Clouds 23 1021 37 10000 4.6 30 15:39 01.06.2020
2075 Clouds 22 1022 40 10000 4.1 30 15:20 01.06.2020
2076 Clouds 22 1022 40 10000 4.1 30 14:58 01.06.2020
2077 Clouds 22 1022 40 10000 4.1 30 14:40 01.06.2020
2078 Clouds 22 1022 43 10000 4.6 60 14:21 01.06.2020
2079 Clouds 21 1022 40 10000 2.6 0 13:55 01.06.2020
2080 Clouds 21 1022 40 10000 2.6 0 13:37 01.06.2020
2081 Clouds 21 1022 40 10000 2.6 0 13:18 01.06.2020
2082 Clouds 20 1023 45 10000 4.1 350 12:54 01.06.2020
2083 Clouds 20 1023 48 10000 4.6 10 12:36 01.06.2020
2084 Clouds 19 1023 48 10000 4.6 10 12:18 01.06.2020
2085 Clouds 18 1023 55 10000 4.1 350 11:39 01.06.2020
2086 Clear 17 1023 55 10000 4.1 350 11:21 01.06.2020
2087 Clear 18 1023 55 10000 3.1 340 10:57 01.06.2020
2088 Clear 18 1023 55 10000 2.6 320 10:37 01.06.2020
2089 Clear 17 1023 55 10000 2.6 320 10:18 01.06.2020
2090 Clear 17 1023 62 10000 2.1 350 09:55 01.06.2020
2091 Clear 16 1023 67 10000 1.5 0 09:37 01.06.2020
2092 Clear 14 1023 67 10000 1.5 0 09:19 01.06.2020
2093 Clear 12 1023 71 10000 2.1 360 08:41 01.06.2020
2094 Clear 12 1023 71 10000 2.1 360 08:22 01.06.2020
2095 Clear 11 1022 76 10000 1.5 360 07:44 01.06.2020
2096 Clear 10 1022 81 10000 1.5 340 07:25 01.06.2020
2097 Clear 9 1022 87 10000 1.5 330 06:52 01.06.2020
2098 Clear 8 1022 87 10000 1.5 340 06:20 01.06.2020
2099 Clear 8 1022 87 10000 1.5 320 05:49 01.06.2020
2100 Clear 9 1022 87 10000 1.5 310 04:23 01.06.2020
2101 Clear 10 1022 87 10000 1.5 310 03:44 01.06.2020
2102 Clear 11 1022 76 10000 2.1 320 02:59 01.06.2020
2103 Clouds 13 1022 66 10000 3.1 20 01:47 01.06.2020
2104 Clouds 13 1021 71 10000 2.6 10 01:27 01.06.2020
2105 Clouds 13 1021 71 10000 3.1 10 00:57 01.06.2020
2106 Clouds 13 1021 67 10000 3.1 360 00:39 01.06.2020
2107 Clouds 14 1021 67 10000 3.1 360 00:20 01.06.2020
2108 Clouds 14 1021 67 10000 2.6 360 23:55 31.05.2020
2109 Clouds 14 1021 67 10000 2.6 350 23:36 31.05.2020
2110 Clouds 14 1021 67 10000 2.6 350 23:18 31.05.2020
2111 Clouds 15 1020 62 10000 2.1 330 22:42 31.05.2020
2112 Clouds 15 1020 62 10000 2.1 330 22:42 31.05.2020
2113 Clouds 15 1020 62 10000 2.1 330 22:24 31.05.2020
2114 Clouds 15 1020 55 10000 2.1 340 21:58 31.05.2020
2115 Clouds 16 1020 55 10000 2.6 350 21:39 31.05.2020
2116 Rain 17 1020 55 10000 2.6 350 21:21 31.05.2020
2117 Rain 17 1020 55 10000 2.6 350 21:21 31.05.2020
2118 Rain 17 1020 55 10000 2.6 350 21:21 31.05.2020
2119 Rain 18 1019 48 10000 3.1 360 20:48 31.05.2020
2120 Rain 19 1019 42 10000 3.6 10 20:25 31.05.2020
2121 Rain 20 1019 42 10000 4.1 350 19:59 31.05.2020
2122 Rain 20 1019 45 10000 3.6 350 19:40 31.05.2020
2123 Clouds 20 1019 45 10000 3.6 350 19:22 31.05.2020
2124 Clouds 19 1019 52 10000 3.6 340 18:59 31.05.2020
2125 Clouds 20 1019 49 10000 3.1 300 18:41 31.05.2020
2126 Clouds 20 1019 49 10000 3.1 300 18:22 31.05.2020
2127 Clouds 19 1019 52 10000 4.1 310 17:43 31.05.2020
2128 Clouds 19 1019 52 10000 4.1 310 17:24 31.05.2020
2129 Clouds 19 1019 52 10000 4.1 310 17:24 31.05.2020
2130 Clouds 19 1020 52 10000 3.6 310 16:55 31.05.2020
2131 Clouds 19 1020 52 10000 4.6 350 16:37 31.05.2020
2132 Clouds 19 1020 52 10000 4.6 350 16:18 31.05.2020
2133 Clouds 17 1020 59 10000 3.6 330 15:39 31.05.2020
2134 Clouds 16 1020 59 10000 3.6 330 15:21 31.05.2020
2135 Clouds 16 1020 59 10000 5.1 340 14:47 31.05.2020
2136 Clouds 14 1020 62 10000 5.1 320 14:21 31.05.2020
2137 Clouds 14 1020 67 10000 6.2 310 13:56 31.05.2020
2138 Clouds 14 1020 67 10000 5.7 320 13:38 31.05.2020
2139 Clouds 13 1020 67 10000 5.7 320 13:20 31.05.2020
2140 Clouds 13 1020 67 10000 6.2 300 12:57 31.05.2020
2141 Clouds 12 1020 71 10000 4.6 330 12:37 31.05.2020
2142 Clouds 12 1020 71 10000 4.6 330 12:19 31.05.2020
2143 Clouds 12 1020 71 10000 4.6 320 11:48 31.05.2020
2144 Clouds 13 1021 71 10000 4.1 320 11:23 31.05.2020
2145 Clouds 12 1021 76 10000 3.6 310 10:57 31.05.2020
2146 Clouds 12 1021 76 0 3.6 330 10:39 31.05.2020
2147 Clouds 12 1021 76 0 3.6 330 10:20 31.05.2020
2148 Clouds 11 1021 81 10000 3.6 330 09:42 31.05.2020
2149 Clouds 10 1021 81 10000 3.6 330 09:23 31.05.2020
2150 Clouds 10 1021 81 10000 3.1 330 08:58 31.05.2020
2151 Clouds 10 1021 81 10000 2.6 320 08:38 31.05.2020
2152 Clouds 10 1021 81 10000 2.6 320 08:20 31.05.2020
2153 Clouds 9 1020 81 10000 2.6 320 07:44 31.05.2020
2154 Clouds 9 1020 81 10000 2.1 330 07:21 31.05.2020
2155 Clouds 9 1020 87 10000 2.6 310 06:54 31.05.2020
2156 Clouds 8 1020 87 10000 2.6 320 06:32 31.05.2020
2157 Clouds 8 1020 87 10000 2.1 310 05:45 31.05.2020
2158 Clouds 7 1020 87 10000 2.1 300 04:33 31.05.2020
2159 Clouds 7 1020 87 10000 1.5 320 03:51 31.05.2020
2160 Clouds 8 1021 75 10000 1.5 330 02:59 31.05.2020
2161 Clouds 8 1021 75 10000 1.5 340 01:51 31.05.2020
2162 Clouds 9 1021 70 10000 2.1 320 01:30 31.05.2020
2163 Clouds 9 1021 70 10000 2.1 320 00:31 31.05.2020
2164 Clouds 9 1021 66 10000 2.6 350 23:59 30.05.2020
2165 Clouds 10 1021 62 10000 2.6 340 23:41 30.05.2020
2166 Clouds 10 1021 62 10000 2.6 340 23:23 30.05.2020
2167 Clouds 11 1021 58 10000 2.1 330 22:42 30.05.2020
2168 Clouds 11 1021 58 10000 2.1 330 22:23 30.05.2020
2169 Clouds 12 1021 54 10000 2.1 330 21:58 30.05.2020
2170 Clouds 12 1021 54 10000 2.1 350 21:40 30.05.2020
2171 Clouds 12 1021 54 10000 2.1 350 21:22 30.05.2020
2172 Clouds 13 1021 47 10000 2.1 10 20:57 30.05.2020
2173 Clouds 14 1020 44 10000 2.1 340 20:39 30.05.2020
2174 Clouds 15 1020 44 10000 2.1 340 20:21 30.05.2020
2175 Clouds 16 1021 41 10000 2.6 350 19:55 30.05.2020
2176 Clouds 16 1021 41 10000 2.6 350 19:37 30.05.2020
2177 Clouds 16 1021 44 10000 3.6 360 19:18 30.05.2020
2178 Clouds 16 1021 41 10000 2.6 10 18:42 30.05.2020
2179 Clouds 16 1021 41 10000 2.6 10 18:18 30.05.2020
2180 Clouds 16 1021 38 10000 4.1 10 17:41 30.05.2020
2181 Clouds 16 1021 38 10000 4.1 10 17:23 30.05.2020
2182 Clouds 16 1021 38 10000 4.1 350 16:57 30.05.2020
2183 Clouds 16 1021 38 10000 3.6 10 16:38 30.05.2020
2184 Clouds 16 1021 38 10000 3.6 10 16:20 30.05.2020
2185 Clouds 16 1021 38 10000 5.7 350 15:42 30.05.2020
2186 Clouds 16 1021 38 10000 5.7 350 15:24 30.05.2020
2187 Clouds 17 1022 36 10000 5.1 10 14:43 30.05.2020
2188 Clouds 17 1022 36 10000 5.1 10 14:24 30.05.2020
2189 Clouds 16 1022 36 10000 4.1 20 13:44 30.05.2020
2190 Clouds 17 1022 38 10000 5.1 40 13:24 30.05.2020
2191 Clouds 16 1023 41 10000 5.7 30 12:42 30.05.2020
2192 Clouds 15 1023 41 10000 5.7 30 12:21 30.05.2020
2193 Clouds 15 1023 41 10000 6.7 20 11:58 30.05.2020
2194 Clouds 15 1023 44 10000 6.2 360 11:40 30.05.2020
2195 Clouds 14 1023 44 10000 6.2 360 11:22 30.05.2020
2196 Clouds 14 1023 44 10000 6.2 360 11:22 30.05.2020
2197 Clouds 14 1023 44 10000 4.6 40 10:54 30.05.2020
2198 Clouds 13 1023 43 10000 5.1 10 10:36 30.05.2020
2199 Clouds 13 1023 43 10000 5.1 10 10:18 30.05.2020
2200 Clouds 13 1024 54 10000 3.6 50 09:41 30.05.2020
2201 Clouds 12 1024 54 10000 3.6 50 09:23 30.05.2020
2202 Clouds 11 1024 62 10000 4.6 50 08:40 30.05.2020
2203 Clouds 10 1024 62 10000 4.6 50 08:21 30.05.2020
2204 Clouds 10 1024 71 10000 4.1 40 07:38 30.05.2020
2205 Clouds 9 1024 71 10000 4.1 40 07:18 30.05.2020
2206 Clouds 9 1024 81 10000 2.6 30 06:28 30.05.2020
2207 Clouds 8 1024 75 10000 2.6 20 05:49 30.05.2020
2208 Clouds 9 1023 81 10000 2.1 360 04:37 30.05.2020
2209 Clouds 10 1024 66 10000 1.5 360 02:41 30.05.2020
2210 Clouds 10 1024 66 10000 1.5 360 02:19 30.05.2020
2211 Clouds 11 1024 58 10000 2.1 30 00:45 30.05.2020
2212 Clouds 11 1024 54 10000 2.6 20 00:24 30.05.2020
2213 Clouds 11 1024 62 10000 1.5 350 23:59 29.05.2020
2214 Clouds 12 1024 54 10000 1.5 350 23:38 29.05.2020
2215 Clouds 12 1024 54 10000 1.5 350 23:19 29.05.2020
2216 Clouds 12 1024 54 10000 1.5 350 23:19 29.05.2020
2217 Clouds 12 1025 54 10000 2.1 350 22:54 29.05.2020
2218 Clouds 12 1025 54 10000 2.1 360 22:36 29.05.2020
2219 Clouds 13 1025 54 10000 2.1 360 22:18 29.05.2020
2220 Clouds 14 1025 47 10000 2.6 20 21:41 29.05.2020
2221 Clouds 15 1025 47 10000 2.6 20 21:21 29.05.2020
2222 Clouds 15 1025 47 10000 2.6 20 20:58 29.05.2020
2223 Clouds 15 1025 41 10000 5.1 30 20:39 29.05.2020
2224 Clouds 16 1025 41 10000 5.1 30 20:19 29.05.2020
2225 Clouds 16 1025 42 10000 1.5 30 19:43 29.05.2020
2226 Clouds 16 1025 42 10000 1.5 30 19:25 29.05.2020
2227 Clouds 16 1025 44 10000 2.1 60 18:48 29.05.2020
2228 Clouds 17 1025 42 10000 3.1 360 18:24 29.05.2020
2229 Clouds 17 1025 44 10000 3.1 10 17:59 29.05.2020
2230 Clouds 17 1026 44 10000 3.6 30 17:40 29.05.2020
2231 Clouds 17 1026 44 10000 3.6 30 17:21 29.05.2020
2232 Clouds 17 1026 45 10000 4.1 30 16:58 29.05.2020
2233 Clouds 17 1026 42 10000 4.1 50 16:40 29.05.2020
2234 Clouds 17 1026 42 10000 4.1 50 16:21 29.05.2020
2235 Clouds 17 1026 39 10000 4.1 30 15:54 29.05.2020
2236 Clouds 17 1027 45 10000 4.6 30 15:36 29.05.2020
2237 Clouds 17 1027 45 10000 4.6 30 15:18 29.05.2020
2238 Clouds 17 1027 45 10000 4.6 30 15:18 29.05.2020
2239 Clouds 19 1027 42 10000 5.1 50 14:39 29.05.2020
2240 Clouds 18 1027 42 10000 5.1 50 14:20 29.05.2020
2241 Clouds 18 1028 42 10000 5.7 50 13:43 29.05.2020
2242 Clouds 17 1028 42 10000 5.7 50 13:24 29.05.2020
2243 Clouds 17 1028 41 10000 5.7 40 12:58 29.05.2020
2244 Clouds 18 1028 41 10000 5.7 70 12:40 29.05.2020
2245 Clouds 16 1028 41 10000 5.7 70 12:21 29.05.2020
2246 Clouds 16 1029 44 10000 6.2 40 11:44 29.05.2020
2247 Clouds 16 1029 44 10000 5.1 30 11:26 29.05.2020
2248 Clouds 16 1029 44 10000 5.1 50 10:57 29.05.2020
2249 Clouds 15 1029 47 10000 5.1 30 10:37 29.05.2020
2250 Clouds 15 1029 47 10000 5.1 30 10:18 29.05.2020
2251 Clouds 15 1029 47 10000 5.1 30 10:18 29.05.2020
2252 Clouds 14 1029 50 10000 4.6 70 09:43 29.05.2020
2253 Clouds 12 1029 50 10000 4.6 70 09:20 29.05.2020
2254 Clouds 12 1029 50 10000 4.6 70 09:20 29.05.2020
2255 Clouds 12 1029 58 10000 4.1 40 08:48 29.05.2020
2256 Clouds 11 1029 71 10000 2.1 0 08:26 29.05.2020
2257 Clouds 11 1029 81 10000 2.1 40 07:59 29.05.2020
2258 Clouds 11 1029 81 10000 2.1 40 07:59 29.05.2020
2259 Clouds 10 1029 87 10000 2.6 30 07:39 29.05.2020
2260 Clouds 10 1029 87 10000 2.6 30 07:21 29.05.2020
2261 Clouds 9 1029 93 10000 2.1 10 06:47 29.05.2020
2262 Clouds 9 1028 93 10000 1.5 30 06:27 29.05.2020
2263 Clouds 8 1028 100 10000 1 0 05:46 29.05.2020
2264 Clouds 8 1028 93 10000 2.1 360 02:37 29.05.2020
2265 Clouds 9 1028 87 10000 1 320 01:30 29.05.2020
2266 Clouds 9 1028 93 10000 1.5 300 00:59 29.05.2020
2267 Clouds 9 1028 87 10000 0.5 0 00:40 29.05.2020
2268 Clouds 10 1028 87 10000 0.5 0 00:18 29.05.2020
2269 Clouds 10 1028 76 10000 2.29 2 23:39 28.05.2020
2270 Clouds 11 1028 76 10000 2.58 8 23:19 28.05.2020
2271 Clouds 10 1028 81 10000 0.5 0 22:44 28.05.2020
2272 Clouds 10 1028 76 10000 1.5 50 22:26 28.05.2020
2273 Clouds 11 1028 76 10000 1 0 21:58 28.05.2020
2274 Clouds 11 1027 71 10000 1 220 21:40 28.05.2020
2275 Clouds 12 1027 71 10000 1 220 21:20 28.05.2020
2276 Clouds 12 1027 76 10000 2.1 200 20:58 28.05.2020
2277 Clouds 12 1027 76 10000 1.5 200 20:39 28.05.2020
2278 Rain 12 1027 76 10000 1.5 200 20:19 28.05.2020
2279 Rain 12 1027 66 10000 1.5 130 19:57 28.05.2020
2280 Rain 12 1028 66 10000 3.1 100 19:39 28.05.2020
2281 Rain 12 1028 66 10000 3.1 100 19:20 28.05.2020
2282 Rain 13 1027 71 10000 2.1 120 18:43 28.05.2020
2283 Rain 13 1027 71 10000 2.1 120 18:25 28.05.2020
2284 Rain 13 1028 71 10000 7.2 60 17:59 28.05.2020
2285 Rain 13 1027 54 10000 3.1 20 17:39 28.05.2020
2286 Rain 13 1027 54 10000 3.1 20 17:20 28.05.2020
2287 Rain 15 1027 48 10000 4.6 340 16:46 28.05.2020
2288 Rain 16 1027 45 10000 5.1 350 16:21 28.05.2020
2289 Rain 16 1028 45 10000 4.6 350 15:54 28.05.2020
2290 Clouds 16 1028 55 10000 4.1 30 15:36 28.05.2020
2291 Clouds 16 1028 55 10000 4.1 30 15:18 28.05.2020
2292 Clouds 15 1028 58 10000 4.1 30 14:41 28.05.2020
2293 Clouds 15 1028 58 10000 4.1 30 14:22 28.05.2020
2294 Rain 13 1028 66 10000 2.1 350 13:46 28.05.2020
2295 Rain 12 1029 76 10000 7.7 30 13:27 28.05.2020
2296 Clouds 14 1029 66 10000 4.1 330 12:44 28.05.2020
2297 Clouds 14 1029 66 10000 4.1 330 12:20 28.05.2020
2298 Clouds 15 1029 62 10000 4.6 320 11:57 28.05.2020
2299 Clouds 15 1029 58 10000 5.7 340 11:39 28.05.2020
2300 Clouds 14 1029 58 10000 5.7 340 11:20 28.05.2020
2301 Clouds 13 1029 62 10000 4.6 340 10:46 28.05.2020
2302 Clouds 13 1029 62 10000 4.6 330 10:28 28.05.2020
2303 Clouds 14 1029 71 10000 4.1 340 09:59 28.05.2020
2304 Clouds 13 1029 81 10000 4.1 340 09:38 28.05.2020
2305 Clouds 11 1029 81 10000 4.1 340 09:18 28.05.2020
2306 Clouds 12 1029 100 10000 2.6 340 08:44 28.05.2020
2307 Clouds 11 1029 100 10000 2.6 340 08:25 28.05.2020
2308 Clouds 11 1029 93 10000 2.1 320 07:45 28.05.2020
2309 Clouds 11 1029 93 10000 2.1 320 07:23 28.05.2020
2310 Clouds 11 1029 93 10000 2.1 330 06:51 28.05.2020
2311 Rain 11 1029 93 10000 1.5 360 06:31 28.05.2020
2312 Rain 11 1029 93 10000 2.6 10 05:40 28.05.2020
2313 Rain 12 1029 93 8000 4.6 10 04:46 28.05.2020
2314 Rain 12 1029 87 10000 6.7 10 04:22 28.05.2020
2315 Rain 13 1028 71 10000 3.1 10 03:45 28.05.2020
2316 Clouds 14 1028 67 10000 2.6 10 02:45 28.05.2020
2317 Rain 14 1028 67 10000 2.1 320 01:49 28.05.2020
2318 Rain 14 1028 67 10000 2.6 310 00:54 28.05.2020
2319 Rain 14 1028 59 10000 2.1 290 00:23 28.05.2020
2320 Rain 14 1028 59 10000 1.5 280 23:57 27.05.2020
2321 Rain 14 1028 59 10000 2.1 280 23:38 27.05.2020
2322 Clouds 14 1028 59 10000 2.1 280 23:20 27.05.2020
2323 Clouds 14 1029 59 10000 1.5 290 22:54 27.05.2020
2324 Clouds 15 1029 59 10000 1 290 22:36 27.05.2020
2325 Rain 15 1029 59 10000 1 290 22:18 27.05.2020
2326 Rain 16 1028 55 10000 1.5 300 21:40 27.05.2020
2327 Rain 16 1028 55 10000 1.5 300 21:21 27.05.2020
2328 Rain 17 1029 55 10000 1 0 20:58 27.05.2020
2329 Rain 18 1029 52 10000 2.1 320 20:40 27.05.2020
2330 Rain 18 1029 52 10000 2.1 320 20:21 27.05.2020
2331 Rain 19 1029 45 10000 2.6 300 19:55 27.05.2020
2332 Rain 19 1029 42 10000 3.1 300 19:37 27.05.2020
2333 Rain 20 1029 42 10000 3.1 300 19:18 27.05.2020
2334 Rain 21 1029 42 10000 3.6 290 18:39 27.05.2020
2335 Rain 21 1029 42 10000 3.6 290 18:19 27.05.2020
2336 Rain 21 1029 37 10000 3.1 290 17:45 27.05.2020
2337 Clouds 22 1030 37 10000 2.6 340 17:26 27.05.2020
2338 Clouds 21 1030 40 10000 4.1 340 16:57 27.05.2020
2339 Clouds 22 1030 40 10000 3.1 0 16:38 27.05.2020
2340 Clouds 22 1030 40 10000 3.1 0 16:38 27.05.2020
2341 Clouds 22 1030 40 10000 3.1 0 16:20 27.05.2020
2342 Clouds 21 1031 42 10000 3.6 310 15:59 27.05.2020
2343 Clouds 21 1031 40 10000 2.6 320 15:39 27.05.2020
2344 Clouds 21 1031 40 10000 2.6 320 15:21 27.05.2020
2345 Clouds 21 1031 40 10000 3.1 0 14:43 27.05.2020
2346 Rain 21 1031 40 10000 3.1 0 14:21 27.05.2020
2347 Clouds 20 1032 52 10000 3.6 360 13:55 27.05.2020
2348 Clouds 21 1032 48 10000 3.1 330 13:36 27.05.2020
2349 Clouds 20 1032 48 10000 3.1 330 13:18 27.05.2020
2350 Clouds 19 1033 51 10000 3.6 20 12:40 27.05.2020
2351 Clouds 18 1033 51 10000 3.6 20 12:22 27.05.2020
2352 Clouds 18 1033 51 10000 3.1 10 11:40 27.05.2020
2353 Clouds 18 1033 51 10000 3.1 10 11:40 27.05.2020
2354 Clouds 17 1033 51 10000 3.1 10 11:22 27.05.2020
2355 Clouds 18 1033 51 10000 3.1 340 10:58 27.05.2020
2356 Clouds 17 1033 59 10000 2.6 320 10:39 27.05.2020
2357 Clouds 17 1033 59 10000 2.6 320 10:39 27.05.2020
2358 Clouds 17 1033 59 10000 2.6 320 10:39 27.05.2020
2359 Clouds 18 1033 59 10000 2.6 320 10:20 27.05.2020
2360 Rain 17 1033 67 10000 1.5 0 09:42 27.05.2020
2361 Clear 15 1033 67 10000 1.5 0 09:23 27.05.2020
2362 Clear 13 1033 71 10000 1.5 250 08:58 27.05.2020
2363 Clear 13 1033 81 10000 2.1 230 08:40 27.05.2020
2364 Clouds 12 1033 81 10000 2.1 230 08:22 27.05.2020
2365 Clouds 10 1033 81 10000 2.1 210 07:51 27.05.2020
2366 Clouds 10 1033 81 10000 2.1 210 07:51 27.05.2020
2367 Clouds 10 1033 81 10000 1.5 210 07:33 27.05.2020
2368 Clouds 7 1033 87 10000 1.5 210 06:52 27.05.2020
2369 Clouds 7 1033 93 10000 1.5 190 06:24 27.05.2020
2370 Clouds 6 1033 93 10000 2.1 210 05:50 27.05.2020
2371 Clouds 6 1033 87 10000 2.6 220 05:23 27.05.2020
2372 Clouds 7 1034 87 10000 2.1 220 02:46 27.05.2020
2373 Clear 8 1034 81 10000 2.1 230 02:24 27.05.2020
2374 Clear 9 1034 66 10000 0.5 0 01:31 27.05.2020
2375 Clear 9 1034 66 10000 0.5 0 01:31 27.05.2020
2376 Clear 9 1034 66 10000 1 260 00:47 27.05.2020
2377 Clear 10 1034 54 10000 1 100 00:21 27.05.2020
2378 Clear 10 1034 50 10000 0.5 180 23:58 26.05.2020
2379 Clear 10 1034 50 10000 0.5 180 23:58 26.05.2020
2380 Clear 11 1034 50 10000 0.75 273 23:39 26.05.2020
2381 Clear 11 1034 50 10000 0.52 329 23:21 26.05.2020
2382 Clear 11 1034 50 10000 0.52 329 22:57 26.05.2020
2383 Clear 12 1033 47 10000 0.5 340 22:37 26.05.2020
2384 Clear 11 1033 47 10000 0.5 340 22:19 26.05.2020
2385 Clear 12 1033 47 10000 1.5 30 21:55 26.05.2020
2386 Clear 13 1033 47 10000 2.1 20 21:36 26.05.2020
2387 Clear 13 1033 47 10000 2.1 20 21:18 26.05.2020
2388 Clear 15 1033 45 10000 3.6 30 20:41 26.05.2020
2389 Clouds 16 1033 45 10000 3.6 30 20:20 26.05.2020
2390 Clouds 17 1033 45 10000 3.1 30 19:41 26.05.2020
2391 Clouds 18 1033 45 10000 3.1 30 19:22 26.05.2020
2392 Clouds 18 1033 45 10000 4.1 30 18:59 26.05.2020
2393 Clouds 19 1033 45 10000 5.1 20 18:39 26.05.2020
2394 Clouds 19 1033 45 10000 5.1 20 18:21 26.05.2020
2395 Clouds 18 1033 42 10000 4.1 30 17:42 26.05.2020
2396 Clouds 19 1033 42 10000 4.1 30 17:23 26.05.2020
2397 Clouds 19 1033 48 10000 3.6 340 16:55 26.05.2020
2398 Clouds 18 1033 48 10000 3.6 10 16:36 26.05.2020
2399 Clouds 18 1033 48 10000 3.6 10 16:18 26.05.2020
2400 Clouds 18 1033 48 10000 3.6 30 15:41 26.05.2020
2401 Clouds 18 1033 48 10000 3.6 30 15:20 26.05.2020
2402 Clouds 18 1033 51 10000 4.1 350 14:56 26.05.2020
2403 Clouds 18 1033 51 10000 4.1 360 14:37 26.05.2020
2404 Clouds 17 1033 51 10000 4.1 360 14:19 26.05.2020
2405 Clouds 17 1033 59 10000 4.6 360 13:41 26.05.2020
2406 Clouds 17 1033 59 10000 4.6 360 13:23 26.05.2020
2407 Clouds 17 1033 59 10000 5.1 340 12:56 26.05.2020
2408 Clouds 17 1034 58 10000 4.1 350 12:37 26.05.2020
2409 Clouds 15 1034 58 10000 4.1 350 12:19 26.05.2020
2410 Clouds 15 1034 67 10000 3.1 360 11:41 26.05.2020
2411 Clouds 14 1034 67 10000 3.1 360 11:21 26.05.2020
2412 Clouds 13 1034 71 10000 3.1 340 10:57 26.05.2020
2413 Clouds 14 1034 71 10000 3.6 340 10:38 26.05.2020
2414 Clouds 13 1034 71 10000 3.6 340 10:18 26.05.2020
2415 Clouds 12 1034 87 10000 3.6 350 09:39 26.05.2020
2416 Clouds 11 1034 87 10000 3.6 350 09:19 26.05.2020
2417 Clouds 11 1033 93 10000 3.1 330 08:42 26.05.2020
2418 Clouds 11 1033 93 10000 3.1 330 08:22 26.05.2020
2419 Clouds 11 1033 93 10000 1.5 330 07:44 26.05.2020
2420 Clouds 10 1033 93 10000 1.5 330 07:24 26.05.2020
2421 Clouds 10 1032 100 9000 2.1 330 06:54 26.05.2020
2422 Clouds 10 1032 100 9000 2.1 330 06:36 26.05.2020
2423 Clouds 10 1032 93 10000 2.1 340 05:53 26.05.2020
2424 Clouds 10 1032 93 10000 2.1 330 05:29 26.05.2020
2425 Rain 10 1032 93 10000 2.6 320 04:52 26.05.2020
2426 Clouds 10 1032 93 10000 1.5 310 04:33 26.05.2020
2427 Clouds 9 1032 100 10000 2.1 300 03:55 26.05.2020
2428 Clouds 10 1032 93 10000 2.6 320 02:45 26.05.2020
2429 Clouds 10 1032 93 10000 2.6 310 01:48 26.05.2020
2430 Clouds 10 1032 93 10000 2.1 300 01:27 26.05.2020
2431 Clouds 10 1031 93 10000 1.5 300 00:39 26.05.2020
2432 Clouds 10 1031 93 10000 1.5 300 00:19 26.05.2020
2433 Clouds 10 1031 93 10000 1.5 300 23:56 25.05.2020
2434 Clouds 10 1031 93 10000 2.1 320 23:37 25.05.2020
2435 Clouds 10 1031 93 10000 2.1 320 23:18 25.05.2020
2436 Clouds 10 1031 93 10000 2.6 310 22:55 25.05.2020
2437 Rain 10 1031 93 10000 1.5 300 22:36 25.05.2020
2438 Clouds 10 1031 93 10000 1.5 300 22:18 25.05.2020
2439 Clouds 10 1031 93 10000 1.5 300 22:18 25.05.2020
2440 Clouds 10 1031 93 10000 1.5 300 22:18 25.05.2020
2441 Clouds 10 1031 93 10000 1.5 290 21:55 25.05.2020
2442 Clouds 10 1030 93 10000 2.1 310 21:36 25.05.2020
2443 Clouds 10 1030 93 10000 2.1 310 21:36 25.05.2020
2444 Clouds 10 1030 93 10000 2.1 310 21:18 25.05.2020
2445 Clouds 11 1030 93 10000 2.6 330 20:42 25.05.2020
2446 Clouds 11 1030 93 10000 2.6 330 20:42 25.05.2020
2447 Rain 11 1030 93 10000 2.6 330 20:22 25.05.2020
2448 Rain 11 1030 93 10000 2.6 330 20:22 25.05.2020
2449 Rain 11 1030 93 10000 2.1 330 19:59 25.05.2020
2450 Rain 11 1029 93 10000 2.6 340 19:41 25.05.2020
2451 Rain 11 1029 93 10000 2.6 340 19:19 25.05.2020
2452 Rain 11 1029 87 10000 3.6 330 18:58 25.05.2020
2453 Clouds 11 1029 87 10000 4.6 320 18:40 25.05.2020
2454 Clouds 11 1029 87 10000 4.6 320 18:20 25.05.2020
2455 Clouds 12 1028 81 10000 5.1 320 17:44 25.05.2020
2456 Clouds 12 1028 81 10000 5.1 320 17:44 25.05.2020
2457 Clouds 12 1028 81 10000 5.1 320 17:24 25.05.2020
2458 Rain 11 1028 87 10000 5.7 320 16:58 25.05.2020
2459 Clouds 12 1028 76 10000 6.7 310 16:40 25.05.2020
2460 Clouds 12 1028 76 10000 6.7 310 16:21 25.05.2020
2461 Clouds 12 1028 76 10000 5.7 320 15:45 25.05.2020
2462 Clouds 12 1028 71 10000 6.2 320 15:20 25.05.2020
2463 Rain 12 1027 76 10000 6.7 320 14:59 25.05.2020
2464 Clouds 12 1027 76 10000 6.7 320 14:59 25.05.2020
2465 Clouds 12 1027 71 10000 8.2 320 14:40 25.05.2020
2466 Clouds 12 1027 71 10000 8.2 320 14:22 25.05.2020
2467 Clouds 11 1027 76 10000 6.2 300 13:55 25.05.2020
2468 Clouds 12 1027 76 10000 6.7 300 13:37 25.05.2020
2469 Clouds 11 1027 76 10000 6.7 300 13:18 25.05.2020
2470 Rain 12 1027 76 10000 4.6 320 12:39 25.05.2020
2471 Rain 12 1027 76 10000 4.6 320 12:21 25.05.2020
2472 Rain 11 1027 81 10000 4.6 320 11:57 25.05.2020
2473 Clouds 11 1027 71 10000 4.1 320 11:37 25.05.2020
2474 Clouds 11 1027 71 10000 4.1 320 11:18 25.05.2020
2475 Rain 11 1026 76 10000 4.1 320 10:41 25.05.2020
2476 Rain 11 1026 76 10000 4.1 320 10:21 25.05.2020
2477 Clouds 11 1026 76 10000 5.1 330 09:57 25.05.2020
2478 Clouds 11 1026 71 10000 5.1 320 09:38 25.05.2020
2479 Clouds 11 1026 71 10000 5.1 320 09:19 25.05.2020
2480 Clouds 11 1026 81 10000 5.1 310 08:57 25.05.2020
2481 Clouds 11 1026 81 10000 5.1 310 08:36 25.05.2020
2482 Clouds 11 1026 81 10000 5.1 310 08:18 25.05.2020
2483 Clouds 11 1026 81 10000 5.1 300 07:42 25.05.2020
2484 Clouds 11 1026 81 10000 5.1 300 07:20 25.05.2020
2485 Clouds 11 1026 93 10000 4.1 290 06:49 25.05.2020
2486 Rain 11 1026 93 10000 4.1 280 06:31 25.05.2020
2487 Clouds 11 1026 93 10000 4.1 290 03:48 25.05.2020
2488 Clouds 11 1025 87 10000 4.6 280 03:22 25.05.2020
2489 Clouds 11 1026 87 10000 5.1 280 02:45 25.05.2020
2490 Clouds 11 1026 87 10000 4.6 270 01:51 25.05.2020
2491 Rain 11 1026 87 10000 3.6 260 01:28 25.05.2020
2492 Clouds 11 1026 81 10000 3.1 270 00:37 25.05.2020
2493 Clouds 11 1026 81 10000 3.1 270 00:18 25.05.2020
2494 Clouds 11 1026 81 10000 3.6 260 23:55 24.05.2020
2495 Clouds 11 1026 81 10000 4.1 260 23:36 24.05.2020
2496 Clouds 11 1026 81 10000 4.1 260 23:18 24.05.2020
2497 Rain 11 1026 76 10000 3.1 270 22:41 24.05.2020
2498 Rain 12 1026 76 10000 3.1 270 22:19 24.05.2020
2499 Rain 12 1026 76 10000 4.1 280 21:56 24.05.2020
2500 Clouds 12 1026 81 10000 1.5 240 21:38 24.05.2020
2501 Clouds 12 1026 81 10000 1.5 240 21:19 24.05.2020
2502 Clouds 12 1026 87 10000 1 0 20:44 24.05.2020
2503 Rain 12 1026 87 10000 1 0 20:23 24.05.2020
2504 Rain 12 1025 81 10000 3.1 0 19:59 24.05.2020
2505 Rain 12 1025 81 3000 8.7 290 19:41 24.05.2020
2506 Rain 13 1025 81 3000 8.7 290 19:20 24.05.2020
2507 Rain 13 1025 81 3000 8.7 290 19:20 24.05.2020
2508 Clouds 14 1025 71 10000 2.1 230 18:59 24.05.2020
2509 Clouds 14 1025 71 10000 1 0 18:40 24.05.2020
2510 Clouds 14 1025 71 10000 1 0 18:22 24.05.2020
2511 Rain 13 1025 81 10000 7.7 330 17:56 24.05.2020
2512 Clouds 15 1025 62 10000 5.1 350 17:37 24.05.2020
2513 Clouds 15 1025 62 10000 5.1 350 17:18 24.05.2020
2514 Rain 16 1025 62 10000 4.1 310 16:39 24.05.2020
2515 Rain 14 1025 62 10000 4.1 310 16:21 24.05.2020
2516 Rain 14 1025 71 10000 5.1 330 15:59 24.05.2020
2517 Clouds 13 1025 62 10000 8.7 330 15:40 24.05.2020
2518 Clouds 13 1025 62 10000 8.7 330 15:20 24.05.2020
2519 Clouds 15 1024 39 10000 8.7 270 14:55 24.05.2020
2520 Clouds 16 1024 48 10000 7.7 260 14:37 24.05.2020
2521 Clouds 16 1024 48 10000 7.7 260 14:18 24.05.2020
2522 Clouds 16 1024 51 10000 5.7 270 13:55 24.05.2020
2523 Clouds 15 1024 54 10000 5.7 280 13:36 24.05.2020
2524 Clouds 16 1024 54 10000 5.7 280 13:18 24.05.2020
2525 Rain 16 1024 55 10000 6.7 250 12:55 24.05.2020
2526 Rain 16 1024 55 10000 7.2 260 12:37 24.05.2020
2527 Rain 16 1024 55 10000 7.2 260 12:18 24.05.2020
2528 Clouds 16 1025 58 10000 4.1 270 11:46 24.05.2020
2529 Clouds 16 1025 58 10000 4.1 270 11:26 24.05.2020
2530 Clouds 16 1025 58 10000 4.6 240 10:59 24.05.2020
2531 Clouds 16 1025 58 10000 4.6 240 10:59 24.05.2020
2532 Clouds 15 1025 67 10000 6.2 260 10:41 24.05.2020
2533 Clouds 15 1025 67 10000 6.2 260 10:23 24.05.2020
2534 Clouds 15 1025 67 10000 6.2 270 09:56 24.05.2020
2535 Clouds 15 1025 62 10000 5.7 270 09:38 24.05.2020
2536 Clouds 13 1025 62 10000 5.7 270 09:18 24.05.2020
2537 Clear 13 1025 76 10000 4.6 260 08:41 24.05.2020
2538 Clouds 12 1025 76 10000 4.6 260 08:23 24.05.2020
2539 Clouds 12 1025 71 10000 4.1 250 07:58 24.05.2020
2540 Clouds 11 1025 71 10000 4.1 260 07:39 24.05.2020
2541 Clouds 11 1025 71 10000 4.1 260 07:20 24.05.2020
2542 Clouds 10 1025 71 10000 3.6 240 06:39 24.05.2020
2543 Clouds 9 1025 76 10000 3.6 250 05:50 24.05.2020
2544 Rain 9 1024 81 10000 2.1 290 03:57 24.05.2020
2545 Rain 9 1024 81 10000 3.1 250 03:37 24.05.2020
2546 Clouds 10 1024 76 10000 4.1 260 02:24 24.05.2020
2547 Clouds 10 1024 76 10000 2.6 250 01:21 24.05.2020
2548 Clouds 11 1024 76 10000 2.6 260 00:38 24.05.2020
2549 Clouds 11 1024 76 10000 2.6 260 00:20 24.05.2020
2550 Clouds 12 1024 76 10000 4.1 270 23:40 23.05.2020
2551 Clouds 12 1024 76 10000 4.1 270 23:20 23.05.2020
2552 Clouds 12 1023 76 10000 4.6 260 22:56 23.05.2020
2553 Clouds 12 1023 71 10000 4.1 270 22:37 23.05.2020
2554 Clouds 12 1023 71 10000 4.1 270 22:19 23.05.2020
2555 Clouds 13 1023 71 10000 5.1 270 21:57 23.05.2020
2556 Clouds 13 1022 76 10000 4.6 270 21:37 23.05.2020
2557 Clouds 12 1022 76 10000 4.6 270 21:19 23.05.2020
2558 Clouds 13 1022 76 10000 4.1 260 20:55 23.05.2020
2559 Clouds 13 1022 76 10000 4.6 270 20:36 23.05.2020
2560 Clouds 13 1022 76 10000 4.6 270 20:18 23.05.2020
2561 Clouds 13 1021 76 10000 4.6 260 19:41 23.05.2020
2562 Clouds 13 1021 76 10000 4.6 260 19:19 23.05.2020
2563 Clouds 13 1020 76 10000 3.1 270 18:57 23.05.2020
2564 Rain 13 1020 76 10000 4.1 280 18:39 23.05.2020
2565 Rain 13 1020 76 10000 4.1 280 18:20 23.05.2020
2566 Rain 13 1020 67 10000 5.1 280 17:55 23.05.2020
2567 Rain 14 1020 59 10000 4.1 280 17:37 23.05.2020
2568 Rain 15 1020 59 10000 4.1 280 17:18 23.05.2020
2569 Clouds 15 1020 59 10000 5.1 280 16:55 23.05.2020
2570 Clouds 16 1020 55 10000 4.6 270 16:37 23.05.2020
2571 Clouds 16 1020 55 10000 4.6 270 16:18 23.05.2020
2572 Clouds 16 1020 55 10000 4.6 270 16:18 23.05.2020
2573 Clouds 16 1020 63 10000 5.1 280 15:42 23.05.2020
2574 Clouds 16 1020 63 10000 5.1 280 15:23 23.05.2020
2575 Clouds 17 1020 67 10000 4.1 280 14:55 23.05.2020
2576 Clouds 17 1020 67 10000 3.1 280 14:37 23.05.2020
2577 Clouds 17 1020 67 10000 3.1 280 14:19 23.05.2020
2578 Clouds 17 1020 67 10000 3.1 270 13:40 23.05.2020
2579 Clouds 16 1020 67 10000 3.1 270 13:19 23.05.2020
2580 Clouds 17 1020 82 10000 2.6 230 12:55 23.05.2020
2581 Clouds 16 1020 87 10000 3.1 230 12:36 23.05.2020
2582 Clouds 15 1020 87 10000 3.1 230 12:18 23.05.2020
2583 Clouds 15 1020 87 10000 3.1 210 11:42 23.05.2020
2584 Clouds 14 1020 87 10000 3.1 210 11:21 23.05.2020
2585 Clouds 14 1020 93 10000 1.5 240 10:57 23.05.2020
2586 Rain 13 1020 93 10000 2.6 240 10:39 23.05.2020
2587 Rain 13 1020 93 10000 2.6 240 10:19 23.05.2020
2588 Rain 13 1020 93 9000 2.6 260 09:56 23.05.2020
2589 Rain 14 1020 93 6000 2.6 230 09:38 23.05.2020
2590 Rain 14 1020 93 6000 2.6 230 09:20 23.05.2020
2591 Rain 14 1020 100 3300 1.5 230 08:42 23.05.2020
2592 Rain 14 1020 100 3300 1.5 230 08:19 23.05.2020
2593 Rain 14 1019 100 6000 1.5 220 07:47 23.05.2020
2594 Rain 14 1019 100 4700 2.6 220 07:29 23.05.2020
2595 Rain 14 1019 100 4000 3.1 210 06:55 23.05.2020
2596 Rain 14 1019 100 10000 3.1 200 06:36 23.05.2020
2597 Rain 14 1019 100 10000 3.1 170 04:56 23.05.2020
2598 Rain 14 1019 93 10000 4.1 170 03:30 23.05.2020
2599 Rain 14 1019 93 10000 3.6 160 02:57 23.05.2020
2600 Rain 14 1020 93 10000 3.6 170 01:58 23.05.2020
2601 Rain 14 1020 87 10000 4.6 170 01:23 23.05.2020
2602 Rain 14 1019 82 10000 4.6 170 00:47 23.05.2020
2603 Rain 14 1019 82 10000 4.6 170 00:25 23.05.2020
2604 Rain 14 1019 87 10000 2.6 140 23:57 22.05.2020
2605 Rain 15 1020 82 10000 4.1 140 23:39 22.05.2020
2606 Rain 15 1020 82 10000 4.1 140 23:19 22.05.2020
2607 Rain 15 1020 82 10000 3.1 180 22:55 22.05.2020
2608 Rain 15 1020 82 10000 1.5 170 22:36 22.05.2020
2609 Rain 15 1020 82 10000 1.5 170 22:18 22.05.2020
2610 Rain 15 1020 82 10000 1.5 170 22:18 22.05.2020
2611 Rain 15 1020 87 10000 2.6 180 21:42 22.05.2020
2612 Rain 16 1020 87 10000 2.6 180 21:21 22.05.2020
2613 Rain 16 1020 87 10000 3.1 210 20:46 22.05.2020
2614 Rain 16 1020 87 10000 1.5 220 20:21 22.05.2020
2615 Rain 16 1020 72 10000 2.1 160 19:59 22.05.2020
2616 Clouds 17 1020 67 10000 5.7 190 19:41 22.05.2020
2617 Rain 17 1020 67 10000 5.7 190 19:22 22.05.2020
2618 Rain 18 1020 55 10000 4.1 140 18:40 22.05.2020
2619 Rain 18 1020 55 10000 4.1 140 18:40 22.05.2020
2620 Rain 18 1020 55 10000 4.1 140 18:21 22.05.2020
2621 Rain 18 1020 52 10000 4.6 80 17:59 22.05.2020
2622 Rain 18 1020 52 10000 3.6 120 17:38 22.05.2020
2623 Rain 18 1020 52 10000 3.6 120 17:18 22.05.2020
2624 Rain 21 1020 42 10000 4.6 120 16:45 22.05.2020
2625 Rain 21 1021 40 10000 4.1 120 16:21 22.05.2020
2626 Rain 21 1021 40 10000 3.6 150 15:59 22.05.2020
2627 Rain 21 1021 40 10000 4.6 130 15:41 22.05.2020
2628 Clouds 21 1021 40 10000 4.6 130 15:21 22.05.2020
2629 Clouds 21 1021 37 10000 4.1 130 14:44 22.05.2020
2630 Clouds 21 1021 37 10000 3.6 150 14:25 22.05.2020
2631 Clouds 21 1021 35 10000 4.6 150 13:49 22.05.2020
2632 Clouds 21 1022 37 10000 4.6 120 13:21 22.05.2020
2633 Clouds 21 1022 37 10000 4.6 130 12:59 22.05.2020
2634 Clouds 21 1022 37 10000 4.6 140 12:39 22.05.2020
2635 Clouds 20 1022 37 10000 4.6 140 12:20 22.05.2020
2636 Clouds 18 1022 48 10000 5.1 140 11:44 22.05.2020
2637 Clouds 18 1022 48 10000 5.1 140 11:21 22.05.2020
2638 Clouds 18 1022 48 10000 5.1 140 11:21 22.05.2020
2639 Clouds 17 1022 47 10000 5.7 140 10:56 22.05.2020
2640 Clouds 16 1022 47 10000 5.1 140 10:38 22.05.2020
2641 Clouds 16 1022 47 10000 5.1 140 10:19 22.05.2020
2642 Clouds 16 1022 47 10000 5.1 140 10:19 22.05.2020
2643 Clouds 15 1022 47 10000 4.6 140 09:46 22.05.2020
2644 Clouds 14 1022 47 10000 4.6 140 09:21 22.05.2020
2645 Clouds 13 1022 47 10000 3.6 150 08:57 22.05.2020
2646 Clouds 13 1022 47 10000 4.6 140 08:39 22.05.2020
2647 Clouds 13 1022 47 10000 4.6 140 08:18 22.05.2020
2648 Clouds 12 1022 43 10000 4.6 150 07:48 22.05.2020
2649 Clouds 12 1022 43 10000 4.6 150 07:22 22.05.2020
2650 Clouds 10 1022 50 10000 4.6 160 06:46 22.05.2020
2651 Clouds 9 1022 50 10000 4.6 160 06:28 22.05.2020
2652 Clouds 9 1022 64 10000 4.1 150 05:35 22.05.2020
2653 Clouds 9 1023 50 10000 4.1 150 04:48 22.05.2020
2654 Clouds 9 1023 50 10000 4.6 150 03:50 22.05.2020
2655 Clouds 10 1023 50 10000 4.1 150 03:29 22.05.2020
2656 Clouds 10 1023 50 10000 3.1 150 02:23 22.05.2020
2657 Clouds 10 1023 50 10000 3.1 170 01:42 22.05.2020
2658 Clouds 10 1023 50 10000 3.1 170 01:20 22.05.2020
2659 Clouds 11 1023 47 10000 2.6 150 00:33 22.05.2020
2660 Clouds 11 1023 47 10000 2.6 140 23:57 21.05.2020
2661 Clouds 12 1023 44 10000 2.1 140 23:39 21.05.2020
2662 Clouds 12 1023 44 10000 2.1 140 23:20 21.05.2020
2663 Clouds 12 1023 47 10000 1.5 130 22:57 21.05.2020
2664 Clouds 13 1023 44 10000 2.1 140 22:37 21.05.2020
2665 Clouds 13 1023 44 10000 2.1 140 22:19 21.05.2020
2666 Clouds 14 1023 38 10000 2.1 110 21:47 21.05.2020
2667 Clouds 15 1023 38 10000 3.1 100 21:27 21.05.2020
2668 Clouds 16 1023 36 10000 3.1 100 20:57 21.05.2020
2669 Clouds 17 1022 34 10000 3.6 90 20:39 21.05.2020
2670 Clouds 17 1022 34 10000 3.6 90 20:21 21.05.2020
2671 Clouds 18 1022 32 10000 4.6 90 19:40 21.05.2020
2672 Clouds 19 1022 32 10000 4.6 90 19:20 21.05.2020
2673 Clouds 19 1022 32 10000 2.6 100 18:58 21.05.2020
2674 Clouds 19 1022 32 10000 3.1 0 18:37 21.05.2020
2675 Clouds 20 1022 32 10000 3.1 0 18:18 21.05.2020
2676 Clouds 20 1022 32 10000 2.6 70 17:55 21.05.2020
2677 Clouds 20 1022 32 10000 2.1 0 17:36 21.05.2020
2678 Clouds 20 1022 32 10000 2.1 0 17:18 21.05.2020
2679 Clouds 20 1022 34 10000 1.5 0 16:41 21.05.2020
2680 Clouds 20 1022 34 10000 1.5 0 16:22 21.05.2020
2681 Clouds 20 1023 34 10000 4.1 70 15:41 21.05.2020
2682 Clouds 20 1023 34 10000 4.1 70 15:22 21.05.2020
2683 Clouds 19 1023 37 10000 2.6 0 14:42 21.05.2020
2684 Clouds 19 1023 37 10000 2.6 0 14:23 21.05.2020
2685 Clouds 19 1023 37 10000 2.1 50 13:58 21.05.2020
2686 Clouds 18 1023 39 10000 2.6 0 13:38 21.05.2020
2687 Clouds 19 1023 39 10000 2.6 0 13:18 21.05.2020
2688 Clouds 19 1024 39 10000 3.6 70 12:40 21.05.2020
2689 Clouds 19 1024 39 10000 3.6 70 12:40 21.05.2020
2690 Clouds 18 1024 39 10000 3.6 70 12:21 21.05.2020
2691 Clouds 18 1024 36 10000 2.1 0 11:58 21.05.2020
2692 Clouds 18 1024 42 10000 2.6 0 11:39 21.05.2020
2693 Clouds 17 1024 42 10000 2.6 0 11:21 21.05.2020
2694 Clouds 17 1024 42 10000 2.6 70 10:45 21.05.2020
2695 Clouds 17 1024 48 10000 2.1 90 10:23 21.05.2020
2696 Clouds 16 1024 55 10000 1.5 60 09:59 21.05.2020
2697 Clouds 16 1023 58 10000 1 0 09:40 21.05.2020
2698 Clouds 16 1023 58 10000 1 0 09:40 21.05.2020
2699 Clouds 14 1023 58 10000 1 0 09:22 21.05.2020
2700 Clouds 14 1023 62 10000 0.5 0 08:57 21.05.2020
2701 Clouds 13 1023 66 10000 1 0 08:38 21.05.2020
2702 Clouds 12 1023 66 10000 1 0 08:20 21.05.2020
2703 Clouds 10 1023 87 10000 0.5 0 07:42 21.05.2020
2704 Clouds 9 1023 87 10000 0.5 0 07:22 21.05.2020
2705 Clouds 7 1022 93 10000 1.5 200 06:37 21.05.2020
2706 Clouds 6 1022 87 10000 0.5 0 05:50 21.05.2020
2707 Clouds 7 1022 70 10000 1 0 04:18 21.05.2020
2708 Clouds 7 1022 70 10000 0.5 320 03:21 21.05.2020
2709 Clouds 9 1023 62 10000 0.5 100 02:31 21.05.2020
2710 Clouds 9 1023 62 10000 0.5 40 01:51 21.05.2020
2711 Clear 10 1022 62 10000 0.5 80 01:24 21.05.2020
2712 Clear 10 1022 62 10000 1 50 00:59 21.05.2020
2713 Clear 10 1022 62 10000 1 40 00:41 21.05.2020
2714 Clear 10 1022 62 10000 1 40 00:19 21.05.2020
2715 Clear 10 1022 62 10000 1 40 00:19 21.05.2020
2716 Clear 11 1022 66 10000 1.5 350 23:40 20.05.2020
2717 Clear 11 1022 66 10000 1.5 350 23:19 20.05.2020
2718 Clear 12 1022 66 10000 2.1 300 22:55 20.05.2020
2719 Clear 12 1022 62 10000 2.1 300 22:37 20.05.2020
2720 Clear 13 1022 62 10000 2.1 300 22:19 20.05.2020
2721 Clear 14 1021 58 10000 1.5 310 21:40 20.05.2020
2722 Clear 14 1021 58 10000 1.5 310 21:20 20.05.2020
2723 Clear 16 1021 55 10000 2.6 290 20:44 20.05.2020
2724 Clouds 17 1020 48 10000 2.1 270 20:24 20.05.2020
2725 Clouds 17 1021 48 10000 2.1 260 19:55 20.05.2020
2726 Clouds 17 1021 48 10000 2.1 300 19:37 20.05.2020
2727 Clouds 17 1021 48 10000 2.1 300 19:18 20.05.2020
2728 Clouds 17 1021 48 10000 3.1 310 18:42 20.05.2020
2729 Clouds 17 1021 48 10000 3.1 310 18:22 20.05.2020
2730 Clouds 17 1021 48 10000 3.6 330 17:41 20.05.2020
2731 Clouds 17 1021 48 10000 3.6 330 17:22 20.05.2020
2732 Clouds 18 1021 55 10000 4.1 300 16:57 20.05.2020
2733 Clouds 18 1021 55 10000 3.1 310 16:39 20.05.2020
2734 Clouds 18 1021 55 10000 3.1 310 16:20 20.05.2020
2735 Clouds 18 1021 55 10000 2.1 290 15:44 20.05.2020
2736 Clouds 18 1021 55 10000 2.6 340 15:25 20.05.2020
2737 Clouds 18 1021 55 10000 3.1 300 14:45 20.05.2020
2738 Clouds 18 1021 52 10000 2.6 0 14:26 20.05.2020
2739 Clouds 18 1021 55 10000 2.6 10 13:59 20.05.2020
2740 Clouds 18 1021 55 10000 2.6 320 13:39 20.05.2020
2741 Clouds 17 1021 55 10000 2.6 320 13:18 20.05.2020
2742 Clouds 17 1022 59 10000 2.1 0 12:42 20.05.2020
2743 Clouds 17 1022 59 10000 2.1 0 12:21 20.05.2020
2744 Clouds 17 1021 63 10000 1.5 0 11:39 20.05.2020
2745 Clouds 16 1021 63 10000 1.5 0 11:20 20.05.2020
2746 Clouds 15 1022 72 10000 1 0 10:55 20.05.2020
2747 Clouds 14 1021 71 10000 1.5 70 10:37 20.05.2020
2748 Clouds 14 1021 71 10000 1.5 70 10:19 20.05.2020
2749 Clouds 14 1021 76 10000 1.5 70 09:41 20.05.2020
2750 Clouds 14 1021 76 10000 1.5 70 09:20 20.05.2020
2751 Clouds 13 1021 76 10000 2.1 120 08:42 20.05.2020
2752 Clouds 13 1021 76 10000 2.1 120 08:20 20.05.2020
2753 Clouds 12 1020 81 10000 1.5 110 07:54 20.05.2020
2754 Clouds 12 1020 81 10000 1.5 60 07:36 20.05.2020
2755 Clouds 12 1020 81 10000 1.5 60 07:18 20.05.2020
2756 Clouds 11 1020 81 10000 0.5 0 06:28 20.05.2020
2757 Clouds 10 1020 81 10000 0.5 0 05:19 20.05.2020
2758 Clouds 10 1020 81 10000 0.5 60 04:25 20.05.2020
2759 Clouds 11 1020 76 10000 1 310 03:37 20.05.2020
2760 Clouds 12 1021 71 10000 1 0 01:58 20.05.2020
2761 Clouds 12 1021 71 10000 1 320 01:26 20.05.2020
2762 Clouds 12 1021 71 10000 1.5 300 00:42 20.05.2020
2763 Clouds 12 1021 71 10000 1.5 300 00:23 20.05.2020
2764 Clouds 13 1021 67 10000 1.5 290 23:40 19.05.2020
2765 Clouds 14 1021 67 10000 1.5 290 23:19 19.05.2020
2766 Clouds 15 1020 67 10000 1.5 290 22:56 19.05.2020
2767 Clouds 15 1020 67 10000 1.5 330 22:38 19.05.2020
2768 Clouds 15 1020 67 10000 1.5 330 22:18 19.05.2020
2769 Clouds 16 1020 63 10000 2.1 310 21:55 19.05.2020
2770 Clouds 15 1020 63 10000 1 0 21:37 19.05.2020
2771 Clouds 15 1020 63 10000 1 0 21:37 19.05.2020
2772 Clouds 16 1020 63 10000 1 0 21:18 19.05.2020
2773 Clouds 17 1020 55 10000 1.5 330 20:56 19.05.2020
2774 Clouds 17 1020 59 10000 2.1 350 20:38 19.05.2020
2775 Clouds 17 1020 59 10000 2.1 350 20:38 19.05.2020
2776 Clouds 17 1020 59 10000 2.1 350 20:38 19.05.2020
2777 Clouds 17 1020 59 10000 2.1 350 20:19 19.05.2020
2778 Clouds 17 1020 59 10000 2.1 350 20:19 19.05.2020
2779 Clouds 18 1019 59 10000 3.1 350 19:39 19.05.2020
2780 Clouds 18 1019 59 10000 3.1 350 19:21 19.05.2020
2781 Clouds 18 1019 55 10000 4.6 340 18:57 19.05.2020
2782 Clouds 18 1019 59 10000 4.6 340 18:38 19.05.2020
2783 Clouds 19 1019 59 10000 4.6 340 18:20 19.05.2020
2784 Clouds 19 1019 55 10000 4.1 320 17:41 19.05.2020
2785 Clouds 19 1019 55 10000 4.1 320 17:21 19.05.2020
2786 Clouds 21 1019 49 10000 6.2 320 16:58 19.05.2020
2787 Clouds 20 1019 49 10000 7.2 310 16:38 19.05.2020
2788 Clouds 21 1019 49 10000 7.2 310 16:19 19.05.2020
2789 Clouds 21 1019 52 10000 6.2 320 15:44 19.05.2020
2790 Clouds 22 1019 52 10000 5.7 320 15:21 19.05.2020
2791 Clouds 21 1019 49 10000 4.6 310 14:56 19.05.2020
2792 Clouds 21 1019 52 10000 6.2 300 14:38 19.05.2020
2793 Clouds 20 1019 52 10000 6.2 300 14:20 19.05.2020
2794 Clouds 20 1019 52 10000 5.1 280 13:57 19.05.2020
2795 Clouds 20 1019 52 10000 5.1 280 13:57 19.05.2020
2796 Clouds 19 1019 48 10000 5.7 310 13:38 19.05.2020
2797 Clouds 19 1019 48 10000 5.7 310 13:38 19.05.2020
2798 Clouds 19 1019 48 10000 5.7 310 13:20 19.05.2020
2799 Clouds 19 1019 48 10000 5.7 310 13:20 19.05.2020
2800 Clouds 20 1020 37 10000 5.1 280 12:56 19.05.2020
2801 Clouds 20 1020 37 10000 5.7 300 12:37 19.05.2020
2802 Clouds 20 1020 37 10000 5.7 300 12:19 19.05.2020
2803 Clouds 19 1020 52 10000 4.1 0 11:42 19.05.2020
2804 Clouds 20 1020 52 10000 4.1 0 11:23 19.05.2020
2805 Clouds 19 1020 55 10000 4.1 280 10:58 19.05.2020
2806 Rain 19 1020 63 10000 4.1 310 10:40 19.05.2020
2807 Rain 18 1020 63 10000 4.1 310 10:21 19.05.2020
2808 Rain 19 1020 63 10000 4.6 310 09:46 19.05.2020
2809 Clouds 16 1020 63 10000 4.1 290 09:25 19.05.2020
2810 Clouds 15 1020 63 10000 3.1 270 08:48 19.05.2020
2811 Clouds 14 1020 67 10000 3.1 250 08:26 19.05.2020
2812 Clouds 14 1020 67 10000 2.6 230 07:59 19.05.2020
2813 Clouds 13 1020 71 10000 2.1 220 07:41 19.05.2020
2814 Clouds 12 1020 71 10000 2.1 220 07:23 19.05.2020
2815 Clouds 10 1019 76 10000 3.1 220 06:41 19.05.2020
2816 Clouds 10 1019 76 10000 3.1 220 06:41 19.05.2020
2817 Clouds 10 1019 76 10000 3.1 220 06:19 19.05.2020
2818 Clouds 11 1019 71 10000 3.6 210 05:39 19.05.2020
2819 Clouds 10 1020 71 10000 3.1 210 04:54 19.05.2020
2820 Clouds 11 1020 76 10000 3.6 210 02:59 19.05.2020
2821 Clouds 11 1020 67 10000 1.5 250 01:22 19.05.2020
2822 Clouds 12 1020 62 10000 2.1 240 00:41 19.05.2020
2823 Clouds 13 1020 62 10000 2.1 240 00:21 19.05.2020
2824 Clouds 13 1020 62 10000 3.1 220 23:40 18.05.2020
2825 Clouds 13 1020 62 10000 3.1 220 23:21 18.05.2020
2826 Clouds 14 1020 62 10000 3.1 220 22:59 18.05.2020
2827 Clouds 14 1020 59 10000 2.6 220 22:39 18.05.2020
2828 Clouds 14 1020 59 10000 2.6 220 22:21 18.05.2020
2829 Clouds 16 1020 52 10000 1.5 230 21:43 18.05.2020
2830 Clear 16 1020 52 10000 1.5 230 21:22 18.05.2020
2831 Clear 17 1020 48 10000 1.5 250 20:59 18.05.2020
2832 Clear 17 1020 48 10000 1.5 250 20:41 18.05.2020
2833 Clouds 19 1020 42 10000 3.6 280 20:21 18.05.2020
2834 Clouds 20 1020 42 10000 3.6 280 19:57 18.05.2020
2835 Clouds 21 1020 40 10000 3.1 270 19:39 18.05.2020
2836 Clouds 21 1020 40 10000 3.1 270 19:19 18.05.2020
2837 Clouds 21 1020 40 10000 3.1 280 18:45 18.05.2020
2838 Clouds 21 1021 42 10000 4.1 290 18:24 18.05.2020
2839 Clouds 21 1021 42 10000 5.1 290 17:41 18.05.2020
2840 Clouds 21 1021 42 10000 5.1 290 17:18 18.05.2020
2841 Clouds 21 1021 43 10000 3.6 260 16:59 18.05.2020
2842 Clouds 21 1021 40 10000 4.1 270 16:40 18.05.2020
2843 Clouds 21 1021 40 10000 4.1 270 16:20 18.05.2020
2844 Clouds 21 1021 40 10000 4.6 240 15:57 18.05.2020
2845 Clouds 21 1021 42 10000 4.1 260 15:39 18.05.2020
2846 Clouds 21 1021 42 10000 4.1 260 15:20 18.05.2020
2847 Clouds 21 1022 40 10000 4.1 260 14:56 18.05.2020
2848 Clouds 21 1022 40 10000 5.1 270 14:38 18.05.2020
2849 Clouds 20 1022 40 10000 5.1 270 14:19 18.05.2020
2850 Clouds 20 1022 39 10000 4.6 260 13:41 18.05.2020
2851 Clouds 20 1022 39 10000 4.6 260 13:20 18.05.2020
2852 Clouds 20 1022 42 10000 4.1 260 12:58 18.05.2020
2853 Clouds 19 1023 42 10000 4.6 280 12:39 18.05.2020
2854 Clouds 18 1023 42 10000 4.6 280 12:19 18.05.2020
2855 Clouds 18 1023 45 10000 4.1 250 11:47 18.05.2020
2856 Clouds 17 1023 45 10000 4.1 250 11:27 18.05.2020
2857 Clouds 17 1023 48 10000 4.1 240 10:59 18.05.2020
2858 Clouds 17 1023 51 10000 4.1 260 10:41 18.05.2020
2859 Clouds 17 1023 51 10000 4.1 260 10:22 18.05.2020
2860 Clouds 16 1023 54 10000 2.6 240 09:44 18.05.2020
2861 Clouds 14 1023 54 10000 2.6 240 09:25 18.05.2020
2862 Clouds 13 1023 54 10000 2.6 240 08:54 18.05.2020
2863 Clouds 13 1023 62 10000 3.1 230 08:36 18.05.2020
2864 Clouds 12 1023 62 10000 3.1 230 08:18 18.05.2020
2865 Clouds 9 1023 70 10000 3.6 210 07:41 18.05.2020
2866 Clouds 8 1023 70 10000 3.6 210 07:20 18.05.2020
2867 Clouds 7 1023 70 10000 3.6 210 06:46 18.05.2020
2868 Clouds 6 1022 75 10000 3.6 200 06:18 18.05.2020
2869 Clouds 6 1022 75 10000 3.1 220 05:42 18.05.2020
2870 Clear 6 1022 75 10000 4.1 210 03:37 18.05.2020
2871 Clouds 7 1022 75 10000 3.6 210 02:31 18.05.2020
2872 Clear 7 1022 70 10000 2.6 230 01:34 18.05.2020
2873 Clouds 8 1022 66 10000 3.1 200 00:38 18.05.2020
2874 Clouds 8 1022 66 10000 3.1 200 00:18 18.05.2020
2875 Clouds 9 1022 61 10000 2.6 220 23:42 17.05.2020
2876 Clear 9 1022 61 10000 2.6 220 23:20 17.05.2020
2877 Clear 9 1022 54 10000 1 0 22:59 17.05.2020
2878 Clear 10 1022 54 10000 1 300 22:39 17.05.2020
2879 Clear 10 1022 54 10000 1 300 22:21 17.05.2020
2880 Clear 11 1022 54 10000 1 310 21:59 17.05.2020
2881 Clear 12 1022 50 10000 0.5 320 21:41 17.05.2020
2882 Clear 12 1022 50 10000 0.5 320 21:19 17.05.2020
2883 Clear 13 1022 47 10000 1.5 310 20:55 17.05.2020
2884 Clear 14 1022 44 10000 2.1 290 20:37 17.05.2020
2885 Clear 14 1022 44 10000 2.1 290 20:18 17.05.2020
2886 Clear 16 1022 41 10000 4.1 310 19:42 17.05.2020
2887 Clear 16 1022 41 10000 4.1 310 19:42 17.05.2020
2888 Clear 16 1022 41 10000 4.1 310 19:23 17.05.2020
2889 Clear 17 1022 41 10000 4.6 320 18:56 17.05.2020
2890 Clear 17 1022 41 10000 3.6 290 18:38 17.05.2020
2891 Clouds 17 1022 41 10000 3.6 290 18:19 17.05.2020
2892 Clouds 17 1022 41 10000 4.6 310 17:40 17.05.2020
2893 Clear 17 1022 41 10000 4.6 310 17:22 17.05.2020
2894 Clear 17 1022 41 10000 4.6 290 16:57 17.05.2020
2895 Clear 17 1022 44 10000 5.1 310 16:39 17.05.2020
2896 Clear 17 1022 44 10000 5.1 310 16:39 17.05.2020
2897 Clear 17 1022 44 10000 5.1 310 16:19 17.05.2020
2898 Clear 17 1022 44 10000 5.1 310 16:19 17.05.2020
2899 Clear 17 1022 44 10000 5.7 310 15:46 17.05.2020
2900 Clear 16 1022 44 10000 5.7 310 15:24 17.05.2020
2901 Clear 17 1022 48 10000 4.6 300 14:58 17.05.2020
2902 Clouds 17 1022 51 10000 6.2 280 14:40 17.05.2020
2903 Clouds 16 1022 51 10000 6.2 280 14:20 17.05.2020
2904 Clouds 16 1022 51 10000 4.6 310 13:43 17.05.2020
2905 Clouds 16 1022 51 10000 4.6 310 13:21 17.05.2020
2906 Clouds 16 1022 51 10000 4.6 310 13:21 17.05.2020
2907 Rain 14 1021 66 10000 4.1 330 10:35 17.05.2020
2908 Clouds 7 1019 75 10000 1.5 250 03:53 17.05.2020
2909 Clouds 8 1019 66 10000 3.1 170 02:27 17.05.2020
2910 Clouds 8 1019 66 10000 2.1 190 01:55 17.05.2020
2911 Clouds 8 1020 57 10000 0.5 120 00:56 17.05.2020
2912 Clouds 8 1020 53 10000 1 120 00:36 17.05.2020
2913 Clouds 8 1020 53 10000 1 0 23:57 16.05.2020
2914 Clouds 9 1020 53 10000 1.5 100 23:39 16.05.2020
2915 Clear 9 1020 53 10000 1.5 100 23:19 16.05.2020
2916 Clear 9 1020 53 10000 1.5 20 22:55 16.05.2020
2917 Clear 9 1020 53 10000 2.1 350 22:36 16.05.2020
2918 Clear 10 1020 53 10000 2.1 350 22:18 16.05.2020
2919 Clear 11 1020 47 10000 1 0 21:42 16.05.2020
2920 Clear 11 1020 47 10000 1 0 21:24 16.05.2020
2921 Clear 12 1019 50 10000 1.5 330 20:57 16.05.2020
2922 Clear 13 1019 41 10000 2.6 330 20:39 16.05.2020
2923 Clear 14 1019 41 10000 2.6 330 20:20 16.05.2020
2924 Clear 15 1020 41 10000 2.6 310 19:56 16.05.2020
2925 Clear 16 1020 38 10000 3.6 310 19:37 16.05.2020
2926 Clear 16 1020 38 10000 3.6 310 19:19 16.05.2020
2927 Clear 17 1020 41 10000 4.6 300 18:41 16.05.2020
2928 Clear 16 1020 41 10000 4.6 300 18:22 16.05.2020
2929 Clear 16 1020 41 10000 4.6 310 17:55 16.05.2020
2930 Clear 17 1020 36 10000 3.1 270 17:36 16.05.2020
2931 Clear 17 1020 36 10000 3.1 270 17:18 16.05.2020
2932 Clear 15 1021 41 10000 3.1 290 16:39 16.05.2020
2933 Clear 16 1021 41 10000 3.1 290 16:20 16.05.2020
2934 Clear 15 1021 41 10000 4.1 270 15:56 16.05.2020
2935 Clear 16 1021 41 10000 3.6 0 15:38 16.05.2020
2936 Clear 16 1021 41 10000 3.6 0 15:38 16.05.2020
2937 Clear 15 1021 41 10000 3.6 0 15:19 16.05.2020
2938 Clear 16 1022 41 10000 3.1 270 14:43 16.05.2020
2939 Clouds 15 1022 41 10000 3.1 270 14:20 16.05.2020
2940 Clouds 16 1022 41 10000 4.6 260 13:57 16.05.2020
2941 Clouds 14 1022 43 10000 4.1 280 13:38 16.05.2020
2942 Clouds 14 1022 43 10000 4.1 280 13:38 16.05.2020
2943 Clouds 14 1022 43 10000 4.1 280 13:20 16.05.2020
2944 Clouds 15 1022 43 10000 4.6 280 12:44 16.05.2020
2945 Clouds 13 1023 46 10000 5.1 270 12:21 16.05.2020
2946 Clouds 13 1023 46 10000 4.6 300 11:56 16.05.2020
2947 Clouds 12 1023 46 10000 5.1 300 11:38 16.05.2020
2948 Clouds 12 1023 46 10000 5.1 300 11:20 16.05.2020
2949 Clouds 12 1023 46 10000 4.6 260 10:55 16.05.2020
2950 Clouds 12 1023 53 10000 4.1 300 10:37 16.05.2020
2951 Clouds 12 1023 53 10000 4.1 300 10:18 16.05.2020
2952 Clouds 12 1023 53 10000 4.1 300 10:18 16.05.2020
2953 Clouds 11 1023 61 10000 4.6 300 09:44 16.05.2020
2954 Clouds 10 1023 61 10000 4.6 300 09:25 16.05.2020
2955 Clear 9 1022 66 10000 3.1 250 08:43 16.05.2020
2956 Clouds 9 1022 66 10000 3.1 250 08:21 16.05.2020
2957 Clouds 8 1022 70 10000 2.6 220 07:46 16.05.2020
2958 Clouds 6 1022 75 10000 3.1 220 07:27 16.05.2020
2959 Clouds 5 1022 80 10000 3.1 220 06:59 16.05.2020
2960 Clouds 5 1021 80 10000 3.1 210 06:41 16.05.2020
2961 Clouds 4 1021 80 10000 3.1 210 06:18 16.05.2020
2962 Clouds 4 1021 80 10000 2.6 220 05:38 16.05.2020
2963 Clouds 6 1021 70 10000 2.1 250 04:30 16.05.2020
2964 Clear 6 1021 65 10000 2.6 250 02:59 16.05.2020
2965 Clouds 6 1021 65 10000 2.1 240 02:22 16.05.2020
2966 Clear 6 1021 65 10000 1.5 270 01:56 16.05.2020
2967 Clear 6 1021 70 10000 2.1 290 01:33 16.05.2020
2968 Clear 6 1021 70 10000 2.1 280 00:55 16.05.2020
2969 Clear 7 1021 61 10000 2.1 270 00:37 16.05.2020
2970 Clear 6 1021 61 10000 2.1 270 00:18 16.05.2020
2971 Clear 7 1020 53 10000 2.1 260 23:37 15.05.2020
2972 Clouds 7 1020 53 10000 2.1 260 23:18 15.05.2020
2973 Clouds 8 1020 53 10000 2.1 250 22:40 15.05.2020
2974 Clouds 8 1020 53 10000 2.1 250 22:20 15.05.2020
2975 Clouds 8 1020 53 10000 2.1 250 22:20 15.05.2020
2976 Clouds 9 1020 53 10000 1.5 260 21:56 15.05.2020
2977 Clouds 9 1019 50 10000 2.6 290 21:38 15.05.2020
2978 Clouds 10 1019 50 10000 2.6 290 21:20 15.05.2020
2979 Clouds 12 1019 72 10000 3.1 290 20:54 15.05.2020
2980 Clouds 12 1019 72 10000 5.1 300 20:36 15.05.2020
2981 Clouds 12 1019 67 10000 5.1 300 20:18 15.05.2020
2982 Clouds 13 1018 67 10000 4.6 310 19:42 15.05.2020
2983 Clouds 13 1018 59 10000 4.6 310 19:23 15.05.2020
2984 Clouds 14 1018 41 10000 4.6 290 18:48 15.05.2020
2985 Clouds 14 1018 41 10000 5.1 300 18:28 15.05.2020
2986 Clouds 15 1018 53 10000 4.1 320 17:59 15.05.2020
2987 Clouds 14 1018 43 10000 4.6 290 17:37 15.05.2020
2988 Clouds 15 1018 43 10000 4.6 290 17:18 15.05.2020
2989 Clouds 14 1017 53 10000 5.1 300 16:56 15.05.2020
2990 Clouds 14 1017 43 10000 4.6 310 16:37 15.05.2020
2991 Clouds 15 1017 43 10000 4.6 310 16:18 15.05.2020
2992 Clouds 15 1017 41 10000 4.1 320 15:41 15.05.2020
2993 Clouds 14 1017 41 10000 4.1 320 15:20 15.05.2020
2994 Clouds 13 1017 52 10000 4.6 320 14:57 15.05.2020
2995 Clouds 13 1017 53 10000 4.1 350 14:39 15.05.2020
2996 Clouds 14 1017 53 10000 4.1 350 14:21 15.05.2020
2997 Clouds 14 1017 53 10000 4.1 350 14:21 15.05.2020
2998 Clouds 14 1017 43 10000 3.6 350 13:42 15.05.2020
2999 Clouds 14 1017 43 10000 3.6 350 13:22 15.05.2020
3000 Clouds 14 1017 47 10000 3.6 360 12:56 15.05.2020
3001 Clouds 14 1017 55 10000 3.1 360 12:37 15.05.2020
3002 Clouds 13 1017 49 10000 3.1 360 12:18 15.05.2020
3003 Clouds 14 1017 49 10000 3.6 60 11:56 15.05.2020
3004 Clouds 13 1017 50 10000 3.6 40 11:37 15.05.2020
3005 Clouds 12 1017 50 10000 3.6 40 11:19 15.05.2020
3006 Clouds 13 1017 46 10000 3.1 50 10:56 15.05.2020
3007 Clouds 13 1017 50 10000 2.6 50 10:37 15.05.2020
3008 Clouds 12 1017 50 10000 2.6 50 10:19 15.05.2020
3009 Clouds 11 1017 66 10000 2.1 350 09:40 15.05.2020
3010 Clear 9 1017 66 10000 2.1 350 09:20 15.05.2020
3011 Clear 8 1017 61 10000 1.5 0 08:59 15.05.2020
3012 Clear 7 1017 70 10000 1.5 340 08:38 15.05.2020
3013 Clear 7 1017 70 10000 1.5 340 08:38 15.05.2020
3014 Clear 7 1017 70 10000 1.5 340 08:38 15.05.2020
3015 Clear 7 1017 70 10000 1.5 340 08:19 15.05.2020
3016 Clear 6 1017 75 10000 2.1 320 07:46 15.05.2020
3017 Clear 6 1017 75 10000 2.1 320 07:46 15.05.2020
3018 Clear 5 1017 75 10000 0.5 0 07:46 15.05.2020
3019 Clear 5 1017 75 10000 0.5 0 07:27 15.05.2020
3020 Clear 4 1017 86 10000 0.93 5 06:57 15.05.2020
3021 Clear 3 1017 80 10000 1.5 270 05:56 15.05.2020
3022 Clear 3 1017 80 10000 1 0 04:38 15.05.2020
3023 Clear 4 1017 75 10000 1.5 70 03:49 15.05.2020
3024 Clear 5 1017 70 10000 0.5 0 02:44 15.05.2020
3025 Clouds 6 1018 65 10000 1.5 40 01:32 15.05.2020
3026 Clouds 7 1018 65 10000 1.5 30 00:58 15.05.2020
3027 Clouds 7 1018 65 10000 2.1 50 00:39 15.05.2020
3028 Clouds 7 1018 65 10000 2.1 50 00:21 15.05.2020
3029 Clouds 8 1018 61 10000 1.5 30 23:41 14.05.2020
3030 Clouds 8 1018 61 10000 1.5 30 23:18 14.05.2020
3031 Clouds 8 1018 61 10000 2.1 20 22:42 14.05.2020
3032 Clouds 8 1018 61 10000 2.1 20 22:23 14.05.2020
3033 Clouds 8 1018 66 10000 1.5 360 21:58 14.05.2020
3034 Clouds 9 1017 57 10000 3.1 360 21:40 14.05.2020
3035 Clouds 9 1017 57 10000 3.1 360 21:40 14.05.2020
3036 Clouds 10 1017 57 10000 3.1 360 21:20 14.05.2020
3037 Clouds 10 1017 57 10000 3.1 360 20:57 14.05.2020
3038 Clouds 11 1017 54 10000 2.6 20 20:39 14.05.2020
3039 Clouds 11 1017 54 10000 2.6 20 20:19 14.05.2020
3040 Clouds 11 1017 54 10000 2.6 20 20:19 14.05.2020
3041 Clouds 12 1017 54 10000 2.1 350 19:56 14.05.2020
3042 Clouds 13 1017 54 10000 3.1 360 19:37 14.05.2020
3043 Clouds 13 1017 54 10000 3.1 360 19:19 14.05.2020
3044 Rain 13 1017 58 10000 2.1 360 18:56 14.05.2020
3045 Rain 13 1017 54 10000 3.1 360 18:38 14.05.2020
3046 Rain 13 1017 54 10000 3.1 360 18:19 14.05.2020
3047 Rain 14 1017 50 10000 4.1 350 17:56 14.05.2020
3048 Rain 13 1017 50 10000 5.1 360 17:37 14.05.2020
3049 Rain 13 1017 50 10000 5.1 360 17:18 14.05.2020
3050 Clouds 13 1017 58 10000 5.7 360 16:39 14.05.2020
3051 Clouds 13 1017 58 10000 5.7 360 16:21 14.05.2020
3052 Clouds 13 1016 58 10000 6.7 340 15:59 14.05.2020
3053 Clouds 13 1016 47 10000 3.1 320 15:40 14.05.2020
3054 Clouds 14 1016 47 10000 3.1 320 15:20 14.05.2020
3055 Clouds 14 1016 50 10000 4.6 340 14:56 14.05.2020
3056 Clouds 14 1016 50 10000 3.1 300 14:38 14.05.2020
3057 Clouds 14 1016 50 10000 3.1 300 14:20 14.05.2020
3058 Clouds 14 1016 47 10000 3.6 320 13:57 14.05.2020
3059 Clouds 14 1016 50 10000 3.1 0 13:38 14.05.2020
3060 Clouds 13 1016 50 10000 3.1 0 13:19 14.05.2020
3061 Clouds 14 1016 50 10000 3.1 330 12:57 14.05.2020
3062 Clouds 13 1016 47 10000 4.1 330 12:38 14.05.2020
3063 Clouds 13 1016 47 10000 4.1 330 12:18 14.05.2020
3064 Clouds 12 1016 54 10000 4.1 350 11:57 14.05.2020
3065 Clouds 12 1016 62 10000 4.1 340 11:38 14.05.2020
3066 Clouds 12 1016 62 10000 4.1 340 11:19 14.05.2020
3067 Clouds 12 1015 62 10000 4.6 320 10:45 14.05.2020
3068 Rain 11 1015 66 10000 4.1 310 10:26 14.05.2020
3069 Clouds 11 1015 66 10000 3.6 300 09:57 14.05.2020
3070 Clouds 11 1015 62 10000 2.1 340 09:38 14.05.2020
3071 Clouds 10 1015 62 10000 2.1 340 09:19 14.05.2020
3072 Clouds 9 1014 70 10000 1.5 20 08:40 14.05.2020
3073 Clouds 9 1014 70 10000 1.5 20 08:20 14.05.2020
3074 Clouds 9 1014 66 10000 1.5 40 07:45 14.05.2020
3075 Clouds 8 1013 70 10000 1 0 07:24 14.05.2020
3076 Clouds 7 1013 75 10000 1 0 06:54 14.05.2020
3077 Clouds 7 1012 75 10000 0.5 0 06:29 14.05.2020
3078 Rain 7 1012 75 10000 2.1 30 05:46 14.05.2020
3079 Rain 7 1012 70 10000 1.5 50 05:23 14.05.2020
3080 Rain 7 1011 65 10000 3.6 20 04:25 14.05.2020
3081 Rain 8 1011 65 10000 3.1 30 03:23 14.05.2020
3082 Rain 8 1010 65 10000 2.1 20 02:41 14.05.2020
3083 Clouds 8 1010 65 10000 2.1 360 01:56 14.05.2020
3084 Clouds 9 1010 65 10000 2.6 320 01:23 14.05.2020
3085 Clouds 9 1010 66 10000 2.1 30 00:44 14.05.2020
3086 Clouds 9 1010 61 10000 2.1 20 00:23 14.05.2020
3087 Clouds 10 1009 61 10000 2.1 50 23:42 13.05.2020
3088 Clouds 10 1009 61 10000 2.1 50 23:21 13.05.2020
3089 Clouds 10 1010 57 10000 2.1 60 22:54 13.05.2020
3090 Clouds 10 1009 53 10000 2.6 40 22:36 13.05.2020
3091 Clouds 10 1009 53 10000 2.6 40 22:18 13.05.2020
3092 Clouds 10 1010 57 10000 2.1 30 21:55 13.05.2020
3093 Clouds 10 1010 53 10000 2.6 20 21:37 13.05.2020
3094 Clouds 11 1010 53 10000 2.6 20 21:18 13.05.2020
3095 Clouds 11 1009 50 10000 3.1 50 20:41 13.05.2020
3096 Clouds 12 1009 50 10000 3.1 50 20:22 13.05.2020
3097 Clouds 12 1009 59 10000 4.1 70 19:43 13.05.2020
3098 Clouds 12 1009 57 10000 4.1 70 19:24 13.05.2020
3099 Clouds 12 1010 46 10000 2.6 30 18:58 13.05.2020
3100 Clouds 13 1010 43 10000 2.6 360 18:39 13.05.2020
3101 -273 0 0 0 0 0 18:21 13.05.2020
3102 Clouds 13 1010 43 10000 2.6 360 18:21 13.05.2020
3103 Clouds 13 1010 43 10000 2.6 360 18:20 13.05.2020
3104 Clouds 14 1010 50 10000 2.1 360 17:39 13.05.2020
3105 Clouds 14 1010 46 10000 2.1 360 17:20 13.05.2020
3106 Clouds 14 1011 37 10000 2.1 360 16:56 13.05.2020
3107 Clouds 14 1011 46 10000 2.1 0 16:38 13.05.2020
3108 Clouds 14 1011 46 10000 2.1 0 16:18 13.05.2020
3109 Clouds 14 1011 46 10000 2.6 30 15:42 13.05.2020
3110 Clouds 15 1011 44 10000 2.6 30 15:20 13.05.2020
3111 Clouds 14 1012 37 10000 1.5 0 14:58 13.05.2020
3112 Clouds 15 1012 37 10000 3.1 10 14:40 13.05.2020
3113 Clouds 15 1012 37 10000 3.1 10 14:22 13.05.2020
3114 Clouds 14 1012 42 10000 3.6 290 13:58 13.05.2020
3115 Clouds 14 1013 40 10000 2.1 0 13:39 13.05.2020
3116 Clouds 14 1013 40 10000 2.1 0 13:20 13.05.2020
3117 Clouds 12 1013 40 10000 2.1 0 12:57 13.05.2020
3118 Clouds 13 1013 40 10000 2.6 0 12:38 13.05.2020
3119 Clouds 12 1013 42 10000 2.6 0 12:18 13.05.2020
3120 Clouds 12 1013 42 10000 2.1 0 11:55 13.05.2020
3121 Clouds 13 1013 50 10000 2.6 350 11:36 13.05.2020
3122 Clouds 12 1013 50 10000 2.6 350 11:18 13.05.2020
3123 Clouds 12 1013 53 10000 2.6 10 10:56 13.05.2020
3124 Clouds 12 1013 53 10000 2.6 340 10:37 13.05.2020
3125 Clouds 12 1013 53 10000 2.6 340 10:18 13.05.2020
3126 Clouds 10 1013 65 10000 1 0 09:43 13.05.2020
3127 Clouds 9 1013 65 10000 1 0 09:23 13.05.2020
3128 Clouds 9 1013 65 10000 1 0 09:23 13.05.2020
3129 Clouds 8 1013 75 10000 1 0 08:57 13.05.2020
3130 Clouds 7 1013 80 10000 1.5 170 08:37 13.05.2020
3131 Clouds 6 1013 80 10000 1.5 170 08:18 13.05.2020
3132 Clouds 5 1013 86 10000 2.6 180 07:43 13.05.2020
3133 Clouds 5 1013 86 10000 2.6 180 07:25 13.05.2020
3134 Clouds 5 1013 86 10000 2.6 180 06:47 13.05.2020
3135 Clouds 4 1013 86 10000 2.1 190 06:28 13.05.2020
3136 Clouds 4 1013 86 10000 2.6 180 04:57 13.05.2020
3137 Clouds 4 1014 86 10000 2.1 190 03:27 13.05.2020
3138 Clouds 3 1014 80 10000 2.6 180 02:34 13.05.2020
3139 Clouds 3 1015 80 10000 3.1 180 01:38 13.05.2020
3140 Clear 3 1015 80 10000 1.5 180 00:53 13.05.2020
3141 Clear 3 1015 75 10000 1.5 190 00:22 13.05.2020
3142 Clear 4 1015 66 10000 1 180 23:55 12.05.2020
3143 Clear 4 1015 65 10000 2.1 170 23:36 12.05.2020
3144 Clear 4 1015 65 10000 2.1 170 23:18 12.05.2020
3145 Clear 5 1016 65 10000 1 190 22:42 12.05.2020
3146 Clear 5 1016 65 10000 1 190 22:22 12.05.2020
3147 Clear 6 1016 65 10000 0.5 210 21:56 12.05.2020
3148 Clear 7 1016 61 10000 0.5 0 21:38 12.05.2020
3149 Clear 8 1016 61 10000 0.5 0 21:19 12.05.2020
3150 Clear 8 1016 61 10000 1 0 20:58 12.05.2020
3151 Clear 8 1016 61 10000 1.5 310 20:39 12.05.2020
3152 Clouds 8 1016 61 10000 1.5 310 20:20 12.05.2020
3153 Clouds 8 1016 62 10000 2.6 320 19:57 12.05.2020
3154 Clouds 9 1016 62 10000 3.1 320 19:39 12.05.2020
3155 Clouds 9 1016 55 10000 3.1 320 19:20 12.05.2020
3156 Clouds 9 1016 55 10000 4.1 300 18:56 12.05.2020
3157 Clouds 10 1016 43 10000 3.1 260 18:38 12.05.2020
3158 Clouds 10 1016 43 10000 3.1 260 18:19 12.05.2020
3159 Clouds 10 1016 39 10000 4.1 260 17:42 12.05.2020
3160 Clouds 10 1016 39 10000 4.1 260 17:24 12.05.2020
3161 Clouds 10 1016 43 10000 4.6 300 16:47 12.05.2020
3162 Clouds 10 1016 46 10000 4.6 320 16:26 12.05.2020
3163 Clouds 10 1016 43 10000 5.7 270 15:56 12.05.2020
3164 Clouds 11 1017 43 10000 4.6 270 15:38 12.05.2020
3165 Clouds 11 1017 43 10000 4.6 270 15:38 12.05.2020
3166 Clouds 11 1017 43 10000 4.6 270 15:19 12.05.2020
3167 Clouds 11 1017 43 10000 5.7 260 14:57 12.05.2020
3168 Clouds 10 1017 44 10000 5.1 310 14:38 12.05.2020
3169 Clouds 10 1017 45 10000 5.1 310 14:20 12.05.2020
3170 Clouds 10 1017 45 10000 4.6 290 13:58 12.05.2020
3171 Clear 10 1018 48 0 4.87 286 13:40 12.05.2020
3172 Clear 10 1017 52 0 4.84 282 13:20 12.05.2020
3173 Clear 10 1017 52 0 4.84 282 12:58 12.05.2020
3174 Clear 10 1017 57 0 0.45 351 12:39 12.05.2020
3175 Clear 9 1018 58 0 0.89 321 12:21 12.05.2020
3176 Clouds 9 1017 61 10000 4.6 270 11:58 12.05.2020
3177 Clouds 9 1017 61 10000 4.6 270 11:39 12.05.2020
3178 Clouds 9 1017 61 10000 4.6 270 11:21 12.05.2020
3179 Clouds 9 1017 61 10000 4.6 270 10:59 12.05.2020
3180 Clouds 9 1017 65 10000 3.6 300 10:40 12.05.2020
3181 Clouds 9 1017 65 10000 3.6 300 10:22 12.05.2020
3182 Clouds 8 1017 58 10000 3.6 280 09:59 12.05.2020
3183 Clouds 7 1017 58 10000 3.1 280 09:40 12.05.2020
3184 Clear 5 1017 66 10000 3.1 280 09:21 12.05.2020
3185 Clear 5 1017 66 10000 3.1 280 08:57 12.05.2020
3186 Clear 4 1016 69 10000 2.1 260 08:38 12.05.2020
3187 Clear 3 1016 69 10000 2.1 260 08:19 12.05.2020
3188 Clear 2 1016 80 10000 1.5 270 07:42 12.05.2020
3189 Rain 1 1016 80 10000 1.5 270 07:23 12.05.2020
3190 Snow 0 1016 80 10000 1.5 280 06:49 12.05.2020
3191 Clear 0 1015 91 10000 2.6 270 06:27 12.05.2020
3192 Clear -1 1015 91 10000 2.1 270 05:54 12.05.2020
3193 Clear -1 1015 91 10000 2.1 280 05:35 12.05.2020
3194 Clear 1 1013 87 10000 2.6 290 03:27 12.05.2020
3195 Clear 1 1013 87 10000 2.1 290 02:53 12.05.2020
3196 Clouds 1 1013 100 10000 2.1 290 02:25 12.05.2020
3197 Clouds 2 1012 100 10000 2.1 300 01:27 12.05.2020
3198 Clouds 2 1011 100 10000 2.6 320 00:37 12.05.2020
3199 Clouds 2 1011 100 10000 2.6 320 00:18 12.05.2020
3200 Clouds 3 1010 100 10000 4.6 340 23:42 11.05.2020
3201 Clouds 3 1010 100 10000 4.6 340 23:21 11.05.2020
3202 Clouds 4 1010 100 10000 3.6 350 22:59 11.05.2020
3203 Clouds 4 1010 100 10000 3.6 350 22:59 11.05.2020
3204 Rain 3 1009 100 10000 4.1 340 22:41 11.05.2020
3205 Rain 3 1009 100 10000 4.1 340 22:21 11.05.2020
3206 Rain 3 1009 93 10000 5.7 350 21:59 11.05.2020
3207 Rain 3 1008 93 10000 6.7 360 21:40 11.05.2020
3208 Rain 3 1008 93 10000 6.7 360 21:19 11.05.2020
3209 Rain 3 1007 100 10000 5.7 360 20:59 11.05.2020
3210 Rain 3 1007 100 10000 5.7 360 20:59 11.05.2020
3211 Rain 3 1007 93 10000 7.2 350 20:40 11.05.2020
3212 Rain 3 1007 93 10000 7.2 350 20:40 11.05.2020
3213 Rain 4 1007 93 10000 7.2 350 20:21 11.05.2020
3214 Rain 4 1006 93 10000 6.7 360 19:58 11.05.2020
3215 Rain 4 1006 93 10000 6.2 350 19:40 11.05.2020
3216 Rain 4 1006 93 10000 6.2 350 19:21 11.05.2020
3217 Rain 4 1006 93 10000 5.7 360 18:56 11.05.2020
3218 Rain 4 1005 93 10000 5.7 340 18:37 11.05.2020
3219 Rain 4 1005 93 10000 5.7 340 18:18 11.05.2020
3220 Rain 4 1005 93 10000 7.7 350 17:55 11.05.2020
3221 Rain 5 1004 100 10000 8.7 350 17:37 11.05.2020
3222 Rain 5 1004 100 10000 8.7 350 17:19 11.05.2020
3223 Rain 5 1005 100 5000 8.2 340 16:42 11.05.2020
3224 Rain 6 1005 100 5000 8.2 340 16:23 11.05.2020
3225 Rain 6 1004 100 4400 5.7 350 15:59 11.05.2020
3226 Rain 6 1004 93 3800 6.7 350 15:40 11.05.2020
3227 Rain 6 1004 93 3800 6.7 350 15:20 11.05.2020
3228 Drizzle 7 1004 100 3800 5.7 340 14:57 11.05.2020
3229 Rain 7 1004 100 3800 4.1 330 14:39 11.05.2020
3230 Rain 7 1004 100 3800 4.1 330 14:21 11.05.2020
3231 Drizzle 7 1004 100 3600 4.1 350 13:42 11.05.2020
3232 Drizzle 7 1004 100 3600 4.1 350 13:42 11.05.2020
3233 Drizzle 7 1004 100 3600 4.1 350 13:23 11.05.2020
3234 Drizzle 7 1004 100 3400 4.6 350 12:59 11.05.2020
3235 Drizzle 7 1004 100 3400 4.6 350 12:41 11.05.2020
3236 Drizzle 7 1004 100 3400 4.6 350 12:23 11.05.2020
3237 Drizzle 7 1004 100 3200 4.1 350 11:58 11.05.2020
3238 Drizzle 7 1004 100 3000 4.6 350 11:40 11.05.2020
3239 Drizzle 7 1004 100 3000 4.6 350 11:21 11.05.2020
3240 Rain 7 1004 100 3200 5.1 340 10:58 11.05.2020
3241 Rain 7 1004 100 3200 5.1 340 10:58 11.05.2020
3242 Rain 8 1004 100 2800 4.6 330 10:40 11.05.2020
3243 Rain 8 1004 100 2800 4.6 330 10:21 11.05.2020
3244 Rain 9 1004 93 2700 5.7 330 09:58 11.05.2020
3245 Rain 9 1004 100 2600 4.6 330 09:39 11.05.2020
3246 Rain 9 1004 100 2600 4.6 330 09:19 11.05.2020
3247 Rain 9 1004 100 2600 4.6 330 09:19 11.05.2020
3248 Mist 9 1003 100 2200 5.1 310 08:55 11.05.2020
3249 Rain 10 1003 100 1300 6.2 310 08:37 11.05.2020
3250 Drizzle 11 1003 100 1300 6.2 310 08:18 11.05.2020
3251 Fog 12 1003 100 500 5.1 320 07:42 11.05.2020
3252 Fog 13 1003 100 500 5.1 320 07:23 11.05.2020
3253 Clouds 14 1002 93 6000 2.1 310 06:41 11.05.2020
3254 Clouds 14 1002 93 6000 2.1 300 05:56 11.05.2020
3255 Clouds 14 1002 93 9000 2.1 260 05:24 11.05.2020
3256 Clouds 14 1003 100 10000 1.5 210 04:24 11.05.2020
3257 Rain 14 1003 93 10000 1.5 10 02:59 11.05.2020
3258 Rain 14 1003 93 10000 2.6 230 02:29 11.05.2020
3259 Clouds 14 1003 87 10000 2.1 210 01:34 11.05.2020
3260 Clouds 14 1003 93 10000 2.6 190 00:52 11.05.2020
3261 Clouds 14 1003 93 10000 3.1 220 00:19 11.05.2020
3262 Clouds 15 1004 93 10000 1 0 23:43 10.05.2020
3263 Clouds 15 1004 93 10000 1 0 23:24 10.05.2020
3264 Clouds 16 1004 93 10000 1.5 130 22:57 10.05.2020
3265 Clouds 16 1004 93 10000 1 0 22:38 10.05.2020
3266 Clouds 16 1004 93 10000 1 0 22:20 10.05.2020
3267 Thunderstorm 17 1004 82 10000 3.1 230 21:44 10.05.2020
3268 Thunderstorm 17 1004 82 10000 3.1 230 21:44 10.05.2020
3269 Thunderstorm 17 1004 82 10000 3.1 230 21:20 10.05.2020
3270 Thunderstorm 17 1004 82 10000 3.1 230 21:20 10.05.2020
3271 Rain 18 1003 72 10000 1.5 130 20:55 10.05.2020
3272 Rain 18 1004 77 10000 2.1 140 20:37 10.05.2020
3273 Rain 19 1004 77 10000 2.1 140 20:19 10.05.2020
3274 Clouds 19 1004 77 10000 3.6 140 19:41 10.05.2020
3275 Clouds 19 1004 77 10000 3.6 140 19:22 10.05.2020
3276 Rain 20 1004 60 10000 1.5 130 18:57 10.05.2020
3277 Rain 20 1004 60 10000 2.6 150 18:37 10.05.2020
3278 Rain 20 1004 60 10000 2.6 150 18:19 10.05.2020
3279 Rain 20 1004 60 10000 3.1 180 17:59 10.05.2020
3280 Clouds 21 1004 60 10000 5.1 190 17:40 10.05.2020
3281 Clouds 21 1004 60 10000 5.1 190 17:22 10.05.2020
3282 Rain 21 1005 60 10000 4.1 170 16:58 10.05.2020
3283 Rain 21 1005 53 10000 4.1 190 16:40 10.05.2020
3284 Rain 21 1005 53 10000 4.1 190 16:19 10.05.2020
3285 Rain 20 1005 43 10000 3.1 250 15:55 10.05.2020
3286 Rain 21 1005 43 10000 3.6 230 15:36 10.05.2020
3287 Rain 21 1005 43 10000 3.6 230 15:36 10.05.2020
3288 Rain 22 1005 43 10000 3.6 230 15:18 10.05.2020
3289 Clouds 23 1005 46 10000 4.1 210 14:38 10.05.2020
3290 Clouds 23 1005 46 10000 4.1 210 14:38 10.05.2020
3291 Clouds 23 1005 46 10000 4.1 210 14:20 10.05.2020
3292 Clouds 22 1006 49 10000 2.1 240 13:59 10.05.2020
3293 Clouds 22 1006 49 10000 3.1 220 13:39 10.05.2020
3294 Clouds 22 1006 49 10000 3.1 220 13:20 10.05.2020
3295 Clouds 23 1006 46 10000 3.1 200 12:58 10.05.2020
3296 Clouds 22 1006 49 10000 2.6 0 12:40 10.05.2020
3297 Clouds 22 1006 49 10000 2.6 0 12:40 10.05.2020
3298 Clouds 22 1006 49 10000 2.6 0 12:21 10.05.2020
3299 Clouds 22 1006 52 10000 2.1 190 11:58 10.05.2020
3300 Rain 21 1006 56 10000 2.6 200 11:39 10.05.2020
3301 Rain 21 1006 56 10000 2.6 200 11:20 10.05.2020
3302 Rain 20 1007 56 10000 2.1 160 10:48 10.05.2020
3303 Rain 19 1007 59 10000 2.6 160 10:29 10.05.2020
3304 Clouds 19 1007 59 10000 2.6 130 09:59 10.05.2020
3305 Clouds 18 1007 63 10000 3.1 150 09:40 10.05.2020
3306 Clouds 18 1007 63 10000 3.1 150 09:21 10.05.2020
3307 Clouds 17 1007 63 10000 3.1 140 08:52 10.05.2020
3308 Clouds 16 1007 67 10000 3.1 140 08:24 10.05.2020
3309 Clouds 15 1007 63 10000 2.1 130 07:57 10.05.2020
3310 Clouds 15 1007 67 10000 2.1 150 07:38 10.05.2020
3311 Clouds 14 1007 67 10000 2.1 150 07:19 10.05.2020
3312 Clouds 14 1008 67 10000 2.6 120 06:50 10.05.2020
3313 Clouds 13 1008 67 0 1.5 120 06:22 10.05.2020
3314 Clouds 13 1008 71 10000 2.1 150 05:43 10.05.2020
3315 Clouds 12 1009 66 10000 1 140 04:41 10.05.2020
3316 Clear 12 1009 66 10000 1 140 04:22 10.05.2020
3317 Clear 12 1009 62 10000 1 0 03:43 10.05.2020
3318 Clear 12 1009 66 10000 1.5 130 02:54 10.05.2020
3319 Clouds 13 1009 62 10000 2.1 130 02:24 10.05.2020
3320 Clouds 13 1010 58 10000 2.6 100 01:44 10.05.2020
3321 Clouds 13 1010 58 10000 2.6 100 01:25 10.05.2020
3322 Clouds 14 1010 55 10000 2.6 100 00:59 10.05.2020
3323 Clouds 14 1010 55 10000 2.1 120 00:39 10.05.2020
3324 Clouds 15 1010 55 10000 2.1 120 00:19 10.05.2020
3325 Clouds 15 1011 51 10000 2.1 70 23:39 09.05.2020
3326 Clouds 15 1011 51 10000 2.1 70 23:21 09.05.2020
3327 Clouds 16 1011 48 10000 2.6 70 22:57 09.05.2020
3328 Clouds 16 1011 45 10000 2.6 50 22:38 09.05.2020
3329 Clouds 17 1011 45 10000 2.6 50 22:20 09.05.2020
3330 Clouds 17 1011 39 10000 2.1 40 21:55 09.05.2020
3331 Clouds 17 1011 39 10000 1.5 60 21:37 09.05.2020
3332 Clouds 17 1011 39 10000 1.5 60 21:19 09.05.2020
3333 Clouds 18 1011 37 10000 1.5 60 20:55 09.05.2020
3334 Clouds 18 1011 37 10000 2.1 60 20:36 09.05.2020
3335 Clouds 19 1011 37 10000 2.1 60 20:18 09.05.2020
3336 Clouds 20 1011 30 10000 3.6 60 19:40 09.05.2020
3337 Clouds 21 1011 30 10000 3.6 60 19:20 09.05.2020
3338 Clouds 21 1012 30 10000 3.6 60 18:58 09.05.2020
3339 Clouds 22 1012 30 10000 3.6 70 18:40 09.05.2020
3340 Clouds 22 1012 30 10000 3.6 70 18:18 09.05.2020
3341 Clouds 23 1012 27 0 3.1 50 17:44 09.05.2020
3342 Clouds 23 1012 27 0 3.1 50 17:23 09.05.2020
3343 Clouds 23 1012 27 10000 2.1 0 16:55 09.05.2020
3344 Clouds 23 1013 27 10000 2.1 20 16:37 09.05.2020
3345 Clouds 23 1013 27 10000 2.1 20 16:18 09.05.2020
3346 Clouds 23 1013 27 10000 3.1 50 15:40 09.05.2020
3347 Clouds 23 1013 27 10000 3.1 50 15:21 09.05.2020
3348 Clouds 23 1014 28 10000 3.1 70 14:43 09.05.2020
3349 Clouds 22 1014 28 10000 3.1 70 14:20 09.05.2020
3350 Clouds 21 1014 30 10000 4.1 80 14:00 09.05.2020
3351 Clouds 22 1015 30 10000 4.1 40 13:41 09.05.2020
3352 Clouds 22 1015 30 10000 4.1 40 13:22 09.05.2020
3353 Clouds 22 1015 32 10000 4.6 40 12:58 09.05.2020
3354 Clouds 22 1015 34 10000 4.6 60 12:39 09.05.2020
3355 Clouds 20 1015 34 10000 4.6 60 12:21 09.05.2020
3356 Clouds 20 1015 37 10000 3.1 60 11:44 09.05.2020
3357 Clouds 20 1015 37 10000 3.1 60 11:20 09.05.2020
3358 Clouds 20 1015 37 10000 3.1 60 11:20 09.05.2020
3359 Clouds 18 1015 42 10000 2.1 0 10:54 09.05.2020
3360 Clouds 17 1015 51 10000 2.6 10 10:36 09.05.2020
3361 Clouds 17 1015 51 10000 2.6 10 10:18 09.05.2020
3362 Clouds 16 1016 47 10000 2.1 60 09:42 09.05.2020
3363 Clouds 15 1016 47 10000 2.1 60 09:20 09.05.2020
3364 Clouds 14 1016 47 10000 1.5 30 08:54 09.05.2020
3365 Clouds 14 1016 47 10000 1.5 30 08:54 09.05.2020
3366 Clouds 13 1016 62 10000 1 0 08:35 09.05.2020
3367 Clouds 11 1016 66 10000 0.5 0 07:56 09.05.2020
3368 Clouds 10 1016 76 10000 1 90 07:38 09.05.2020
3369 Clouds 9 1016 76 10000 1 90 07:20 09.05.2020
3370 Clouds 8 1016 75 10000 2.1 220 06:27 09.05.2020
3371 Clouds 7 1016 81 10000 1.5 210 05:50 09.05.2020
3372 Clouds 7 1016 87 10000 1 200 05:20 09.05.2020
3373 Clouds 8 1016 62 10000 1 0 03:39 09.05.2020
3374 Clouds 9 1016 58 10000 1 180 02:54 09.05.2020
3375 Clouds 9 1016 54 10000 1 90 02:30 09.05.2020
3376 Clouds 10 1016 58 10000 1 140 01:50 09.05.2020
3377 Clouds 10 1017 50 10000 0.5 0 01:22 09.05.2020
3378 Clouds 11 1016 47 10000 0.5 0 00:43 09.05.2020
3379 Clouds 11 1016 47 10000 0.5 0 00:20 09.05.2020
3380 Clouds 12 1016 47 10000 0.5 0 23:45 08.05.2020
3381 Clouds 12 1016 44 10000 0.5 0 23:27 08.05.2020
3382 Clouds 13 1016 41 10000 1.5 330 22:56 08.05.2020
3383 Clouds 14 1016 41 10000 1 330 22:38 08.05.2020
3384 Clouds 14 1016 41 10000 1 330 22:19 08.05.2020
3385 Clouds 14 1016 44 10000 1.5 320 21:58 08.05.2020
3386 Clouds 14 1016 41 10000 2.1 310 21:38 08.05.2020
3387 Clouds 15 1016 41 10000 2.1 310 21:18 08.05.2020
3388 Clouds 16 1016 36 10000 1.5 290 20:56 08.05.2020
3389 Clouds 17 1016 39 10000 1.5 300 20:38 08.05.2020
3390 Clouds 17 1016 39 10000 1.5 300 20:20 08.05.2020
3391 Clouds 20 1016 34 10000 2.6 310 19:43 08.05.2020
3392 Clouds 20 1016 34 10000 2.6 310 19:23 08.05.2020
3393 Clouds 21 1016 35 10000 3.6 330 18:50 08.05.2020
3394 Clouds 21 1016 35 10000 4.1 320 18:31 08.05.2020
3395 Clouds 22 1016 30 10000 3.1 320 17:59 08.05.2020
3396 Clouds 22 1016 30 10000 3.6 300 17:40 08.05.2020
3397 Clouds 22 1016 30 10000 3.6 300 17:18 08.05.2020
3398 Clouds 22 1016 30 10000 4.1 320 16:42 08.05.2020
3399 Clouds 22 1016 30 10000 4.1 320 16:24 08.05.2020
3400 Clouds 22 1016 32 10000 3.1 310 15:55 08.05.2020
3401 Clouds 22 1016 32 10000 3.6 320 15:37 08.05.2020
3402 Clouds 21 1016 32 10000 3.6 320 15:18 08.05.2020
3403 Clouds 22 1017 30 10000 3.6 300 14:41 08.05.2020
3404 Clouds 22 1017 30 10000 3.6 300 14:21 08.05.2020
3405 Clouds 21 1017 35 10000 3.6 290 13:59 08.05.2020
3406 Clouds 22 1017 32 10000 2.6 300 13:39 08.05.2020
3407 Clouds 21 1017 32 10000 2.6 300 13:19 08.05.2020
3408 Clouds 21 1017 32 10000 2.6 0 12:45 08.05.2020
3409 Clouds 20 1017 32 10000 2.1 0 12:25 08.05.2020
3410 Clouds 19 1018 34 10000 1.5 0 11:59 08.05.2020
3411 Clouds 19 1018 36 10000 1.5 200 11:41 08.05.2020
3412 Clouds 19 1018 36 10000 1.5 200 11:21 08.05.2020
3413 Clouds 18 1018 45 10000 1.5 180 10:57 08.05.2020
3414 Clouds 17 1018 54 10000 1.5 180 10:39 08.05.2020
3415 Clouds 15 1018 54 10000 1.5 180 10:18 08.05.2020
3416 Clouds 14 1019 66 10000 1.5 140 09:42 08.05.2020
3417 Clouds 13 1019 66 10000 1.5 140 09:20 08.05.2020
3418 Clouds 12 1019 76 10000 2.1 150 08:58 08.05.2020
3419 Clouds 11 1019 81 10000 2.1 170 08:40 08.05.2020
3420 Clouds 10 1019 81 10000 2.1 170 08:20 08.05.2020
3421 Clouds 8 1019 87 10000 1.5 170 07:41 08.05.2020
3422 Clouds 8 1019 87 10000 1.5 170 07:23 08.05.2020
3423 Clouds 7 1019 87 10000 1.5 160 06:50 08.05.2020
3424 Clouds 6 1019 93 10000 2.1 150 06:21 08.05.2020
3425 Clouds 6 1019 93 10000 2.1 160 05:36 08.05.2020
3426 Clouds 6 1019 87 10000 2.1 160 04:21 08.05.2020
3427 Clouds 7 1020 87 10000 2.1 190 02:32 08.05.2020
3428 Clouds 6 1020 81 10000 2.1 180 01:45 08.05.2020
3429 Clouds 6 1021 81 10000 2.1 190 01:23 08.05.2020
3430 Clouds 7 1021 81 10000 1.5 200 00:51 08.05.2020
3431 Clouds 7 1021 76 10000 2.1 190 00:29 08.05.2020
3432 Clouds 7 1021 76 10000 1.5 190 23:58 07.05.2020
3433 Clouds 8 1021 71 10000 1.5 200 23:40 07.05.2020
3434 Clear 8 1021 71 10000 1.5 200 23:21 07.05.2020
3435 Clear 9 1021 62 10000 1 0 22:55 07.05.2020
3436 Clear 9 1021 58 10000 1 130 22:37 07.05.2020
3437 Clear 9 1021 58 10000 1 130 22:19 07.05.2020
3438 Clear 10 1021 58 10000 0.5 160 21:55 07.05.2020
3439 Clear 10 1021 58 10000 0.5 0 21:36 07.05.2020
3440 Clear 11 1021 58 10000 0.5 0 21:18 07.05.2020
3441 Clear 12 1021 54 10000 1.5 340 20:42 07.05.2020
3442 Clear 13 1021 54 10000 1.5 340 20:23 07.05.2020
3443 Clear 15 1021 51 10000 2.6 10 19:56 07.05.2020
3444 Clear 15 1021 51 10000 4.1 350 19:38 07.05.2020
3445 Clear 16 1021 51 10000 4.1 350 19:19 07.05.2020
3446 Clear 16 1021 48 10000 3.6 340 18:44 07.05.2020
3447 Clear 16 1022 47 10000 4.6 350 18:26 07.05.2020
3448 Clear 16 1022 51 10000 5.7 330 17:44 07.05.2020
3449 Clear 16 1022 51 10000 5.7 330 17:22 07.05.2020
3450 Clear 16 1022 51 10000 4.6 330 17:00 07.05.2020
3451 Clouds 16 1022 54 10000 4.6 330 16:40 07.05.2020
3452 Clouds 16 1022 54 10000 4.6 330 16:18 07.05.2020
3453 Clouds 16 1022 54 10000 5.1 330 15:56 07.05.2020
3454 Clouds 16 1022 54 10000 5.1 320 15:37 07.05.2020
3455 Clouds 15 1022 54 10000 5.1 320 15:18 07.05.2020
3456 Clouds 14 1023 58 10000 4.6 320 14:44 07.05.2020
3457 Clouds 14 1023 58 10000 4.6 320 14:21 07.05.2020
3458 Clouds 13 1023 62 10000 4.6 330 13:45 07.05.2020
3459 Clouds 13 1023 61 10000 4.6 320 13:26 07.05.2020
3460 Clouds 12 1023 70 10000 3.6 290 12:58 07.05.2020
3461 Clouds 11 1023 66 10000 4.1 310 12:39 07.05.2020
3462 Clouds 11 1023 66 10000 4.1 310 12:19 07.05.2020
3463 Clouds 10 1023 70 10000 4.1 300 11:39 07.05.2020
3464 Clouds 10 1023 70 10000 4.1 300 11:21 07.05.2020
3465 Clouds 9 1023 81 10000 4.6 290 10:54 07.05.2020
3466 Clouds 7 1023 86 10000 4.6 290 10:36 07.05.2020
3467 Clouds 7 1023 86 10000 4.6 290 10:18 07.05.2020
3468 Clouds 7 1023 80 10000 5.1 310 09:38 07.05.2020
3469 Clouds 7 1023 80 10000 5.1 310 09:18 07.05.2020
3470 Clouds 7 1023 70 10000 5.1 300 08:44 07.05.2020
3471 Clouds 7 1023 70 10000 5.1 300 08:23 07.05.2020
3472 Clouds 6 1023 70 10000 3.6 280 07:58 07.05.2020
3473 Clouds 5 1023 67 10000 2.1 280 07:40 07.05.2020
3474 Clouds 5 1023 73 10000 2.1 280 07:20 07.05.2020
3475 Clouds 4 1022 73 10000 3.1 280 06:37 07.05.2020
3476 Clouds 4 1022 77 10000 3.1 280 06:18 07.05.2020
3477 Clouds 5 1022 70 10000 2.6 270 04:28 07.05.2020
3478 Clouds 5 1022 65 10000 2.1 260 03:40 07.05.2020
3479 Clouds 6 1022 65 10000 2.1 260 03:18 07.05.2020
3480 Clouds 6 1022 65 10000 2.1 300 02:35 07.05.2020
3481 Clouds 7 1021 61 10000 2.1 290 01:38 07.05.2020
3482 Clouds 7 1021 61 10000 2.1 290 01:20 07.05.2020
3483 Clouds 8 1021 57 10000 3.1 280 00:43 07.05.2020
3484 Clouds 8 1021 57 10000 3.1 280 00:22 07.05.2020
3485 Clouds 8 1021 53 10000 2.1 270 23:45 06.05.2020
3486 Clear 8 1021 53 10000 2.1 270 23:23 06.05.2020
3487 Clear 9 1021 53 10000 2.1 270 22:56 06.05.2020
3488 Clear 9 1021 50 10000 2.1 270 22:38 06.05.2020
3489 Clear 9 1021 50 10000 2.1 270 22:38 06.05.2020
3490 Clear 10 1021 50 10000 2.1 270 22:19 06.05.2020
3491 Clear 10 1021 50 10000 2.6 280 21:56 06.05.2020
3492 Clear 11 1021 50 10000 3.1 280 21:37 06.05.2020
3493 Clear 12 1020 43 10000 3.6 290 21:18 06.05.2020
3494 Clear 12 1020 41 10000 4.1 300 20:42 06.05.2020
3495 Clouds 13 1020 41 10000 4.1 300 20:22 06.05.2020
3496 Clouds 13 1020 41 10000 4.1 300 20:22 06.05.2020
3497 Clouds 14 1020 41 10000 4.1 320 19:57 06.05.2020
3498 Clouds 14 1021 44 10000 4.1 300 19:38 06.05.2020
3499 Clouds 14 1021 44 10000 4.1 300 19:19 06.05.2020
3500 Clouds 14 1021 44 10000 5.1 300 18:58 06.05.2020
3501 Clouds 14 1021 44 10000 5.7 290 18:38 06.05.2020
3502 Clouds 15 1021 44 10000 5.7 290 18:20 06.05.2020
3503 Clouds 14 1021 41 10000 4.1 280 17:56 06.05.2020
3504 Clouds 14 1021 41 10000 4.1 290 17:38 06.05.2020
3505 Clouds 14 1021 41 10000 4.1 290 17:20 06.05.2020
3506 Clouds 15 1021 47 10000 3.1 320 16:58 06.05.2020
3507 Clouds 14 1021 47 10000 5.1 290 16:40 06.05.2020
3508 Clouds 14 1021 47 10000 5.1 290 16:20 06.05.2020
3509 Clouds 14 1022 47 10000 4.6 300 15:57 06.05.2020
3510 Clouds 14 1022 47 10000 5.1 290 15:39 06.05.2020
3511 Clouds 14 1022 47 10000 5.1 290 15:20 06.05.2020
3512 Clouds 14 1022 50 10000 5.7 320 14:42 06.05.2020
3513 Clouds 14 1022 50 10000 5.7 320 14:42 06.05.2020
3514 Clouds 14 1022 50 10000 5.7 320 14:42 06.05.2020
3515 Clouds 13 1022 50 10000 5.7 320 14:19 06.05.2020
3516 Clouds 13 1022 54 10000 4.6 330 13:59 06.05.2020
3517 Clouds 13 1022 54 10000 5.1 320 13:40 06.05.2020
3518 Clouds 13 1022 54 10000 5.1 320 13:22 06.05.2020
3519 Clouds 12 1022 62 10000 5.1 320 12:54 06.05.2020
3520 Clouds 12 1023 66 10000 4.1 280 12:36 06.05.2020
3521 Clouds 10 1023 66 10000 4.1 280 12:18 06.05.2020
3522 Clouds 10 1023 70 10000 4.1 290 11:40 06.05.2020
3523 Clouds 9 1023 70 10000 4.1 290 11:21 06.05.2020
3524 Clouds 8 1022 75 10000 4.1 290 10:56 06.05.2020
3525 Clouds 8 1022 75 10000 4.1 300 10:37 06.05.2020
3526 Clouds 8 1022 81 10000 4.1 310 10:18 06.05.2020
3527 Clouds 7 1022 81 10000 3.6 300 09:41 06.05.2020
3528 Clouds 6 1022 81 10000 3.6 300 09:22 06.05.2020
3529 Clouds 6 1022 86 10000 3.1 290 08:45 06.05.2020
3530 Clouds 5 1022 80 10000 3.1 290 08:23 06.05.2020
3531 Clouds 5 1022 80 10000 3.1 290 08:23 06.05.2020
3532 Clouds 5 1022 86 10000 3.1 290 07:59 06.05.2020
3533 Clouds 5 1021 86 10000 3.1 280 07:39 06.05.2020
3534 Clouds 5 1021 86 10000 3.1 280 07:20 06.05.2020
3535 Clouds 4 1021 86 10000 2.6 290 06:51 06.05.2020
3536 Clouds 3 1021 93 10000 2.6 270 06:22 06.05.2020
3537 Clouds 3 1021 86 10000 2.6 270 05:54 06.05.2020
3538 Clouds 3 1021 86 10000 2.1 270 05:36 06.05.2020
3539 Clouds 3 1021 93 10000 2.1 280 04:31 06.05.2020
3540 Clouds 2 1021 93 10000 2.1 290 03:40 06.05.2020
3541 Clouds 2 1021 93 10000 2.1 290 03:20 06.05.2020
3542 Clouds 3 1021 86 10000 2.1 290 02:30 06.05.2020
3543 Clear 3 1020 86 10000 2.6 290 01:54 06.05.2020
3544 Clear 3 1020 86 10000 2.6 290 01:32 06.05.2020
3545 Clear 3 1020 86 10000 2.6 280 00:54 06.05.2020
3546 Clouds 3 1020 86 10000 2.1 290 00:27 06.05.2020
3547 Clouds 3 1020 86 10000 2.1 270 23:56 05.05.2020
3548 Clear 3 1020 93 10000 2.1 270 23:37 05.05.2020
3549 Clear 3 1020 93 10000 2.1 270 23:18 05.05.2020
3550 Clear 3 1019 86 10000 1.5 270 22:42 05.05.2020
3551 Clear 4 1019 86 10000 1.5 270 22:20 05.05.2020
3552 Clear 4 1019 80 10000 1.5 250 21:58 05.05.2020
3553 Clear 4 1019 80 10000 1.5 250 21:58 05.05.2020
3554 Clear 4 1019 80 10000 1.5 250 21:58 05.05.2020
3555 Clear 4 1019 80 10000 1.5 280 21:39 05.05.2020
3556 Clear 5 1019 80 10000 1.5 280 21:21 05.05.2020
3557 Clouds 5 1019 86 10000 1.5 320 20:58 05.05.2020
3558 Rain 6 1019 75 10000 2.6 340 20:39 05.05.2020
3559 Rain 6 1019 75 10000 2.6 340 20:19 05.05.2020
3560 Rain 7 1019 70 10000 8.2 340 19:57 05.05.2020
3561 Rain 8 1018 66 10000 5.1 330 19:37 05.05.2020
3562 Rain 10 1018 46 10000 5.1 320 19:18 05.05.2020
3563 Rain 9 1018 61 10000 5.1 330 19:18 05.05.2020
3564 Rain 10 1018 46 10000 5.1 320 18:54 05.05.2020
3565 Rain 10 1018 57 10000 4.6 320 18:36 05.05.2020
3566 Clouds 11 1018 53 10000 7.2 310 18:18 05.05.2020
3567 Rain 11 1018 57 10000 4.6 340 17:42 05.05.2020
3568 Rain 10 1018 57 10000 4.6 340 17:24 05.05.2020
3569 Rain 11 1017 43 10000 5.7 290 16:57 05.05.2020
3570 Clouds 11 1018 53 10000 5.1 280 16:37 05.05.2020
3571 Clouds 10 1018 53 10000 5.1 280 16:18 05.05.2020
3572 Clouds 10 1018 53 10000 6.2 300 15:55 05.05.2020
3573 Rain 10 1018 65 10000 4.1 310 15:37 05.05.2020
3574 Rain 9 1018 65 10000 4.1 310 15:19 05.05.2020
3575 Rain 9 1018 57 10000 3.6 310 14:42 05.05.2020
3576 Rain 9 1018 57 10000 3.6 310 14:42 05.05.2020
3577 Rain 9 1018 57 10000 3.6 310 14:24 05.05.2020
3578 Rain 9 1018 61 10000 5.7 360 13:59 05.05.2020
3579 Rain 9 1018 61 10000 5.7 360 13:59 05.05.2020
3580 Rain 9 1018 66 10000 4.1 240 13:41 05.05.2020
3581 Rain 10 1018 66 10000 4.1 240 13:21 05.05.2020
3582 Clouds 9 1018 70 10000 2.6 250 12:59 05.05.2020
3583 Clouds 9 1018 70 10000 2.6 250 12:59 05.05.2020
3584 Rain 8 1018 75 10000 4.6 260 12:40 05.05.2020
3585 Rain 9 1018 75 10000 4.6 260 12:20 05.05.2020
3586 Clouds 10 1018 70 10000 3.1 290 11:59 05.05.2020
3587 Clouds 10 1018 81 10000 3.1 270 11:40 05.05.2020
3588 Clouds 9 1018 81 10000 3.1 270 11:19 05.05.2020
3589 Rain 9 1018 81 10000 3.1 240 10:54 05.05.2020
3590 Rain 8 1018 87 10000 2.6 230 10:36 05.05.2020
3591 Rain 7 1018 87 10000 2.6 230 10:18 05.05.2020
3592 Clouds 6 1018 87 10000 2.1 280 09:44 05.05.2020
3593 Clouds 7 1018 87 10000 2.1 280 09:25 05.05.2020
3594 Clouds 6 1018 81 10000 2.1 290 08:56 05.05.2020
3595 Clouds 6 1017 93 10000 2.1 300 08:37 05.05.2020
3596 Clouds 6 1017 93 10000 2.1 300 08:18 05.05.2020
3597 Rain 5 1017 100 10000 2.6 290 07:43 05.05.2020
3598 Rain 5 1017 100 10000 2.6 290 07:20 05.05.2020
3599 Clear 4 1017 93 10000 0.5 0 06:51 05.05.2020
3600 Clear 4 1017 100 10000 2.1 290 06:30 05.05.2020
3601 Clear 4 1017 100 8000 2.1 280 05:51 05.05.2020
3602 Clear 4 1017 100 8000 2.6 300 04:58 05.05.2020
3603 Clouds 6 1017 100 6000 2.1 280 02:37 05.05.2020
3604 Clouds 7 1017 100 10000 2.1 300 00:56 05.05.2020
3605 Clouds 7 1017 100 10000 2.1 300 00:56 05.05.2020
3606 Clouds 8 1017 93 10000 2.6 310 00:33 05.05.2020
3607 Clouds 8 1017 93 8000 2.1 300 23:55 04.05.2020
3608 Clouds 8 1017 93 9000 2.6 310 23:36 04.05.2020
3609 Clouds 8 1017 93 9000 2.6 310 23:18 04.05.2020
3610 Clouds 8 1016 100 10000 3.1 330 22:42 04.05.2020
3611 Clouds 9 1016 100 10000 3.1 330 22:22 04.05.2020
3612 Rain 9 1016 100 6000 3.1 330 21:57 04.05.2020
3613 Rain 9 1016 93 5000 3.1 320 21:37 04.05.2020
3614 Rain 9 1016 93 5000 3.1 320 21:19 04.05.2020
3615 Rain 9 1016 93 5000 3.1 320 21:19 04.05.2020
3616 Rain 9 1016 93 6000 2.6 300 20:41 04.05.2020
3617 Rain 9 1016 93 6000 2.6 300 20:41 04.05.2020
3618 Rain 9 1016 93 6000 2.6 300 20:41 04.05.2020
3619 Rain 9 1016 93 6000 2.6 300 20:21 04.05.2020
3620 Rain 9 1016 93 6000 2.6 300 20:21 04.05.2020
3621 Rain 9 1015 93 7000 2.1 290 19:58 04.05.2020
3622 Rain 9 1015 93 7000 2.6 290 19:40 04.05.2020
3623 Rain 9 1015 93 7000 2.6 290 19:18 04.05.2020
3624 Rain 9 1016 93 5000 3.6 320 18:39 04.05.2020
3625 Rain 9 1016 93 5000 3.6 320 18:20 04.05.2020
3626 Rain 10 1015 93 7000 4.6 330 17:57 04.05.2020
3627 Rain 10 1015 93 7000 5.1 350 17:39 04.05.2020
3628 Rain 11 1015 93 7000 5.1 350 17:20 04.05.2020
3629 Rain 12 1015 81 10000 4.6 340 16:58 04.05.2020
3630 Rain 12 1015 66 10000 3.1 360 16:40 04.05.2020
3631 Rain 13 1015 66 10000 3.1 360 16:19 04.05.2020
3632 Rain 14 1015 51 10000 4.1 350 15:42 04.05.2020
3633 Rain 15 1015 51 10000 4.1 350 15:22 04.05.2020
3634 Clouds 16 1015 44 10000 1.5 20 14:53 04.05.2020
3635 Clouds 16 1015 44 10000 1.5 20 14:53 04.05.2020
3636 Clouds 16 1015 44 10000 1.5 20 14:53 04.05.2020
3637 Clouds 16 1015 44 10000 1.5 20 14:53 04.05.2020
3638 Clouds 16 1015 44 10000 1.5 20 14:53 04.05.2020
3639 Clouds 16 1015 44 10000 1.5 0 14:25 04.05.2020
3640 Clouds 16 1015 44 10000 1.5 0 14:25 04.05.2020
3641 Clouds 16 1015 44 10000 1.5 0 14:25 04.05.2020
3642 Clouds 16 1015 44 10000 1.5 0 14:25 04.05.2020
3643 Clouds 16 1015 54 10000 1 0 13:23 04.05.2020
3644 Clouds 16 1015 54 10000 1 0 13:23 04.05.2020
3645 Clouds 16 1015 54 10000 1 0 13:23 04.05.2020
3646 Clouds 16 1015 54 10000 1 0 13:23 04.05.2020
3647 Clouds 16 1015 54 10000 1 0 13:22 04.05.2020
3648 Rain 15 1016 54 10000 3.1 270 12:44 04.05.2020
3649 Rain 15 1016 54 10000 3.1 270 12:44 04.05.2020
3650 Rain 15 1016 54 10000 3.1 270 12:44 04.05.2020
3651 Rain 15 1016 54 10000 3.1 270 12:44 04.05.2020
3652 Rain 15 1016 54 10000 3.1 270 12:44 04.05.2020
3653 Clouds 15 1016 41 10000 2.6 220 11:28 04.05.2020
3654 Clouds 15 1016 41 10000 2.6 220 11:28 04.05.2020
3655 Clouds 15 1016 41 10000 2.6 220 11:28 04.05.2020
3656 Clouds 15 1016 41 10000 2.6 220 11:27 04.05.2020
3657 Clouds 15 1016 41 10000 2.6 220 11:27 04.05.2020
3658 Clouds 13 1017 66 10000 1 0 09:29 04.05.2020
3659 Clouds 9 1017 76 10000 1.5 150 07:54 04.05.2020
3660 Clouds 9 1017 81 10000 2.1 170 07:35 04.05.2020
3661 Clouds 8 1017 81 10000 1.5 160 05:55 04.05.2020
3662 Clouds 8 1017 81 10000 1 170 04:52 04.05.2020
3663 Clouds 8 1017 76 10000 1.5 220 02:57 04.05.2020
3664 Clouds 9 1017 76 10000 2.1 210 02:19 04.05.2020
3665 Clouds 9 1018 71 10000 2.6 180 00:31 04.05.2020
3666 Clouds 9 1018 71 10000 2.6 180 00:31 04.05.2020
3667 Clouds 9 1018 71 10000 2.6 180 00:29 04.05.2020
3668 Clouds 9 1018 71 10000 2.6 180 00:29 04.05.2020
3669 Clouds 9 1018 71 10000 2.6 200 23:45 03.05.2020
3670 Clouds 9 1018 71 10000 2.1 190 23:24 03.05.2020
3671 Clouds 10 1018 66 10000 1 220 22:44 03.05.2020
3672 Clouds 10 1018 62 10000 1 250 22:25 03.05.2020
3673 Clouds 10 1018 62 10000 1 260 21:57 03.05.2020
3674 Clouds 10 1017 62 10000 0.5 0 21:39 03.05.2020
3675 Clouds 10 1017 62 10000 0.5 0 21:20 03.05.2020
3676 Clouds 11 1017 58 10000 1.5 280 20:46 03.05.2020
3677 Clouds 11 1017 58 10000 1.5 280 20:46 03.05.2020
3678 Clouds 11 1017 58 10000 1.5 280 20:46 03.05.2020
3679 Clouds 11 1017 58 10000 1.5 280 20:22 03.05.2020
3680 Clouds 12 1017 54 10000 3.1 290 19:50 03.05.2020
3681 Clouds 12 1017 54 10000 3.1 290 19:50 03.05.2020
3682 Clouds 12 1017 54 10000 3.1 290 19:50 03.05.2020
3683 Clouds 12 1017 54 10000 3.1 290 19:50 03.05.2020
3684 Clouds 13 1017 50 10000 2.6 280 19:31 03.05.2020
3685 Clouds 14 1017 50 0 3.1 290 19:00 03.05.2020
3686 Clouds 14 1017 50 0 3.1 290 19:00 03.05.2020
3687 Clouds 14 1017 50 10000 3.6 300 18:38 03.05.2020
3688 Clouds 14 1017 50 10000 3.6 300 18:38 03.05.2020
3689 Clouds 14 1017 50 10000 3.6 300 18:38 03.05.2020
3690 Clouds 14 1017 50 10000 3.6 300 18:19 03.05.2020
3691 Clouds 14 1017 50 10000 3.6 300 18:19 03.05.2020
3692 Clouds 14 1017 50 10000 5.7 300 17:42 03.05.2020
3693 Clouds 14 1017 50 10000 5.7 300 17:22 03.05.2020
3694 Clouds 14 1017 50 10000 5.7 300 17:22 03.05.2020
3695 Clouds 14 1017 47 10000 5.7 270 16:54 03.05.2020
3696 Clouds 15 1017 47 10000 4.6 270 16:36 03.05.2020
3697 Clouds 14 1017 47 10000 4.6 270 16:18 03.05.2020
3698 Clouds 13 1018 50 10000 4.1 280 15:54 03.05.2020
3699 Rain 13 1018 54 10000 5.1 280 15:36 03.05.2020
3700 Rain 13 1018 54 10000 5.1 280 15:36 03.05.2020
3701 Rain 14 1018 54 10000 5.1 280 15:18 03.05.2020
3702 Clouds 13 1017 54 10000 4.1 290 14:41 03.05.2020
3703 Clouds 14 1017 54 10000 4.1 290 14:22 03.05.2020
3704 Clouds 14 1017 54 10000 4.1 290 14:22 03.05.2020
3705 Clouds 13 1017 54 10000 4.6 290 13:56 03.05.2020
3706 Clouds 13 1017 54 10000 4.6 290 13:56 03.05.2020
3707 Clouds 13 1017 54 10000 4.6 300 13:32 03.05.2020
3708 Clouds 13 1017 54 10000 4.6 300 13:32 03.05.2020
3709 Clouds 13 1017 54 10000 4.6 300 13:32 03.05.2020
3710 Clouds 13 1017 54 10000 4.6 300 13:32 03.05.2020
3711 Clouds 13 1017 54 10000 4.6 300 13:32 03.05.2020
3712 Clouds 12 1017 66 10000 4.1 290 12:47 03.05.2020
3713 Clouds 12 1017 62 10000 2.6 310 12:20 03.05.2020
3714 Clouds 11 1017 66 10000 4.6 310 11:57 03.05.2020
3715 Clouds 12 1017 71 10000 3.6 310 11:39 03.05.2020
3716 Clouds 11 1017 71 10000 3.6 310 11:20 03.05.2020
3717 Clouds 11 1017 71 10000 3.6 310 11:20 03.05.2020
3718 Clouds 11 1017 76 10000 4.6 310 10:52 03.05.2020
3719 Clouds 11 1017 76 10000 4.6 310 10:52 03.05.2020
3720 Clouds 11 1017 76 10000 4.6 310 10:52 03.05.2020
3721 Clouds 11 1017 76 10000 4.6 310 10:52 03.05.2020
3722 Clouds 11 1017 76 10000 4.6 310 10:52 03.05.2020
3723 Clouds 10 1016 81 10000 4.6 300 10:24 03.05.2020
3724 Clouds 10 1016 81 10000 4.6 300 10:24 03.05.2020
3725 Clouds 10 1016 81 10000 4.6 300 10:24 03.05.2020
3726 Clouds 10 1016 81 10000 4.6 300 10:24 03.05.2020
3727 Clouds 10 1016 81 10000 4.6 300 10:24 03.05.2020
3728 Clouds 10 1016 81 10000 3.6 290 09:39 03.05.2020
3729 Clouds 10 1016 81 10000 3.6 290 09:39 03.05.2020
3730 Clouds 9 1016 93 10000 3.1 280 08:57 03.05.2020
3731 Clouds 8 1015 87 10000 3.6 290 08:32 03.05.2020
3732 Clouds 8 1015 87 10000 3.6 290 08:32 03.05.2020
3733 Clouds 8 1015 87 10000 3.6 290 08:32 03.05.2020
3734 Clouds 8 1015 87 10000 3.6 290 08:32 03.05.2020
3735 Clouds 8 1015 87 10000 3.6 290 08:32 03.05.2020
3736 Clouds 8 1014 87 10000 3.1 270 07:40 03.05.2020
3737 Clouds 8 1014 93 10000 3.1 290 06:35 03.05.2020
3738 Clouds 7 1013 87 10000 2.6 280 05:49 03.05.2020
3739 Clouds 7 1013 93 10000 3.6 290 05:31 03.05.2020
3740 Clouds 8 1012 87 10000 3.1 290 04:27 03.05.2020
3741 Rain 8 1012 87 10000 3.6 280 03:31 03.05.2020
3742 Clouds 8 1012 87 10000 2.6 270 02:31 03.05.2020
3743 Clouds 8 1011 87 10000 2.6 260 01:50 03.05.2020
3744 Clouds 8 1011 87 10000 2.6 260 01:27 03.05.2020
3745 Rain 8 1011 87 10000 3.1 250 01:01 03.05.2020
3746 Rain 8 1011 87 10000 3.1 250 01:01 03.05.2020
3747 Rain 8 1011 87 10000 3.1 250 01:01 03.05.2020
3748 Rain 8 1011 87 10000 3.6 270 00:38 03.05.2020
3749 Rain 8 1011 87 10000 3.6 270 00:20 03.05.2020
3750 Rain 8 1010 87 10000 4.1 280 23:45 02.05.2020
3751 Rain 8 1010 81 10000 3.6 260 23:27 02.05.2020
3752 Rain 8 1010 81 10000 3.6 270 22:56 02.05.2020
3753 Clouds 8 1009 81 10000 4.6 270 22:38 02.05.2020
3754 Clouds 8 1009 81 10000 4.6 270 22:19 02.05.2020
3755 Clouds 8 1008 87 10000 3.1 250 21:41 02.05.2020
3756 Rain 8 1008 87 10000 3.1 250 21:20 02.05.2020
3757 Rain 8 1008 87 10000 3.1 250 21:20 02.05.2020
3758 Clouds 8 1008 81 10000 2.6 250 20:58 02.05.2020
3759 Clouds 8 1008 81 10000 2.6 250 20:58 02.05.2020
3760 Rain 8 1008 93 10000 4.1 250 20:38 02.05.2020
3761 Rain 7 1008 93 10000 4.1 250 20:20 02.05.2020
3762 Rain 8 1008 76 10000 3.6 270 19:59 02.05.2020
3763 Clouds 9 1007 76 10000 4.1 260 19:39 02.05.2020
3764 Clouds 9 1007 76 10000 4.1 260 19:20 02.05.2020
3765 Clouds 10 1007 76 10000 5.1 260 18:56 02.05.2020
3766 Clouds 10 1007 81 10000 3.1 240 18:38 02.05.2020
3767 Clouds 10 1007 81 10000 3.1 240 18:20 02.05.2020
3768 Clouds 10 1007 81 10000 3.1 240 18:20 02.05.2020
3769 Clouds 10 1007 81 10000 3.1 240 18:20 02.05.2020
3770 Rain 9 1007 81 10000 4.1 240 17:56 02.05.2020
3771 Rain 9 1007 81 10000 5.7 260 17:38 02.05.2020
3772 Rain 9 1007 81 10000 5.7 260 17:19 02.05.2020
3773 Rain 10 1007 81 10000 5.1 280 16:54 02.05.2020
3774 Rain 11 1007 71 10000 6.2 280 16:36 02.05.2020
3775 Rain 10 1007 71 10000 6.2 280 16:18 02.05.2020
3776 Clouds 13 1006 62 10000 5.1 270 15:41 02.05.2020
3777 Clouds 13 1006 62 10000 5.1 270 15:20 02.05.2020
3778 Rain 13 1006 76 10000 2.6 260 14:44 02.05.2020
3779 Rain 13 1006 76 10000 2.6 260 14:26 02.05.2020
3780 Rain 11 1006 81 10000 5.7 270 13:59 02.05.2020
3781 Rain 11 1006 76 10000 3.1 260 13:39 02.05.2020
3782 Rain 10 1006 76 10000 3.1 260 13:19 02.05.2020
3783 Clouds 11 1006 81 10000 4.6 260 12:42 02.05.2020
3784 Rain 11 1006 81 10000 4.6 260 12:23 02.05.2020
3785 Clouds 11 1006 87 10000 3.1 250 11:58 02.05.2020
3786 Rain 10 1006 76 10000 6.2 260 11:39 02.05.2020
3787 Rain 10 1006 76 10000 6.2 260 11:21 02.05.2020
3788 Rain 9 1006 71 10000 5.7 250 10:55 02.05.2020
3789 Rain 9 1006 71 10000 5.7 260 10:36 02.05.2020
3790 Rain 9 1005 66 10000 6.2 250 10:18 02.05.2020
3791 Clouds 10 1005 66 10000 6.2 250 09:54 02.05.2020
3792 Clouds 10 1005 66 10000 5.1 260 09:36 02.05.2020
3793 Clouds 11 1005 66 10000 5.1 260 09:18 02.05.2020
3794 Clouds 10 1005 71 10000 4.1 250 08:44 02.05.2020
3795 Clouds 10 1005 76 10000 3.6 250 08:25 02.05.2020
3796 Clouds 9 1005 76 10000 3.1 240 07:47 02.05.2020
3797 Clouds 9 1004 76 10000 3.1 230 07:27 02.05.2020
3798 Clouds 8 1004 76 10000 3.1 230 06:50 02.05.2020
3799 Clouds 7 1004 76 10000 4.1 220 05:28 02.05.2020
3800 Clouds 8 1004 75 10000 3.1 220 04:37 02.05.2020
3801 Clouds 7 1004 75 10000 3.1 220 04:18 02.05.2020
3802 Clear 7 1003 75 10000 3.6 220 02:44 02.05.2020
3803 Clouds 7 1003 75 10000 3.6 220 02:22 02.05.2020
3804 Clouds 7 1003 75 10000 4.1 220 01:33 02.05.2020
3805 Clouds 7 1003 70 10000 4.1 220 00:46 02.05.2020
3806 Clouds 8 1003 70 10000 4.6 230 00:25 02.05.2020
3807 Clouds 8 1003 66 10000 4.1 230 23:58 01.05.2020
3808 Clouds 8 1003 66 10000 4.1 230 23:39 01.05.2020
3809 Clouds 9 1003 66 10000 4.1 230 23:19 01.05.2020
3810 Clouds 9 1003 66 10000 4.6 230 22:54 01.05.2020
3811 Clouds 9 1003 66 10000 4.6 230 22:36 01.05.2020
3812 Clouds 9 1003 66 10000 4.6 230 22:18 01.05.2020
3813 Clouds 10 1003 58 10000 4.6 240 21:54 01.05.2020
3814 Clouds 10 1002 62 10000 4.6 230 21:36 01.05.2020
3815 Clouds 10 1002 62 10000 4.6 230 21:18 01.05.2020
3816 Clouds 11 1002 54 10000 6.7 230 20:54 01.05.2020
3817 Clouds 12 1002 62 10000 4.6 210 20:36 01.05.2020
3818 Clouds 12 1002 62 10000 4.6 210 20:18 01.05.2020
3819 Clouds 12 1002 54 10000 5.7 210 19:41 01.05.2020
3820 Clouds 12 1002 54 10000 5.7 210 19:22 01.05.2020
3821 Clouds 13 1002 50 10000 5.1 210 18:57 01.05.2020
3822 Clouds 13 1002 58 10000 6.7 220 18:38 01.05.2020
3823 Clouds 13 1002 58 10000 6.7 220 18:19 01.05.2020
3824 Clouds 14 1002 54 10000 4.6 250 17:56 01.05.2020
3825 Clouds 14 1002 41 10000 5.7 240 17:38 01.05.2020
3826 Rain 14 1002 41 10000 5.7 240 17:20 01.05.2020
3827 Rain 15 1002 44 10000 6.2 240 16:55 01.05.2020
3828 Clouds 15 1002 41 10000 5.7 250 16:37 01.05.2020
3829 Clouds 15 1002 41 10000 5.7 250 16:37 01.05.2020
3830 Rain 15 1002 41 10000 5.7 250 16:18 01.05.2020
3831 Clouds 17 1002 34 10000 5.1 260 15:42 01.05.2020
3832 Clouds 18 1002 34 10000 5.1 260 15:24 01.05.2020
3833 Rain 17 1002 42 10000 6.2 240 14:59 01.05.2020
3834 Rain 17 1002 41 10000 5.1 270 14:40 01.05.2020
3835 Clouds 17 1002 41 10000 5.1 270 14:22 01.05.2020
3836 Clouds 17 1003 48 10000 5.7 230 13:41 01.05.2020
3837 Clouds 17 1003 48 10000 5.7 230 13:22 01.05.2020
3838 Clouds 17 1003 48 10000 5.7 230 13:22 01.05.2020
3839 Clouds 17 1003 47 10000 4.6 250 12:58 01.05.2020
3840 Clouds 16 1003 47 10000 5.7 250 12:40 01.05.2020
3841 Clouds 15 1003 47 10000 5.7 250 12:20 01.05.2020
3842 Clouds 14 1003 47 10000 6.7 230 11:58 01.05.2020
3843 Clouds 14 1003 47 10000 6.7 230 11:58 01.05.2020
3844 Clouds 14 1004 47 10000 6.7 250 11:39 01.05.2020
3845 Clouds 14 1004 47 10000 6.7 250 11:19 01.05.2020
3846 Clouds 13 1004 50 10000 6.2 240 10:41 01.05.2020
3847 Clouds 13 1004 50 10000 6.2 240 10:41 01.05.2020
3848 Clouds 14 1004 50 10000 6.2 240 10:20 01.05.2020
3849 Clouds 14 1004 50 10000 4.6 240 09:59 01.05.2020
3850 Clouds 13 1004 58 10000 5.7 230 09:41 01.05.2020
3851 Clouds 13 1004 58 10000 5.7 230 09:18 01.05.2020
3852 Clouds 12 1004 62 10000 5.1 230 08:46 01.05.2020
3853 Clouds 12 1004 66 10000 4.6 210 08:28 01.05.2020
3854 Clouds 12 1004 66 10000 5.7 190 07:56 01.05.2020
3855 Clouds 11 1003 66 10000 4.1 170 07:37 01.05.2020
3856 Clouds 9 1003 71 10000 4.1 180 06:59 01.05.2020
3857 Clouds 9 1003 71 10000 4.1 190 06:18 01.05.2020
3858 Clouds 10 1004 66 10000 4.1 220 05:21 01.05.2020
3859 Clouds 12 1004 66 10000 4.1 230 03:43 01.05.2020
3860 Clouds 13 1004 62 10000 4.1 240 02:52 01.05.2020
3861 Clouds 12 1004 62 10000 5.1 220 02:34 01.05.2020
3862 Clouds 13 1004 58 10000 4.6 210 01:47 01.05.2020
3863 Clouds 13 1004 58 10000 4.6 210 01:27 01.05.2020
3864 Clouds 13 1003 62 10000 6.7 200 00:40 01.05.2020
3865 Rain 13 1003 62 10000 6.7 200 00:21 01.05.2020
3866 Clouds 14 1003 58 10000 5.1 200 23:57 30.04.2020
3867 Rain 13 1003 67 10000 4.1 180 23:39 30.04.2020
3868 Clouds 13 1003 67 10000 4.1 180 23:20 30.04.2020
3869 Clouds 13 1003 67 10000 3.6 180 22:56 30.04.2020
3870 Clouds 13 1004 67 10000 3.1 190 22:38 30.04.2020
3871 Clouds 13 1004 67 10000 3.1 190 22:18 30.04.2020
3872 Clouds 14 1004 58 10000 3.1 170 21:42 30.04.2020
3873 Clouds 14 1004 58 10000 3.1 170 21:23 30.04.2020
3874 Clouds 14 1004 58 10000 3.1 180 20:58 30.04.2020
3875 Clouds 14 1004 55 10000 3.1 180 20:40 30.04.2020
3876 Clouds 15 1004 55 10000 3.1 180 20:18 30.04.2020
3877 Clouds 16 1004 55 10000 3.6 210 19:47 30.04.2020
3878 Clouds 16 1004 55 10000 3.6 210 19:27 30.04.2020
3879 Clouds 16 1004 55 10000 3.1 210 18:59 30.04.2020
3880 Clouds 16 1004 59 10000 4.1 230 18:39 30.04.2020
3881 Clouds 16 1004 59 10000 4.1 230 18:21 30.04.2020
3882 Clouds 17 1004 55 10000 3.6 240 17:59 30.04.2020
3883 Clouds 17 1004 55 10000 3.6 250 17:40 30.04.2020
3884 Clouds 17 1004 55 10000 3.6 250 17:21 30.04.2020
3885 Clouds 17 1004 59 10000 2.6 270 16:57 30.04.2020
3886 Clouds 17 1005 59 10000 4.1 230 16:38 30.04.2020
3887 Clouds 17 1005 59 10000 4.1 230 16:19 30.04.2020
3888 Clouds 17 1005 59 10000 6.2 220 15:48 30.04.2020
3889 Rain 18 1005 63 10000 7.7 210 15:25 30.04.2020
3890 Clouds 17 1005 51 10000 7.7 210 14:58 30.04.2020
3891 Clouds 17 1005 51 10000 7.7 210 14:39 30.04.2020
3892 Clouds 17 1005 51 10000 7.7 210 14:19 30.04.2020
3893 Clouds 17 1005 51 10000 7.2 200 13:56 30.04.2020
3894 Rain 17 1005 51 10000 7.2 210 13:38 30.04.2020
3895 Rain 17 1005 51 10000 7.2 210 13:19 30.04.2020
3896 Rain 17 1005 51 10000 3.6 210 12:41 30.04.2020
3897 Rain 18 1005 51 10000 3.6 210 12:21 30.04.2020
3898 Rain 17 1006 55 10000 6.7 210 11:58 30.04.2020
3899 Clouds 17 1006 55 10000 4.1 190 11:37 30.04.2020
3900 Clouds 17 1006 55 10000 4.1 190 11:18 30.04.2020
3901 Rain 17 1006 59 10000 4.6 190 10:54 30.04.2020
3902 Rain 16 1006 62 10000 4.6 180 10:36 30.04.2020
3903 Clouds 15 1006 62 10000 4.6 180 10:18 30.04.2020
3904 Clouds 15 1006 67 10000 4.1 180 09:41 30.04.2020
3905 Clouds 14 1006 67 10000 4.1 180 09:22 30.04.2020
3906 Clouds 13 1006 71 10000 4.1 180 08:49 30.04.2020
3907 Clouds 12 1006 71 10000 4.1 180 08:27 30.04.2020
3908 Clouds 12 1006 71 10000 4.1 180 08:27 30.04.2020
3909 Clouds 11 1006 76 10000 4.6 180 07:59 30.04.2020
3910 Clouds 11 1006 81 10000 4.6 190 07:40 30.04.2020
3911 Clouds 10 1006 81 10000 4.6 190 07:22 30.04.2020
3912 Clouds 9 1006 81 10000 3.6 200 06:39 30.04.2020
3913 Rain 8 1007 87 10000 3.1 210 05:49 30.04.2020
3914 Rain 8 1007 87 10000 2.6 190 05:27 30.04.2020
3915 Clouds 9 1007 93 10000 2.1 200 04:30 30.04.2020
3916 Clouds 9 1007 93 10000 2.6 160 02:59 30.04.2020
3917 Clouds 10 1007 93 10000 2.6 140 02:29 30.04.2020
3918 Clouds 10 1007 93 10000 1.5 110 01:56 30.04.2020
3919 Clouds 10 1007 93 10000 1.5 140 01:20 30.04.2020
3920 Clouds 11 1007 93 10000 1.5 240 00:40 30.04.2020
3921 Clouds 11 1007 93 10000 1.5 240 00:18 30.04.2020
3922 Clouds 11 1007 93 10000 2.1 150 23:54 29.04.2020
3923 Clouds 12 1007 87 10000 3.1 120 23:36 29.04.2020
3924 Clouds 12 1007 82 10000 0.5 0 23:18 29.04.2020
3925 Rain 12 1007 82 10000 3.1 340 22:39 29.04.2020
3926 Rain 12 1007 82 10000 3.1 340 22:20 29.04.2020
3927 Rain 12 1006 87 10000 3.1 180 21:56 29.04.2020
3928 Clouds 12 1006 82 10000 2.1 190 21:36 29.04.2020
3929 Rain 12 1006 82 10000 2.1 190 21:18 29.04.2020
3930 Rain 13 1006 76 10000 1 0 20:40 29.04.2020
3931 Rain 13 1006 76 10000 1 0 20:20 29.04.2020
3932 Rain 14 1006 72 10000 3.1 190 19:58 29.04.2020
3933 Rain 14 1006 77 10000 2.1 210 19:40 29.04.2020
3934 Rain 14 1006 77 10000 2.1 210 19:40 29.04.2020
3935 Clouds 14 1006 77 10000 2.1 210 19:19 29.04.2020
3936 Rain 14 1005 62 10000 1 0 18:43 29.04.2020
3937 Rain 15 1005 62 10000 1 0 18:24 29.04.2020
3938 Rain 16 1005 59 10000 5.1 320 17:57 29.04.2020
3939 Rain 16 1005 59 10000 5.1 320 17:57 29.04.2020
3940 Clouds 16 1005 59 10000 2.6 310 17:39 29.04.2020
3941 Clouds 16 1005 59 10000 2.6 310 17:20 29.04.2020
3942 Clouds 17 1005 67 10000 2.1 0 16:38 29.04.2020
3943 Clouds 17 1005 67 10000 2.1 0 16:38 29.04.2020
3944 Clouds 17 1005 67 10000 2.1 0 16:19 29.04.2020
3945 Clouds 16 1005 72 10000 1.5 340 15:57 29.04.2020
3946 Clouds 16 1005 76 10000 3.6 330 15:39 29.04.2020
3947 Clouds 17 1005 76 10000 3.6 330 15:20 29.04.2020
3948 Rain 17 1005 63 10000 3.6 250 14:57 29.04.2020
3949 Clouds 16 1005 67 10000 3.6 350 14:38 29.04.2020
3950 Clouds 16 1005 67 10000 3.6 350 14:38 29.04.2020
3951 Clouds 16 1005 67 10000 3.6 350 14:18 29.04.2020
3952 Clouds 17 1005 63 10000 4.6 290 13:42 29.04.2020
3953 Clouds 17 1005 63 10000 4.6 290 13:20 29.04.2020
3954 Clouds 17 1005 63 10000 4.6 270 12:59 29.04.2020
3955 Clouds 17 1005 67 10000 3.6 290 12:40 29.04.2020
3956 Clouds 16 1005 67 10000 3.6 290 12:19 29.04.2020
3957 Clouds 16 1005 72 10000 4.6 300 11:58 29.04.2020
3958 Clouds 16 1005 72 10000 4.1 280 11:36 29.04.2020
3959 Clouds 16 1005 72 10000 4.1 280 11:18 29.04.2020
3960 Clouds 16 1004 72 10000 5.7 280 10:37 29.04.2020
3961 Clouds 15 1004 72 10000 5.7 280 10:19 29.04.2020
3962 Clouds 15 1004 71 10000 3.1 270 09:57 29.04.2020
3963 Clouds 14 1004 76 10000 4.1 280 09:38 29.04.2020
3964 Clouds 14 1004 76 10000 4.1 280 09:18 29.04.2020
3965 Clouds 13 1004 76 10000 4.1 280 08:43 29.04.2020
3966 Clouds 13 1004 76 10000 4.1 280 08:24 29.04.2020
3967 Clouds 13 1004 82 10000 4.6 270 07:50 29.04.2020
3968 Clouds 13 1003 76 10000 4.6 270 07:26 29.04.2020
3969 Clouds 13 1003 82 10000 4.6 270 06:52 29.04.2020
3970 Clouds 13 1003 82 10000 4.6 260 06:31 29.04.2020
3971 Clouds 13 1003 76 10000 4.1 250 05:38 29.04.2020
3972 Clouds 13 1003 76 10000 4.1 250 05:18 29.04.2020
3973 Clouds 13 1003 76 10000 3.6 250 04:19 29.04.2020
3974 Clouds 14 1003 72 10000 3.1 240 02:56 29.04.2020
3975 Clouds 14 1003 72 10000 4.1 250 01:47 29.04.2020
3976 Clouds 15 1003 72 10000 4.1 250 01:27 29.04.2020
3977 Rain 15 1003 72 10000 3.6 250 00:51 29.04.2020
3978 Clouds 15 1003 67 10000 1.5 260 00:21 29.04.2020
3979 Clouds 15 1003 67 10000 1.5 260 00:21 29.04.2020
3980 Rain 15 1003 63 10000 1 260 23:56 28.04.2020
3981 Clouds 15 1003 63 10000 1 0 23:38 28.04.2020
3982 Clouds 16 1003 63 10000 1 0 23:20 28.04.2020
3983 Rain 16 1003 51 10000 1 0 22:38 28.04.2020
3984 Clouds 16 1003 51 10000 1 0 22:20 28.04.2020
3985 Clouds 16 1003 51 10000 0.5 0 21:59 28.04.2020
3986 Clouds 16 1003 48 10000 0.5 0 21:40 28.04.2020
3987 Rain 17 1003 48 10000 0.5 0 21:21 28.04.2020
3988 Rain 18 1003 45 10000 3.6 300 20:58 28.04.2020
3989 Rain 18 1003 39 10000 4.1 290 20:40 28.04.2020
3990 Clouds 18 1003 39 10000 4.1 290 20:20 28.04.2020
3991 Clouds 19 1003 39 10000 5.1 300 19:56 28.04.2020
3992 Clouds 19 1003 37 10000 3.1 270 19:37 28.04.2020
3993 Clouds 20 1003 37 10000 3.1 270 19:19 28.04.2020
3994 Clouds 20 1003 37 10000 3.1 270 19:19 28.04.2020
3995 Clouds 21 1003 37 10000 2.6 330 18:42 28.04.2020
3996 Clouds 21 1003 37 10000 2.6 330 18:20 28.04.2020
3997 -273 0 0 0 0 0 17:59 28.04.2020
3998 Clouds 22 1002 33 10000 3.1 330 17:37 28.04.2020
3999 Clouds 22 1002 33 10000 3.1 330 17:37 28.04.2020
4000 Clouds 22 1002 33 10000 3.1 330 17:19 28.04.2020
4001 Clouds 22 1003 28 10000 2.1 300 16:57 28.04.2020
4002 Clouds 23 1003 27 10000 3.1 280 16:38 28.04.2020
4003 Clouds 23 1003 27 10000 3.1 280 16:20 28.04.2020
4004 Clouds 23 1003 27 10000 2.6 0 15:55 28.04.2020
4005 Clouds 24 1003 25 10000 1.5 0 15:37 28.04.2020
4006 Clouds 24 1003 25 10000 1.5 0 15:19 28.04.2020
4007 Clouds 23 1004 27 10000 2.6 280 14:54 28.04.2020
4008 Clouds 23 1004 25 10000 3.6 250 14:36 28.04.2020
4009 Clouds 23 1004 25 10000 3.6 250 14:18 28.04.2020
4010 Clouds 23 1004 25 10000 2.1 0 13:41 28.04.2020
4011 Clouds 23 1004 25 10000 2.1 0 13:23 28.04.2020
4012 Clouds 22 1005 26 10000 3.1 0 12:59 28.04.2020
4013 Clouds 22 1005 30 10000 3.1 270 12:41 28.04.2020
4014 Clouds 22 1005 30 10000 3.1 270 12:22 28.04.2020
4015 Clouds 21 1005 37 10000 1 0 11:42 28.04.2020
4016 Clouds 21 1005 37 10000 1 0 11:22 28.04.2020
4017 Clouds 21 1005 40 10000 1 0 10:58 28.04.2020
4018 Clouds 20 1005 45 10000 1.5 230 10:38 28.04.2020
4019 Clouds 19 1005 48 10000 2.6 220 10:18 28.04.2020
4020 Clouds 18 1005 55 10000 3.1 200 09:44 28.04.2020
4021 Clouds 16 1005 55 10000 3.1 200 09:25 28.04.2020
4022 Clouds 16 1005 58 10000 3.1 190 08:57 28.04.2020
4023 Clouds 15 1006 58 10000 3.6 200 08:38 28.04.2020
4024 Clouds 14 1006 58 10000 3.6 200 08:20 28.04.2020
4025 Clouds 12 1005 62 10000 3.6 200 07:44 28.04.2020
4026 Clouds 11 1005 62 10000 3.6 200 07:19 28.04.2020
4027 Clouds 10 1005 66 10000 4.1 200 06:43 28.04.2020
4028 Clouds 10 1005 66 10000 3.1 210 05:56 28.04.2020
4029 Clouds 9 1006 66 10000 4.1 210 05:37 28.04.2020
4030 Clouds 10 1006 62 10000 4.1 200 04:39 28.04.2020
4031 Clear 11 1006 58 10000 5.1 200 02:59 28.04.2020
4032 Clouds 11 1006 54 10000 5.1 200 02:25 28.04.2020
4033 Clouds 11 1006 50 10000 4.6 200 01:22 28.04.2020
4034 Clouds 11 1006 50 10000 4.1 190 00:49 28.04.2020
4035 Clouds 11 1006 50 10000 3.6 190 00:19 28.04.2020
4036 Clouds 12 1006 41 10000 4.1 180 23:43 27.04.2020
4037 Clouds 12 1006 41 10000 4.1 180 23:43 27.04.2020
4038 Clouds 13 1006 41 10000 4.1 180 23:21 27.04.2020
4039 Clouds 14 1006 33 10000 1.5 180 22:55 27.04.2020
4040 Clouds 16 1006 33 10000 2.1 140 22:37 27.04.2020
4041 Clouds 14 1006 36 10000 1.5 140 22:18 27.04.2020
4042 Clouds 14 1006 36 10000 1.5 140 21:54 27.04.2020
4043 Clouds 15 1006 31 10000 0.5 0 21:36 27.04.2020
4044 Clouds 16 1006 31 10000 0.5 0 21:18 27.04.2020
4045 Clouds 17 1006 32 10000 1.5 340 20:42 27.04.2020
4046 Clouds 18 1006 32 10000 1.5 340 20:21 27.04.2020
4047 Clouds 19 1006 32 10000 3.1 340 19:57 27.04.2020
4048 Clouds 20 1006 26 10000 1 0 19:38 27.04.2020
4049 Clouds 21 1006 26 10000 1 0 19:19 27.04.2020
4050 Clouds 21 1006 24 10000 2.6 270 18:56 27.04.2020
4051 Clouds 21 1007 26 10000 2.6 0 18:37 27.04.2020
4052 Clouds 21 1007 26 10000 2.6 0 18:18 27.04.2020
4053 Clouds 22 1007 40 10000 1.5 0 17:43 27.04.2020
4054 Clouds 22 1007 40 10000 1.5 0 17:43 27.04.2020
4055 Clouds 22 1007 38 10000 1.5 0 17:21 27.04.2020
4056 Clouds 22 1007 38 10000 3.1 240 16:57 27.04.2020
4057 Clouds 22 1007 21 10000 3.6 0 16:38 27.04.2020
4058 Clouds 22 1007 21 10000 3.6 0 16:20 27.04.2020
4059 Clouds 22 1007 36 10000 3.6 270 15:56 27.04.2020
4060 Clouds 22 1008 22 10000 4.6 280 15:37 27.04.2020
4061 Clear 22 1008 22 10000 4.6 280 15:18 27.04.2020
4062 Clear 22 1008 39 10000 2.1 0 14:42 27.04.2020
4063 Clear 22 1008 39 10000 2.1 0 14:22 27.04.2020
4064 Clear 21 1008 39 10000 3.1 0 13:59 27.04.2020
4065 Clear 21 1009 39 10000 2.6 190 13:41 27.04.2020
4066 Clear 21 1009 39 10000 2.6 190 13:20 27.04.2020
4067 Clear 21 1009 29 10000 2.6 0 12:56 27.04.2020
4068 Clear 20 1009 29 10000 1.5 0 12:38 27.04.2020
4069 Clear 20 1010 47 10000 1.5 0 12:18 27.04.2020
4070 Clear 19 1010 31 10000 1.5 0 11:41 27.04.2020
4071 Clear 18 1010 31 10000 1.5 0 11:19 27.04.2020
4072 Clear 18 1010 34 10000 1 0 10:56 27.04.2020
4073 Clear 17 1010 38 10000 1.5 220 10:38 27.04.2020
4074 Clear 17 1010 38 10000 1.5 220 10:19 27.04.2020
4075 Clear 16 1010 47 10000 2.6 170 09:43 27.04.2020
4076 Clear 16 1010 47 10000 2.6 170 09:43 27.04.2020
4077 Clear 13 1010 47 10000 2.6 170 09:19 27.04.2020
4078 Clear 12 1010 53 10000 2.6 160 08:57 27.04.2020
4079 Clear 10 1010 66 10000 2.1 160 08:38 27.04.2020
4080 Clear 7 1010 66 10000 2.1 160 08:19 27.04.2020
4081 Clear 6 1010 75 10000 1.5 150 07:44 27.04.2020
4082 Clear 6 1010 75 10000 1.5 150 07:20 27.04.2020
4083 Clear 5 1010 80 10000 1.5 170 06:47 27.04.2020
4084 Clear 5 1010 75 10000 2.1 150 06:25 27.04.2020
4085 Clear 5 1010 75 10000 1.5 160 05:49 27.04.2020
4086 Clear 5 1010 70 10000 1.5 70 04:41 27.04.2020
4087 Clear 6 1010 65 10000 1 0 03:49 27.04.2020
4088 Clear 6 1010 70 10000 3.1 140 02:58 27.04.2020
4089 Clear 6 1011 70 10000 3.1 160 01:35 27.04.2020
4090 Clear 6 1011 65 10000 3.1 160 00:57 27.04.2020
4091 Clear 7 1011 53 10000 2.6 170 00:20 27.04.2020
4092 Clear 7 1010 50 10000 3.1 160 23:56 26.04.2020
4093 Clear 8 1010 50 10000 2.6 170 23:38 26.04.2020
4094 Clear 8 1010 50 10000 2.6 170 23:19 26.04.2020
4095 Clear 8 1010 50 10000 1.5 150 22:58 26.04.2020
4096 Clear 9 1010 68 10000 1 0 22:39 26.04.2020
4097 Clear 9 1010 68 10000 1 0 22:20 26.04.2020
4098 Clear 10 1010 68 10000 1 140 21:57 26.04.2020
4099 Clear 10 1010 68 10000 0.5 0 21:38 26.04.2020
4100 Clouds 11 1010 65 10000 0.5 0 21:18 26.04.2020
4101 Clouds 11 1010 65 10000 0.5 0 21:18 26.04.2020
4102 Clouds 11 1010 65 10000 0.5 0 21:18 26.04.2020
4103 Clouds 11 1010 65 10000 0.5 0 21:18 26.04.2020
4104 Clouds 10 1010 65 10000 0.5 0 21:18 26.04.2020
4105 Clouds 11 1010 65 10000 0.5 10 20:54 26.04.2020
4106 Clouds 12 1010 38 10000 1 20 20:36 26.04.2020
4107 Clouds 13 1010 38 10000 1 20 20:18 26.04.2020
4108 Clouds 14 1010 65 10000 1.5 30 19:56 26.04.2020
4109 Clouds 14 1010 65 10000 1.5 30 19:56 26.04.2020
4110 Clouds 15 1010 36 10000 1 0 19:36 26.04.2020
4111 Clouds 15 1010 36 10000 1 0 19:18 26.04.2020
4112 Clouds 15 1010 36 10000 1 0 19:18 26.04.2020
4113 Clouds 16 1010 36 10000 2.6 360 18:43 26.04.2020
4114 Clouds 16 1010 36 10000 2.6 360 18:24 26.04.2020
4115 Clouds 17 1010 38 10000 2.6 360 17:43 26.04.2020
4116 Clouds 17 1010 38 10000 2.6 360 17:23 26.04.2020
4117 Clouds 15 1011 47 10000 1.5 0 16:57 26.04.2020
4118 Clouds 16 1011 41 10000 2.1 0 16:38 26.04.2020
4119 Clouds 16 1011 41 10000 2.1 0 16:19 26.04.2020
4120 Clouds 16 1011 41 10000 3.1 340 15:57 26.04.2020
4121 Clouds 16 1011 38 10000 3.1 290 15:37 26.04.2020
4122 Rain 16 1011 41 10000 2.1 290 15:18 26.04.2020
4123 Rain 16 1011 38 10000 2.6 290 14:41 26.04.2020
4124 Clouds 16 1011 38 10000 2.6 290 14:19 26.04.2020
4125 Clouds 16 1011 38 10000 2.6 290 14:19 26.04.2020
4126 Clouds 15 1012 50 10000 2.1 300 13:59 26.04.2020
4127 Clouds 15 1012 44 10000 2.1 0 13:40 26.04.2020
4128 Clouds 16 1012 44 10000 2.1 0 13:22 26.04.2020
4129 Clouds 15 1012 50 10000 3.1 210 12:57 26.04.2020
4130 Clouds 14 1012 54 10000 2.6 190 12:39 26.04.2020
4131 Clouds 14 1012 54 10000 2.6 190 12:39 26.04.2020
4132 Clouds 14 1012 54 10000 2.6 190 12:20 26.04.2020
4133 Clouds 12 1012 62 10000 2.1 200 11:55 26.04.2020
4134 Clouds 12 1012 62 10000 1 0 11:37 26.04.2020
4135 Clouds 11 1012 62 10000 1 0 11:18 26.04.2020
4136 Clouds 11 1012 66 10000 0.5 0 10:55 26.04.2020
4137 Clouds 10 1012 66 10000 1 0 10:36 26.04.2020
4138 Clouds 10 1012 66 10000 1 0 10:18 26.04.2020
4139 Clouds 10 1012 66 10000 2.1 300 09:39 26.04.2020
4140 Clouds 9 1012 66 10000 2.1 300 09:20 26.04.2020
4141 Clouds 9 1011 66 10000 2.1 250 08:42 26.04.2020
4142 Clouds 9 1011 66 10000 2.1 250 08:23 26.04.2020
4143 Clouds 8 1011 70 10000 1.5 260 07:58 26.04.2020
4144 Clouds 7 1011 75 10000 2.1 240 07:40 26.04.2020
4145 Clouds 7 1011 75 10000 2.1 240 07:18 26.04.2020
4146 Clouds 6 1011 81 10000 2.6 220 06:39 26.04.2020
4147 Clouds 6 1011 81 10000 3.1 220 05:55 26.04.2020
4148 Clouds 6 1011 75 10000 2.6 220 05:36 26.04.2020
4149 Clouds 5 1011 81 10000 3.1 220 04:55 26.04.2020
4150 Clouds 5 1011 75 10000 3.1 220 03:56 26.04.2020
4151 Clouds 6 1011 75 10000 1.5 230 02:46 26.04.2020
4152 Clouds 7 1011 70 10000 1 0 02:26 26.04.2020
4153 Clouds 8 1011 70 10000 1.5 220 01:46 26.04.2020
4154 Clouds 8 1011 70 10000 1 0 01:25 26.04.2020
4155 Clouds 8 1011 70 10000 1.5 280 00:39 26.04.2020
4156 Clouds 9 1011 66 10000 1.5 270 00:19 26.04.2020
4157 Clouds 9 1011 66 10000 1.5 280 23:38 25.04.2020
4158 Clouds 9 1011 66 10000 1.5 280 23:20 25.04.2020
4159 Clouds 9 1011 66 10000 1.5 270 22:57 25.04.2020
4160 Clouds 9 1011 66 10000 1.5 260 22:39 25.04.2020
4161 Clouds 9 1011 66 10000 1.5 260 22:19 25.04.2020
4162 Clouds 9 1011 66 10000 1.5 260 22:19 25.04.2020
4163 Clouds 10 1011 61 10000 1.5 270 21:40 25.04.2020
4164 Clouds 10 1011 61 10000 1.5 270 21:20 25.04.2020
4165 Clouds 10 1010 57 10000 1.5 260 20:58 25.04.2020
4166 Clouds 10 1010 62 10000 1.5 270 20:40 25.04.2020
4167 Clouds 11 1010 62 10000 1.5 270 20:22 25.04.2020
4168 Clouds 11 1010 54 10000 1.5 280 19:55 25.04.2020
4169 Clouds 12 1010 54 10000 2.6 260 19:37 25.04.2020
4170 Clouds 12 1010 58 10000 3.1 290 19:18 25.04.2020
4171 Clouds 12 1011 54 10000 4.1 290 18:39 25.04.2020
4172 Clouds 12 1011 54 10000 4.1 290 18:21 25.04.2020
4173 Clouds 12 1011 54 10000 2.1 280 17:58 25.04.2020
4174 Clouds 12 1011 58 10000 3.6 300 17:38 25.04.2020
4175 Clouds 13 1011 58 10000 3.6 300 17:19 25.04.2020
4176 Clouds 13 1011 58 10000 4.1 270 16:56 25.04.2020
4177 Clouds 12 1011 57 10000 5.1 290 16:38 25.04.2020
4178 Clouds 12 1011 57 10000 5.1 290 16:19 25.04.2020
4179 Clouds 12 1011 62 10000 5.1 290 15:41 25.04.2020
4180 Clouds 11 1011 62 10000 5.1 290 15:21 25.04.2020
4181 Clouds 12 1011 62 10000 3.6 300 14:58 25.04.2020
4182 Clouds 12 1011 62 10000 3.6 300 14:58 25.04.2020
4183 Clouds 11 1012 66 10000 4.6 310 14:39 25.04.2020
4184 Clouds 10 1012 66 10000 4.6 310 14:20 25.04.2020
4185 Clouds 10 1011 66 10000 4.6 310 13:55 25.04.2020
4186 Clouds 10 1011 66 10000 5.7 300 13:37 25.04.2020
4187 Clouds 10 1011 66 10000 6.2 290 13:18 25.04.2020
4188 Clouds 10 1011 66 10000 6.2 290 12:54 25.04.2020
4189 Clouds 10 1011 70 10000 6.2 310 12:36 25.04.2020
4190 Clouds 9 1011 70 10000 6.2 310 12:18 25.04.2020
4191 Clouds 9 1011 65 10000 5.1 290 11:41 25.04.2020
4192 Clouds 9 1011 65 10000 5.1 290 11:23 25.04.2020
4193 Clouds 8 1010 65 10000 5.7 290 10:55 25.04.2020
4194 Clouds 8 1010 65 10000 5.7 290 10:37 25.04.2020
4195 Clouds 8 1010 65 10000 5.7 290 10:18 25.04.2020
4196 Clouds 7 1009 65 10000 7.2 300 09:41 25.04.2020
4197 Clouds 7 1009 65 10000 7.2 300 09:21 25.04.2020
4198 Clouds 7 1009 65 10000 5.7 300 08:55 25.04.2020
4199 Clouds 7 1008 65 10000 5.1 290 08:36 25.04.2020
4200 Clouds 7 1008 65 10000 5.1 290 08:18 25.04.2020
4201 Clouds 7 1008 75 10000 5.7 290 07:42 25.04.2020
4202 Clouds 7 1008 75 10000 5.7 290 07:22 25.04.2020
4203 Clouds 7 1008 75 10000 4.1 290 06:42 25.04.2020
4204 Clouds 7 1008 75 10000 4.1 290 06:42 25.04.2020
4205 Clouds 6 1008 70 10000 5.1 290 05:46 25.04.2020
4206 Clouds 7 1008 75 10000 6.2 310 05:27 25.04.2020
4207 Clouds 7 1007 79 10000 4.6 290 04:24 25.04.2020
4208 Clouds 9 1006 53 10000 2.1 260 02:44 25.04.2020
4209 Clouds 9 1006 53 10000 2.1 260 02:19 25.04.2020
4210 Clouds 9 1006 53 10000 2.1 260 02:19 25.04.2020
4211 Clouds 9 1006 53 10000 3.1 280 01:49 25.04.2020
4212 Clouds 10 1006 50 10000 2.6 260 01:19 25.04.2020
4213 Clouds 11 1006 50 10000 3.1 290 00:49 25.04.2020
4214 Clouds 11 1006 46 10000 4.1 300 00:28 25.04.2020
4215 Clouds 13 1006 47 10000 3.6 290 23:42 24.04.2020
4216 Clouds 13 1006 47 10000 3.6 290 23:21 24.04.2020
4217 Clouds 14 1006 47 10000 4.1 280 22:54 24.04.2020
4218 Clouds 14 1006 47 10000 4.1 280 22:54 24.04.2020
4219 Clouds 14 1006 44 10000 4.1 280 22:36 24.04.2020
4220 Clouds 14 1006 41 10000 3.6 280 22:18 24.04.2020
4221 Clouds 14 1006 41 10000 3.6 280 21:54 24.04.2020
4222 Clouds 15 1006 44 10000 3.1 280 21:36 24.04.2020
4223 Rain 15 1006 44 10000 3.1 280 21:18 24.04.2020
4224 Rain 16 1006 42 10000 3.6 290 20:42 24.04.2020
4225 Rain 16 1006 42 10000 3.6 290 20:19 24.04.2020
4226 Rain 17 1006 36 10000 3.6 300 19:58 24.04.2020
4227 Rain 18 1006 34 10000 4.1 300 19:39 24.04.2020
4228 Rain 19 1006 34 10000 4.1 300 19:20 24.04.2020
4229 Rain 20 1006 32 10000 6.2 300 18:43 24.04.2020
4230 Clouds 20 1006 32 10000 6.2 300 18:25 24.04.2020
4231 Clouds 20 1007 32 10000 6.7 310 17:54 24.04.2020
4232 Clouds 20 1007 32 10000 6.7 290 17:36 24.04.2020
4233 Clouds 20 1007 32 10000 6.7 290 17:18 24.04.2020
4234 Clouds 21 1007 32 10000 6.2 280 16:55 24.04.2020
4235 Clouds 21 1007 30 10000 6.2 300 16:37 24.04.2020
4236 Clouds 21 1007 30 10000 6.2 300 16:19 24.04.2020
4237 Clouds 21 1008 32 10000 8.2 290 15:40 24.04.2020
4238 Clouds 21 1008 32 10000 8.2 290 15:20 24.04.2020
4239 Clouds 20 1008 39 10000 6.2 300 14:41 24.04.2020
4240 Clouds 20 1008 39 10000 6.2 300 14:22 24.04.2020
4241 Clouds 19 1009 37 10000 6.2 280 13:59 24.04.2020
4242 Clouds 20 1009 37 10000 6.2 300 13:41 24.04.2020
4243 Clouds 20 1009 37 10000 6.2 300 13:20 24.04.2020
4244 Clouds 20 1009 34 10000 5.7 260 12:57 24.04.2020
4245 Clouds 20 1009 37 10000 4.1 260 12:39 24.04.2020
4246 Clouds 19 1009 37 10000 4.1 260 12:19 24.04.2020
4247 Clouds 18 1010 36 10000 4.6 290 11:43 24.04.2020
4248 Clouds 18 1010 36 10000 4.6 290 11:22 24.04.2020
4249 Clouds 18 1010 36 10000 5.1 290 10:59 24.04.2020
4250 Clouds 19 1010 36 10000 4.1 260 10:38 24.04.2020
4251 Clouds 18 1010 36 10000 4.1 260 10:20 24.04.2020
4252 Clouds 18 1010 36 10000 4.1 260 10:20 24.04.2020
4253 Clouds 17 1010 41 10000 3.1 240 09:57 24.04.2020
4254 Clouds 16 1011 41 10000 3.6 210 09:37 24.04.2020
4255 Clouds 15 1011 41 10000 3.6 210 09:19 24.04.2020
4256 Clouds 13 1011 50 10000 4.1 200 08:42 24.04.2020
4257 Clouds 11 1011 50 10000 4.1 200 08:20 24.04.2020
4258 Clouds 10 1011 50 10000 3.6 200 07:58 24.04.2020
4259 Clouds 9 1011 53 10000 4.1 190 07:40 24.04.2020
4260 Clouds 9 1011 53 10000 4.1 190 07:21 24.04.2020
4261 Clouds 8 1012 65 10000 3.1 180 06:44 24.04.2020
4262 Clouds 7 1012 70 10000 2.1 170 05:51 24.04.2020
4263 Clouds 7 1013 70 10000 1.5 160 05:23 24.04.2020
4264 Clouds 8 1014 65 10000 1.5 160 03:41 24.04.2020
4265 Clouds 8 1015 65 10000 1.5 170 02:51 24.04.2020
4266 Clouds 8 1015 61 10000 2.6 190 02:31 24.04.2020
4267 Clouds 9 1016 57 10000 3.6 180 01:46 24.04.2020
4268 Clouds 8 1016 61 10000 1 0 00:55 24.04.2020
4269 Clear 9 1016 57 10000 2.1 200 00:20 24.04.2020
4270 Clear 10 1016 47 10000 1.5 170 23:48 23.04.2020
4271 Clear 10 1017 44 10000 1 0 23:28 23.04.2020
4272 Clear 11 1017 44 10000 1 0 22:59 23.04.2020
4273 Clear 11 1017 41 10000 2.1 100 22:41 23.04.2020
4274 Clear 11 1017 41 10000 2.1 100 22:41 23.04.2020
4275 Clear 12 1017 41 10000 2.1 100 22:21 23.04.2020
4276 Clear 13 1017 38 10000 2.1 110 21:58 23.04.2020
4277 Clear 13 1017 38 10000 2.1 110 21:40 23.04.2020
4278 Clear 14 1017 38 10000 2.1 110 21:21 23.04.2020
4279 Clear 15 1017 36 10000 3.1 90 20:59 23.04.2020
4280 Clear 15 1017 38 10000 3.1 60 20:41 23.04.2020
4281 Clear 16 1017 38 10000 3.1 60 20:21 23.04.2020
4282 Clear 17 1018 34 10000 3.1 50 19:56 23.04.2020
4283 Clear 18 1018 32 10000 3.6 60 19:38 23.04.2020
4284 Clear 19 1018 32 10000 3.6 60 19:20 23.04.2020
4285 Clear 20 1018 32 10000 4.6 60 18:55 23.04.2020
4286 Clear 20 1018 29 10000 4.1 70 18:36 23.04.2020
4287 Clear 20 1018 29 10000 4.1 70 18:18 23.04.2020
4288 Clear 20 1019 28 10000 4.1 50 17:55 23.04.2020
4289 Clear 20 1019 30 10000 5.1 60 17:36 23.04.2020
4290 Clear 20 1019 30 10000 5.1 60 17:36 23.04.2020
4291 Clear 21 1019 30 10000 5.1 60 17:18 23.04.2020
4292 Clear 21 1020 28 10000 5.1 90 16:42 23.04.2020
4293 Clear 21 1020 28 10000 5.1 90 16:19 23.04.2020
4294 Clear 20 1021 29 10000 4.6 70 15:42 23.04.2020
4295 Clear 20 1021 29 10000 4.6 70 15:23 23.04.2020
4296 Clear 20 1021 38 10000 4.6 70 14:59 23.04.2020
4297 Clear 19 1022 38 10000 4.1 0 14:39 23.04.2020
4298 Clear 19 1022 38 10000 4.1 0 14:39 23.04.2020
4299 Clear 19 1022 38 10000 4.1 0 14:20 23.04.2020
4300 Clear 19 1022 38 10000 5.7 70 13:57 23.04.2020
4301 Clear 19 1022 27 10000 4.6 0 13:38 23.04.2020
4302 Clear 19 1022 27 10000 4.6 0 13:19 23.04.2020
4303 Clear 19 1023 29 10000 2.6 0 12:55 23.04.2020
4304 Clear 18 1023 29 10000 4.6 120 12:37 23.04.2020
4305 Clear 17 1023 29 10000 4.6 120 12:18 23.04.2020
4306 Clear 17 1023 48 10000 4.6 120 11:43 23.04.2020
4307 Clear 17 1023 48 10000 4.6 120 11:25 23.04.2020
4308 Clear 15 1024 35 10000 6.2 100 10:43 23.04.2020
4309 Clear 15 1024 35 10000 6.2 100 10:24 23.04.2020
4310 Clear 14 1024 48 10000 4.6 80 09:58 23.04.2020
4311 Clear 12 1024 46 10000 2.6 80 09:37 23.04.2020
4312 Clear 12 1024 46 10000 2.6 80 09:18 23.04.2020
4313 Clear 9 1024 57 10000 0.5 0 08:46 23.04.2020
4314 Clear 8 1024 57 10000 0.5 0 08:27 23.04.2020
4315 Clear 6 1023 65 10000 1 120 07:44 23.04.2020
4316 Clear 5 1023 65 10000 1 120 07:24 23.04.2020
4317 Clear 6 1023 60 10000 2.1 140 06:50 23.04.2020
4318 Clear 5 1023 65 10000 1 0 06:28 23.04.2020
4319 Clear 4 1023 78 10000 0.5 0 05:31 23.04.2020
4320 Clear 5 1023 56 10000 1.5 80 04:54 23.04.2020
4321 Clear 5 1023 77 10000 2.1 60 02:40 23.04.2020
4322 Clear 6 1023 78 10000 2.1 60 02:22 23.04.2020
4323 Clear 7 1023 78 10000 2.6 60 01:35 23.04.2020
4324 Clear 8 1023 78 0 2.1 90 00:49 23.04.2020
4325 Clear 8 1023 68 10000 2.1 70 00:25 23.04.2020
4326 Clear 9 1023 68 10000 2.6 80 23:53 22.04.2020
4327 Clear 9 1023 68 10000 2.6 90 23:26 22.04.2020
4328 Clear 10 1023 68 10000 3.1 90 22:59 22.04.2020
4329 Clear 10 1023 68 10000 4.1 90 22:39 22.04.2020
4330 Clear 10 1023 68 10000 4.1 90 22:19 22.04.2020
4331 Clear 11 1023 68 10000 4.1 80 21:57 22.04.2020
4332 Clear 12 1022 68 10000 4.1 90 21:39 22.04.2020
4333 Clear 12 1022 62 10000 4.1 90 21:20 22.04.2020
4334 Clear 12 1022 62 10000 4.1 90 21:20 22.04.2020
4335 Clear 13 1022 62 10000 4.1 90 20:55 22.04.2020
4336 Clear 13 1022 62 10000 5.1 90 20:37 22.04.2020
4337 Clear 14 1022 62 10000 5.1 90 20:18 22.04.2020
4338 Clear 15 1022 33 10000 6.2 80 19:55 22.04.2020
4339 Clear 16 1022 31 10000 6.7 80 19:36 22.04.2020
4340 Clear 16 1022 31 10000 6.7 80 19:18 22.04.2020
4341 Clear 16 1022 31 10000 6.7 80 19:18 22.04.2020
4342 Clear 16 1022 31 10000 7.2 80 18:55 22.04.2020
4343 Clear 17 1022 29 10000 7.7 80 18:37 22.04.2020
4344 Clear 18 1022 29 10000 7.7 90 18:18 22.04.2020
4345 Clear 17 1022 50 10000 7.7 70 17:42 22.04.2020
4346 Clear 17 1022 50 10000 7.7 70 17:23 22.04.2020
4347 Clear 17 1022 29 10000 8.2 70 16:56 22.04.2020
4348 Clear 18 1023 29 10000 8.2 60 16:36 22.04.2020
4349 Clear 18 1023 29 10000 8.2 60 16:18 22.04.2020
4350 Clear 18 1023 50 10000 7.7 70 15:38 22.04.2020
4351 Clear 18 1023 44 10000 7.7 70 15:20 22.04.2020
4352 Clear 18 1023 44 10000 6.7 60 14:56 22.04.2020
4353 Clear 17 1023 44 10000 7.2 70 14:37 22.04.2020
4354 Clear 17 1023 45 10000 7.2 70 14:18 22.04.2020
4355 Clear 17 1023 45 10000 7.2 70 14:18 22.04.2020
4356 Clear 18 1023 29 10000 6.7 70 13:44 22.04.2020
4357 Clear 17 1023 29 10000 6.7 70 13:20 22.04.2020
4358 Clear 17 1024 45 10000 7.7 90 12:44 22.04.2020
4359 Clear 17 1024 45 10000 7.7 90 12:44 22.04.2020
4360 Clear 16 1024 47 10000 7.7 90 12:26 22.04.2020
4361 Clear 15 1024 33 10000 8.2 80 11:59 22.04.2020
4362 Clear 15 1024 33 10000 7.7 70 11:39 22.04.2020
4363 Clear 15 1024 33 10000 7.7 70 11:20 22.04.2020
4364 Clear 15 1024 33 10000 7.7 70 11:20 22.04.2020
4365 Clear 14 1024 35 10000 7.7 90 10:57 22.04.2020
4366 Clear 14 1024 35 10000 6.2 100 10:38 22.04.2020
4367 Clear 14 1024 37 10000 6.2 100 10:18 22.04.2020
4368 Clear 12 1025 40 10000 3.6 60 09:39 22.04.2020
4369 Clear 11 1025 40 10000 3.6 60 09:19 22.04.2020
4370 Clear 9 1025 45 10000 2.6 60 08:55 22.04.2020
4371 Clear 8 1024 49 10000 1.5 70 08:37 22.04.2020
4372 Clear 7 1024 49 10000 1.5 70 08:18 22.04.2020
4373 Clear 5 1024 52 10000 0.5 0 07:50 22.04.2020
4374 Clear 4 1024 60 10000 0.5 0 07:23 22.04.2020
4375 Clear 3 1024 56 10000 1.5 80 06:52 22.04.2020
4376 Clear 3 1024 56 10000 1.5 70 05:47 22.04.2020
4377 Clear 3 1024 56 10000 2.1 100 05:27 22.04.2020
4378 Clear 4 1024 52 10000 1.5 70 04:18 22.04.2020
4379 Clear 5 1024 49 10000 3.6 100 02:39 22.04.2020
4380 Clear 6 1024 49 10000 4.6 80 01:44 22.04.2020
4381 Clear 6 1024 49 10000 4.6 80 01:24 22.04.2020
4382 Clear 7 1024 45 10000 4.6 90 00:47 22.04.2020
4383 Clear 7 1024 45 10000 4.6 90 00:22 22.04.2020
4384 Clear 8 1023 46 10000 3.6 100 23:59 21.04.2020
4385 Clear 9 1023 46 10000 4.1 90 23:40 21.04.2020
4386 Clear 9 1023 46 10000 4.1 90 23:18 21.04.2020
4387 Clear 10 1023 43 10000 4.1 70 22:40 21.04.2020
4388 Clear 10 1023 43 10000 4.1 70 22:21 21.04.2020
4389 Clear 10 1023 43 10000 5.1 70 21:59 21.04.2020
4390 Clear 10 1023 61 10000 4.6 70 21:40 21.04.2020
4391 Clear 11 1023 59 10000 4.6 70 21:22 21.04.2020
4392 Clear 12 1023 59 10000 5.1 80 20:55 21.04.2020
4393 Clear 12 1022 35 10000 5.7 90 20:36 21.04.2020
4394 Clear 13 1022 35 10000 5.7 90 20:18 21.04.2020
4395 Clear 14 1022 59 10000 6.7 100 19:40 21.04.2020
4396 Clear 15 1022 59 10000 6.7 100 19:19 21.04.2020
4397 Clear 16 1022 31 10000 7.7 90 18:57 21.04.2020
4398 Clear 16 1022 31 10000 7.2 90 18:38 21.04.2020
4399 Clear 16 1022 31 10000 7.2 90 18:19 21.04.2020
4400 Clear 17 1022 29 10000 9.3 90 17:55 21.04.2020
4401 Clear 16 1022 31 10000 8.7 90 17:37 21.04.2020
4402 Clear 16 1022 31 10000 8.7 90 17:18 21.04.2020
4403 Clear 17 1022 31 10000 9.3 70 16:39 21.04.2020
4404 Clear 17 1022 31 10000 9.3 70 16:19 21.04.2020
4405 Clear 16 1023 30 10000 8.7 80 15:57 21.04.2020
4406 Clear 16 1023 33 10000 8.7 90 15:38 21.04.2020
4407 Clear 16 1023 33 10000 8.7 90 15:20 21.04.2020
4408 Clear 17 1023 31 10000 8.7 80 14:57 21.04.2020
4409 Clear 16 1023 33 10000 8.2 80 14:39 21.04.2020
4410 Clear 15 1023 33 10000 8.2 80 14:20 21.04.2020
4411 Clear 16 1023 33 10000 9.3 80 13:40 21.04.2020
4412 Clear 14 1023 33 10000 9.3 80 13:22 21.04.2020
4413 Clear 15 1023 33 10000 9.8 80 12:55 21.04.2020
4414 Clear 15 1023 37 10000 9.3 80 12:37 21.04.2020
4415 Clear 13 1023 37 10000 9.3 80 12:18 21.04.2020
4416 Clear 13 1023 37 10000 8.7 80 11:55 21.04.2020
4417 Clear 12 1023 40 10000 7.2 90 11:36 21.04.2020
4418 Clear 12 1023 40 10000 7.2 90 11:18 21.04.2020
4419 Clear 12 1023 40 10000 7.2 90 11:18 21.04.2020
4420 Clear 13 1023 43 10000 7.2 90 10:55 21.04.2020
4421 Clear 13 1023 46 10000 7.2 80 10:37 21.04.2020
4422 Clear 12 1023 46 10000 7.2 80 10:19 21.04.2020
4423 Clear 10 1023 52 10000 6.7 80 09:37 21.04.2020
4424 Clear 8 1023 52 10000 6.7 80 09:19 21.04.2020
4425 Clear 8 1023 56 10000 5.7 80 08:57 21.04.2020
4426 Clear 7 1023 60 10000 4.1 70 08:38 21.04.2020
4427 Clear 6 1023 60 10000 4.1 70 08:19 21.04.2020
4428 Clear 4 1023 65 10000 2.6 50 07:43 21.04.2020
4429 Clear 4 1023 65 10000 2.6 50 07:22 21.04.2020
4430 Clear 3 1023 69 10000 1.5 70 06:47 21.04.2020
4431 Clear 2 1022 64 10000 2.1 60 06:20 21.04.2020
4432 Clear 3 1023 60 10000 4.6 80 05:48 21.04.2020
4433 Clear 4 1023 56 10000 5.7 70 04:20 21.04.2020
4434 Clear 4 1023 52 10000 4.6 70 03:42 21.04.2020
4435 Clear 6 1023 56 10000 4.6 80 01:46 21.04.2020
4436 Clear 6 1023 52 10000 4.6 90 01:18 21.04.2020
4437 Clear 7 1023 52 10000 5.7 80 00:35 21.04.2020
4438 Clear 8 1023 49 10000 5.1 80 23:45 20.04.2020
4439 Clear 8 1023 49 10000 5.1 80 23:25 20.04.2020
4440 Clear 8 1023 49 10000 4.6 80 22:58 20.04.2020
4441 Clear 9 1023 46 10000 5.1 70 22:39 20.04.2020
4442 Clear 9 1023 46 10000 5.1 70 22:20 20.04.2020
4443 Clear 9 1023 49 10000 4.6 60 21:57 20.04.2020
4444 Clear 10 1023 46 10000 4.1 60 21:39 20.04.2020
4445 Clear 10 1023 46 10000 4.1 60 21:19 20.04.2020
4446 Clear 10 1022 43 10000 6.2 80 20:58 20.04.2020
4447 Clear 11 1022 37 10000 6.7 90 20:38 20.04.2020
4448 Clear 12 1022 35 10000 6.2 90 20:19 20.04.2020
4449 Clear 12 1022 35 10000 6.2 90 19:58 20.04.2020
4450 Clear 13 1022 35 10000 7.2 90 19:39 20.04.2020
4451 Clear 13 1022 35 10000 7.2 90 19:19 20.04.2020
4452 Clear 14 1022 33 10000 7.2 80 18:54 20.04.2020
4453 Clear 14 1022 33 10000 7.7 70 18:36 20.04.2020
4454 Clear 15 1022 33 10000 7.7 70 18:18 20.04.2020
4455 Clear 15 1022 33 10000 8.2 70 17:40 20.04.2020
4456 Clear 15 1022 33 10000 8.2 70 17:22 20.04.2020
4457 Clear 15 1022 33 10000 8.2 60 16:59 20.04.2020
4458 Clear 15 1022 33 10000 7.7 60 16:40 20.04.2020
4459 Clear 15 1023 33 10000 7.2 70 16:19 20.04.2020
4460 Clear 15 1023 33 10000 7.2 70 15:55 20.04.2020
4461 Clear 15 1023 28 10000 8.2 80 15:36 20.04.2020
4462 Clear 15 1023 28 10000 8.2 80 15:18 20.04.2020
4463 Clear 15 1023 28 10000 8.2 80 15:18 20.04.2020
4464 Clear 14 1023 28 10000 8.2 80 14:40 20.04.2020
4465 Clear 13 1023 28 10000 8.2 80 14:19 20.04.2020
4466 Clear 14 1024 30 10000 7.7 60 13:57 20.04.2020
4467 Clear 13 1024 30 10000 6.7 50 13:38 20.04.2020
4468 Clear 13 1024 30 10000 6.7 50 13:20 20.04.2020
4469 Clear 13 1024 37 10000 6.7 80 12:44 20.04.2020
4470 Clear 11 1024 37 10000 6.7 80 12:22 20.04.2020
4471 Clear 11 1024 37 10000 7.2 70 11:55 20.04.2020
4472 Clear 10 1024 39 10000 7.7 70 11:36 20.04.2020
4473 Clear 10 1024 39 10000 7.7 70 11:18 20.04.2020
4474 Clear 11 1024 39 10000 7.2 70 10:54 20.04.2020
4475 Clear 11 1024 42 10000 6.7 90 10:36 20.04.2020
4476 Clear 11 1024 42 10000 6.7 90 10:18 20.04.2020
4477 Clear 10 1025 45 10000 5.7 100 09:43 20.04.2020
4478 Clear 8 1025 45 10000 5.7 100 09:25 20.04.2020
4479 Clear 7 1024 45 10000 4.6 100 08:57 20.04.2020
4480 Clear 6 1024 48 10000 3.6 90 08:39 20.04.2020
4481 Clear 5 1024 48 10000 3.6 90 08:18 20.04.2020
4482 Clear 2 1024 59 10000 2.6 70 07:42 20.04.2020
4483 Clear 2 1024 59 10000 2.6 70 07:24 20.04.2020
4484 Clear 2 1024 59 10000 2.6 80 06:38 20.04.2020
4485 Clear 2 1024 59 10000 2.6 80 06:19 20.04.2020
4486 Clear 1 1023 55 10000 1 0 05:20 20.04.2020
4487 Clear 3 1023 55 10000 2.6 70 03:19 20.04.2020
4488 Clear 3 1023 48 10000 2.1 80 02:36 20.04.2020
4489 Clear 4 1023 45 10000 1 90 01:31 20.04.2020
4490 Clear 4 1023 45 10000 2.6 90 00:47 20.04.2020
4491 Clear 5 1023 48 10000 3.6 80 00:27 20.04.2020
4492 Clear 6 1023 48 10000 2.1 70 23:54 19.04.2020
4493 Clear 6 1022 45 10000 2.6 70 23:36 19.04.2020
4494 Clear 7 1022 45 10000 2.6 70 23:18 19.04.2020
4495 Clear 7 1022 45 10000 2.6 70 23:18 19.04.2020
4496 Clear 8 1022 45 10000 3.6 70 22:39 19.04.2020
4497 Clear 8 1022 45 10000 3.6 70 22:21 19.04.2020
4498 Clear 9 1022 42 10000 4.1 70 21:56 19.04.2020
4499 Clear 9 1021 39 10000 3.6 60 21:37 19.04.2020
4500 Clear 9 1021 39 10000 3.6 60 21:18 19.04.2020
4501 Clear 9 1021 37 10000 5.1 60 20:41 19.04.2020
4502 Clear 11 1021 37 10000 5.1 60 20:21 19.04.2020
4503 Clear 12 1020 32 10000 5.7 60 19:59 19.04.2020
4504 Clear 13 1020 30 10000 5.7 60 19:40 19.04.2020
4505 Clear 13 1020 30 10000 5.7 60 19:22 19.04.2020
4506 Clear 14 1020 28 10000 6.2 70 18:58 19.04.2020
4507 Clear 14 1020 28 10000 6.2 70 18:39 19.04.2020
4508 Clear 14 1020 28 10000 6.2 70 18:20 19.04.2020
4509 Clear 15 1020 26 10000 6.7 80 17:57 19.04.2020
4510 Clear 15 1020 28 10000 6.2 40 17:39 19.04.2020
4511 Clear 15 1020 28 10000 6.2 40 17:21 19.04.2020
4512 Clear 15 1020 26 10000 5.7 40 16:57 19.04.2020
4513 Clear 15 1020 26 10000 6.2 70 16:38 19.04.2020
4514 Clear 15 1020 26 10000 6.2 70 16:20 19.04.2020
4515 Clear 15 1020 26 10000 6.7 70 15:43 19.04.2020
4516 Clouds 15 1020 26 10000 6.7 70 15:22 19.04.2020
4517 Clouds 15 1020 28 10000 5.7 50 14:56 19.04.2020
4518 Clouds 14 1020 28 10000 6.2 80 14:37 19.04.2020
4519 Clouds 14 1020 28 10000 6.2 80 14:19 19.04.2020
4520 Clouds 14 1020 32 10000 6.7 70 13:40 19.04.2020
4521 Clouds 14 1020 32 10000 6.7 70 13:21 19.04.2020
4522 Clouds 14 1020 34 10000 5.7 60 12:58 19.04.2020
4523 Clouds 13 1020 34 10000 6.7 70 12:40 19.04.2020
4524 Clouds 11 1020 34 10000 6.7 70 12:20 19.04.2020
4525 Clouds 11 1019 39 10000 5.7 70 11:38 19.04.2020
4526 Clouds 11 1019 39 10000 5.7 70 11:19 19.04.2020
4527 Clouds 10 1019 45 10000 6.7 60 10:58 19.04.2020
4528 Clouds 10 1019 48 10000 5.7 50 10:40 19.04.2020
4529 Clouds 9 1019 48 10000 5.7 50 10:20 19.04.2020
4530 Clouds 9 1018 42 10000 4.6 50 09:46 19.04.2020
4531 Clouds 8 1018 45 10000 5.7 60 09:28 19.04.2020
4532 Clouds 8 1018 42 10000 4.6 60 08:59 19.04.2020
4533 Clouds 8 1018 45 10000 4.6 60 08:38 19.04.2020
4534 Clouds 8 1018 45 10000 4.6 60 08:18 19.04.2020
4535 Clouds 8 1017 52 10000 1.5 350 07:44 19.04.2020
4536 Clouds 7 1017 52 10000 1.5 350 07:25 19.04.2020
4537 Clouds 7 1016 56 10000 1.5 20 06:32 19.04.2020
4538 Clouds 8 1016 45 10000 3.1 30 05:58 19.04.2020
4539 Clouds 8 1015 49 10000 3.6 60 04:56 19.04.2020
4540 Clouds 9 1015 49 10000 4.1 50 03:21 19.04.2020
4541 Clouds 9 1015 49 10000 3.6 50 02:22 19.04.2020
4542 Clouds 10 1015 46 10000 1.5 10 01:39 19.04.2020
4543 Clouds 10 1015 46 10000 1.5 10 01:18 19.04.2020
4544 Clouds 11 1015 40 10000 2.6 50 00:38 19.04.2020
4545 Clouds 11 1015 40 10000 2.6 50 00:19 19.04.2020
4546 Clouds 11 1015 40 10000 3.6 20 23:40 18.04.2020
4547 Clouds 12 1015 40 10000 3.6 20 23:19 18.04.2020
4548 Clouds 12 1015 61 10000 3.1 60 22:43 18.04.2020
4549 Clouds 13 1015 61 10000 3.1 60 22:23 18.04.2020
4550 Clouds 13 1015 33 10000 3.1 40 21:58 18.04.2020
4551 Clouds 13 1015 35 10000 2.1 50 21:39 18.04.2020
4552 Clouds 14 1015 35 10000 2.1 50 21:21 18.04.2020
4553 Clouds 14 1015 30 10000 2.6 20 20:58 18.04.2020
4554 Clouds 15 1014 29 10000 3.1 40 20:40 18.04.2020
4555 Clouds 15 1014 29 10000 3.1 40 20:18 18.04.2020
4556 Clouds 16 1014 61 10000 3.6 10 19:41 18.04.2020
4557 Clouds 17 1014 61 10000 3.6 10 19:22 18.04.2020
4558 Clouds 18 1014 32 10000 2.6 310 18:39 18.04.2020
4559 Clear 19 1014 32 10000 2.6 310 18:20 18.04.2020
4560 Clear 19 1014 45 10000 2.6 350 17:58 18.04.2020
4561 Clear 20 1015 32 10000 3.1 330 17:40 18.04.2020
4562 Clear 19 1015 32 10000 3.1 330 17:20 18.04.2020
4563 Clear 20 1015 30 10000 1.5 0 16:43 18.04.2020
4564 Clear 20 1015 30 10000 1.5 0 16:22 18.04.2020
4565 Clear 20 1015 30 10000 2.1 0 15:56 18.04.2020
4566 Clear 20 1015 29 10000 2.6 0 15:37 18.04.2020
4567 Clouds 20 1016 32 10000 2.1 0 15:19 18.04.2020
4568 Clouds 19 1016 32 10000 2.6 0 14:44 18.04.2020
4569 Clouds 19 1016 32 10000 2.6 0 14:24 18.04.2020
4570 Clouds 19 1016 34 10000 2.6 330 13:44 18.04.2020
4571 Clouds 18 1016 34 10000 2.6 330 13:25 18.04.2020
4572 Clouds 18 1017 39 10000 2.1 60 12:56 18.04.2020
4573 Clouds 18 1017 39 10000 2.1 60 12:56 18.04.2020
4574 Clouds 19 1017 39 10000 1.5 0 12:38 18.04.2020
4575 Clouds 17 1017 39 10000 1.5 0 12:19 18.04.2020
4576 Clouds 17 1017 38 10000 2.1 50 11:42 18.04.2020
4577 Clouds 16 1017 38 10000 2.1 50 11:23 18.04.2020
4578 Clouds 16 1017 47 10000 1.5 10 10:57 18.04.2020
4579 Clouds 16 1017 50 10000 1 0 10:37 18.04.2020
4580 Clouds 14 1017 50 10000 1 0 10:18 18.04.2020
4581 Clouds 12 1017 57 10000 0.5 0 09:42 18.04.2020
4582 Clear 11 1017 57 10000 0.5 0 09:23 18.04.2020
4583 Clear 9 1017 65 10000 0.5 0 08:56 18.04.2020
4584 Clear 9 1017 70 10000 1.5 180 08:38 18.04.2020
4585 Clear 7 1017 75 10000 1.5 170 08:18 18.04.2020
4586 Clear 6 1017 75 10000 1.5 200 07:37 18.04.2020
4587 Clear 6 1017 75 10000 1.5 200 07:37 18.04.2020
4588 Clear 5 1017 62 10000 1 0 06:59 18.04.2020
4589 Clear 5 1017 80 10000 1 0 06:29 18.04.2020
4590 Clear 5 1016 70 10000 1 110 05:42 18.04.2020
4591 Clear 6 1016 65 10000 1.5 50 04:47 18.04.2020
4592 Clear 6 1016 65 10000 1.5 50 04:27 18.04.2020
4593 Clear 8 1017 57 10000 0.5 0 02:49 18.04.2020
4594 Clear 6 1017 57 10000 1.03 130 02:23 18.04.2020
4595 Clear 6 1017 61 10000 1 0 01:58 18.04.2020
4596 Clear 6 1017 57 10000 2.1 110 01:35 18.04.2020
4597 Clear 8 1017 50 10000 2.1 70 00:47 18.04.2020
4598 Clear 9 1017 50 10000 2.1 70 00:23 18.04.2020
4599 Clear 8 1016 57 10000 2.6 70 23:56 17.04.2020
4600 Clear 9 1016 57 10000 1.5 60 23:38 17.04.2020
4601 Clear 9 1016 57 10000 1.5 60 23:19 17.04.2020
4602 Clear 10 1016 54 10000 1.5 70 22:56 17.04.2020
4603 Clear 10 1016 58 10000 1.5 60 22:37 17.04.2020
4604 Clear 10 1016 58 10000 1.5 60 22:19 17.04.2020
4605 Clear 11 1016 54 10000 1.5 60 21:43 17.04.2020
4606 Clouds 11 1016 54 10000 1.5 60 21:22 17.04.2020
4607 Clouds 12 1016 50 10000 1.5 360 20:58 17.04.2020
4608 Clouds 13 1016 54 10000 1.5 340 20:38 17.04.2020
4609 Clouds 13 1016 54 10000 1.5 340 20:19 17.04.2020
4610 Clouds 15 1016 51 10000 2.6 340 19:59 17.04.2020
4611 Clouds 15 1016 48 10000 3.1 330 19:41 17.04.2020
4612 Clouds 16 1016 48 10000 3.1 330 19:22 17.04.2020
4613 Clouds 17 1016 45 10000 2.6 310 18:45 17.04.2020
4614 Clouds 18 1016 45 10000 2.6 310 18:24 17.04.2020
4615 Clouds 18 1016 45 10000 3.6 320 17:57 17.04.2020
4616 Clouds 18 1016 45 10000 4.1 350 17:37 17.04.2020
4617 Clouds 19 1016 45 10000 4.1 350 17:18 17.04.2020
4618 Clouds 19 1016 45 10000 3.1 350 16:43 17.04.2020
4619 Clouds 19 1016 45 10000 3.1 350 16:23 17.04.2020
4620 Clouds 18 1016 45 10000 3.6 340 15:55 17.04.2020
4621 Clouds 18 1016 48 10000 3.6 340 15:37 17.04.2020
4622 Clouds 19 1017 45 10000 3.6 330 15:18 17.04.2020
4623 Clouds 18 1017 48 10000 3.1 330 14:40 17.04.2020
4624 Clouds 17 1017 48 10000 3.1 330 14:22 17.04.2020
4625 Clouds 17 1017 48 10000 2.1 0 13:56 17.04.2020
4626 Clouds 17 1017 48 10000 2.6 0 13:37 17.04.2020
4627 Clouds 16 1017 48 10000 2.6 0 13:18 17.04.2020
4628 Clouds 16 1017 54 10000 2.1 0 12:46 17.04.2020
4629 Clouds 15 1017 54 10000 1.5 0 12:25 17.04.2020
4630 Clouds 15 1017 58 10000 2.1 10 11:42 17.04.2020
4631 Clouds 15 1017 58 10000 2.1 10 11:20 17.04.2020
4632 Clouds 14 1017 62 10000 1 0 10:59 17.04.2020
4633 Clouds 13 1017 57 10000 2.1 340 10:39 17.04.2020
4634 Clouds 13 1017 57 10000 2.1 340 10:19 17.04.2020
4635 Clouds 12 1017 61 10000 1 0 09:54 17.04.2020
4636 Clouds 12 1017 63 0 2.21 355 09:36 17.04.2020
4637 Clouds 11 1017 70 10000 1.5 330 09:18 17.04.2020
4638 Clouds 9 1017 75 10000 1 0 08:44 17.04.2020
4639 Clouds 8 1017 75 10000 1.5 320 08:24 17.04.2020
4640 Clouds 6 1016 75 10000 1 0 07:44 17.04.2020
4641 Clouds 5 1016 81 10000 0.5 0 07:25 17.04.2020
4642 Clouds 5 1016 86 10000 0.5 180 06:57 17.04.2020
4643 Clouds 5 1016 86 10000 0.5 0 06:27 17.04.2020
4644 Clouds 5 1016 81 10000 1 320 05:42 17.04.2020
4645 Clouds 7 1015 57 10000 1 0 03:22 17.04.2020
4646 Clouds 7 1015 57 10000 1 0 03:22 17.04.2020
4647 Clouds 7 1015 66 10000 1 0 02:49 17.04.2020
4648 Clouds 8 1015 62 10000 1 180 01:30 17.04.2020
4649 Clouds 8 1015 79 0 0.46 39 00:59 17.04.2020
4650 Clouds 9 1015 77 0 0.31 139 00:20 17.04.2020
4651 Clouds 10 1015 75 0 0.31 139 23:46 16.04.2020
4652 Clouds 10 1014 74 0 0.31 139 23:24 16.04.2020
4653 Clouds 10 1014 70 0 0.31 139 22:59 16.04.2020
4654 Clouds 10 1014 70 0 0.31 139 22:59 16.04.2020
4655 Clouds 10 1014 70 0 0.31 139 22:39 16.04.2020
4656 Clouds 11 1014 47 10000 0.5 140 22:20 16.04.2020
4657 Clouds 11 1014 47 10000 0.31 139 21:57 16.04.2020
4658 Clouds 12 1014 47 10000 0.31 139 21:38 16.04.2020
4659 Clouds 13 1014 44 10000 1 0 21:19 16.04.2020
4660 Clouds 14 1014 42 10000 1 360 20:42 16.04.2020
4661 Clouds 16 1014 42 10000 1 350 20:22 16.04.2020
4662 Clouds 17 1014 42 10000 1.5 340 19:58 16.04.2020
4663 Clouds 17 1014 42 10000 1.5 340 19:39 16.04.2020
4664 Clouds 19 1014 39 10000 3.1 350 19:19 16.04.2020
4665 Clouds 19 1014 39 10000 3.6 350 18:55 16.04.2020
4666 Clouds 19 1014 39 10000 3.6 350 18:36 16.04.2020
4667 Clouds 20 1014 37 10000 3.6 350 18:18 16.04.2020
4668 Clouds 20 1015 37 10000 4.1 320 17:42 16.04.2020
4669 Clouds 20 1015 34 10000 4.6 340 17:23 16.04.2020
4670 Clouds 20 1015 34 10000 3.6 340 16:55 16.04.2020
4671 Clouds 20 1015 34 10000 3.6 340 16:36 16.04.2020
4672 Clouds 20 1015 32 10000 4.1 310 16:18 16.04.2020
4673 Clouds 20 1015 34 10000 3.6 300 15:40 16.04.2020
4674 Clouds 20 1016 34 10000 3.6 270 15:19 16.04.2020
4675 Clouds 19 1016 34 10000 4.6 290 14:58 16.04.2020
4676 Clouds 19 1016 34 10000 4.6 290 14:38 16.04.2020
4677 Clouds 19 1016 34 10000 3.6 280 14:19 16.04.2020
4678 Clouds 19 1017 36 10000 4.6 300 13:55 16.04.2020
4679 Clouds 19 1017 36 10000 4.6 300 13:36 16.04.2020
4680 Clouds 19 1017 36 10000 3.1 280 13:18 16.04.2020
4681 Clouds 19 1017 36 10000 4.1 270 12:55 16.04.2020
4682 Clouds 18 1017 36 10000 4.1 270 12:36 16.04.2020
4683 Clouds 17 1017 38 10000 3.6 280 12:18 16.04.2020
4684 Clouds 16 1018 41 10000 3.1 260 11:41 16.04.2020
4685 Clouds 16 1018 41 10000 3.6 280 11:22 16.04.2020
4686 Clouds 16 1018 41 10000 4.1 260 10:57 16.04.2020
4687 Clouds 16 1018 41 10000 4.1 260 10:38 16.04.2020
4688 Clouds 15 1018 44 10000 3.1 230 10:19 16.04.2020
4689 Clouds 14 1018 47 10000 2.1 260 09:57 16.04.2020
4690 Clouds 13 1018 47 10000 2.1 260 09:38 16.04.2020
4691 Clouds 11 1018 50 10000 3.6 220 09:19 16.04.2020
4692 Clouds 10 1018 57 10000 3.6 210 08:41 16.04.2020
4693 Clouds 8 1018 66 10000 3.6 210 08:22 16.04.2020
4694 Clouds 6 1018 67 10000 3.6 200 07:46 16.04.2020
4695 Clouds 5 1018 67 10000 3.6 210 07:26 16.04.2020
4696 Clouds 4 1018 65 10000 3.6 210 06:45 16.04.2020
4697 Clear 4 1019 65 10000 3.6 210 06:26 16.04.2020
4698 Clear 4 1019 65 10000 3.1 210 05:37 16.04.2020
4699 Clear 4 1019 65 10000 3.6 200 04:29 16.04.2020
4700 Clear 4 1019 65 10000 4.1 200 03:24 16.04.2020
4701 Clear 4 1019 60 10000 4.1 210 02:52 16.04.2020
4702 Clear 4 1019 60 10000 4.1 210 02:32 16.04.2020
4703 Clear 4 1020 60 10000 3.6 200 01:20 16.04.2020
4704 Clear 5 1020 56 10000 2.1 200 00:38 16.04.2020
4705 Clear 5 1020 56 10000 3.6 210 00:18 16.04.2020
4706 Clear 6 1020 52 10000 3.1 210 23:43 15.04.2020
4707 Clear 6 1021 52 10000 3.6 210 23:22 15.04.2020
4708 Clear 6 1021 66 0 2.52 220 22:58 15.04.2020
4709 Clear 6 1021 49 10000 3.1 220 22:37 15.04.2020
4710 Clear 6 1021 46 10000 2.1 240 22:19 15.04.2020
4711 Clear 7 1021 46 10000 1.5 250 21:41 15.04.2020
4712 Clouds 8 1021 43 10000 2.1 240 21:23 15.04.2020
4713 Clouds 8 1021 40 10000 1.5 260 20:59 15.04.2020
4714 Clouds 8 1021 40 10000 1.5 260 20:59 15.04.2020
4715 Clouds 9 1021 40 10000 1.5 260 20:41 15.04.2020
4716 Clouds 10 1021 40 10000 1.5 270 20:22 15.04.2020
4717 Clouds 12 1021 73 10000 2.6 280 19:59 15.04.2020
4718 Clouds 13 1021 73 10000 2.6 280 19:39 15.04.2020
4719 Clouds 13 1021 37 10000 3.6 300 19:18 15.04.2020
4720 Clouds 14 1021 35 10000 5.1 300 18:41 15.04.2020
4721 Clouds 14 1021 35 10000 5.7 300 18:22 15.04.2020
4722 Clouds 14 1021 35 10000 4.6 280 17:58 15.04.2020
4723 Clouds 15 1021 35 10000 4.6 280 17:38 15.04.2020
4724 Clouds 15 1021 37 10000 4.1 290 17:20 15.04.2020
4725 Clouds 14 1021 37 10000 5.7 270 16:56 15.04.2020
4726 Clouds 14 1021 37 10000 5.7 270 16:37 15.04.2020
4727 Clouds 14 1022 37 10000 5.7 300 16:19 15.04.2020
4728 Clouds 14 1022 55 10000 5.1 290 15:56 15.04.2020
4729 Clouds 14 1022 55 10000 5.1 290 15:37 15.04.2020
4730 Clouds 13 1022 37 10000 5.1 280 15:19 15.04.2020
4731 Clouds 13 1022 53 10000 5.7 270 14:55 15.04.2020
4732 Clouds 13 1022 54 10000 5.7 270 14:37 15.04.2020
4733 Clouds 12 1022 54 10000 6.2 260 14:19 15.04.2020
4734 Clouds 12 1022 54 10000 5.7 270 13:56 15.04.2020
4735 Clouds 12 1022 54 10000 5.7 270 13:36 15.04.2020
4736 Clouds 12 1023 54 10000 6.2 270 13:18 15.04.2020
4737 Clouds 11 1023 46 10000 5.1 280 12:42 15.04.2020
4738 Clouds 9 1023 59 10000 6.2 280 12:23 15.04.2020
4739 Clouds 9 1024 59 10000 6.2 260 11:58 15.04.2020
4740 Clouds 8 1024 59 10000 6.2 260 11:39 15.04.2020
4741 Clouds 8 1023 52 10000 6.2 280 11:21 15.04.2020
4742 Clouds 8 1024 59 10000 6.2 270 10:39 15.04.2020
4743 Clouds 8 1024 56 10000 5.1 270 10:21 15.04.2020
4744 Clouds 6 1023 60 10000 5.1 250 09:58 15.04.2020
4745 Clouds 6 1023 60 10000 5.1 250 09:40 15.04.2020
4746 Clouds 5 1024 60 10000 4.1 250 09:21 15.04.2020
4747 Clouds 4 1024 64 10000 4.1 250 08:58 15.04.2020
4748 Clouds 3 1024 64 10000 4.1 250 08:40 15.04.2020
4749 Clouds 3 1023 69 10000 3.6 260 08:19 15.04.2020
4750 Clouds 2 1023 64 10000 4.1 250 07:53 15.04.2020
4751 Clouds 2 1023 64 10000 3.1 250 07:31 15.04.2020
4752 Clouds 1 1023 64 10000 3.1 260 06:33 15.04.2020
4753 Clouds 1 1023 64 10000 3.1 250 05:50 15.04.2020
4754 Clouds 1 1023 64 10000 3.1 260 05:18 15.04.2020
4755 Clouds 1 1023 64 10000 2.6 250 04:43 15.04.2020
4756 Clouds 1 1023 64 10000 2.6 260 03:26 15.04.2020
4757 Clouds 1 1023 64 10000 2.1 250 02:57 15.04.2020
4758 Clouds 1 1023 64 10000 2.6 250 01:57 15.04.2020
4759 Clouds 1 1023 64 10000 2.6 250 01:39 15.04.2020
4760 Clouds 1 1023 60 10000 2.6 260 01:18 15.04.2020
4761 Clouds 1 1023 59 10000 2.6 250 00:36 15.04.2020
4762 Clear 2 1023 55 10000 2.6 260 00:18 15.04.2020
4763 Clear 2 1023 55 10000 2.6 260 23:54 14.04.2020
4764 Clear 2 1023 55 10000 2.6 260 23:36 14.04.2020
4765 Clear 2 1023 51 10000 2.6 250 23:18 14.04.2020
4766 Clear 2 1023 48 10000 2.6 250 22:54 14.04.2020
4767 Clear 3 1023 48 10000 2.6 250 22:36 14.04.2020
4768 Clear 3 1023 48 10000 2.1 250 22:18 14.04.2020
4769 Clear 3 1023 44 10000 2.6 250 21:54 14.04.2020
4770 Clear 3 1023 44 10000 2.6 250 21:36 14.04.2020
4771 Clouds 3 1023 44 10000 2.1 250 21:18 14.04.2020
4772 Clouds 4 1023 41 10000 2.1 260 20:40 14.04.2020
4773 Clouds 5 1022 41 10000 2.6 270 20:22 14.04.2020
4774 Clouds 6 1022 36 10000 4.6 290 19:57 14.04.2020
4775 Clouds 7 1022 36 10000 4.6 290 19:38 14.04.2020
4776 Clouds 7 1022 36 10000 4.6 290 19:38 14.04.2020
4777 Clouds 7 1022 36 10000 4.6 280 19:20 14.04.2020
4778 Clouds 8 1022 33 10000 5.1 290 18:55 14.04.2020
4779 Clouds 8 1022 33 10000 5.1 290 18:37 14.04.2020
4780 Clouds 8 1022 36 10000 5.7 300 18:18 14.04.2020
4781 Clouds 8 1022 39 10000 5.1 310 17:55 14.04.2020
4782 Clouds 8 1022 39 10000 5.1 310 17:36 14.04.2020
4783 Clouds 8 1022 39 10000 5.7 300 17:18 14.04.2020
4784 Clouds 8 1022 42 10000 5.1 300 16:41 14.04.2020
4785 Clouds 8 1022 42 10000 5.7 310 16:22 14.04.2020
4786 Clouds 8 1022 39 10000 5.1 310 15:57 14.04.2020
4787 Clouds 8 1022 39 10000 5.1 310 15:38 14.04.2020
4788 Clouds 8 1022 39 10000 5.1 300 15:19 14.04.2020
4789 Clouds 8 1022 36 10000 5.1 310 14:57 14.04.2020
4790 Clouds 7 1022 36 10000 5.1 310 14:39 14.04.2020
4791 Clouds 7 1022 36 10000 5.1 310 14:39 14.04.2020
4792 Clouds 7 1022 39 10000 5.1 330 14:21 14.04.2020
4793 Clouds 7 1022 39 10000 5.1 330 14:21 14.04.2020
4794 Clouds 7 1022 39 10000 5.1 320 13:44 14.04.2020
4795 Clouds 7 1022 38 10000 6.2 300 13:24 14.04.2020
4796 Clouds 7 1022 41 10000 4.6 330 12:59 14.04.2020
4797 Clouds 7 1022 41 10000 4.6 330 12:39 14.04.2020
4798 Clouds 7 1022 41 10000 4.6 330 12:39 14.04.2020
4799 Clouds 6 1022 41 10000 5.1 310 12:20 14.04.2020
4800 Clouds 6 1022 48 10000 6.2 320 11:54 14.04.2020
4801 Clouds 6 1022 48 10000 6.2 320 11:36 14.04.2020
4802 Clouds 5 1022 51 10000 5.7 340 11:18 14.04.2020
4803 Clouds 5 1021 56 10000 5.7 340 10:41 14.04.2020
4804 Clouds 5 1021 64 10000 4.6 330 10:23 14.04.2020
4805 Clouds 3 1021 69 10000 5.1 330 09:42 14.04.2020
4806 Clouds 3 1021 69 10000 5.1 330 09:24 14.04.2020
4807 Clouds 2 1020 74 10000 5.1 320 08:57 14.04.2020
4808 Clouds 2 1020 74 10000 5.1 320 08:39 14.04.2020
4809 Snow 1 1021 82 0 5.02 305 08:21 14.04.2020
4810 Clouds 2 1020 74 10000 4.6 310 07:53 14.04.2020
4811 Clouds 1 1019 74 10000 4.1 310 07:28 14.04.2020
4812 Clouds 1 1019 74 10000 5.1 310 06:47 14.04.2020
4813 Clouds 1 1018 69 10000 3.1 300 05:55 14.04.2020
4814 Clouds 2 1018 59 10000 3.6 290 03:52 14.04.2020
4815 Snow 2 1017 51 10000 5.1 310 02:53 14.04.2020
4816 Clouds 3 1017 44 10000 6.7 330 01:39 14.04.2020
4817 Clouds 3 1017 48 10000 6.2 310 01:18 14.04.2020
4818 Clouds 4 1017 51 10000 4.6 290 00:36 14.04.2020
4819 Clouds 4 1016 51 10000 1.5 250 00:18 14.04.2020
4820 Clouds 3 1016 51 10000 1.5 250 23:40 13.04.2020
4821 Clouds 3 1016 51 10000 1.5 310 23:22 13.04.2020
4822 Clouds 4 1016 48 10000 2.1 320 22:57 13.04.2020
4823 Clouds 4 1016 48 10000 2.1 320 22:39 13.04.2020
4824 Clouds 5 1016 48 10000 2.1 320 22:20 13.04.2020
4825 Clouds 5 1016 48 10000 2.1 320 21:55 13.04.2020
4826 Clouds 5 1016 48 10000 2.1 320 21:37 13.04.2020
4827 Clouds 5 1016 48 10000 2.6 330 21:19 13.04.2020
4828 Clouds 6 1016 52 10000 2.6 320 20:41 13.04.2020
4829 Clouds 6 1015 45 10000 3.1 350 20:21 13.04.2020
4830 Clouds 7 1015 42 10000 4.6 340 20:00 13.04.2020
4831 Clouds 7 1015 42 10000 4.6 340 20:00 13.04.2020
4832 Clouds 7 1015 42 10000 4.6 340 19:38 13.04.2020
4833 Clouds 7 1015 42 10000 4.6 340 19:20 13.04.2020
4834 Clouds 7 1015 39 10000 5.1 330 18:59 13.04.2020
4835 Clouds 8 1015 39 10000 5.1 330 18:39 13.04.2020
4836 Clouds 8 1015 42 10000 6.7 340 18:20 13.04.2020
4837 Clouds 8 1015 42 10000 6.7 340 18:20 13.04.2020
4838 Clouds 8 1015 42 10000 6.2 340 17:58 13.04.2020
4839 Clouds 8 1015 42 10000 6.2 340 17:58 13.04.2020
4840 Clouds 8 1015 42 10000 6.2 340 17:58 13.04.2020
4841 Clouds 8 1015 42 10000 6.2 340 17:38 13.04.2020
4842 Clouds 8 1015 48 10000 6.2 320 17:19 13.04.2020
4843 Clouds 8 1015 48 10000 7.7 310 16:58 13.04.2020
4844 Clouds 8 1015 48 10000 7.7 310 16:40 13.04.2020
4845 Clouds 8 1015 48 10000 7.7 310 16:40 13.04.2020
4846 Clouds 8 1015 49 10000 6.2 330 16:21 13.04.2020
4847 Clouds 8 1015 51 10000 6.7 320 15:58 13.04.2020
4848 Clouds 8 1015 51 10000 6.7 320 15:40 13.04.2020
4849 Clouds 8 1015 63 10000 7.2 320 15:21 13.04.2020
4850 Clouds 7 1015 70 10000 7.2 320 14:56 13.04.2020
4851 Clouds 6 1015 70 10000 7.2 320 14:38 13.04.2020
4852 Clouds 6 1015 70 10000 7.2 320 14:38 13.04.2020
4853 Rain 6 1015 87 10000 4.6 320 14:20 13.04.2020
4854 Rain 6 1015 86 10000 6.7 340 13:55 13.04.2020
4855 Rain 6 1015 86 10000 6.7 340 13:37 13.04.2020
4856 Rain 6 1015 86 10000 6.7 340 13:37 13.04.2020
4857 Rain 6 1014 87 10000 5.7 310 13:18 13.04.2020
4858 Rain 6 1014 87 10000 5.1 300 12:56 13.04.2020
4859 Rain 7 1014 87 10000 5.1 300 12:38 13.04.2020
4860 Rain 7 1014 93 10000 4.6 320 12:19 13.04.2020
4861 Rain 8 1013 93 10000 5.1 330 11:43 13.04.2020
4862 Rain 8 1013 93 10000 4.1 320 11:19 13.04.2020
4863 Rain 8 1013 87 10000 4.6 330 10:56 13.04.2020
4864 Rain 9 1013 87 10000 4.6 330 10:38 13.04.2020
4865 Rain 9 1012 87 10000 3.6 330 10:19 13.04.2020
4866 Rain 10 1012 87 10000 4.6 340 09:55 13.04.2020
4867 Rain 11 1012 87 10000 4.6 340 09:36 13.04.2020
4868 Rain 11 1011 76 10000 5.1 340 09:18 13.04.2020
4869 Clouds 11 1011 66 10000 6.7 320 08:43 13.04.2020
4870 Clouds 12 1010 62 10000 3.6 270 08:24 13.04.2020
4871 Clouds 10 1009 66 10000 2.6 270 07:42 13.04.2020
4872 Clouds 9 1010 71 10000 2.1 310 07:24 13.04.2020
4873 Clouds 9 1009 66 10000 3.1 190 06:47 13.04.2020
4874 Clouds 9 1009 66 10000 2.1 230 06:26 13.04.2020
4875 Rain 10 1009 58 10000 2.1 260 05:40 13.04.2020
4876 Rain 10 1010 66 10000 2.1 250 05:18 13.04.2020
4877 Rain 11 1010 66 10000 2.6 180 04:28 13.04.2020
4878 Rain 11 1010 62 10000 1 0 03:50 13.04.2020
4879 Rain 12 1010 62 10000 1 0 03:31 13.04.2020
4880 Rain 11 1010 54 10000 1.5 230 02:39 13.04.2020
4881 Rain 13 1010 47 10000 2.1 210 01:45 13.04.2020
4882 Rain 13 1011 50 10000 2.6 180 01:27 13.04.2020
4883 Rain 13 1011 47 10000 1.5 210 00:44 13.04.2020
4884 Rain 13 1011 41 10000 1 0 00:24 13.04.2020
4885 Rain 14 1011 41 10000 1.5 250 23:55 12.04.2020
4886 Rain 14 1011 41 10000 1.5 250 23:36 12.04.2020
4887 Rain 14 1011 36 10000 1 0 23:18 12.04.2020
4888 Rain 15 1012 44 10000 3.1 320 22:41 12.04.2020
4889 Rain 15 1011 36 10000 3.1 190 22:19 12.04.2020
4890 Rain 15 1011 36 10000 3.1 190 22:19 12.04.2020
4891 Rain 14 1012 33 10000 2.6 190 21:59 12.04.2020
4892 Clouds 15 1012 33 10000 2.6 190 21:37 12.04.2020
4893 Clouds 15 1012 34 10000 3.1 170 21:19 12.04.2020
4894 Clouds 16 1012 29 10000 1 220 20:43 12.04.2020
4895 Clouds 16 1012 29 10000 1.5 210 20:23 12.04.2020
4896 Clouds 17 1012 40 0 1.54 214 19:58 12.04.2020
4897 Clouds 18 1012 28 10000 1 250 19:40 12.04.2020
4898 Clouds 20 1013 28 10000 2.1 240 19:19 12.04.2020
4899 Clouds 21 1013 32 10000 2.1 230 18:57 12.04.2020
4900 Clouds 21 1013 32 10000 2.1 230 18:57 12.04.2020
4901 Clouds 21 1013 32 10000 2.1 230 18:38 12.04.2020
4902 Clear 21 1013 28 10000 2.1 240 18:19 12.04.2020
4903 Clear 21 1013 26 10000 2.1 280 17:54 12.04.2020
4904 Clear 22 1013 26 10000 2.1 280 17:36 12.04.2020
4905 Clear 22 1013 28 10000 2.6 270 17:18 12.04.2020
4906 Clear 22 1014 24 10000 4.1 270 16:41 12.04.2020
4907 Clear 22 1014 40 10000 3.6 220 16:20 12.04.2020
4908 Clear 22 1014 40 10000 3.1 270 15:52 12.04.2020
4909 Clear 22 1014 40 10000 3.1 270 15:31 12.04.2020
4910 Clear 21 1015 24 10000 2.1 0 14:58 12.04.2020
4911 Clear 22 1015 24 10000 2.1 0 14:39 12.04.2020
4912 Clear 21 1015 26 10000 3.1 270 14:20 12.04.2020
4913 Clear 21 1016 28 10000 3.6 270 13:56 12.04.2020
4914 Clear 21 1016 28 10000 3.6 270 13:36 12.04.2020
4915 Clear 21 1016 28 10000 4.1 260 13:18 12.04.2020
4916 Clear 21 1017 30 10000 3.6 250 12:45 12.04.2020
4917 Clear 19 1017 32 10000 3.6 280 12:21 12.04.2020
4918 Clear 18 1017 37 10000 4.1 230 11:58 12.04.2020
4919 Clear 18 1017 37 10000 4.1 230 11:38 12.04.2020
4920 Clear 18 1018 39 10000 3.6 230 11:18 12.04.2020
4921 Clear 18 1018 42 10000 3.1 210 10:56 12.04.2020
4922 Clear 17 1018 42 10000 3.1 210 10:38 12.04.2020
4923 Clear 16 1018 47 10000 3.6 210 10:19 12.04.2020
4924 Clear 15 1018 50 10000 3.1 180 09:56 12.04.2020
4925 Clear 14 1018 50 10000 3.1 180 09:37 12.04.2020
4926 Clouds 11 1019 57 10000 1.5 160 09:19 12.04.2020
4927 Clouds 11 1019 57 10000 1.5 160 09:19 12.04.2020
4928 Clouds 10 1019 57 10000 2.1 160 08:50 12.04.2020
4929 Clouds 8 1019 70 10000 1.5 150 08:30 12.04.2020
4930 Clouds 7 1019 75 10000 4.1 160 07:47 12.04.2020
4931 Clouds 6 1019 65 10000 3.6 160 07:19 12.04.2020
4932 Clouds 6 1019 65 10000 2.6 170 06:54 12.04.2020
4933 Clouds 6 1019 68 10000 2.1 160 06:26 12.04.2020
4934 Clouds 5 1019 69 10000 1.5 170 05:42 12.04.2020
4935 Clouds 6 1020 69 10000 1 0 04:32 12.04.2020
4936 Clouds 6 1021 65 10000 1.5 200 03:29 12.04.2020
4937 Clouds 6 1021 65 10000 1 130 02:48 12.04.2020
4938 Clouds 5 1021 60 10000 1 0 02:29 12.04.2020
4939 Clouds 6 1022 48 10000 2.1 130 01:23 12.04.2020
4940 Clouds 6 1023 42 10000 1 130 00:43 12.04.2020
4941 Clouds 7 1023 39 10000 2.1 160 00:21 12.04.2020
4942 Clouds 7 1023 37 10000 2.1 170 23:58 11.04.2020
4943 Clouds 7 1023 37 10000 2.1 170 23:40 11.04.2020
4944 Clouds 7 1023 34 10000 2.1 170 23:22 11.04.2020
4945 Clouds 7 1023 39 10000 1.5 150 22:38 11.04.2020
4946 Clouds 8 1023 34 10000 1 0 22:20 11.04.2020
4947 Clouds 8 1024 59 0 1.56 154 21:56 11.04.2020
4948 Clouds 9 1024 32 10000 1 90 21:36 11.04.2020
4949 Clouds 9 1024 37 10000 1 40 21:18 11.04.2020
4950 Clouds 10 1024 40 10000 1 0 20:56 11.04.2020
4951 Clouds 10 1024 40 10000 1 0 20:38 11.04.2020
4952 Clouds 11 1024 62 10000 1 0 20:19 11.04.2020
4953 Clouds 12 1024 41 10000 1.5 350 19:57 11.04.2020
4954 Clouds 14 1024 41 10000 1.5 350 19:38 11.04.2020
4955 Clouds 14 1024 38 10000 2.1 330 19:18 11.04.2020
4956 Clouds 14 1024 38 10000 2.1 330 19:18 11.04.2020
4957 Clouds 14 1024 38 10000 2.1 330 19:18 11.04.2020
4958 Clouds 15 1024 62 10000 1.5 360 18:55 11.04.2020
4959 Clouds 15 1024 62 10000 1.5 360 18:37 11.04.2020
4960 Clouds 15 1024 38 10000 2.1 10 18:18 11.04.2020
4961 Clouds 16 1024 45 10000 2.1 350 17:58 11.04.2020
4962 Clouds 16 1024 45 10000 2.1 350 17:38 11.04.2020
4963 Clouds 16 1024 45 10000 2.6 0 17:19 11.04.2020
4964 Clouds 16 1025 33 10000 1.5 0 16:43 11.04.2020
4965 Clouds 16 1025 33 10000 2.6 300 16:22 11.04.2020
4966 Clouds 15 1025 45 10000 2.1 0 15:56 11.04.2020
4967 Clouds 16 1025 45 10000 2.1 0 15:36 11.04.2020
4968 Clouds 15 1026 45 10000 1 0 15:18 11.04.2020
4969 Clouds 15 1026 33 10000 2.6 0 14:42 11.04.2020
4970 Clouds 15 1026 35 10000 1 0 14:23 11.04.2020
4971 Clouds 14 1026 46 10000 2.1 280 13:59 11.04.2020
4972 Clouds 14 1026 46 10000 2.1 280 13:38 11.04.2020
4973 Clouds 14 1026 43 10000 1 0 13:19 11.04.2020
4974 Clouds 13 1026 46 10000 2.1 0 12:41 11.04.2020
4975 Clouds 12 1027 58 10000 1.5 0 12:20 11.04.2020
4976 Clouds 12 1027 53 10000 2.1 360 11:57 11.04.2020
4977 Clouds 11 1027 53 10000 2.1 360 11:39 11.04.2020
4978 Clouds 11 1027 53 10000 1.5 350 11:19 11.04.2020
4979 Clouds 10 1027 57 10000 1 0 10:43 11.04.2020
4980 Clouds 9 1027 61 10000 1 0 10:23 11.04.2020
4981 Clouds 9 1027 61 10000 1 0 09:59 11.04.2020
4982 Clouds 9 1027 61 10000 1 0 09:59 11.04.2020
4983 Clouds 8 1027 61 10000 1 0 09:40 11.04.2020
4984 Clouds 7 1027 70 10000 2.1 330 09:21 11.04.2020
4985 Clouds 6 1026 70 10000 1.5 320 08:50 11.04.2020
4986 Clouds 5 1026 75 10000 2.1 320 08:29 11.04.2020
4987 Clouds 3 1026 75 10000 2.1 300 07:55 11.04.2020
4988 Clouds 2 1026 75 10000 2.1 300 07:37 11.04.2020
4989 Clouds 2 1026 74 10000 1.5 280 07:18 11.04.2020
4990 Clouds 2 1026 74 10000 2.1 300 06:35 11.04.2020
4991 Clear 3 1025 82 10000 1.5 270 05:56 11.04.2020
4992 Clear 4 1025 82 10000 1.5 330 03:42 11.04.2020
4993 Clouds 5 1025 70 10000 1.5 340 02:49 11.04.2020
4994 Clouds 7 1024 65 10000 2.6 340 01:25 11.04.2020
4995 Clouds 7 1024 70 10000 2.1 330 00:54 11.04.2020
4996 Clouds 7 1024 70 10000 2.1 330 00:36 11.04.2020
4997 Clouds 7 1024 66 10000 2.6 320 00:18 11.04.2020
4998 Clouds 8 1024 61 10000 2.6 320 23:41 10.04.2020
4999 Clouds 8 1024 61 10000 2.1 310 23:19 10.04.2020
5000 Clouds 8 1024 61 10000 2.6 320 22:55 10.04.2020
5001 Clouds 8 1024 61 10000 2.6 320 22:37 10.04.2020
5002 Clouds 9 1024 61 10000 1.5 320 22:18 10.04.2020
5003 Clouds 9 1024 61 10000 1.5 320 22:18 10.04.2020
5004 Clouds 9 1024 57 10000 1.5 330 21:41 10.04.2020
5005 Clouds 10 1023 54 10000 1.5 340 21:21 10.04.2020
5006 Clouds 10 1023 54 10000 1.5 360 20:57 10.04.2020
5007 Clouds 11 1023 54 10000 1.5 360 20:38 10.04.2020
5008 Clouds 12 1023 50 10000 1 340 20:19 10.04.2020
5009 Clouds 13 1023 50 10000 1.5 340 19:55 10.04.2020
5010 Clouds 14 1023 50 10000 1.5 340 19:37 10.04.2020
5011 Clouds 14 1023 47 10000 2.6 350 19:18 10.04.2020
5012 Clouds 15 1023 47 10000 3.1 340 18:55 10.04.2020
5013 Clouds 15 1023 47 10000 3.1 340 18:37 10.04.2020
5014 Clouds 15 1023 47 10000 4.1 360 18:19 10.04.2020
5015 Clouds 15 1023 44 10000 4.6 350 17:57 10.04.2020
5016 Clouds 15 1023 44 10000 4.6 350 17:38 10.04.2020
5017 Clouds 15 1023 44 10000 4.1 340 17:19 10.04.2020
5018 Clouds 15 1024 44 10000 4.6 350 16:44 10.04.2020
5019 Clouds 16 1024 41 10000 4.6 340 16:23 10.04.2020
5020 Clouds 16 1024 41 10000 4.6 340 16:23 10.04.2020
5021 Clouds 16 1024 44 10000 4.1 340 15:59 10.04.2020
5022 Clouds 15 1024 44 10000 4.1 340 15:39 10.04.2020
5023 Clouds 15 1024 47 10000 5.7 350 15:21 10.04.2020
5024 Clouds 15 1025 50 10000 5.1 340 14:59 10.04.2020
5025 Clouds 16 1025 50 10000 5.1 340 14:40 10.04.2020
5026 Clouds 16 1025 47 10000 3.1 350 14:22 10.04.2020
5027 Clouds 15 1025 51 10000 4.1 340 13:56 10.04.2020
5028 Clouds 15 1025 51 10000 4.1 340 13:38 10.04.2020
5029 Clouds 15 1026 51 10000 2.1 360 13:19 10.04.2020
5030 Clouds 15 1026 50 10000 2.6 340 12:42 10.04.2020
5031 Clouds 14 1026 54 10000 1.5 350 12:21 10.04.2020
5032 Clouds 14 1026 54 10000 1.5 0 11:54 10.04.2020
5033 Clouds 14 1026 54 10000 1.5 0 11:36 10.04.2020
5034 Clouds 14 1026 54 10000 1 0 11:18 10.04.2020
5035 Clouds 12 1026 58 10000 1.5 40 10:41 10.04.2020
5036 Clouds 12 1026 58 10000 1.5 0 10:22 10.04.2020
5037 Clouds 11 1026 66 10000 0.5 0 09:45 10.04.2020
5038 Clouds 10 1026 71 10000 1 0 09:25 10.04.2020
5039 Clouds 9 1026 70 10000 1 0 08:56 10.04.2020
5040 Clouds 8 1026 70 10000 1 0 08:38 10.04.2020
5041 Clouds 8 1026 70 10000 1 0 08:38 10.04.2020
5042 Clouds 7 1026 81 10000 1.5 150 08:20 10.04.2020
5043 Clouds 6 1026 81 10000 1 90 07:45 10.04.2020
5044 Clouds 6 1026 81 10000 1 70 07:23 10.04.2020
5045 Clouds 5 1026 81 10000 1 0 06:48 10.04.2020
5046 Clouds 5 1026 85 0 0.75 75 06:27 10.04.2020
5047 Clouds 6 1026 81 10000 0.5 320 05:40 10.04.2020
5048 Clouds 5 1026 82 0 0.75 75 04:58 10.04.2020
5049 Clouds 6 1025 75 10000 1 230 03:49 10.04.2020
5050 Clouds 7 1025 70 10000 2.6 30 03:30 10.04.2020
5051 Clouds 8 1025 70 10000 1.5 350 02:48 10.04.2020
5052 Clouds 8 1025 66 10000 2.6 20 02:28 10.04.2020
5053 Clouds 8 1025 66 10000 3.1 40 01:30 10.04.2020
5054 Clouds 8 1025 62 10000 1 40 00:50 10.04.2020
5055 Clear 9 1025 62 10000 1 60 00:24 10.04.2020
5056 Clear 9 1025 58 10000 1 0 23:56 09.04.2020
5057 Clear 9 1025 58 10000 1 0 23:38 09.04.2020
5058 Clear 9 1025 58 10000 1 0 23:19 09.04.2020
5059 Clear 10 1025 58 10000 2.1 10 22:41 09.04.2020
5060 Clear 10 1025 58 10000 2.1 10 22:41 09.04.2020
5061 Clear 10 1024 58 10000 2.6 360 22:23 09.04.2020
5062 Clear 11 1024 54 10000 1.5 360 21:55 09.04.2020
5063 Clear 11 1024 54 10000 1.5 360 21:37 09.04.2020
5064 Clouds 12 1024 54 10000 2.1 360 21:18 09.04.2020
5065 Clouds 13 1024 50 10000 3.6 360 20:41 09.04.2020
5066 Clouds 13 1023 54 10000 3.6 350 20:21 09.04.2020
5067 Clouds 14 1023 47 10000 4.6 340 19:57 09.04.2020
5068 Clouds 15 1023 48 10000 3.6 310 19:37 09.04.2020
5069 Clouds 16 1023 48 10000 3.6 310 19:18 09.04.2020
5070 Clouds 17 1023 45 10000 4.6 320 18:41 09.04.2020
5071 Clouds 17 1022 48 10000 5.7 330 18:20 09.04.2020
5072 Clouds 17 1023 48 10000 5.1 320 17:41 09.04.2020
5073 Clouds 17 1023 51 10000 4.6 340 17:23 09.04.2020
5074 Clouds 17 1023 48 10000 5.1 330 16:56 09.04.2020
5075 Clouds 17 1023 48 10000 5.1 330 16:38 09.04.2020
5076 Clouds 17 1023 48 10000 5.1 330 16:38 09.04.2020
5077 Clouds 18 1023 48 10000 4.6 320 16:18 09.04.2020
5078 Clouds 18 1023 48 10000 4.1 330 15:55 09.04.2020
5079 Clouds 18 1023 48 10000 4.1 330 15:37 09.04.2020
5080 Clear 19 1023 48 10000 5.1 340 15:18 09.04.2020
5081 Clouds 19 1023 45 10000 6.2 310 14:41 09.04.2020
5082 Clouds 18 1023 48 10000 4.6 330 14:21 09.04.2020
5083 Clouds 18 1023 48 10000 4.6 320 13:56 09.04.2020
5084 Clouds 18 1023 48 10000 4.6 320 13:37 09.04.2020
5085 Clouds 18 1023 45 10000 4.1 330 13:18 09.04.2020
5086 Clouds 17 1023 48 10000 3.6 310 12:42 09.04.2020
5087 Clouds 17 1023 47 10000 4.6 340 12:23 09.04.2020
5088 Clouds 16 1023 38 10000 3.1 330 11:59 09.04.2020
5089 Clouds 16 1023 38 10000 3.1 330 11:41 09.04.2020
5090 Clouds 16 1023 44 10000 4.6 330 11:20 09.04.2020
5091 Clouds 15 1023 38 10000 3.1 300 10:57 09.04.2020
5092 Clouds 16 1023 38 10000 3.1 300 10:39 09.04.2020
5093 Clouds 15 1022 41 10000 2.6 310 10:20 09.04.2020
5094 Clouds 14 1022 55 10000 1.5 270 09:56 09.04.2020
5095 Clouds 13 1022 55 10000 1.5 270 09:38 09.04.2020
5096 Clear 12 1022 40 10000 2.6 210 09:19 09.04.2020
5097 Clear 9 1022 43 10000 2.6 210 08:43 09.04.2020
5098 Clear 8 1022 45 10000 2.6 200 08:23 09.04.2020
5099 Clear 8 1021 49 10000 1.5 190 07:55 09.04.2020
5100 Clear 7 1021 52 10000 3.1 210 07:27 09.04.2020
5101 Clear 7 1021 48 10000 2.6 220 06:55 09.04.2020
5102 Clear 7 1021 52 10000 2.6 220 06:18 09.04.2020
5103 Clear 8 1021 48 10000 2.6 210 05:39 09.04.2020
5104 Clear 7 1021 45 10000 2.6 210 03:50 09.04.2020
5105 Clear 9 1022 37 10000 2.1 180 02:27 09.04.2020
5106 Clear 9 1022 37 10000 0.5 0 01:41 09.04.2020
5107 Clear 9 1022 37 10000 1.5 200 01:23 09.04.2020
5108 Clear 9 1022 32 10000 1 0 00:43 09.04.2020
5109 Clear 9 1022 34 10000 2.6 160 00:20 09.04.2020
5110 Clear 10 1022 32 10000 3.6 150 23:58 08.04.2020
5111 Clear 10 1022 32 10000 3.6 150 23:40 08.04.2020
5112 Clear 10 1022 32 10000 3.6 150 23:40 08.04.2020
5113 Clear 10 1022 26 10000 3.6 150 23:21 08.04.2020
5114 Clear 10 1022 50 0 3.16 177 22:43 08.04.2020
5115 Clear 10 1022 48 0 3.16 177 22:24 08.04.2020
5116 Clear 10 1022 48 0 3.16 177 22:24 08.04.2020
5117 Clear 10 1022 45 0 3.16 177 21:56 08.04.2020
5118 Clear 11 1022 47 0 3.16 177 21:38 08.04.2020
5119 Clear 12 1023 46 0 2.45 162 21:19 08.04.2020
5120 Clear 13 1022 22 10000 2.6 170 20:58 08.04.2020
5121 Clear 14 1022 22 10000 2.6 170 20:38 08.04.2020
5122 Clear 16 1022 22 10000 2.6 170 20:20 08.04.2020
5123 Clear 17 1022 23 10000 2.6 170 19:55 08.04.2020
5124 Clear 17 1023 20 10000 3.6 180 19:36 08.04.2020
5125 Clear 19 1023 19 10000 5.1 170 19:18 08.04.2020
5126 Clear 20 1023 19 10000 4.6 170 18:42 08.04.2020
5127 Clear 20 1023 18 10000 2.6 130 18:23 08.04.2020
5128 Clear 20 1023 18 10000 2.6 130 17:56 08.04.2020
5129 Clear 20 1023 18 10000 2.6 130 17:38 08.04.2020
5130 Clear 20 1024 18 10000 4.1 130 17:18 08.04.2020
5131 Clear 21 1024 15 10000 3.6 120 16:42 08.04.2020
5132 Clear 21 1024 15 10000 3.6 120 16:23 08.04.2020
5133 Clear 20 1025 15 10000 5.1 120 15:56 08.04.2020
5134 Clear 20 1025 15 10000 5.1 120 15:37 08.04.2020
5135 Clear 20 1026 16 10000 4.1 120 15:19 08.04.2020
5136 Clear 20 1026 16 10000 4.1 120 14:43 08.04.2020
5137 Clear 20 1026 16 10000 4.6 130 14:25 08.04.2020
5138 Clear 20 1026 16 10000 4.6 130 14:25 08.04.2020
5139 Clear 20 1026 16 10000 4.6 150 13:56 08.04.2020
5140 Clear 20 1026 16 10000 4.6 150 13:37 08.04.2020
5141 Clear 19 1027 17 10000 5.7 130 13:19 08.04.2020
5142 Clear 19 1027 19 10000 5.1 150 12:42 08.04.2020
5143 Clear 18 1028 17 10000 6.2 130 12:18 08.04.2020
5144 Clear 18 1028 17 10000 5.7 140 11:58 08.04.2020
5145 Clear 18 1028 17 10000 5.7 140 11:39 08.04.2020
5146 Clear 17 1028 22 10000 5.1 150 11:21 08.04.2020
5147 Clear 18 1028 29 10000 5.7 150 10:56 08.04.2020
5148 Clear 18 1028 29 10000 5.7 150 10:56 08.04.2020
5149 Clear 17 1029 38 10000 3.6 140 10:37 08.04.2020
5150 Clear 16 1029 38 10000 3.6 140 10:19 08.04.2020
5151 Clear 14 1029 50 10000 3.1 140 09:55 08.04.2020
5152 Clear 13 1029 50 10000 3.1 140 09:37 08.04.2020
5153 Clear 12 1029 54 10000 2.6 130 09:18 08.04.2020
5154 Clear 10 1029 66 10000 2.1 130 08:42 08.04.2020
5155 Clear 9 1029 81 10000 1.5 130 08:23 08.04.2020
5156 Clear 8 1029 76 10000 1.5 130 07:47 08.04.2020
5157 Clear 8 1029 81 10000 1.5 100 07:28 08.04.2020
5158 Clear 8 1029 81 10000 1.5 110 06:59 08.04.2020
5159 Clear 8 1029 81 10000 2.1 90 06:19 08.04.2020
5160 Clear 8 1030 76 10000 2.6 110 04:20 08.04.2020
5161 Clear 10 1031 71 10000 3.6 90 02:49 08.04.2020
5162 Clear 10 1031 71 10000 1.5 90 02:20 08.04.2020
5163 Clear 10 1031 76 10000 1.5 40 01:51 08.04.2020
5164 Clear 10 1031 71 10000 1 20 01:27 08.04.2020
5165 Clear 11 1031 71 10000 1 70 00:41 08.04.2020
5166 Clear 11 1031 71 10000 2.1 100 00:22 08.04.2020
5167 Clear 12 1031 66 10000 4.1 70 23:40 07.04.2020
5168 Clear 12 1031 66 10000 3.1 60 23:22 07.04.2020
5169 Clear 11 1031 66 10000 2.6 60 22:58 07.04.2020
5170 Clear 11 1031 66 10000 2.6 60 22:40 07.04.2020
5171 Clear 12 1031 58 10000 3.1 40 22:21 07.04.2020
5172 Clear 12 1031 58 10000 2.1 40 21:58 07.04.2020
5173 Clear 12 1031 58 10000 2.1 40 21:40 07.04.2020
5174 Rain 13 1030 55 10000 1.5 10 21:20 07.04.2020
5175 Rain 13 1030 63 10000 1.5 340 20:58 07.04.2020
5176 Rain 14 1030 59 10000 1 330 20:39 07.04.2020
5177 Rain 15 1030 59 10000 1 330 20:20 07.04.2020
5178 Rain 16 1030 55 10000 1.5 340 19:57 07.04.2020
5179 Clouds 17 1030 48 10000 3.1 340 19:37 07.04.2020
5180 Clouds 17 1030 48 10000 3.1 340 19:37 07.04.2020
5181 Clouds 18 1030 48 10000 3.1 340 19:19 07.04.2020
5182 Clouds 19 1030 48 10000 3.1 340 18:57 07.04.2020
5183 Clouds 20 1030 45 10000 4.1 340 18:39 07.04.2020
5184 Clouds 20 1030 45 10000 3.1 350 18:20 07.04.2020
5185 Clouds 20 1030 45 10000 3.1 350 17:46 07.04.2020
5186 Clouds 20 1030 45 10000 3.6 320 17:24 07.04.2020
5187 Clear 19 1030 45 0 3.6 330 16:54 07.04.2020
5188 Clear 20 1030 45 0 3.6 330 16:36 07.04.2020
5189 Clear 20 1030 45 10000 3.6 320 16:18 07.04.2020
5190 Clear 20 1030 45 10000 3.6 320 15:42 07.04.2020
5191 Clear 19 1030 48 10000 4.1 340 15:23 07.04.2020
5192 Clear 19 1031 45 10000 2.6 330 14:42 07.04.2020
5193 Clear 19 1031 48 10000 3.1 350 14:23 07.04.2020
5194 Clear 19 1031 48 10000 3.1 350 13:57 07.04.2020
5195 Clear 19 1031 48 10000 3.1 350 13:39 07.04.2020
5196 Clear 19 1031 45 10000 1.5 0 13:19 07.04.2020
5197 Clear 19 1031 45 10000 3.1 310 12:56 07.04.2020
5198 Clear 19 1031 45 10000 3.1 310 12:37 07.04.2020
5199 Clear 16 1031 48 10000 2.6 270 12:18 07.04.2020
5200 Clear 16 1030 48 10000 2.6 280 11:44 07.04.2020
5201 Clear 16 1030 51 10000 3.1 260 11:26 07.04.2020
5202 Clear 15 1030 44 10000 3.6 250 10:59 07.04.2020
5203 Clear 15 1030 44 10000 3.6 250 10:39 07.04.2020
5204 Clear 15 1030 41 10000 3.6 210 10:19 07.04.2020
5205 Clear 14 1029 56 10000 4.1 190 09:46 07.04.2020
5206 Clear 11 1029 40 10000 4.1 190 09:20 07.04.2020
5207 Clear 11 1029 43 10000 3.1 180 08:59 07.04.2020
5208 Clear 10 1029 43 10000 3.1 180 08:39 07.04.2020
5209 Clear 9 1029 43 10000 4.1 160 08:19 07.04.2020
5210 Clear 9 1028 43 10000 2.1 160 07:44 07.04.2020
5211 Clear 8 1028 45 10000 5.1 160 07:26 07.04.2020
5212 Clear 8 1027 45 10000 5.1 150 06:52 07.04.2020
5213 Clear 8 1027 49 10000 4.6 150 06:25 07.04.2020
5214 Clear 8 1027 49 10000 5.1 150 05:50 07.04.2020
5215 Clear 8 1027 45 10000 2.1 220 05:24 07.04.2020
5216 Clear 9 1026 46 10000 3.1 150 03:34 07.04.2020
5217 Clear 9 1026 43 10000 5.1 150 02:59 07.04.2020
5218 Clear 9 1026 63 10000 4.6 150 02:35 07.04.2020
5219 Clear 10 1025 63 10000 6.2 160 01:34 07.04.2020
5220 Clear 10 1025 63 10000 5.7 170 00:53 07.04.2020
5221 Clear 11 1025 59 10000 5.7 170 00:25 07.04.2020
5222 Clear 11 1025 59 10000 5.1 170 23:41 06.04.2020
5223 Clear 11 1025 59 10000 4.1 170 23:21 06.04.2020
5224 Clear 11 1025 59 10000 3.6 160 22:54 06.04.2020
5225 Clear 11 1025 59 10000 3.6 160 22:36 06.04.2020
5226 Clear 11 1025 59 10000 3.1 170 22:18 06.04.2020
5227 Clear 11 1024 31 10000 2.6 170 21:42 06.04.2020
5228 Clear 13 1024 48 0 3.5 174 21:20 06.04.2020
5229 Clear 13 1024 31 10000 3.1 170 20:57 06.04.2020
5230 Clear 13 1024 31 10000 3.1 170 20:39 06.04.2020
5231 Clear 15 1024 29 10000 3.1 170 20:21 06.04.2020
5232 Clear 16 1023 27 10000 4.1 170 19:58 06.04.2020
5233 Clear 17 1023 27 10000 4.1 170 19:38 06.04.2020
5234 Clear 18 1023 25 10000 5.7 170 19:20 06.04.2020
5235 Clear 19 1023 24 10000 6.2 160 18:43 06.04.2020
5236 Clear 20 1023 24 10000 6.2 170 18:24 06.04.2020
5237 Clear 20 1023 22 10000 7.2 160 17:59 06.04.2020
5238 Clear 20 1023 22 10000 7.2 160 17:41 06.04.2020
5239 Clear 20 1023 22 10000 7.2 170 17:18 06.04.2020
5240 Clear 20 1023 22 10000 6.2 150 16:49 06.04.2020
5241 Clear 20 1023 24 10000 7.2 150 16:30 06.04.2020
5242 Clear 19 1024 44 10000 6.7 150 14:59 06.04.2020
5243 Clear 19 1024 44 10000 6.7 150 14:59 06.04.2020
5244 Clear 19 1024 44 10000 6.7 150 14:59 06.04.2020
5245 Clear 19 1024 44 10000 6.7 150 14:59 06.04.2020
5246 Clear 19 1024 44 10000 6.7 150 14:59 06.04.2020
5247 Clear 19 1024 27 10000 6.7 170 13:45 06.04.2020
5248 Clear 18 1024 27 10000 6.7 170 13:23 06.04.2020
5249 Clear 18 1024 29 10000 7.2 180 12:47 06.04.2020
5250 Clear 15 1024 31 10000 7.7 170 12:20 06.04.2020
5251 Clear 15 1024 31 10000 6.2 170 11:46 06.04.2020
5252 Clear 15 1024 31 10000 6.2 170 11:27 06.04.2020
5253 Clear 15 1024 31 10000 6.2 170 11:27 06.04.2020
5254 Clear 15 1024 31 10000 6.2 170 11:27 06.04.2020
5255 Clear 15 1024 31 10000 6.2 170 11:27 06.04.2020
5256 Clear 15 1024 31 10000 6.2 170 11:27 06.04.2020
5257 Clear 15 1024 33 10000 7.7 170 10:43 06.04.2020
5258 Clear 15 1024 33 10000 7.7 170 10:43 06.04.2020
5259 Clear 15 1024 33 10000 7.7 170 10:43 06.04.2020
5260 Clear 15 1024 33 10000 7.7 170 10:43 06.04.2020
5261 Clear 15 1024 33 10000 7.7 170 10:43 06.04.2020
5262 Clear 14 1024 35 10000 6.2 160 10:21 06.04.2020
5263 Clear 14 1024 35 10000 6.2 160 10:21 06.04.2020
5264 Clear 14 1024 33 10000 7.7 170 10:21 06.04.2020
5265 Clear 14 1024 33 10000 7.7 170 10:21 06.04.2020
5266 Clear 14 1024 35 10000 6.2 160 10:21 06.04.2020
5267 Clear 13 1024 37 10000 6.2 150 09:41 06.04.2020
5268 Clear 13 1024 37 10000 6.2 150 09:41 06.04.2020
5269 Clear 14 1024 37 10000 6.2 150 09:41 06.04.2020
5270 Clear 13 1024 37 10000 6.2 150 09:41 06.04.2020
5271 Clear 10 1024 37 10000 4.1 150 09:20 06.04.2020
5272 Clear 9 1024 40 10000 4.6 150 08:49 06.04.2020
5273 Clear 9 1024 40 10000 4.6 150 08:29 06.04.2020
5274 Clear 9 1024 40 10000 4.6 150 08:29 06.04.2020
5275 Clear 9 1024 40 10000 4.6 150 08:29 06.04.2020
5276 Clear 7 1023 49 10000 3.1 130 07:24 06.04.2020
5277 Clear 7 1023 49 10000 3.1 130 07:24 06.04.2020
5278 Clear 7 1023 49 10000 3.1 130 07:24 06.04.2020
5279 Clear 7 1023 48 10000 2.6 130 06:33 06.04.2020
5280 Clear 6 1023 45 10000 4.1 130 06:01 06.04.2020
5281 Clear 6 1023 45 10000 4.1 130 06:01 06.04.2020
5282 Clear 6 1023 45 10000 4.1 130 06:01 06.04.2020
5283 Clear 7 1023 42 10000 3.1 150 04:18 06.04.2020
5284 Clear 6 1024 42 10000 3.6 130 02:56 06.04.2020
5285 Clear 7 1024 42 10000 3.6 130 01:57 06.04.2020
5286 Clear 7 1024 42 10000 3.6 130 01:57 06.04.2020
5287 Clear 7 1024 45 10000 5.1 140 00:59 06.04.2020
5288 Clear 7 1025 45 10000 4.6 140 00:29 06.04.2020
5289 Clear 7 1025 45 10000 4.6 140 00:29 06.04.2020
5290 Clear 7 1025 45 10000 4.1 150 23:59 05.04.2020
5291 Clear 7 1025 52 10000 3.1 110 23:40 05.04.2020
5292 Clear 7 1025 49 10000 3.6 120 23:21 05.04.2020
5293 Clear 7 1025 49 10000 3.6 120 23:21 05.04.2020
5294 Clear 7 1025 49 10000 3.6 120 22:54 05.04.2020
5295 Clear 7 1025 49 10000 3.1 110 22:36 05.04.2020
5296 Clear 8 1025 46 10000 3.1 100 22:18 05.04.2020
5297 Clear 8 1025 62 10000 4.1 90 21:43 05.04.2020
5298 Clear 8 1025 62 10000 4.1 90 21:43 05.04.2020
5299 Clear 8 1025 62 10000 4.1 90 21:23 05.04.2020
5300 Clouds 11 1026 59 10000 5.7 100 20:25 05.04.2020
5301 Clouds 12 1026 33 10000 4.6 100 19:44 05.04.2020
5302 Clouds 13 1026 33 10000 4.6 100 19:25 05.04.2020
5303 Clouds 15 1026 29 10000 5.7 80 18:50 05.04.2020
5304 Clouds 15 1026 29 10000 5.7 80 18:50 05.04.2020
5305 Clouds 15 1026 29 10000 5.7 80 18:50 05.04.2020
5306 Clouds 15 1026 29 10000 5.7 80 18:50 05.04.2020
5307 Clouds 15 1026 29 10000 5.7 80 18:27 05.04.2020
5308 Clouds 15 1026 29 10000 5.7 80 18:27 05.04.2020
5309 Clouds 15 1026 29 10000 5.7 80 18:27 05.04.2020
5310 Clouds 15 1026 29 10000 5.7 80 18:27 05.04.2020
5311 Clouds 15 1026 29 10000 5.7 80 18:27 05.04.2020
5312 Clear 15 1026 26 10000 6.2 150 17:49 05.04.2020
5313 Clear 15 1026 26 10000 6.2 150 17:49 05.04.2020
5314 Clear 15 1026 26 10000 6.2 150 17:49 05.04.2020
5315 Clear 15 1026 26 10000 6.2 150 17:49 05.04.2020
5316 Clear 15 1026 26 10000 6.2 150 17:49 05.04.2020
5317 Clear 16 1026 26 10000 6.2 150 17:23 05.04.2020
5318 Clear 15 1027 29 10000 5.1 100 16:47 05.04.2020
5319 Clear 16 1027 29 10000 4.6 120 16:19 05.04.2020
5320 Clear 16 1027 29 10000 5.7 100 15:46 05.04.2020
5321 Clear 16 1027 29 10000 5.7 100 15:46 05.04.2020
5322 Clear 15 1027 29 10000 5.7 100 15:28 05.04.2020
5323 Clear 15 1028 33 10000 5.7 140 14:48 05.04.2020
5324 Clear 15 1028 33 10000 5.7 140 14:48 05.04.2020
5325 Clear 15 1028 33 10000 5.7 140 14:48 05.04.2020
5326 Clear 15 1028 33 10000 5.7 140 14:23 05.04.2020
5327 Clear 15 1028 33 10000 5.7 140 14:23 05.04.2020
5328 Clear 15 1028 33 10000 5.7 140 14:23 05.04.2020
5329 Clear 15 1028 33 10000 5.7 140 14:23 05.04.2020
5330 Clear 15 1028 33 10000 5.7 140 14:23 05.04.2020
5331 Clear 15 1029 35 10000 5.1 100 13:40 05.04.2020
5332 Clear 14 1029 35 10000 6.2 120 12:41 05.04.2020
5333 Clear 14 1029 35 10000 6.2 120 12:41 05.04.2020
5334 Clear 14 1029 35 10000 6.2 120 12:41 05.04.2020
5335 Clear 14 1029 35 10000 6.2 120 12:41 05.04.2020
5336 Clear 14 1029 35 10000 6.2 120 12:40 05.04.2020
5337 Clear 13 1030 37 10000 5.7 150 11:41 05.04.2020
5338 Clear 12 1030 34 10000 5.7 150 11:20 05.04.2020
5339 Clear 12 1030 40 10000 6.2 150 10:48 05.04.2020
5340 Clear 11 1030 40 10000 6.2 150 10:24 05.04.2020
5341 Clear 11 1030 40 10000 6.2 150 10:24 05.04.2020
5342 Clear 11 1030 40 10000 6.2 150 10:24 05.04.2020
5343 Clear 11 1030 40 10000 6.2 150 10:24 05.04.2020
5344 Clear 11 1030 43 10000 4.6 150 10:24 05.04.2020
5345 Clear 10 1030 43 10000 4.6 150 09:56 05.04.2020
5346 Clear 10 1030 43 10000 4.6 150 09:56 05.04.2020
5347 Clear 8 1030 45 10000 6.2 150 09:31 05.04.2020
5348 Clear 9 1030 45 10000 6.2 150 09:31 05.04.2020
5349 Clear 7 1030 52 10000 5.1 160 08:57 05.04.2020
5350 Clear 7 1030 52 10000 5.1 160 08:57 05.04.2020
5351 Clear 7 1030 52 10000 5.1 160 08:57 05.04.2020
5352 Clear 7 1030 52 10000 5.1 160 08:57 05.04.2020
5353 Clear 7 1030 52 10000 5.1 160 08:56 05.04.2020
5354 Clear 3 1029 60 10000 3.6 140 07:25 05.04.2020
5355 Clear 3 1029 60 10000 3.6 140 07:25 05.04.2020
5356 Clear 3 1029 60 10000 3.6 140 07:25 05.04.2020
5357 Clear 2 1028 69 10000 2.1 150 04:33 05.04.2020
5358 Clear 2 1028 69 10000 2.1 160 03:30 05.04.2020
5359 Clear 2 1028 69 10000 1.5 170 02:49 05.04.2020
5360 Clear 3 1029 69 10000 1 120 01:46 05.04.2020
5361 Clear 3 1029 69 10000 1 120 01:25 05.04.2020
5362 Clear 3 1028 60 10000 2.1 100 00:44 05.04.2020
5363 Clear 3 1028 56 10000 2.6 90 00:21 05.04.2020
5364 Clear 3 1028 56 10000 2.6 110 23:43 04.04.2020
5365 Clear 4 1028 56 10000 2.6 110 23:23 04.04.2020
5366 Clear 4 1028 52 10000 2.6 100 22:59 04.04.2020
5367 Clear 4 1028 60 10000 2.1 90 22:40 04.04.2020
5368 Clear 4 1028 56 10000 1.5 100 22:21 04.04.2020
5369 Clear 4 1028 56 10000 1.5 100 21:58 04.04.2020
5370 Clear 4 1028 56 10000 1.5 100 21:39 04.04.2020
5371 Clouds 5 1027 56 10000 1 60 21:19 04.04.2020
5372 Clouds 6 1027 56 10000 1 60 20:58 04.04.2020
5373 Clouds 6 1027 52 10000 1 10 20:39 04.04.2020
5374 Clouds 7 1027 52 10000 1.5 340 20:21 04.04.2020
5375 Clouds 7 1027 52 10000 1.5 340 19:57 04.04.2020
5376 Clouds 8 1026 49 10000 1.5 340 19:37 04.04.2020
5377 Clouds 9 1026 46 10000 2.1 340 19:19 04.04.2020
5378 Clouds 10 1026 46 10000 2.1 340 18:56 04.04.2020
5379 Clouds 11 1026 46 10000 2.6 350 18:37 04.04.2020
5380 Rain 11 1026 46 10000 2.1 340 18:19 04.04.2020
5381 Rain 11 1026 46 10000 2.1 340 17:56 04.04.2020
5382 Rain 11 1026 46 10000 2.1 340 17:38 04.04.2020
5383 Rain 11 1026 46 10000 2.1 340 17:18 04.04.2020
5384 Clouds 11 1026 46 10000 2.1 350 16:42 04.04.2020
5385 Clouds 11 1026 46 10000 2.1 350 16:22 04.04.2020
5386 Clouds 11 1025 46 10000 1.5 330 15:55 04.04.2020
5387 Clouds 11 1025 55 10000 1.5 300 15:37 04.04.2020
5388 Clouds 10 1025 58 10000 3.1 290 15:18 04.04.2020
5389 Clouds 10 1025 53 10000 2.1 340 14:43 04.04.2020
5390 Clouds 11 1025 53 10000 2.1 340 14:23 04.04.2020
5391 Clouds 10 1025 61 10000 2.6 340 13:56 04.04.2020
5392 Rain 10 1025 61 0 3.6 330 13:38 04.04.2020
5393 Clouds 10 1025 66 10000 2.1 0 13:19 04.04.2020
5394 Clouds 9 1025 61 10000 1.5 0 12:45 04.04.2020
5395 Clouds 10 1025 61 10000 1.5 0 12:27 04.04.2020
5396 Clouds 9 1025 70 10000 2.1 340 11:59 04.04.2020
5397 Clouds 8 1025 70 10000 1.5 290 11:40 04.04.2020
5398 Clouds 8 1025 70 10000 2.1 320 11:21 04.04.2020
5399 Clouds 8 1025 70 10000 2.1 320 10:57 04.04.2020
5400 Clouds 7 1024 75 10000 2.1 290 10:39 04.04.2020
5401 Clouds 7 1024 75 10000 2.1 290 10:21 04.04.2020
5402 Clouds 7 1024 75 10000 2.1 270 09:55 04.04.2020
5403 Clouds 6 1024 75 10000 1.5 240 09:37 04.04.2020
5404 Rain 5 1023 80 10000 2.6 200 09:19 04.04.2020
5405 Clouds 5 1023 80 10000 1 0 08:42 04.04.2020
5406 Clouds 4 1023 80 10000 1 0 08:23 04.04.2020
5407 Clouds 3 1022 86 10000 2.6 180 07:55 04.04.2020
5408 Clouds 3 1022 80 10000 2.6 200 07:37 04.04.2020
5409 Clouds 3 1022 80 10000 1.5 190 07:19 04.04.2020
5410 Clouds 3 1021 80 10000 2.1 190 06:22 04.04.2020
5411 Clouds 3 1021 80 10000 1.5 200 05:51 04.04.2020
5412 Clouds 3 1021 80 10000 1.5 200 05:32 04.04.2020
5413 Clouds 3 1021 84 0 1.53 223 04:34 04.04.2020
5414 Clouds 3 1020 75 10000 1 180 03:55 04.04.2020
5415 Clouds 3 1020 80 10000 1.5 190 03:29 04.04.2020
5416 Clouds 4 1020 81 0 2.07 221 02:45 04.04.2020
5417 Clouds 4 1020 79 0 2.07 221 02:25 04.04.2020
5418 Clouds 5 1019 70 10000 1 200 01:27 04.04.2020
5419 Clouds 5 1019 70 10000 1 240 00:58 04.04.2020
5420 Clouds 4 981 84 0 2.36 230 00:35 04.04.2020
5421 Clouds 5 1019 70 10000 0.5 280 23:59 03.04.2020
5422 Clouds 5 1018 70 10000 0.5 0 23:38 03.04.2020
5423 Clouds 5 1018 65 10000 2.1 310 23:19 03.04.2020
5424 Clouds 5 1018 65 10000 1 270 22:41 03.04.2020
5425 Rain 6 1017 65 10000 1 250 22:19 03.04.2020
5426 Rain 6 1017 65 10000 1 250 21:59 03.04.2020
5427 Clouds 6 1017 65 10000 1.5 240 21:40 03.04.2020
5428 Clouds 6 1017 65 10000 1.5 240 21:21 03.04.2020
5429 Clouds 6 1017 80 10000 2.1 230 20:56 03.04.2020
5430 Rain 6 1016 80 10000 2.1 250 20:36 03.04.2020
5431 Rain 7 1016 80 10000 2.1 260 20:18 03.04.2020
5432 Rain 7 1016 80 10000 2.1 260 19:56 03.04.2020
5433 Rain 7 1016 52 10000 3.1 260 19:37 03.04.2020
5434 Rain 8 1016 49 10000 2.6 270 19:19 03.04.2020
5435 Rain 8 1016 49 10000 2.6 270 18:58 03.04.2020
5436 Clouds 8 1015 45 10000 3.1 280 18:40 03.04.2020
5437 Clouds 9 1015 52 10000 4.6 250 18:21 03.04.2020
5438 Clouds 9 1015 49 10000 4.1 260 17:43 03.04.2020
5439 Clouds 9 1015 49 10000 3.6 290 17:21 03.04.2020
5440 Clouds 9 1015 49 10000 3.6 290 17:21 03.04.2020
5441 Clouds 9 1015 49 10000 3.6 290 16:58 03.04.2020
5442 Clouds 8 1015 60 10000 3.6 300 16:40 03.04.2020
5443 Clouds 9 1014 45 10000 4.6 280 16:21 03.04.2020
5444 Clouds 9 1014 45 10000 4.6 280 15:57 03.04.2020
5445 Clouds 9 1014 43 10000 5.1 300 15:38 03.04.2020
5446 Clouds 9 1014 43 10000 5.7 280 15:19 03.04.2020
5447 Clouds 8 1014 52 10000 5.1 270 14:41 03.04.2020
5448 Clouds 8 1014 55 10000 5.1 270 14:22 03.04.2020
5449 Clouds 8 1014 55 10000 5.1 270 13:57 03.04.2020
5450 Clouds 8 1014 55 10000 5.1 270 13:38 03.04.2020
5451 Clouds 8 1014 49 10000 5.7 280 13:20 03.04.2020
5452 Clouds 8 1014 56 10000 5.1 270 12:43 03.04.2020
5453 Clouds 7 1014 60 10000 4.6 270 12:20 03.04.2020
5454 Clouds 6 1014 60 10000 4.6 270 11:57 03.04.2020
5455 Clouds 6 1013 56 10000 4.6 280 11:38 03.04.2020
5456 Clouds 6 1013 56 10000 4.6 280 11:38 03.04.2020
5457 Rain 6 1013 56 10000 4.1 290 11:20 03.04.2020
5458 Rain 6 1013 56 10000 4.1 290 10:58 03.04.2020
5459 Rain 6 1013 65 10000 4.6 280 10:38 03.04.2020
5460 Rain 6 1012 56 10000 4.6 280 10:20 03.04.2020
5461 Rain 5 1012 56 10000 4.6 280 09:59 03.04.2020
5462 Clouds 5 1012 60 10000 4.6 270 09:40 03.04.2020
5463 Clouds 5 1012 60 10000 4.6 270 09:21 03.04.2020
5464 Clouds 4 1011 79 10000 4.1 260 08:55 03.04.2020
5465 Clouds 4 1011 79 10000 3.6 280 08:37 03.04.2020
5466 Clouds 4 1011 80 10000 4.1 280 08:18 03.04.2020
5467 Clouds 4 1010 65 10000 4.6 280 07:46 03.04.2020
5468 Clouds 4 1010 65 10000 4.6 280 07:27 03.04.2020
5469 Clouds 4 1009 65 10000 4.6 270 06:40 03.04.2020
5470 Rain 3 1009 65 10000 5.1 260 06:21 03.04.2020
5471 Clouds 3 1008 69 10000 5.1 260 05:34 03.04.2020
5472 Clouds 2 1008 64 10000 3.6 240 03:40 03.04.2020
5473 Clouds 2 1008 69 10000 3.6 230 02:55 03.04.2020
5474 Clouds 2 1008 74 10000 3.1 220 02:18 03.04.2020
5475 Clouds 3 1008 69 10000 2.1 230 01:20 03.04.2020
5476 Clouds 3 1008 64 10000 2.1 280 00:34 03.04.2020
5477 Clouds 3 1008 64 10000 3.1 300 23:58 02.04.2020
5478 Clouds 3 1008 64 10000 2.6 300 23:40 02.04.2020
5479 Clouds 3 1008 64 10000 2.6 300 23:21 02.04.2020
5480 Clouds 3 1008 56 10000 3.1 300 22:57 02.04.2020
5481 Clouds 4 1008 56 10000 2.1 260 22:37 02.04.2020
5482 Clouds 4 1008 52 10000 2.1 250 22:18 02.04.2020
5483 Clouds 4 1008 48 10000 1.5 250 21:39 02.04.2020
5484 Clouds 4 1008 60 0 1.63 260 21:20 02.04.2020
5485 Clouds 5 1008 49 10000 1.5 260 20:58 02.04.2020
5486 Clouds 6 1008 49 10000 1.5 290 20:40 02.04.2020
5487 Clouds 7 1007 49 10000 2.1 310 20:21 02.04.2020
5488 Clouds 8 1007 39 10000 3.1 320 19:44 02.04.2020
5489 Clouds 10 1007 37 10000 2.6 290 19:21 02.04.2020
5490 Clouds 11 1007 37 10000 2.6 290 18:59 02.04.2020
5491 Clouds 11 1008 37 10000 3.6 300 18:39 02.04.2020
5492 Clouds 11 1008 37 10000 3.6 300 18:39 02.04.2020
5493 Clouds 12 1008 37 10000 4.1 270 18:20 02.04.2020
5494 Clouds 12 1008 37 10000 4.1 270 17:57 02.04.2020
5495 Clouds 12 1008 37 10000 3.6 270 17:39 02.04.2020
5496 Clouds 12 1009 34 10000 3.6 270 17:20 02.04.2020
5497 Clouds 12 1009 34 10000 3.6 270 16:56 02.04.2020
5498 Clouds 12 1009 37 10000 3.6 270 16:38 02.04.2020
5499 Clouds 12 1009 37 10000 4.6 280 16:20 02.04.2020
5500 Clouds 12 1009 37 10000 4.6 280 15:55 02.04.2020
5501 Clouds 12 1010 37 10000 4.6 290 15:37 02.04.2020
5502 Clouds 11 1010 40 10000 5.1 270 15:18 02.04.2020
5503 Clouds 11 1011 39 10000 3.6 270 14:40 02.04.2020
5504 Clouds 11 1011 39 10000 2.6 0 14:21 02.04.2020
5505 Clouds 10 1011 39 10000 2.6 0 13:58 02.04.2020
5506 Clouds 10 1012 42 10000 4.6 210 13:39 02.04.2020
5507 Clouds 10 1012 42 10000 2.6 0 13:21 02.04.2020
5508 Clouds 10 1012 42 10000 2.6 0 12:57 02.04.2020
5509 Clouds 10 1012 42 10000 2.6 0 12:39 02.04.2020
5510 Clouds 8 1013 45 10000 3.6 0 12:19 02.04.2020
5511 Clouds 8 1013 45 10000 3.6 0 12:19 02.04.2020
5512 Clouds 8 1013 45 10000 3.6 0 11:57 02.04.2020
5513 Clouds 8 1013 45 10000 3.1 270 11:38 02.04.2020
5514 Clouds 7 1013 52 10000 3.1 250 11:19 02.04.2020
5515 Clouds 7 1013 52 10000 3.1 250 10:55 02.04.2020
5516 Clouds 7 1013 56 10000 3.1 240 10:37 02.04.2020
5517 Clouds 6 1014 56 10000 3.1 220 10:19 02.04.2020
5518 Clouds 5 1014 56 10000 3.1 220 09:55 02.04.2020
5519 Clouds 4 1014 59 10000 4.1 210 09:37 02.04.2020
5520 Clear 2 1014 64 10000 3.1 200 09:18 02.04.2020
5521 Clear 1 1014 74 10000 3.6 200 08:45 02.04.2020
5522 Clear 0 1014 74 10000 3.6 200 08:26 02.04.2020
5523 Clear -2 1014 74 10000 3.1 200 07:45 02.04.2020
5524 -273 0 0 0 0 0 07:20 02.04.2020
5525 Clear -3 1014 74 10000 3.1 200 06:58 02.04.2020
5526 Clear -3 1014 74 10000 2.6 190 06:22 02.04.2020
5527 Clear -3 1014 74 10000 2.6 200 05:45 02.04.2020
5528 Clear -2 1014 74 10000 2.6 200 04:35 02.04.2020
5529 Clear -2 1015 84 10000 2.1 210 01:52 02.04.2020
5530 Clear -1 1016 74 0 1.91 230 00:50 02.04.2020
5531 Clear -1 1016 74 0 1.91 230 00:50 02.04.2020
5532 Clear -1 1015 59 10000 3.6 200 00:28 02.04.2020
5533 Clear -1 1015 59 10000 3.6 190 23:57 01.04.2020
5534 Clear 0 1016 55 10000 3.1 200 23:37 01.04.2020
5535 Clear 0 1016 55 10000 3.1 200 23:37 01.04.2020
5536 Clear -1 1017 68 0 2.17 201 23:18 01.04.2020
5537 Clear 0 1017 65 0 2.17 201 22:41 01.04.2020
5538 Clear 0 1017 63 0 2.17 201 22:22 01.04.2020
5539 Clear 1 1017 57 0 2.17 201 21:57 01.04.2020
5540 Clear 1 1017 56 0 2.17 201 21:39 01.04.2020
5541 Clear 1 1017 59 0 1.43 257 21:19 01.04.2020
5542 Clear 2 1017 58 0 1.43 257 20:55 01.04.2020
5543 Clear 2 1017 58 0 1.43 257 20:55 01.04.2020
5544 Clear 3 1016 41 10000 1 260 20:37 01.04.2020
5545 Clear 4 1016 38 10000 1 0 20:18 01.04.2020
5546 Clear 5 1016 36 10000 2.1 280 19:43 01.04.2020
5547 Clear 7 1016 36 10000 2.1 280 19:22 01.04.2020
5548 Clear 7 1016 36 10000 2.1 280 18:59 01.04.2020
5549 Clear 8 1017 33 10000 2.6 280 18:41 01.04.2020
5550 Clear 8 1017 33 10000 3.6 270 18:21 01.04.2020
5551 Clear 8 1017 33 10000 3.6 270 17:56 01.04.2020
5552 Clear 9 1017 33 10000 3.1 250 17:37 01.04.2020
5553 Clear 9 1017 33 10000 3.6 250 17:18 01.04.2020
5554 Clear 9 1017 33 10000 3.6 250 16:56 01.04.2020
5555 Clear 9 1018 33 10000 4.6 260 16:38 01.04.2020
5556 Clear 9 1018 33 10000 4.1 240 16:19 01.04.2020
5557 Clear 8 1019 36 10000 2.6 0 15:42 01.04.2020
5558 Clear 8 1019 36 10000 2.6 0 15:22 01.04.2020
5559 Clear 8 1019 36 10000 2.1 0 14:59 01.04.2020
5560 Clear 7 1019 38 10000 4.1 280 14:39 01.04.2020
5561 Clear 7 1019 38 10000 4.1 280 14:21 01.04.2020
5562 Clear 7 1020 38 10000 3.6 240 13:59 01.04.2020
5563 Clear 6 1020 38 10000 4.1 240 13:39 01.04.2020
5564 Clear 6 1021 38 10000 4.6 250 13:20 01.04.2020
5565 Clear 6 1021 38 10000 4.6 250 12:57 01.04.2020
5566 Clear 6 1021 38 10000 3.6 250 12:37 01.04.2020
5567 Clear 4 1022 41 10000 3.6 240 12:19 01.04.2020
5568 Clear 5 1022 41 10000 3.6 240 11:56 01.04.2020
5569 Clear 4 1022 38 10000 3.6 270 11:37 01.04.2020
5570 Clear 4 1022 40 10000 4.6 270 11:18 01.04.2020
5571 Clear 3 1023 44 10000 4.1 230 10:39 01.04.2020
5572 Clear 3 1023 47 10000 2.1 240 10:21 01.04.2020
5573 Clear 3 1023 47 10000 2.1 240 09:59 01.04.2020
5574 Clear 3 1023 47 10000 2.1 240 09:59 01.04.2020
5575 Clear 1 1023 55 10000 3.6 210 09:40 01.04.2020
5576 Clear 1 1023 55 10000 3.6 210 09:40 01.04.2020
5577 Clear 0 1023 55 10000 3.6 210 09:20 01.04.2020
5578 Clear -1 1023 63 10000 4.1 210 08:54 01.04.2020
5579 Clear -2 1023 63 10000 4.1 200 08:36 01.04.2020
5580 Clear -3 1023 68 10000 3.6 190 08:18 01.04.2020
5581 Clear -5 1023 73 10000 3.1 200 07:40 01.04.2020
5582 Clear -5 1023 79 10000 2.6 200 07:19 01.04.2020
5583 Clear -5 1023 73 10000 2.6 200 06:43 01.04.2020
5584 Clear -5 1024 79 10000 2.6 190 06:21 01.04.2020
5585 Clear -5 1024 79 10000 3.1 190 05:41 01.04.2020
5586 Clear -5 1024 73 10000 2.1 200 03:57 01.04.2020
5587 Clear -5 1025 73 10000 2.1 190 03:20 01.04.2020
5588 Clear -5 1025 73 10000 2.6 190 02:37 01.04.2020
5589 Clear -4 1026 68 10000 2.6 190 01:53 01.04.2020
5590 Clear -4 1026 68 10000 1.5 190 01:27 01.04.2020
5591 Clear -4 1027 74 0 1.76 203 00:47 01.04.2020
5592 Clear -4 1028 72 0 1.11 212 00:24 01.04.2020
5593 Clear -4 1028 72 0 1.11 212 23:59 31.03.2020
5594 Clear -4 1028 71 0 1.11 212 23:41 31.03.2020
5595 Clear -4 1028 71 0 1.11 212 23:22 31.03.2020
5596 Clear -3 1028 68 0 1.11 212 22:41 31.03.2020
5597 Clear -3 1028 65 0 1.11 212 22:22 31.03.2020
5598 Clear -2 1028 64 0 1.11 212 21:59 31.03.2020
5599 Clear -2 1027 89 10000 0.5 340 21:40 31.03.2020
5600 Clear -1 1027 89 10000 0.5 0 21:21 31.03.2020
5601 Clouds -1 1027 88 10000 0.5 0 20:58 31.03.2020
5602 Clouds 0 1027 47 10000 2.1 360 20:38 31.03.2020
5603 Clouds 0 1027 47 10000 2.1 360 20:20 31.03.2020
5604 Clouds 1 1027 47 10000 2.1 360 19:58 31.03.2020
5605 Clouds 1 1027 43 10000 2.1 360 19:39 31.03.2020
5606 Clouds 2 1027 40 10000 3.1 360 19:21 31.03.2020
5607 Clouds 3 1027 37 10000 2.6 340 18:54 31.03.2020
5608 Clouds 3 1027 37 10000 2.6 340 18:36 31.03.2020
5609 Clouds 3 1027 37 10000 3.1 30 18:18 31.03.2020
5610 Clouds 3 1027 32 10000 1 0 17:54 31.03.2020
5611 Clouds 4 1027 32 10000 1 0 17:36 31.03.2020
5612 Clouds 4 1027 32 10000 1 0 17:36 31.03.2020
5613 Clouds 3 1027 37 10000 3.1 10 17:18 31.03.2020
5614 Clouds 3 1028 37 10000 2.1 360 16:37 31.03.2020
5615 Clouds 3 1028 37 10000 4.1 10 16:18 31.03.2020
5616 Clouds 3 1028 37 10000 4.1 10 15:56 31.03.2020
5617 Clouds 3 1028 40 10000 2.6 350 15:37 31.03.2020
5618 Clouds 3 1028 38 10000 4.6 360 15:19 31.03.2020
5619 Clouds 3 1028 38 10000 4.6 360 14:56 31.03.2020
5620 Clouds 3 1028 44 10000 4.1 30 14:38 31.03.2020
5621 Clouds 3 1028 47 10000 3.6 60 14:18 31.03.2020
5622 Clouds 3 1029 51 10000 4.6 30 13:42 31.03.2020
5623 Clouds 2 1029 55 10000 5.1 40 13:19 31.03.2020
5624 Clouds 2 1029 55 10000 5.1 40 12:55 31.03.2020
5625 Clouds 2 1029 51 10000 6.2 20 12:37 31.03.2020
5626 Snow 1 1029 59 10000 4.6 50 12:18 31.03.2020
5627 Snow 1 1029 59 10000 4.6 60 11:38 31.03.2020
5628 Rain 1 1028 55 10000 5.1 30 11:19 31.03.2020
5629 Rain 1 1028 55 10000 5.1 30 10:58 31.03.2020
5630 Clouds 1 1028 59 10000 5.7 40 10:39 31.03.2020
5631 Clouds 1 1028 64 10000 5.1 30 10:21 31.03.2020
5632 Clouds 0 1028 64 10000 5.1 30 09:56 31.03.2020
5633 Clouds 1 1028 69 10000 5.1 50 09:37 31.03.2020
5634 Clouds 1 1028 69 10000 5.1 50 09:37 31.03.2020
5635 Clouds 1 1028 69 10000 5.1 50 09:37 31.03.2020
5636 Clouds -1 1028 95 10000 4.1 10 09:19 31.03.2020
5637 Clouds 0 1028 94 10000 4.1 10 08:56 31.03.2020
5638 Clouds -1 1028 94 10000 4.1 20 08:37 31.03.2020
5639 Clouds -1 1027 94 10000 3.1 20 08:18 31.03.2020
5640 Clouds -1 1027 94 10000 3.1 20 07:54 31.03.2020
5641 Clouds -1 1027 86 10000 3.6 10 07:36 31.03.2020
5642 Clouds -1 1027 86 10000 4.1 20 07:18 31.03.2020
5643 Clouds 0 1026 94 10000 3.6 20 06:42 31.03.2020
5644 Clouds 0 1026 96 10000 3.6 20 05:53 31.03.2020
5645 Clouds 0 1026 96 10000 3.6 20 05:26 31.03.2020
5646 Snow 0 1025 96 8000 2.1 350 03:27 31.03.2020
5647 Snow 1 1025 86 10000 2.1 350 01:52 31.03.2020
5648 Snow 1 1025 86 10000 2.1 340 01:33 31.03.2020
5649 Snow 1 1025 86 10000 1.5 320 00:46 31.03.2020
5650 Clouds 1 1025 86 10000 2.6 340 00:24 31.03.2020
5651 Clouds 1 1025 86 10000 2.6 330 23:41 30.03.2020
5652 Clouds 1 1025 86 10000 2.6 320 23:20 30.03.2020
5653 Clouds 1 1025 86 10000 2.6 320 23:20 30.03.2020
5654 Clouds 1 1025 86 10000 2.6 320 22:58 30.03.2020
5655 Clouds 1 1025 86 10000 2.6 320 22:58 30.03.2020
5656 Clouds 1 1025 80 10000 2.1 320 22:39 30.03.2020
5657 Clouds 1 1024 80 10000 1.5 310 22:20 30.03.2020
5658 Clouds 1 1024 80 10000 1.5 310 21:58 30.03.2020
5659 Clouds 1 1024 80 10000 1.5 330 21:39 30.03.2020
5660 Clouds 1 1024 80 10000 1.5 330 21:20 30.03.2020
5661 Clouds 1 1024 74 10000 2.1 320 20:59 30.03.2020
5662 Rain 2 1024 69 10000 2.1 330 20:39 30.03.2020
5663 Rain 2 1024 69 10000 2.1 330 20:39 30.03.2020
5664 Rain 2 1024 59 10000 2.1 320 20:20 30.03.2020
5665 Rain 2 1024 59 10000 2.1 320 19:57 30.03.2020
5666 Rain 3 1024 51 10000 3.1 300 19:39 30.03.2020
5667 -273 0 0 0 0 0 19:20 30.03.2020
5668 Clouds 3 1024 44 10000 3.6 310 18:44 30.03.2020
5669 Clouds 4 1024 44 10000 3.6 310 18:26 30.03.2020
5670 Clouds 4 1023 41 10000 5.1 310 17:58 30.03.2020
5671 Clouds 4 1023 38 10000 4.6 310 17:40 30.03.2020
5672 Clouds 5 1023 38 10000 4.1 270 17:22 30.03.2020
5673 Clouds 5 1023 38 10000 4.1 270 16:59 30.03.2020
5674 Clouds 5 1024 41 10000 4.6 290 16:40 30.03.2020
5675 Clouds 5 1024 41 10000 4.6 290 16:21 30.03.2020
5676 Clouds 5 1024 38 10000 4.1 300 16:21 30.03.2020
5677 Clouds 5 1024 38 10000 4.1 300 15:56 30.03.2020
5678 Clouds 5 1024 38 10000 4.6 270 15:38 30.03.2020
5679 Clear 5 1025 35 10000 5.1 300 15:20 30.03.2020
5680 Clear 4 1025 35 10000 5.1 300 14:58 30.03.2020
5681 Clear 4 1025 37 10000 5.1 270 14:38 30.03.2020
5682 Clear 4 1025 38 10000 4.1 260 14:19 30.03.2020
5683 Clear 4 1025 38 10000 4.1 260 13:58 30.03.2020
5684 Clear 4 1026 37 10000 3.6 300 13:39 30.03.2020
5685 Clear 3 1026 44 10000 4.6 260 13:20 30.03.2020
5686 Clouds 3 1026 47 10000 3.1 270 12:45 30.03.2020
5687 Clouds 2 1027 43 10000 3.6 330 12:22 30.03.2020
5688 Clouds 1 1027 43 10000 3.6 330 11:59 30.03.2020
5689 Clouds 1 1027 43 10000 3.6 330 11:59 30.03.2020
5690 Clouds 1 1027 51 10000 3.6 300 11:41 30.03.2020
5691 Snow 1 1027 51 10000 3.1 320 11:22 30.03.2020
5692 Clouds 1 1027 51 10000 3.1 320 10:57 30.03.2020
5693 Clear 0 1027 73 10000 2.6 300 10:37 30.03.2020
5694 Clear 0 1027 73 10000 2.6 260 10:19 30.03.2020
5695 Clear -1 1027 58 10000 2.1 240 09:41 30.03.2020
5696 Clear -1 1027 58 10000 2.1 240 09:41 30.03.2020
5697 Clear -3 1027 63 10000 2.1 240 09:20 30.03.2020
5698 Clear -3 1027 63 10000 2.1 240 08:58 30.03.2020
5699 Clear -4 1027 68 10000 2.1 230 08:38 30.03.2020
5700 Clear -5 1027 68 10000 2.1 240 08:20 30.03.2020
5701 Clear -5 1027 73 10000 1.5 260 07:44 30.03.2020
5702 Clear -6 1027 73 10000 1 0 07:23 30.03.2020
5703 Clear -6 1027 73 10000 1.5 310 06:47 30.03.2020
5704 Clear -6 1027 73 10000 1.5 310 06:27 30.03.2020
5705 Clear -6 1027 79 10000 2.1 310 05:44 30.03.2020
5706 Clear -5 1027 73 10000 1 330 04:40 30.03.2020
5707 Clear -4 1027 79 10000 2.1 330 04:20 30.03.2020
5708 Snow -3 1028 73 10000 2.6 340 02:52 30.03.2020
5709 Snow -2 1027 74 10000 2.6 350 01:58 30.03.2020
5710 Snow -2 1027 74 10000 3.1 350 01:24 30.03.2020
5711 Clouds -1 1027 74 10000 4.1 360 00:30 30.03.2020
5712 Clouds -1 1027 80 10000 3.6 360 23:59 29.03.2020
5713 Clouds 0 1027 93 10000 5.1 10 23:40 29.03.2020
5714 Clouds 0 1026 93 10000 5.1 10 23:21 29.03.2020
5715 Clouds 0 1026 93 10000 5.1 10 22:56 29.03.2020
5716 Clouds 0 1026 93 10000 5.7 10 22:37 29.03.2020
5717 Snow 0 1026 93 6000 5.1 10 22:18 29.03.2020
5718 Snow 1 1026 93 5000 5.7 20 21:40 29.03.2020
5719 Rain 0 1026 93 5000 5.7 20 21:21 29.03.2020
5720 Rain 0 1024 88 4000 7.2 10 20:56 29.03.2020
5721 Rain 0 1024 88 4000 7.2 10 20:56 29.03.2020
5722 Snow 1 1024 88 4000 7.2 10 20:38 29.03.2020
5723 Snow 1 1024 88 10000 4.1 10 20:19 29.03.2020
5724 Snow 1 1024 88 10000 4.1 10 19:59 29.03.2020
5725 Snow 1 1024 88 10000 4.1 10 19:59 29.03.2020
5726 Rain 1 1023 88 9000 5.1 10 19:41 29.03.2020
5727 Rain 1 1023 88 4000 6.7 10 19:23 29.03.2020
5728 Rain 1 1022 88 4500 6.7 10 18:57 29.03.2020
5729 Rain 1 1022 88 4500 6.7 10 18:39 29.03.2020
5730 Rain 1 1021 100 4500 5.7 10 18:20 29.03.2020
5731 Rain 2 1021 93 10000 7.2 10 17:57 29.03.2020
5732 Rain 2 1021 93 10000 7.2 10 17:39 29.03.2020
5733 Rain 2 1021 93 10000 6.7 10 17:20 29.03.2020
5734 Rain 2 1021 93 10000 6.7 10 16:57 29.03.2020
5735 Rain 3 1020 93 10000 6.2 10 16:39 29.03.2020
5736 Rain 3 1020 93 10000 6.2 10 16:39 29.03.2020
5737 Rain 3 1020 93 4500 4.6 350 16:20 29.03.2020
5738 Rain 3 1020 93 4500 3.6 320 15:43 29.03.2020
5739 Rain 3 1020 93 4500 3.6 320 15:25 29.03.2020
5740 Rain 3 1020 93 10000 3.6 330 14:59 29.03.2020
5741 Clouds 4 1019 86 10000 5.1 330 14:40 29.03.2020
5742 Rain 4 1019 86 9000 4.6 330 14:21 29.03.2020
5743 Rain 4 1019 86 9000 4.6 330 13:59 29.03.2020
5744 Rain 4 1019 86 10000 5.7 320 13:41 29.03.2020
5745 Clouds 5 1019 79 10000 5.7 320 13:21 29.03.2020
5746 Clouds 5 1019 79 10000 5.7 320 13:21 29.03.2020
5747 Rain 5 1019 80 10000 6.2 340 12:58 29.03.2020
5748 Rain 5 1019 80 10000 6.2 340 12:39 29.03.2020
5749 Clouds 5 1018 71 10000 5.7 320 12:19 29.03.2020
5750 Clouds 5 1018 71 10000 5.7 320 11:58 29.03.2020
5751 Clouds 5 1018 71 10000 4.6 300 11:37 29.03.2020
5752 Clouds 4 1018 71 10000 4.1 300 11:19 29.03.2020
5753 Clouds 4 1018 71 10000 4.6 330 10:39 29.03.2020
5754 Clouds 5 1018 71 10000 5.1 320 10:20 29.03.2020
5755 Clouds 5 1018 71 10000 5.1 320 09:56 29.03.2020
5756 Clouds 4 1018 71 10000 5.1 310 09:38 29.03.2020
5757 Clouds 3 1018 74 10000 4.1 310 09:18 29.03.2020
5758 Clouds 3 1018 80 10000 3.1 290 08:43 29.03.2020
5759 Clouds 2 1018 86 10000 3.1 290 08:25 29.03.2020
5760 Clouds 1 1018 86 10000 3.1 280 07:47 29.03.2020
5761 Clouds 1 1018 86 10000 3.1 280 07:47 29.03.2020
5762 Clouds 1 1018 86 10000 3.6 290 07:23 29.03.2020
5763 Clouds 1 1017 80 10000 3.1 280 06:40 29.03.2020
5764 Clouds 2 1017 74 10000 3.1 310 04:56 29.03.2020
5765 Clouds 3 1017 81 10000 2.6 290 03:41 29.03.2020
5766 Clouds 3 1017 81 10000 2.6 290 03:22 29.03.2020
5767 Clouds 3 1017 84 10000 2.6 300 01:44 29.03.2020
5768 Clouds 3 1017 84 10000 2.6 300 01:23 29.03.2020
5769 Clouds 3 1017 69 10000 2.6 320 00:46 29.03.2020
5770 Clouds 3 1017 69 10000 2.6 320 00:28 29.03.2020
5771 Clouds 4 1017 65 10000 3.1 330 23:41 28.03.2020
5772 Clouds 4 1017 65 10000 3.1 320 23:23 28.03.2020
5773 Clouds 4 1017 65 10000 3.1 320 23:23 28.03.2020
5774 Clouds 5 1017 60 10000 3.1 320 22:56 28.03.2020
5775 Clouds 5 1017 60 10000 3.1 320 22:37 28.03.2020
5776 Clouds 6 1017 52 10000 3.6 320 22:18 28.03.2020
5777 Clouds 7 1017 52 10000 3.6 310 21:41 28.03.2020
5778 Clouds 6 1017 52 10000 3.6 310 21:23 28.03.2020
5779 Clouds 7 1017 56 10000 3.1 310 20:58 28.03.2020
5780 Clouds 7 1017 52 10000 3.1 320 20:39 28.03.2020
5781 Clouds 7 1017 74 10000 2.6 310 20:21 28.03.2020
5782 Clear 7 1017 70 10000 2.6 310 19:56 28.03.2020
5783 Clear 8 1016 70 10000 2.6 320 19:37 28.03.2020
5784 Clear 8 1016 70 10000 2.6 320 19:37 28.03.2020
5785 Clear 9 1016 70 10000 3.1 310 19:18 28.03.2020
5786 Clear 9 1016 70 10000 3.1 330 18:55 28.03.2020
5787 Clear 10 1016 70 10000 3.1 330 18:36 28.03.2020
5788 Clear 11 1016 43 10000 4.1 320 18:18 28.03.2020
5789 Clear 12 1016 40 10000 4.6 320 17:38 28.03.2020
5790 Clear 13 1016 52 10000 5.1 320 17:19 28.03.2020
5791 Clear 13 1016 52 10000 5.1 320 16:42 28.03.2020
5792 Clear 13 1016 52 10000 5.7 310 16:20 28.03.2020
5793 Clear 13 1016 52 10000 5.7 310 15:56 28.03.2020
5794 Clear 14 1016 43 10000 4.6 320 15:38 28.03.2020
5795 Clear 14 1016 43 10000 5.1 340 15:19 28.03.2020
5796 Clear 14 1017 43 10000 5.1 330 14:43 28.03.2020
5797 Clear 14 1017 53 10000 4.1 320 14:23 28.03.2020
5798 Clear 14 1017 53 10000 4.1 320 13:59 28.03.2020
5799 Clear 14 1017 46 10000 4.6 320 13:38 28.03.2020
5800 Clear 13 1018 46 10000 4.1 310 13:19 28.03.2020
5801 Clear 13 1018 55 10000 4.1 340 12:39 28.03.2020
5802 Clear 12 1018 53 10000 4.1 330 12:21 28.03.2020
5803 Clear 12 1018 50 10000 3.1 330 11:42 28.03.2020
5804 Clear 11 1018 53 10000 2.6 340 11:21 28.03.2020
5805 Clouds 10 1019 61 10000 2.6 290 10:56 28.03.2020
5806 Clouds 10 1019 61 10000 2.6 290 10:38 28.03.2020
5807 Clouds 10 1019 61 10000 2.1 310 10:18 28.03.2020
5808 Clouds 8 1019 65 10000 1.5 300 09:41 28.03.2020
5809 Clouds 8 1019 65 10000 1.5 300 09:23 28.03.2020
5810 Clouds 6 1019 75 10000 1 0 08:46 28.03.2020
5811 Clouds 6 1019 75 10000 1 0 08:28 28.03.2020
5812 Clear 4 1019 83 8000 1.5 300 07:59 28.03.2020
5813 Clear 3 1019 83 8000 2.1 300 07:41 28.03.2020
5814 Clear 2 1018 83 7000 1 0 06:58 28.03.2020
5815 Clear 2 1018 83 7000 1 280 06:34 28.03.2020
5816 Clear 2 1018 83 10000 1.57 316 05:42 28.03.2020
5817 Clear 3 1018 93 10000 0.5 0 05:21 28.03.2020
5818 Clear 2 1018 82 10000 0.5 0 04:40 28.03.2020
5819 Clear 2 1018 82 10000 1 0 03:34 28.03.2020
5820 Clear 3 1019 77 10000 0.5 0 01:57 28.03.2020
5821 Clear 4 1019 76 10000 0.5 0 01:26 28.03.2020
5822 Clear 4 1019 76 10000 1 40 00:57 28.03.2020
5823 Clear 5 1019 70 10000 1 0 00:36 28.03.2020
5824 Clear 6 1019 65 10000 1 330 23:56 27.03.2020
5825 Clear 6 1019 65 10000 1 330 23:38 27.03.2020
5826 Clear 6 1019 61 10000 1.5 300 23:19 27.03.2020
5827 Clear 6 1019 61 10000 1.5 320 22:56 27.03.2020
5828 Clear 6 1019 61 10000 1.5 320 22:37 27.03.2020
5829 Clear 7 1019 61 10000 1 0 22:19 27.03.2020
5830 Clear 7 1019 61 10000 3.6 60 21:43 27.03.2020
5831 Clear 8 1019 57 10000 4.1 50 21:24 27.03.2020
5832 Clear 8 1019 57 10000 4.1 50 20:59 27.03.2020
5833 Clear 9 1019 57 10000 3.6 50 20:41 27.03.2020
5834 Clouds 9 1019 53 10000 3.6 60 20:20 27.03.2020
5835 Clouds 9 1019 53 10000 3.6 60 20:20 27.03.2020
5836 Clouds 10 1019 53 10000 3.6 60 19:57 27.03.2020
5837 Clouds 10 1019 50 10000 3.6 50 19:39 27.03.2020
5838 Clouds 10 1019 50 10000 3.6 50 19:39 27.03.2020
5839 Clouds 10 1019 50 10000 3.6 60 19:20 27.03.2020
5840 Clouds 12 1019 43 10000 4.6 60 18:44 27.03.2020
5841 Clouds 13 1019 43 10000 4.6 60 18:25 27.03.2020
5842 Clouds 14 1019 41 10000 4.1 70 17:59 27.03.2020
5843 Clouds 15 1019 38 10000 5.1 70 17:39 27.03.2020
5844 Clouds 16 1019 36 10000 5.7 80 17:20 27.03.2020
5845 Clouds 16 1019 36 10000 5.1 70 16:44 27.03.2020
5846 Clouds 16 1019 36 10000 5.1 70 16:25 27.03.2020
5847 Clouds 16 1019 36 10000 5.1 60 15:56 27.03.2020
5848 Clouds 16 1019 36 10000 5.1 60 15:38 27.03.2020
5849 Clouds 17 1019 36 10000 5.1 60 15:20 27.03.2020
5850 Clouds 16 1019 36 10000 6.2 70 14:45 27.03.2020
5851 Clouds 17 1019 36 10000 6.2 70 14:24 27.03.2020
5852 Clouds 16 1020 36 10000 5.7 60 13:56 27.03.2020
5853 Clouds 16 1020 36 10000 5.1 60 13:37 27.03.2020
5854 Clouds 16 1020 49 10000 4.6 80 13:18 27.03.2020
5855 Clouds 15 1021 33 10000 4.6 130 12:45 27.03.2020
5856 Clouds 16 1021 33 10000 5.1 110 12:20 27.03.2020
5857 Clouds 16 1021 33 10000 5.7 140 11:59 27.03.2020
5858 Clouds 16 1021 33 10000 5.1 110 11:59 27.03.2020
5859 Clouds 16 1021 33 10000 5.7 140 11:59 27.03.2020
5860 Clouds 16 1021 33 10000 5.1 110 11:59 27.03.2020
5861 Clouds 16 1021 33 10000 5.7 140 11:40 27.03.2020
5862 Clouds 15 1021 33 10000 4.6 130 11:22 27.03.2020
5863 Clouds 14 1021 35 10000 5.7 130 10:54 27.03.2020
5864 Clouds 14 1021 35 10000 5.7 130 10:36 27.03.2020
5865 Clouds 13 1021 37 10000 4.1 120 10:18 27.03.2020
5866 Clouds 13 1021 37 10000 4.1 120 09:55 27.03.2020
5867 Clouds 12 1021 54 10000 2.6 10 09:36 27.03.2020
5868 Clouds 9 1021 54 10000 1.5 330 09:18 27.03.2020
5869 Clouds 8 1021 54 10000 1.5 330 08:54 27.03.2020
5870 Clouds 6 1021 65 10000 1.5 360 08:36 27.03.2020
5871 Clear 4 1021 56 10000 1 0 08:18 27.03.2020
5872 Clear 3 1021 64 10000 1.5 40 07:43 27.03.2020
5873 Clear 3 1021 55 10000 1.5 120 07:21 27.03.2020
5874 Clear 3 1021 64 10000 1 0 06:41 27.03.2020
5875 Clear 4 1021 55 10000 1.5 60 06:18 27.03.2020
5876 Clear 1 1022 64 10000 2.6 150 03:42 27.03.2020
5877 Clear 1 1022 55 10000 2.1 140 02:25 27.03.2020
5878 Clouds 2 1022 55 10000 2.6 130 01:21 27.03.2020
5879 Clouds 2 1023 55 10000 2.6 120 00:45 27.03.2020
5880 Clouds 2 1023 59 10000 2.6 120 00:23 27.03.2020
5881 Clouds 2 1023 55 10000 2.6 110 23:42 26.03.2020
5882 Clouds 3 1023 55 10000 2.6 80 23:19 26.03.2020
5883 Clouds 3 1023 51 10000 2.6 70 22:58 26.03.2020
5884 Clouds 3 1023 51 10000 2.6 70 22:58 26.03.2020
5885 Clouds 3 1023 51 10000 2.6 70 22:37 26.03.2020
5886 Clouds 3 1024 51 10000 3.6 80 22:19 26.03.2020
5887 Clouds 3 1024 51 10000 3.6 80 21:55 26.03.2020
5888 Clouds 4 1024 48 10000 4.1 70 21:36 26.03.2020
5889 Clouds 4 1023 48 10000 4.1 80 21:18 26.03.2020
5890 Clouds 4 1024 45 10000 4.6 80 20:41 26.03.2020
5891 Clouds 5 1024 45 10000 4.6 80 20:23 26.03.2020
5892 Clouds 5 1024 45 10000 4.6 80 20:23 26.03.2020
5893 Clouds 5 1024 45 10000 4.6 80 20:23 26.03.2020
5894 Clouds 5 1024 45 10000 5.7 90 19:58 26.03.2020
5895 Clouds 6 1023 42 10000 5.7 80 19:40 26.03.2020
5896 Clouds 6 1023 42 10000 5.7 80 19:40 26.03.2020
5897 Clouds 6 1024 42 10000 5.7 90 19:22 26.03.2020
5898 Clouds 7 1024 42 10000 5.7 90 18:59 26.03.2020
5899 Clouds 7 1024 42 10000 6.2 90 18:41 26.03.2020
5900 Clouds 7 1024 42 10000 7.2 80 18:23 26.03.2020
5901 Clouds 7 1024 42 10000 5.7 80 17:55 26.03.2020
5902 Clouds 7 1024 42 10000 5.7 80 17:37 26.03.2020
5903 Clouds 7 1024 42 10000 7.2 80 17:18 26.03.2020
5904 Clouds 8 1024 39 10000 7.2 70 16:40 26.03.2020
5905 Clouds 8 1024 39 10000 8.7 70 16:21 26.03.2020
5906 Clouds 9 1024 39 10000 8.7 70 15:57 26.03.2020
5907 Clouds 9 1024 39 10000 7.2 80 15:39 26.03.2020
5908 Clouds 9 1024 39 10000 7.7 80 15:20 26.03.2020
5909 Clouds 10 1024 39 10000 7.7 80 14:57 26.03.2020
5910 Clouds 10 1024 39 10000 7.7 80 14:37 26.03.2020
5911 Clouds 10 1024 39 10000 8.7 90 14:18 26.03.2020
5912 Clouds 10 1024 37 10000 7.2 70 13:41 26.03.2020
5913 Clouds 11 1024 37 10000 7.2 70 13:22 26.03.2020
5914 Clouds 10 1025 42 10000 6.7 70 12:56 26.03.2020
5915 Clouds 10 1025 42 10000 7.2 70 12:37 26.03.2020
5916 Clouds 10 1025 42 10000 6.2 60 12:18 26.03.2020
5917 Clouds 9 1026 42 10000 5.7 70 11:44 26.03.2020
5918 Clouds 8 1026 39 10000 5.7 90 11:20 26.03.2020
5919 Clouds 8 1026 39 10000 5.7 90 10:55 26.03.2020
5920 Clouds 7 1026 39 10000 6.2 110 10:36 26.03.2020
5921 Clouds 7 1026 41 10000 6.2 100 10:18 26.03.2020
5922 Clouds 6 1026 44 10000 5.7 120 09:42 26.03.2020
5923 Clouds 5 1026 41 10000 4.6 100 09:19 26.03.2020
5924 Clouds 4 1026 44 10000 5.7 110 08:46 26.03.2020
5925 Clouds 3 1026 44 10000 5.7 110 08:27 26.03.2020
5926 Clear 1 1026 47 10000 5.1 120 07:58 26.03.2020
5927 Clear 0 1026 55 10000 4.1 100 07:40 26.03.2020
5928 Clear -1 1026 83 10000 3.1 120 07:20 26.03.2020
5929 Clear -1 1026 83 10000 3.1 120 07:20 26.03.2020
5930 Clear -2 1026 58 10000 1.5 100 06:46 26.03.2020
5931 Clear -3 1026 54 10000 2.6 100 05:52 26.03.2020
5932 Clear -2 1026 50 10000 2.6 110 03:58 26.03.2020
5933 Clear -2 1026 50 10000 1.5 100 03:35 26.03.2020
5934 Clear -2 1026 50 10000 2.1 80 02:53 26.03.2020
5935 Clear -2 1026 87 10000 1.5 90 01:50 26.03.2020
5936 Clear -1 1026 86 10000 3.1 90 00:45 26.03.2020
5937 Clear -1 1027 43 10000 3.1 100 23:47 25.03.2020
5938 Clear -1 1027 43 10000 4.1 100 23:28 25.03.2020
5939 Clear 0 1027 40 10000 3.6 100 22:58 25.03.2020
5940 Clear 0 1027 40 10000 3.6 100 22:38 25.03.2020
5941 Clear 0 1027 40 10000 3.1 100 22:20 25.03.2020
5942 Clear 0 1027 40 10000 3.1 100 21:55 25.03.2020
5943 Clear 0 1027 40 10000 3.6 100 21:37 25.03.2020
5944 Clear 1 1027 37 10000 4.1 100 21:19 25.03.2020
5945 Clear 1 1027 37 10000 4.1 100 21:19 25.03.2020
5946 Clear 2 1027 35 10000 4.6 100 20:54 25.03.2020
5947 Clear 2 1027 35 10000 4.6 100 20:36 25.03.2020
5948 Clear 3 1027 32 10000 5.1 90 20:18 25.03.2020
5949 Clear 4 1027 32 10000 5.7 100 19:42 25.03.2020
5950 Clear 4 1027 30 10000 7.2 90 19:22 25.03.2020
5951 Clear 4 1027 30 10000 7.2 90 18:57 25.03.2020
5952 Clear 5 1027 32 10000 6.7 90 18:38 25.03.2020
5953 Clear 5 1027 28 10000 8.7 80 18:20 25.03.2020
5954 Clear 6 1027 28 10000 8.2 80 17:55 25.03.2020
5955 Clear 7 1027 28 10000 8.2 80 17:36 25.03.2020
5956 Clear 7 1027 28 10000 8.2 80 17:18 25.03.2020
5957 Clear 8 1027 28 10000 8.7 80 16:43 25.03.2020
5958 Clear 8 1027 28 10000 8.7 80 16:43 25.03.2020
5959 Clear 8 1027 28 10000 8.7 80 16:23 25.03.2020
5960 Clear 8 1027 28 10000 8.7 80 15:57 25.03.2020
5961 Clear 8 1028 30 10000 9.3 70 15:38 25.03.2020
5962 Clear 8 1028 28 10000 8.7 80 15:19 25.03.2020
5963 Clear 9 1028 28 10000 8.2 70 14:42 25.03.2020
5964 Clear 8 1029 26 10000 7.7 90 14:22 25.03.2020
5965 Clear 9 1029 26 10000 7.7 90 13:56 25.03.2020
5966 Clear 9 1029 28 10000 7.7 70 13:38 25.03.2020
5967 Clear 8 1029 28 10000 6.2 70 13:19 25.03.2020
5968 Clear 8 1030 26 10000 5.1 90 12:37 25.03.2020
5969 Clear 7 1030 26 10000 3.6 80 12:19 25.03.2020
5970 Clear 7 1030 30 10000 4.1 70 11:55 25.03.2020
5971 Clear 7 1030 30 10000 4.1 70 11:36 25.03.2020
5972 Clear 5 1031 35 10000 4.1 80 11:18 25.03.2020
5973 Clear 4 1031 40 10000 4.1 80 10:56 25.03.2020
5974 Clear 4 1031 40 10000 4.1 80 10:37 25.03.2020
5975 Clear 4 1031 40 10000 4.6 90 10:18 25.03.2020
5976 Clear 3 1031 40 10000 4.6 80 09:42 25.03.2020
5977 Clear 2 1031 47 10000 4.1 100 09:23 25.03.2020
5978 Clear 1 1031 47 10000 4.1 100 08:56 25.03.2020
5979 Clear 0 1031 58 10000 3.1 80 08:38 25.03.2020
5980 Clear -1 1031 54 10000 1.5 60 08:19 25.03.2020
5981 Clear -2 1031 63 10000 1 0 07:41 25.03.2020
5982 Clear -4 1031 58 10000 1 0 07:22 25.03.2020
5983 Clear -5 1031 62 10000 2.6 90 06:50 25.03.2020
5984 Clear -5 1031 62 10000 2.6 90 06:28 25.03.2020
5985 Clear -5 1031 62 10000 2.1 100 05:56 25.03.2020
5986 Clear -5 1031 58 10000 1 120 05:30 25.03.2020
5987 Clear -4 1031 58 10000 1.5 110 04:39 25.03.2020
5988 Clear -4 1032 54 10000 1 100 03:49 25.03.2020
5989 Clear -4 1032 54 10000 1 100 03:28 25.03.2020
5990 Clear -3 1032 46 10000 0.5 0 01:25 25.03.2020
5991 Clear -2 1032 50 10000 1.5 110 00:49 25.03.2020
5992 Clear -3 1033 54 10000 2.6 90 00:25 25.03.2020
5993 Clear -2 1033 50 10000 2.1 90 23:46 24.03.2020
5994 Clear -2 1033 85 10000 0.5 0 23:28 24.03.2020
5995 Clear -2 1033 85 10000 0.5 0 22:57 24.03.2020
5996 Clear -1 1033 85 10000 2.1 60 22:38 24.03.2020
5997 Clear -1 1033 40 10000 2.6 90 22:19 24.03.2020
5998 Clear -1 1033 40 10000 2.6 90 22:19 24.03.2020
5999 Clear -1 1033 40 10000 2.6 90 21:57 24.03.2020
6000 Clear -1 1033 40 10000 2.1 100 21:38 24.03.2020
6001 Clear 0 1033 40 10000 4.1 80 21:18 24.03.2020
6002 Clear 0 1033 40 10000 4.1 80 20:57 24.03.2020
6003 Clear 0 1033 40 10000 5.1 70 20:39 24.03.2020
6004 Clear 1 1033 37 10000 4.6 60 20:21 24.03.2020
6005 Clear 2 1033 32 10000 6.2 80 19:45 24.03.2020
6006 Clear 2 1033 34 10000 4.6 80 19:20 24.03.2020
6007 Clear 3 1033 37 10000 6.2 70 18:56 24.03.2020
6008 Clear 3 1033 37 10000 6.2 70 18:37 24.03.2020
6009 Clear 4 1033 32 10000 6.2 80 18:19 24.03.2020
6010 Clear 5 1033 27 10000 6.7 70 17:56 24.03.2020
6011 Clear 5 1033 27 10000 6.7 70 17:37 24.03.2020
6012 Clear 6 1033 30 10000 6.7 70 17:19 24.03.2020
6013 Clear 6 1033 30 10000 6.7 70 16:56 24.03.2020
6014 Clear 7 1033 30 10000 6.7 70 16:37 24.03.2020
6015 Clear 7 1033 30 10000 6.7 70 16:19 24.03.2020
6016 Clear 7 1034 30 10000 6.2 80 15:42 24.03.2020
6017 Clear 7 1034 30 10000 7.2 80 15:23 24.03.2020
6018 Clear 7 1034 30 10000 6.2 80 14:44 24.03.2020
6019 Clear 7 1034 30 10000 6.2 80 14:23 24.03.2020
6020 Clear 7 1034 30 10000 6.2 70 13:59 24.03.2020
6021 Clear 7 1035 35 10000 5.7 80 13:41 24.03.2020
6022 Clear 6 1035 35 10000 4.6 80 13:22 24.03.2020
6023 Clear 6 1035 32 10000 5.1 0 12:43 24.03.2020
6024 Clear 6 1035 35 10000 6.2 90 12:25 24.03.2020
6025 Clear 5 1036 40 10000 6.7 90 11:56 24.03.2020
6026 Clear 4 1036 40 10000 6.7 90 11:37 24.03.2020
6027 Clear 4 1036 40 10000 7.2 80 11:18 24.03.2020
6028 Clear 3 1036 37 10000 7.2 90 10:41 24.03.2020
6029 Clear 3 1036 37 10000 6.7 70 10:19 24.03.2020
6030 Clear 3 1036 37 10000 6.7 70 10:19 24.03.2020
6031 Clear 2 1036 40 10000 4.6 80 09:48 24.03.2020
6032 Clear 1 1036 40 10000 4.6 80 09:27 24.03.2020
6033 Clear 1 1036 30 10000 3.1 40 08:58 24.03.2020
6034 Clear 0 1036 54 10000 2.1 50 08:38 24.03.2020
6035 Clear -2 1036 58 10000 1 0 08:20 24.03.2020
6036 Clear -3 1036 54 10000 0.5 0 07:45 24.03.2020
6037 Clear -5 1036 58 10000 1.48 76 07:23 24.03.2020
6038 Clear -6 1036 62 10000 1 0 06:42 24.03.2020
6039 Clear -6 1036 58 10000 1 10 06:24 24.03.2020
6040 Clear -5 1035 58 10000 1.5 170 04:57 24.03.2020
6041 Clear -5 1035 58 10000 1 140 03:48 24.03.2020
6042 Clear -5 995 66 0 1.34 106 02:49 24.03.2020
6043 Clear -5 1036 58 10000 1.5 90 01:42 24.03.2020
6044 Clear -4 1036 58 10000 2.1 70 00:44 24.03.2020
6045 Clear -4 1036 58 10000 2.1 70 00:23 24.03.2020
6046 Clear -3 1036 54 10000 2.1 100 23:44 23.03.2020
6047 Clear -3 1036 54 10000 1.5 100 23:26 23.03.2020
6048 Clear -3 1036 54 10000 2.1 120 22:55 23.03.2020
6049 Clear -3 1036 54 10000 2.1 120 22:55 23.03.2020
6050 Clear -3 1036 54 10000 2.1 120 22:37 23.03.2020
6051 Clear -3 996 58 0 3.24 111 22:19 23.03.2020
6052 Clear -2 1036 46 10000 2.1 100 21:43 23.03.2020
6053 Clear -2 996 59 0 3.24 111 21:20 23.03.2020
6054 Clear -2 1036 53 10000 2.1 140 20:58 23.03.2020
6055 Clear -1 1036 53 10000 3.1 60 20:39 23.03.2020
6056 Clear -1 1036 51 10000 3.1 60 20:21 23.03.2020
6057 Clear -1 1036 40 10000 2.6 70 19:46 23.03.2020
6058 Clear 0 1036 40 10000 3.1 80 19:27 23.03.2020
6059 Clear 1 1036 40 10000 3.1 80 18:59 23.03.2020
6060 Clear 1 1035 37 10000 3.6 80 18:41 23.03.2020
6061 Clear 2 1035 34 10000 4.1 70 18:22 23.03.2020
6062 Clear 3 1035 32 10000 5.7 70 17:56 23.03.2020
6063 Clear 3 1035 32 10000 5.7 70 17:38 23.03.2020
6064 Clear 4 1035 29 10000 5.7 60 17:18 23.03.2020
6065 Clear 4 1035 32 10000 5.7 60 16:43 23.03.2020
6066 Clear 5 1035 32 10000 5.7 60 16:24 23.03.2020
6067 Clear 5 1036 32 10000 4.6 50 15:43 23.03.2020
6068 Clear 4 1036 32 10000 4.6 80 15:21 23.03.2020
6069 Clear 5 1036 32 10000 4.6 80 14:57 23.03.2020
6070 Clear 5 1036 32 10000 4.1 80 14:37 23.03.2020
6071 Clear 5 1036 32 10000 4.6 60 14:18 23.03.2020
6072 Clear 5 1037 34 10000 5.7 90 13:41 23.03.2020
6073 Clear 4 1037 34 10000 5.7 90 13:22 23.03.2020
6074 Clear 4 1037 34 10000 4.6 60 12:58 23.03.2020
6075 Clear 4 1037 34 10000 6.2 80 12:40 23.03.2020
6076 Clear 4 1038 34 10000 6.2 80 12:22 23.03.2020
6077 Clear 4 1038 34 10000 7.2 60 11:42 23.03.2020
6078 Clear 3 1038 34 10000 5.7 60 11:21 23.03.2020
6079 Clear 3 1038 34 10000 6.7 80 10:58 23.03.2020
6080 Clear 2 1038 34 10000 6.7 80 10:40 23.03.2020
6081 Clear 2 1038 43 10000 4.6 80 10:21 23.03.2020
6082 Clear 2 1038 43 10000 4.6 80 09:58 23.03.2020
6083 Clear 2 1039 43 10000 2.1 70 09:40 23.03.2020
6084 Clear 1 1039 33 10000 2.1 60 09:19 23.03.2020
6085 Clear -2 1038 58 0 2.1 60 08:38 23.03.2020
6086 Clear -2 1038 58 10000 1.5 80 08:19 23.03.2020
6087 Clear -3 1038 63 0 1.5 50 07:51 23.03.2020
6088 Clear -4 1038 63 0 1.5 50 07:32 23.03.2020
6089 Clear -6 1038 67 10000 2.1 100 06:55 23.03.2020
6090 Clear -6 1038 67 10000 2.1 100 06:32 23.03.2020
6091 Clear -6 1037 62 10000 2.1 90 05:43 23.03.2020
6092 Clear -5 1037 58 10000 1 60 03:54 23.03.2020
6093 Clear -5 1037 58 10000 1.5 60 02:43 23.03.2020
6094 Clear -5 1037 53 10000 1 50 01:42 23.03.2020
6095 Clear -4 1037 53 10000 1 90 00:45 23.03.2020
6096 Clear -4 1037 53 10000 1.5 60 00:26 23.03.2020
6097 Clear -4 1037 46 10000 2.1 70 23:42 22.03.2020
6098 Clear -3 1037 46 10000 1.5 90 23:24 22.03.2020
6099 Clear -3 1037 46 10000 1.5 100 22:41 22.03.2020
6100 Clear -3 1037 42 10000 1.5 100 22:20 22.03.2020
6101 Clear -3 1037 42 10000 2.1 80 21:41 22.03.2020
6102 Clear -2 1036 50 10000 2.1 80 21:23 22.03.2020
6103 Clear -2 1036 50 10000 2.1 80 20:58 22.03.2020
6104 Clear -2 1036 46 10000 1.5 60 20:40 22.03.2020
6105 Clear -2 1036 46 10000 1.5 60 20:22 22.03.2020
6106 Clear -1 1036 46 10000 2.1 60 19:56 22.03.2020
6107 Clear -1 1035 46 10000 2.1 60 19:38 22.03.2020
6108 Clear -1 1035 40 10000 2.6 80 19:19 22.03.2020
6109 Clear 0 1035 40 10000 2.6 80 18:57 22.03.2020
6110 Clear 1 1035 40 10000 3.1 80 18:39 22.03.2020
6111 Clear 1 1034 37 10000 4.1 60 18:20 22.03.2020
6112 Clear 2 1034 37 10000 4.1 60 17:57 22.03.2020
6113 Clear 2 1034 40 10000 5.1 60 17:38 22.03.2020
6114 Clear 3 1034 34 10000 5.7 60 17:20 22.03.2020
6115 Clear 3 1034 34 10000 5.7 60 16:57 22.03.2020
6116 Clear 3 1034 43 10000 5.7 70 16:39 22.03.2020
6117 Clear 4 1034 40 10000 6.7 90 16:20 22.03.2020
6118 Clouds 4 1034 43 10000 5.7 70 15:40 22.03.2020
6119 Clouds 4 1034 44 10000 6.7 70 15:20 22.03.2020
6120 Clouds 4 1034 47 10000 6.2 60 14:46 22.03.2020
6121 Clouds 4 1034 47 10000 6.2 60 14:46 22.03.2020
6122 Clouds 4 1034 47 10000 5.7 40 14:19 22.03.2020
6123 Clouds 4 1034 47 10000 5.7 40 14:19 22.03.2020
6124 Clouds 4 1034 44 10000 4.6 70 13:44 22.03.2020
6125 Clouds 4 1034 44 10000 7.2 70 13:20 22.03.2020
6126 Clouds 4 1034 44 10000 7.2 70 13:20 22.03.2020
6127 Clouds 4 1034 44 10000 7.2 70 12:59 22.03.2020
6128 Clouds 4 1034 44 10000 7.2 60 12:41 22.03.2020
6129 Clouds 4 1034 47 10000 6.7 70 12:19 22.03.2020
6130 Clouds 3 1034 51 10000 5.7 40 11:43 22.03.2020
6131 Clouds 3 1034 55 10000 5.1 70 11:25 22.03.2020
6132 Clouds 2 1034 55 10000 5.1 70 10:58 22.03.2020
6133 Clouds 2 1033 51 10000 6.2 70 10:40 22.03.2020
6134 Clouds 1 1033 59 10000 4.6 70 10:22 22.03.2020
6135 Clouds 2 1033 51 10000 6.2 70 10:22 22.03.2020
6136 Clouds 1 1033 45 10000 5.1 80 09:47 22.03.2020
6137 Clouds 1 1033 45 10000 5.1 80 09:28 22.03.2020
6138 Clouds 0 1033 74 10000 6.2 70 08:51 22.03.2020
6139 Clouds -1 1033 74 10000 4.1 60 08:32 22.03.2020
6140 Clear -2 1033 79 10000 2.1 60 07:56 22.03.2020
6141 Clear -3 1033 79 10000 2.1 50 07:38 22.03.2020
6142 Clouds -4 1032 79 10000 2.1 50 06:48 22.03.2020
6143 Clear -4 1032 79 10000 2.1 50 05:52 22.03.2020
6144 Clear -4 1031 73 10000 2.1 40 04:39 22.03.2020
6145 Clear -3 1031 68 10000 3.1 40 01:49 22.03.2020
6146 Clear -2 1031 63 10000 1 50 00:51 22.03.2020
6147 Clear -2 1031 63 10000 1 50 00:32 22.03.2020
6148 Clear -2 1030 62 10000 1 0 23:47 21.03.2020
6149 Clear -2 1030 62 10000 0.5 0 23:23 21.03.2020
6150 Clear -1 1030 64 10000 0.5 0 22:59 21.03.2020
6151 Clear -1 1030 64 10000 0.5 0 22:38 21.03.2020
6152 Clear -1 1030 64 10000 1 100 22:20 21.03.2020
6153 Clear -1 1030 64 10000 1 100 21:59 21.03.2020
6154 Clear -1 1030 64 10000 1.5 70 21:39 21.03.2020
6155 Clear 0 1030 64 10000 1.5 60 21:21 21.03.2020
6156 Clear 0 1030 59 10000 3.1 70 20:45 21.03.2020
6157 Clear 0 1029 59 10000 3.6 60 20:23 21.03.2020
6158 Clouds 0 1029 59 10000 3.6 60 19:57 21.03.2020
6159 Clouds 1 1029 55 10000 2.6 60 19:38 21.03.2020
6160 Clouds 2 1029 55 10000 3.1 50 19:19 21.03.2020
6161 Clouds 2 1028 51 10000 3.1 50 18:54 21.03.2020
6162 Clouds 3 1028 51 10000 3.1 50 18:36 21.03.2020
6163 Clouds 3 1028 51 10000 3.6 50 18:18 21.03.2020
6164 Clouds 4 1028 48 10000 3.6 50 17:42 21.03.2020
6165 Clouds 4 1028 48 10000 4.6 60 17:23 21.03.2020
6166 Clouds 4 1028 51 10000 5.1 60 16:56 21.03.2020
6167 Clouds 4 1028 51 10000 5.1 60 16:38 21.03.2020
6168 Clouds 4 1028 48 10000 6.2 70 16:18 21.03.2020
6169 Clouds 4 1028 51 10000 6.2 40 15:41 21.03.2020
6170 Clouds 4 1028 51 10000 6.2 40 15:23 21.03.2020
6171 Clouds 4 1028 48 10000 7.2 50 14:58 21.03.2020
6172 Clouds 4 1028 55 10000 5.1 50 14:40 21.03.2020
6173 Clouds 4 1028 64 10000 7.2 60 14:20 21.03.2020
6174 Clouds 4 1028 64 10000 7.2 60 13:59 21.03.2020
6175 Clouds 4 1028 60 10000 6.7 70 13:40 21.03.2020
6176 Clouds 4 1028 64 10000 7.2 50 13:22 21.03.2020
6177 Clouds 4 1028 64 10000 7.2 50 12:59 21.03.2020
6178 Clouds 4 1028 69 10000 6.7 60 12:38 21.03.2020
6179 Clouds 4 1028 69 10000 7.2 70 12:19 21.03.2020
6180 Clouds 4 1028 64 10000 6.7 50 11:56 21.03.2020
6181 Clouds 4 1028 64 10000 6.7 50 11:38 21.03.2020
6182 Clouds 4 1027 64 10000 7.7 60 11:19 21.03.2020
6183 Clouds 4 1027 64 10000 8.2 50 10:57 21.03.2020
6184 Clouds 4 1027 64 10000 8.2 50 10:38 21.03.2020
6185 Clouds 4 1027 65 10000 7.7 40 10:19 21.03.2020
6186 Clouds 4 1027 65 10000 7.7 40 09:56 21.03.2020
6187 Clouds 4 1026 84 10000 7.2 50 09:37 21.03.2020
6188 Clouds 3 1026 84 10000 6.7 50 09:19 21.03.2020
6189 Clouds 3 1026 84 10000 6.2 40 08:44 21.03.2020
6190 Clouds 3 1026 84 10000 6.2 40 08:44 21.03.2020
6191 Clouds 3 1026 79 10000 6.2 40 08:25 21.03.2020
6192 Clouds 3 1026 86 10000 6.7 50 07:47 21.03.2020
6193 Clouds 3 1026 86 10000 6.7 50 07:28 21.03.2020
6194 Clouds 3 1025 86 10000 5.7 40 06:48 21.03.2020
6195 Clouds 3 1025 86 10000 5.7 40 06:29 21.03.2020
6196 Clouds 3 1025 93 10000 5.1 40 05:48 21.03.2020
6197 Clouds 3 1025 93 10000 5.7 30 05:18 21.03.2020
6198 Clouds 3 1024 93 9000 3.6 20 03:32 21.03.2020
6199 Rain 3 1025 93 10000 3.1 20 02:35 21.03.2020
6200 Rain 3 1025 93 10000 3.1 20 01:40 21.03.2020
6201 Rain 3 1025 93 10000 2.1 10 01:20 21.03.2020
6202 Rain 3 1025 93 10000 3.1 30 00:38 21.03.2020
6203 Rain 3 1025 93 10000 2.6 350 23:59 20.03.2020
6204 Rain 3 1025 93 10000 2.6 10 23:41 20.03.2020
6205 Drizzle 4 1025 93 10000 4.1 20 23:20 20.03.2020
6206 Rain 4 1025 93 10000 4.1 20 22:43 20.03.2020
6207 Rain 4 1025 93 10000 4.1 20 22:24 20.03.2020
6208 Rain 4 1025 80 10000 4.1 350 21:58 20.03.2020
6209 Rain 4 1024 80 10000 2.1 360 21:39 20.03.2020
6210 Clouds 4 1024 83 10000 2.1 360 21:19 20.03.2020
6211 Clouds 4 1024 83 10000 2.1 360 20:57 20.03.2020
6212 Clouds 4 1024 83 10000 2.6 10 20:39 20.03.2020
6213 Clouds 4 1024 86 10000 3.6 40 20:19 20.03.2020
6214 Clouds 4 1024 86 10000 5.1 50 19:46 20.03.2020
6215 Clouds 5 1024 75 10000 5.1 30 19:20 20.03.2020
6216 Clouds 5 1024 75 10000 5.1 30 18:57 20.03.2020
6217 Clouds 5 1024 75 10000 6.2 20 18:38 20.03.2020
6218 Rain 5 1024 80 10000 5.7 10 18:19 20.03.2020
6219 Rain 6 1023 86 10000 4.1 20 17:56 20.03.2020
6220 Rain 6 1023 86 10000 4.1 20 17:37 20.03.2020
6221 Rain 6 1023 81 10000 4.6 20 17:18 20.03.2020
6222 Rain 6 1023 87 10000 4.6 10 16:41 20.03.2020
6223 Rain 7 1023 93 10000 3.1 10 16:21 20.03.2020
6224 Rain 7 1023 93 9000 3.1 30 15:45 20.03.2020
6225 Rain 7 1023 93 9000 3.1 30 15:23 20.03.2020
6226 Rain 8 1023 100 8000 4.1 20 14:59 20.03.2020
6227 Rain 8 1023 100 8000 4.1 20 14:59 20.03.2020
6228 Rain 7 1023 93 8000 4.1 30 14:41 20.03.2020
6229 Clouds 8 1023 100 8000 3.1 30 14:21 20.03.2020
6230 Clouds 8 1023 100 8000 3.1 30 14:20 20.03.2020
6231 Clouds 8 1023 100 7000 2.1 50 13:48 20.03.2020
6232 Clouds 8 1023 93 6000 3.1 40 13:24 20.03.2020
6233 Clouds 8 1023 93 6000 3.1 40 13:24 20.03.2020
6234 Clouds 8 1023 93 6000 3.1 40 12:58 20.03.2020
6235 Rain 7 1023 100 3700 4.1 70 12:38 20.03.2020
6236 Rain 8 1023 93 4000 4.1 20 12:20 20.03.2020
6237 Rain 8 1023 93 4300 3.6 50 11:39 20.03.2020
6238 Rain 8 1023 100 3500 4.1 40 11:21 20.03.2020
6239 Rain 8 1023 93 4500 2.6 40 10:56 20.03.2020
6240 Rain 8 1023 93 4500 2.6 40 10:38 20.03.2020
6241 Rain 8 1023 93 4700 2.1 60 10:18 20.03.2020
6242 Rain 8 1023 93 5000 3.6 70 09:46 20.03.2020
6243 Clouds 8 1023 93 6000 3.6 50 09:21 20.03.2020
6244 Clouds 8 1023 93 6000 3.6 50 08:58 20.03.2020
6245 Rain 8 1023 93 6000 3.6 50 08:39 20.03.2020
6246 Rain 8 1023 93 6000 3.1 60 08:19 20.03.2020
6247 Clouds 8 1023 93 6000 2.1 70 07:43 20.03.2020
6248 Clouds 8 1023 93 6000 2.1 70 07:25 20.03.2020
6249 Rain 8 1023 93 7000 2.1 360 06:43 20.03.2020
6250 Clouds 8 1023 93 10000 2.1 360 06:22 20.03.2020
6251 Clouds 8 1023 93 10000 1 20 04:48 20.03.2020
6252 Clouds 8 1023 87 10000 1 0 02:54 20.03.2020
6253 Clouds 8 1024 93 10000 0.5 50 01:51 20.03.2020
6254 Clouds 9 1024 87 0 1 0 00:46 20.03.2020
6255 Clouds 9 1024 87 10000 3.1 80 00:24 20.03.2020
6256 Clouds 9 1024 87 10000 3.1 70 23:42 19.03.2020
6257 Clouds 9 1024 87 10000 3.1 80 23:23 19.03.2020
6258 Rain 9 1024 81 10000 4.6 70 22:55 19.03.2020
6259 Rain 9 1024 81 10000 4.6 70 22:37 19.03.2020
6260 Rain 9 1024 81 10000 4.6 40 22:18 19.03.2020
6261 Rain 10 1024 71 10000 1 0 21:40 19.03.2020
6262 Rain 10 1024 62 10000 1.5 110 21:20 19.03.2020
6263 Rain 10 1024 62 10000 1.5 110 20:56 19.03.2020
6264 Rain 10 1024 66 10000 2.1 50 20:38 19.03.2020
6265 Clouds 10 1024 62 10000 1 40 20:19 19.03.2020
6266 Clouds 11 1024 62 10000 1 40 19:55 19.03.2020
6267 Clouds 11 1024 58 10000 0.5 0 19:37 19.03.2020
6268 Clouds 11 1024 58 10000 1 360 19:18 19.03.2020
6269 Clouds 12 1024 58 10000 1.5 340 18:42 19.03.2020
6270 Clouds 13 1024 58 10000 1.5 10 18:22 19.03.2020
6271 Clouds 13 1024 54 10000 2.1 350 17:58 19.03.2020
6272 Clouds 14 1024 54 10000 2.1 350 17:39 19.03.2020
6273 Rain 15 1023 51 10000 2.6 360 17:19 19.03.2020
6274 Rain 16 1024 51 10000 3.6 10 16:43 19.03.2020
6275 Rain 16 1024 51 10000 3.6 10 16:23 19.03.2020
6276 Rain 16 1024 54 10000 3.6 350 15:45 19.03.2020
6277 Rain 16 1024 51 10000 3.1 20 15:26 19.03.2020
6278 Rain 16 1024 51 10000 3.1 20 14:55 19.03.2020
6279 Clouds 16 1024 47 10000 3.6 350 14:37 19.03.2020
6280 Clouds 16 1024 51 10000 2.1 330 14:19 19.03.2020
6281 Clouds 16 1024 51 10000 2.1 330 14:19 19.03.2020
6282 Clouds 16 1024 54 10000 3.6 350 13:40 19.03.2020
6283 Clouds 16 1025 58 10000 2.6 330 13:19 19.03.2020
6284 Clouds 16 1025 54 10000 3.6 340 12:55 19.03.2020
6285 Clouds 16 1025 54 10000 3.6 340 12:37 19.03.2020
6286 Clouds 15 1025 51 10000 2.6 320 12:19 19.03.2020
6287 Clouds 15 1025 51 10000 3.6 310 11:41 19.03.2020
6288 Clouds 15 1025 58 10000 2.6 260 11:23 19.03.2020
6289 Rain 14 1025 58 10000 2.6 260 11:23 19.03.2020
6290 Rain 13 1025 66 10000 2.1 280 10:56 19.03.2020
6291 Rain 14 1025 66 10000 2.1 280 10:36 19.03.2020
6292 Rain 13 1025 66 10000 2.1 260 10:18 19.03.2020
6293 Rain 13 1025 71 10000 1.5 200 09:44 19.03.2020
6294 Rain 12 1025 71 10000 1.5 200 09:26 19.03.2020
6295 Rain 10 1025 76 10000 2.1 210 08:57 19.03.2020
6296 Rain 9 1025 81 10000 1.5 210 08:38 19.03.2020
6297 Clouds 8 1025 87 10000 3.6 200 08:18 19.03.2020
6298 Clouds 8 1025 81 10000 3.6 200 07:43 19.03.2020
6299 Clouds 7 1024 87 10000 2.1 200 07:22 19.03.2020
6300 Clouds 7 1024 87 10000 0.5 260 06:29 19.03.2020
6301 Clouds 7 1024 87 10000 3.6 210 05:25 19.03.2020
6302 Clouds 7 1024 87 10000 3.6 210 04:51 19.03.2020
6303 Clouds 7 1024 87 10000 3.6 210 04:24 19.03.2020
6304 Clouds 8 1024 81 10000 3.1 210 02:34 19.03.2020
6305 Clouds 8 1025 76 10000 3.6 210 00:55 19.03.2020
6306 Clouds 8 1025 76 10000 3.1 210 00:20 19.03.2020
6307 Clouds 8 1025 76 10000 3.6 200 23:46 18.03.2020
6308 Clouds 9 1025 76 10000 3.6 200 23:26 18.03.2020
6309 Clouds 9 1025 76 10000 3.1 200 22:44 18.03.2020
6310 Clouds 9 1025 76 10000 3.1 200 22:24 18.03.2020
6311 Clouds 9 1025 76 10000 3.1 200 21:59 18.03.2020
6312 Clouds 9 1025 71 10000 2.1 190 21:41 18.03.2020
6313 Clouds 10 1025 66 10000 1.5 210 21:21 18.03.2020
6314 Clouds 10 1025 78 0 3.51 229 20:57 18.03.2020
6315 Clouds 10 1025 77 0 3.51 229 20:39 18.03.2020
6316 Clouds 11 1025 66 10000 2.1 220 20:20 18.03.2020
6317 Clouds 11 1025 66 10000 2.1 220 19:55 18.03.2020
6318 Clouds 11 1025 62 10000 2.1 230 19:36 18.03.2020
6319 Clouds 11 1025 62 10000 1.5 240 19:18 18.03.2020
6320 Clouds 12 1025 58 10000 2.6 240 18:41 18.03.2020
6321 Clouds 13 1024 58 10000 3.1 240 18:20 18.03.2020
6322 Clouds 14 1024 55 10000 3.6 240 17:58 18.03.2020
6323 Clouds 15 1024 55 10000 3.6 240 17:39 18.03.2020
6324 Clouds 16 1025 55 10000 4.1 240 17:21 18.03.2020
6325 Clouds 17 1025 51 10000 4.6 240 16:55 18.03.2020
6326 Clouds 17 1025 51 10000 4.6 240 16:37 18.03.2020
6327 Clouds 17 1025 48 10000 5.1 250 16:19 18.03.2020
6328 Clouds 17 1025 48 10000 5.1 260 15:45 18.03.2020
6329 Clouds 17 1026 48 10000 4.6 250 15:20 18.03.2020
6330 Clouds 17 1026 48 10000 5.7 240 14:45 18.03.2020
6331 Clouds 17 1026 51 10000 5.1 240 14:22 18.03.2020
6332 Clear 17 1026 51 10000 5.1 240 13:59 18.03.2020
6333 Clear 17 1026 44 10000 4.6 230 13:37 18.03.2020
6334 Clear 17 1027 38 10000 4.1 260 13:19 18.03.2020
6335 Clear 16 1027 41 10000 4.1 230 12:41 18.03.2020
6336 Clear 16 1027 41 10000 4.6 240 12:20 18.03.2020
6337 Clear 15 1028 41 10000 5.1 220 11:40 18.03.2020
6338 Clear 15 1028 47 10000 4.6 220 11:21 18.03.2020
6339 Clouds 14 1028 54 10000 4.1 230 10:58 18.03.2020
6340 Clouds 14 1028 54 10000 4.1 230 10:39 18.03.2020
6341 Clouds 13 1028 62 10000 4.1 220 10:20 18.03.2020
6342 Clouds 13 1028 62 10000 4.1 220 09:56 18.03.2020
6343 Clouds 12 1028 71 10000 3.1 210 09:38 18.03.2020
6344 Clouds 11 1028 81 10000 3.6 210 09:20 18.03.2020
6345 Clouds 8 1028 81 10000 4.1 200 08:39 18.03.2020
6346 Clouds 7 1028 87 10000 4.1 200 08:21 18.03.2020
6347 Clouds 5 1028 93 10000 4.1 190 07:49 18.03.2020
6348 Clouds 5 1028 93 9000 4.6 190 07:31 18.03.2020
6349 Clouds 5 1028 93 9000 4.1 180 06:50 18.03.2020
6350 Clouds 5 1028 93 9000 4.1 180 06:31 18.03.2020
6351 Clouds 5 1028 93 10000 3.6 180 05:36 18.03.2020
6352 Clouds 5 1028 93 10000 4.6 190 04:29 18.03.2020
6353 Clouds 5 1028 93 10000 3.6 200 03:20 18.03.2020
6354 Clouds 5 1029 93 10000 3.6 200 02:32 18.03.2020
6355 Clouds 5 1029 93 10000 4.1 180 01:31 18.03.2020
6356 Clouds 5 1029 87 10000 2.6 190 00:42 18.03.2020
6357 Clouds 6 1029 93 10000 3.1 200 00:21 18.03.2020
6358 Clouds 6 1029 93 10000 3.1 200 23:40 17.03.2020
6359 Clouds 6 1029 93 10000 3.1 200 23:19 17.03.2020
6360 Clouds 6 1029 93 10000 3.1 200 22:42 17.03.2020
6361 Clouds 6 1029 93 10000 2.6 190 22:24 17.03.2020
6362 Clouds 6 1029 93 10000 3.1 200 21:43 17.03.2020
6363 Clouds 7 1029 93 10000 3.1 200 21:23 17.03.2020
6364 Clouds 7 1029 93 10000 3.1 210 20:57 17.03.2020
6365 Clouds 6 1029 93 10000 3.1 210 20:37 17.03.2020
6366 Rain 8 1029 87 10000 2.6 210 20:19 17.03.2020
6367 Rain 7 1029 87 10000 1.5 220 19:41 17.03.2020
6368 Rain 8 1028 87 10000 1.5 240 19:18 17.03.2020
6369 Rain 9 1028 81 10000 1 0 18:57 17.03.2020
6370 Rain 9 1028 81 10000 1 0 18:39 17.03.2020
6371 -273 0 0 0 0 0 18:21 17.03.2020
6372 Rain 11 1028 76 10000 3.1 300 17:56 17.03.2020
6373 Rain 11 1028 76 10000 3.1 300 17:37 17.03.2020
6374 Rain 12 1028 76 10000 3.6 300 17:18 17.03.2020
6375 Rain 12 1028 76 10000 3.6 270 16:41 17.03.2020
6376 Rain 12 1028 76 10000 3.6 290 16:19 17.03.2020
6377 Rain 12 1028 71 10000 4.6 290 15:45 17.03.2020
6378 Rain 12 1028 71 10000 4.6 290 15:22 17.03.2020
6379 Rain 12 1028 62 10000 4.1 310 14:44 17.03.2020
6380 Rain 12 1028 62 10000 4.1 310 14:26 17.03.2020
6381 Rain 12 1028 66 10000 4.1 320 13:58 17.03.2020
6382 Rain 12 1028 58 10000 2.6 330 13:40 17.03.2020
6383 Rain 13 1028 62 10000 3.1 320 13:21 17.03.2020
6384 Rain 13 1028 62 10000 4.6 290 12:44 17.03.2020
6385 Rain 13 1028 58 10000 4.1 290 12:24 17.03.2020
6386 Rain 13 1028 54 10000 2.1 260 11:56 17.03.2020
6387 Rain 12 1028 54 10000 2.1 260 11:38 17.03.2020
6388 Clouds 12 1028 54 10000 2.1 220 11:20 17.03.2020
6389 Rain 12 1027 54 10000 2.1 200 10:54 17.03.2020
6390 Clouds 12 1027 54 10000 2.1 200 10:36 17.03.2020
6391 Clouds 11 1027 57 10000 1.5 160 10:18 17.03.2020
6392 Rain 10 1027 61 10000 1 0 09:44 17.03.2020
6393 Clouds 9 988 76 0 1.34 201 09:20 17.03.2020
6394 Clouds 8 1027 65 10000 1 0 08:57 17.03.2020
6395 Rain 8 1027 85 10000 1.5 140 08:39 17.03.2020
6396 Clouds 6 1026 82 10000 1 150 08:18 17.03.2020
6397 Clouds 4 1026 69 10000 1 180 07:47 17.03.2020
6398 Clouds 5 1026 74 10000 1.5 150 07:20 17.03.2020
6399 Clouds 4 1026 74 10000 1.5 160 06:45 17.03.2020
6400 Clouds 4 1025 74 10000 2.1 170 06:24 17.03.2020
6401 Clouds 4 1025 74 10000 3.1 160 05:18 17.03.2020
6402 Clouds 4 1025 69 10000 2.6 180 03:27 17.03.2020
6403 Clouds 5 1025 69 10000 1.5 170 01:50 17.03.2020
6404 Clouds 5 1025 69 10000 1.5 170 01:30 17.03.2020
6405 Clouds 5 1024 60 10000 2.6 150 00:51 17.03.2020
6406 Clouds 6 1024 60 10000 1.5 150 23:52 16.03.2020
6407 Clouds 6 1024 60 10000 1.5 150 23:34 16.03.2020
6408 Clouds 7 1024 56 10000 2.6 160 22:55 16.03.2020
6409 Clouds 7 1024 56 10000 2.6 160 22:37 16.03.2020
6410 Clouds 7 1024 56 10000 2.1 160 22:19 16.03.2020
6411 Clouds 7 1023 56 10000 2.6 160 21:44 16.03.2020
6412 Clouds 7 1023 52 10000 3.6 160 21:25 16.03.2020
6413 Clouds 8 1023 52 10000 2.6 150 20:58 16.03.2020
6414 Clouds 8 1023 52 10000 2.6 150 20:38 16.03.2020
6415 Clouds 8 1023 52 10000 2.6 150 20:38 16.03.2020
6416 Clouds 8 1022 49 10000 1.5 120 20:20 16.03.2020
6417 Clouds 8 1022 49 10000 5.1 150 19:44 16.03.2020
6418 Clouds 9 1022 81 10000 3.6 140 19:23 16.03.2020
6419 Clouds 9 1022 81 10000 3.6 140 18:57 16.03.2020
6420 Clouds 10 1021 81 10000 4.1 140 18:39 16.03.2020
6421 Clouds 11 1021 81 10000 3.6 140 18:19 16.03.2020
6422 Clouds 12 1021 43 10000 3.1 130 17:46 16.03.2020
6423 Clouds 13 1021 41 10000 3.1 130 17:25 16.03.2020
6424 Clouds 15 1020 38 10000 1.5 220 16:56 16.03.2020
6425 Clouds 15 1020 38 10000 1.5 220 16:37 16.03.2020
6426 Clouds 15 1020 60 10000 2.6 200 16:19 16.03.2020
6427 Clouds 16 1020 60 10000 3.1 170 15:42 16.03.2020
6428 Clouds 16 1020 60 10000 3.1 170 15:23 16.03.2020
6429 Clouds 16 1020 60 10000 3.1 150 14:45 16.03.2020
6430 Clouds 16 1020 53 10000 2.6 160 14:20 16.03.2020
6431 Clouds 14 1019 33 10000 2.6 160 13:47 16.03.2020
6432 Clouds 15 1019 33 10000 2.6 160 13:27 16.03.2020
6433 Clouds 15 1019 33 10000 3.6 150 12:57 16.03.2020
6434 Clouds 14 1019 32 10000 4.6 160 12:38 16.03.2020
6435 Clouds 14 1019 32 10000 5.1 140 12:20 16.03.2020
6436 Clouds 13 1019 34 10000 5.7 150 11:43 16.03.2020
6437 Clouds 13 1019 34 10000 4.6 150 11:23 16.03.2020
6438 Clouds 9 1019 36 10000 5.7 150 10:44 16.03.2020
6439 Clouds 11 1019 36 10000 5.7 150 10:24 16.03.2020
6440 Clouds 8 1019 36 10000 5.1 150 09:49 16.03.2020
6441 Clouds 8 1019 36 10000 5.1 150 09:30 16.03.2020
6442 Clouds 7 1019 38 10000 7.2 150 08:59 16.03.2020
6443 Clouds 6 1019 38 10000 7.7 150 08:40 16.03.2020
6444 Clouds 4 1018 41 10000 8.2 160 08:21 16.03.2020
6445 Clouds 4 1018 41 10000 7.2 150 07:42 16.03.2020
6446 Clouds 3 1018 44 10000 8.2 160 07:19 16.03.2020
6447 Clouds 2 1017 44 10000 7.2 160 06:29 16.03.2020
6448 Clouds 2 1017 44 10000 7.7 160 05:59 16.03.2020
6449 Clouds 2 1017 47 10000 8.2 150 04:26 16.03.2020
6450 Clouds 3 1017 44 10000 8.7 150 01:46 16.03.2020
6451 Clouds 4 1017 41 10000 8.2 150 00:45 16.03.2020
6452 Clouds 4 1017 41 10000 8.2 160 00:27 16.03.2020
6453 Clouds 4 1017 41 10000 8.7 160 23:40 15.03.2020
6454 Clouds 4 1017 38 10000 8.7 150 23:19 15.03.2020
6455 Clouds 5 1017 38 10000 7.7 160 22:42 15.03.2020
6456 Clouds 5 1017 38 10000 6.2 160 22:21 15.03.2020
6457 Clouds 5 1017 36 10000 6.7 170 21:39 15.03.2020
6458 Clouds 6 1017 36 10000 6.7 170 21:21 15.03.2020
6459 Clouds 6 1017 36 10000 6.7 170 20:58 15.03.2020
6460 Clouds 6 1017 39 10000 6.7 170 20:40 15.03.2020
6461 Clouds 6 1017 39 10000 6.7 170 20:19 15.03.2020
6462 Clouds 6 1017 39 10000 6.7 170 19:55 15.03.2020
6463 Clouds 6 1017 39 10000 7.7 160 19:37 15.03.2020
6464 Clouds 6 1017 36 10000 6.7 160 19:18 15.03.2020
6465 Clouds 7 1017 36 10000 6.7 150 18:42 15.03.2020
6466 Clouds 7 1017 36 10000 6.7 150 18:24 15.03.2020
6467 Clouds 8 1018 33 10000 5.7 150 17:59 15.03.2020
6468 Clouds 9 1018 31 10000 6.7 160 17:39 15.03.2020
6469 Clouds 9 1019 31 10000 5.7 150 17:20 15.03.2020
6470 Clouds 9 1019 31 10000 6.2 160 16:56 15.03.2020
6471 Clouds 10 1019 31 10000 6.2 160 16:37 15.03.2020
6472 Clouds 10 1019 31 10000 7.2 160 16:18 15.03.2020
6473 Clouds 10 1020 31 10000 6.7 160 15:43 15.03.2020
6474 Clouds 10 1020 31 10000 8.2 160 15:25 15.03.2020
6475 Clouds 10 1020 31 10000 8.2 160 14:55 15.03.2020
6476 Clouds 10 1020 29 10000 7.2 170 14:37 15.03.2020
6477 Clouds 10 1021 29 10000 7.7 160 14:18 15.03.2020
6478 Clouds 10 1021 26 10000 6.7 160 13:40 15.03.2020
6479 Clouds 10 1022 26 10000 8.7 160 13:21 15.03.2020
6480 Clouds 10 1022 26 10000 8.7 160 12:59 15.03.2020
6481 Clouds 9 1022 26 10000 9.3 160 12:39 15.03.2020
6482 Clouds 9 1022 26 10000 7.7 160 12:21 15.03.2020
6483 Clouds 9 1023 28 10000 8.7 170 11:43 15.03.2020
6484 Clouds 9 1023 33 10000 8.2 160 11:24 15.03.2020
6485 Clouds 7 1023 38 10000 8.7 160 10:57 15.03.2020
6486 Clouds 7 1023 38 10000 8.7 160 10:39 15.03.2020
6487 Clouds 7 1023 41 10000 8.7 160 10:20 15.03.2020
6488 Clouds 6 1023 44 10000 8.2 160 09:42 15.03.2020
6489 Clouds 5 1023 44 10000 8.2 160 09:23 15.03.2020
6490 Clouds 4 1023 44 10000 8.2 160 08:58 15.03.2020
6491 Clouds 3 1024 48 10000 7.2 170 08:40 15.03.2020
6492 Clear 3 1024 51 10000 6.7 170 08:18 15.03.2020
6493 Clear 2 1024 55 10000 6.2 170 07:44 15.03.2020
6494 Clear 0 1024 59 10000 6.2 170 06:59 15.03.2020
6495 Clear 0 1024 55 10000 6.7 170 06:36 15.03.2020
6496 Clear 0 1024 55 10000 6.2 160 05:46 15.03.2020
6497 Clear 0 1024 47 10000 6.2 150 04:50 15.03.2020
6498 Clear 1 1024 47 10000 6.2 150 04:32 15.03.2020
6499 Clear 0 1024 50 10000 5.7 160 03:59 15.03.2020
6500 Clear 0 1024 55 10000 5.7 160 02:48 15.03.2020
6501 Clouds 0 1024 51 10000 4.6 160 02:18 15.03.2020
6502 Clouds 0 1025 55 10000 4.6 150 00:57 15.03.2020
6503 Clouds -1 1025 55 10000 3.6 150 00:38 15.03.2020
6504 Clouds 0 1025 55 10000 4.1 150 00:18 15.03.2020
6505 Clouds 0 986 74 0 1.79 104 23:38 14.03.2020
6506 Clouds 0 1025 55 10000 4.1 150 23:19 14.03.2020
6507 Clouds 0 1025 51 10000 3.1 160 22:55 14.03.2020
6508 Clouds 0 985 80 0 1.79 119 22:37 14.03.2020
6509 Clouds 0 1025 51 10000 3.1 160 22:19 14.03.2020
6510 Clouds 0 1025 51 10000 3.1 160 21:54 14.03.2020
6511 Clouds 1 1025 51 10000 2.6 150 21:36 14.03.2020
6512 Clouds 1 1025 59 10000 2.6 150 21:18 14.03.2020
6513 Clouds 1 1025 55 10000 2.6 120 20:55 14.03.2020
6514 Clouds 1 1025 55 10000 2.6 120 20:36 14.03.2020
6515 Clouds 1 1025 55 10000 2.1 110 20:18 14.03.2020
6516 Clouds 2 1025 51 10000 2.1 110 19:40 14.03.2020
6517 Clouds 3 1024 48 10000 3.1 100 19:20 14.03.2020
6518 Clouds 4 1024 44 10000 2.6 100 18:39 14.03.2020
6519 Clouds 5 1024 44 10000 3.1 80 18:20 14.03.2020
6520 Clouds 6 1024 41 10000 4.1 90 17:42 14.03.2020
6521 Clouds 7 1024 45 10000 3.1 80 17:21 14.03.2020
6522 Clouds 7 1023 42 10000 3.1 80 16:58 14.03.2020
6523 Clouds 7 1023 42 10000 3.1 80 16:38 14.03.2020
6524 Clouds 8 1024 42 10000 3.1 70 16:19 14.03.2020
6525 Clouds 7 1024 39 10000 3.1 50 15:44 14.03.2020
6526 Clouds 8 1024 36 10000 3.1 60 15:22 14.03.2020
6527 Clouds 7 1024 36 10000 2.6 40 14:43 14.03.2020
6528 Clouds 7 1024 41 10000 2.1 80 14:21 14.03.2020
6529 Clouds 7 1024 41 10000 2.1 80 13:57 14.03.2020
6530 Clouds 7 1024 45 10000 2.6 30 13:38 14.03.2020
6531 Clouds 7 1024 41 10000 2.6 30 13:20 14.03.2020
6532 Clouds 6 1024 41 10000 2.1 0 12:44 14.03.2020
6533 Clouds 6 1024 44 10000 2.6 130 12:26 14.03.2020
6534 Clouds 6 1024 48 10000 2.1 0 11:47 14.03.2020
6535 Clouds 6 1024 48 10000 1.5 0 11:26 14.03.2020
6536 Clouds 5 1024 48 10000 2.1 50 10:59 14.03.2020
6537 Clouds 4 1024 48 10000 2.1 50 10:40 14.03.2020
6538 Clouds 4 1024 60 10000 2.1 60 10:22 14.03.2020
6539 Clouds 4 1024 64 10000 2.6 40 09:43 14.03.2020
6540 Clouds 3 1024 69 10000 1.5 40 09:24 14.03.2020
6541 Clouds 2 1023 74 10000 1 0 08:47 14.03.2020
6542 Clouds 2 1023 74 10000 1 0 08:29 14.03.2020
6543 Clouds 0 984 89 0 1.03 321 07:55 14.03.2020
6544 Clouds 0 1022 96 10000 0.5 0 07:37 14.03.2020
6545 Clouds 0 1022 96 10000 1 0 07:18 14.03.2020
6546 Clouds 0 1022 96 10000 2.1 340 06:40 14.03.2020
6547 Clouds 1 1021 80 10000 1 0 05:24 14.03.2020
6548 Clouds 3 1020 80 10000 3.6 310 03:46 14.03.2020
6549 Clouds 3 1020 93 10000 3.6 310 03:24 14.03.2020
6550 Clouds 4 1020 93 10000 3.6 300 02:22 14.03.2020
6551 Clouds 4 1019 86 10000 4.6 290 00:49 14.03.2020
6552 Clouds 4 1018 86 10000 4.6 280 23:50 13.03.2020
6553 Clouds 4 1018 86 10000 4.6 280 23:30 13.03.2020
6554 Rain 4 1018 80 10000 5.1 270 22:52 13.03.2020
6555 Rain 4 1018 80 10000 5.1 270 22:26 13.03.2020
6556 Rain 4 1017 80 10000 6.2 270 21:44 13.03.2020
6557 Clouds 5 1016 80 10000 6.2 270 21:22 13.03.2020
6558 Rain 5 1016 80 10000 6.2 270 20:59 13.03.2020
6559 Rain 5 1016 80 10000 7.7 270 20:41 13.03.2020
6560 Rain 5 1016 80 10000 6.2 280 20:21 13.03.2020
6561 Clouds 5 1015 80 10000 4.1 270 19:48 13.03.2020
6562 Clouds 5 1015 80 10000 4.1 270 19:30 13.03.2020
6563 Rain 5 1015 80 5000 5.1 300 18:49 13.03.2020
6564 Rain 6 1015 80 5000 5.1 300 18:31 13.03.2020
6565 Rain 7 1015 80 10000 8.7 300 17:59 13.03.2020
6566 Rain 8 1014 52 10000 8.2 280 17:41 13.03.2020
6567 Clouds 8 1013 52 10000 8.7 260 17:20 13.03.2020
6568 Clouds 8 1013 63 10000 9.3 260 16:42 13.03.2020
6569 Clouds 8 1013 63 10000 9.3 260 16:24 13.03.2020
6570 Clouds 8 1013 63 10000 11.3 260 15:59 13.03.2020
6571 Clouds 8 1013 63 10000 8.7 260 15:39 13.03.2020
6572 Clouds 8 1013 63 10000 8.2 250 15:20 13.03.2020
6573 Clouds 8 1013 52 10000 9.3 260 14:44 13.03.2020
6574 Clouds 8 1013 52 10000 9.3 260 14:23 13.03.2020
6575 Clouds 8 1013 49 10000 9.8 260 13:58 13.03.2020
6576 Rain 8 1013 52 10000 9.3 250 13:40 13.03.2020
6577 Clouds 8 1013 52 10000 8.2 260 13:20 13.03.2020
6578 Clouds 8 1013 52 10000 8.7 260 12:55 13.03.2020
6579 Clouds 8 1013 52 10000 8.7 260 12:55 13.03.2020
6580 Clouds 8 1013 52 10000 8.7 260 12:37 13.03.2020
6581 Clouds 8 1013 52 10000 7.7 250 12:19 13.03.2020
6582 Clouds 8 1012 52 10000 7.7 250 11:45 13.03.2020
6583 Clouds 7 1012 56 10000 7.7 240 11:26 13.03.2020
6584 Clouds 7 1013 56 10000 7.7 240 10:59 13.03.2020
6585 Clouds 7 1013 56 10000 7.7 240 10:41 13.03.2020
6586 Clouds 7 1013 56 10000 6.7 240 10:23 13.03.2020
6587 Rain 6 1013 56 10000 8.2 240 09:45 13.03.2020
6588 Rain 7 1013 56 10000 8.2 240 09:26 13.03.2020
6589 Clear 5 1012 65 10000 7.2 240 08:56 13.03.2020
6590 Clear 5 1012 65 10000 7.2 240 08:37 13.03.2020
6591 Clouds 5 1012 65 10000 4.6 240 08:18 13.03.2020
6592 Clouds 4 1012 69 10000 5.1 250 07:43 13.03.2020
6593 Clouds 4 1012 65 10000 6.2 250 07:22 13.03.2020
6594 Clouds 4 1011 69 10000 4.6 250 06:46 13.03.2020
6595 Clouds 4 1011 78 10000 5.7 260 06:21 13.03.2020
6596 Clouds 5 1011 78 10000 5.7 270 05:44 13.03.2020
6597 Clouds 5 1010 70 10000 4.1 250 04:39 13.03.2020
6598 Clouds 5 1010 80 10000 3.1 210 03:51 13.03.2020
6599 Clouds 5 1011 65 10000 2.6 260 02:29 13.03.2020
6600 Rain 5 1011 60 10000 3.1 280 01:37 13.03.2020
6601 Rain 6 1011 60 10000 4.6 280 01:18 13.03.2020
6602 Rain 6 1011 77 10000 6.7 290 00:39 13.03.2020
6603 Rain 7 1010 70 10000 4.1 240 00:19 13.03.2020
6604 Rain 6 1010 70 10000 3.6 230 23:38 12.03.2020
6605 Clouds 6 1010 78 10000 3.1 220 23:19 12.03.2020
6606 Clouds 6 1010 78 10000 4.1 210 22:46 12.03.2020
6607 Clouds 5 1010 78 10000 4.1 210 22:27 12.03.2020
6608 Clouds 5 1010 65 10000 4.1 180 21:56 12.03.2020
6609 Clouds 5 1010 60 10000 3.1 190 21:38 12.03.2020
6610 Clouds 5 1010 45 10000 3.1 210 21:20 12.03.2020
6611 Clouds 5 1010 41 10000 3.1 210 20:42 12.03.2020
6612 Rain 4 972 80 0 1.79 174 20:20 12.03.2020
6613 Rain 5 1010 69 0 3.51 271 19:56 12.03.2020
6614 Rain 5 1010 42 10000 2.6 250 19:37 12.03.2020
6615 Rain 5 972 80 0 1.34 200 19:18 12.03.2020
6616 Rain 7 1010 39 10000 4.6 280 18:41 12.03.2020
6617 Rain 8 1010 39 10000 5.7 280 18:22 12.03.2020
6618 Rain 9 1009 39 10000 6.2 280 17:56 12.03.2020
6619 Rain 9 1009 39 10000 6.2 280 17:37 12.03.2020
6620 Rain 9 1009 43 10000 6.7 290 17:18 12.03.2020
6621 Rain 9 1009 53 10000 7.2 280 16:41 12.03.2020
6622 Rain 9 1009 66 10000 6.7 270 16:22 12.03.2020
6623 Rain 9 1008 66 10000 6.2 270 15:49 12.03.2020
6624 Rain 9 1008 66 10000 6.2 270 15:28 12.03.2020
6625 Rain 9 1008 76 10000 7.2 280 14:58 12.03.2020
6626 Rain 9 1008 71 10000 7.7 280 14:38 12.03.2020
6627 Rain 10 1007 81 10000 7.2 270 14:19 12.03.2020
6628 Rain 11 1007 87 10000 7.2 270 13:40 12.03.2020
6629 Rain 11 1007 81 10000 10.3 290 13:21 12.03.2020
6630 Rain 11 1007 81 10000 10.3 290 13:21 12.03.2020
6631 Rain 12 1007 81 10000 10.3 290 12:55 12.03.2020
6632 Clouds 13 1006 54 10000 10.3 250 12:37 12.03.2020
6633 Clouds 14 1006 58 10000 8.7 250 12:18 12.03.2020
6634 Clouds 14 1006 58 10000 10.3 250 11:56 12.03.2020
6635 Clouds 14 1006 58 10000 10.3 250 11:37 12.03.2020
6636 Clouds 14 1006 62 10000 11.8 240 11:19 12.03.2020
6637 Clouds 14 1006 58 10000 9.8 230 10:55 12.03.2020
6638 Clouds 14 1006 58 10000 9.8 230 10:37 12.03.2020
6639 Clouds 14 1006 58 10000 8.7 240 10:18 12.03.2020
6640 Clouds 14 1006 58 10000 8.2 240 09:41 12.03.2020
6641 Clouds 13 1006 66 10000 8.2 230 09:23 12.03.2020
6642 Clouds 13 1006 66 10000 7.2 230 08:40 12.03.2020
6643 Clouds 12 1006 62 10000 7.7 230 08:19 12.03.2020
6644 Clouds 11 1006 66 10000 6.7 230 07:52 12.03.2020
6645 Clouds 11 1006 66 10000 7.2 220 07:23 12.03.2020
6646 Clouds 10 1007 76 10000 7.7 220 06:38 12.03.2020
6647 Clouds 11 1007 76 10000 7.7 220 05:40 12.03.2020
6648 Clouds 11 1008 76 10000 6.7 230 04:27 12.03.2020
6649 Clouds 11 1009 81 10000 7.2 220 02:34 12.03.2020
6650 Rain 10 1010 87 10000 6.2 220 01:30 12.03.2020
6651 Rain 10 1011 87 10000 3.6 230 00:42 12.03.2020
6652 Rain 10 1011 87 10000 4.1 230 00:24 12.03.2020
6653 Drizzle 10 1011 93 10000 3.1 220 23:42 11.03.2020
6654 Drizzle 10 1012 93 10000 3.1 200 23:23 11.03.2020
6655 Rain 10 1012 93 10000 3.1 220 22:45 11.03.2020
6656 Rain 10 1012 93 10000 3.1 220 22:27 11.03.2020
6657 Drizzle 10 1012 93 10000 5.1 220 21:59 11.03.2020
6658 Rain 10 1012 87 10000 4.1 200 21:41 11.03.2020
6659 Rain 10 1012 87 10000 5.1 200 21:22 11.03.2020
6660 Rain 10 1012 87 10000 5.1 200 21:22 11.03.2020
6661 Rain 10 1012 87 10000 5.1 200 20:58 11.03.2020
6662 Rain 9 1012 87 10000 4.6 200 20:39 11.03.2020
6663 Rain 9 1013 87 10000 4.6 210 20:19 11.03.2020
6664 Rain 9 1012 93 10000 3.6 210 19:44 11.03.2020
6665 Clouds 9 1012 87 10000 4.1 210 19:25 11.03.2020
6666 Clouds 10 1012 87 10000 4.1 210 18:59 11.03.2020
6667 Clouds 10 1012 81 10000 3.1 210 18:40 11.03.2020
6668 Clouds 10 1012 81 10000 3.1 210 18:40 11.03.2020
6669 Clouds 10 1012 87 10000 2.1 250 18:21 11.03.2020
6670 Clouds 10 1012 87 10000 2.1 250 17:58 11.03.2020
6671 Clouds 10 1012 76 10000 2.6 250 17:39 11.03.2020
6672 Rain 10 1012 81 10000 3.6 250 17:20 11.03.2020
6673 Clouds 10 1012 76 10000 3.6 260 16:46 11.03.2020
6674 Clouds 10 1012 76 10000 3.6 260 16:23 11.03.2020
6675 Clouds 11 1012 76 10000 4.1 270 15:57 11.03.2020
6676 Clouds 11 1012 81 10000 4.1 280 15:39 11.03.2020
6677 Rain 11 1011 81 10000 3.1 280 15:21 11.03.2020
6678 Clouds 11 1011 81 10000 3.6 250 14:42 11.03.2020
6679 Clouds 10 1011 76 10000 5.7 230 14:22 11.03.2020
6680 Rain 10 1011 76 10000 6.2 240 13:45 11.03.2020
6681 Clouds 10 1011 76 10000 6.2 240 13:27 11.03.2020
6682 Clouds 10 1011 76 10000 5.1 240 12:58 11.03.2020
6683 Clouds 10 1011 76 10000 5.1 230 12:40 11.03.2020
6684 Rain 9 1011 81 10000 4.6 240 12:20 11.03.2020
6685 Rain 9 1011 81 10000 5.1 240 11:55 11.03.2020
6686 Rain 9 1011 81 10000 5.1 240 11:37 11.03.2020
6687 Rain 9 1011 81 10000 5.7 240 11:18 11.03.2020
6688 Rain 8 1011 81 10000 4.6 250 10:42 11.03.2020
6689 Rain 8 1010 81 10000 4.6 250 10:18 11.03.2020
6690 Clouds 8 1010 87 10000 4.1 250 09:43 11.03.2020
6691 Clouds 8 1010 81 10000 3.6 250 09:25 11.03.2020
6692 Clouds 8 1010 81